<?xml version="1.0" encoding="UTF-8"?>
<gpx creator="StravaGPX" version="1.1" xmlns="http://www.topografix.com/GPX/1/1" xmlns:xsi="http://www.w3.org/2001/XMLSchema-instance" xsi:schemaLocation="http://www.topografix.com/GPX/1/1 http://www.topografix.com/GPX/1/1/gpx.xsd http://www.garmin.com/xmlschemas/GpxExtensions/v3 http://www.garmin.com/xmlschemas/GpxExtensionsv3.xsd http://www.garmin.com/xmlschemas/TrackPointExtension/v1 http://www.garmin.com/xmlschemas/TrackPointExtensionv1.xsd">
 <metadata>
  <time>2017-03-26T07:13:51Z</time>
 </metadata>
 <trk>
  <name>Усманский Бор</name>
  <trkseg>
   <trkpt lat="51.6953430" lon="39.2662300">
    <ele>106.0</ele>
    <time>2017-03-26T07:13:51Z</time>
   </trkpt>
   <trkpt lat="51.6953350" lon="39.2662410">
    <ele>106.0</ele>
    <time>2017-03-26T07:13:52Z</time>
   </trkpt>
   <trkpt lat="51.6952500" lon="39.2662500">
    <ele>105.8</ele>
    <time>2017-03-26T07:14:08Z</time>
   </trkpt>
   <trkpt lat="51.6951920" lon="39.2664160">
    <ele>105.5</ele>
    <time>2017-03-26T07:14:16Z</time>
   </trkpt>
   <trkpt lat="51.6952080" lon="39.2664340">
    <ele>105.6</ele>
    <time>2017-03-26T07:14:17Z</time>
   </trkpt>
   <trkpt lat="51.6954820" lon="39.2665340">
    <ele>106.0</ele>
    <time>2017-03-26T07:14:29Z</time>
   </trkpt>
   <trkpt lat="51.6956960" lon="39.2667100">
    <ele>106.0</ele>
    <time>2017-03-26T07:14:39Z</time>
   </trkpt>
   <trkpt lat="51.6959320" lon="39.2668760">
    <ele>106.8</ele>
    <time>2017-03-26T07:14:51Z</time>
   </trkpt>
   <trkpt lat="51.6962090" lon="39.2671190">
    <ele>107.9</ele>
    <time>2017-03-26T07:15:01Z</time>
   </trkpt>
   <trkpt lat="51.6965300" lon="39.2673740">
    <ele>108.4</ele>
    <time>2017-03-26T07:15:12Z</time>
   </trkpt>
   <trkpt lat="51.6966980" lon="39.2675460">
    <ele>108.0</ele>
    <time>2017-03-26T07:15:20Z</time>
   </trkpt>
   <trkpt lat="51.6966980" lon="39.2675880">
    <ele>108.2</ele>
    <time>2017-03-26T07:15:21Z</time>
   </trkpt>
   <trkpt lat="51.6966800" lon="39.2676760">
    <ele>108.6</ele>
    <time>2017-03-26T07:15:23Z</time>
   </trkpt>
   <trkpt lat="51.6966700" lon="39.2677190">
    <ele>108.8</ele>
    <time>2017-03-26T07:15:24Z</time>
   </trkpt>
   <trkpt lat="51.6966400" lon="39.2678030">
    <ele>109.0</ele>
    <time>2017-03-26T07:15:26Z</time>
   </trkpt>
   <trkpt lat="51.6966190" lon="39.2678330">
    <ele>108.9</ele>
    <time>2017-03-26T07:15:27Z</time>
   </trkpt>
   <trkpt lat="51.6966050" lon="39.2678710">
    <ele>109.0</ele>
    <time>2017-03-26T07:15:28Z</time>
   </trkpt>
   <trkpt lat="51.6965920" lon="39.2679180">
    <ele>109.0</ele>
    <time>2017-03-26T07:15:29Z</time>
   </trkpt>
   <trkpt lat="51.6965790" lon="39.2679570">
    <ele>109.2</ele>
    <time>2017-03-26T07:15:30Z</time>
   </trkpt>
   <trkpt lat="51.6965660" lon="39.2680090">
    <ele>109.5</ele>
    <time>2017-03-26T07:15:31Z</time>
   </trkpt>
   <trkpt lat="51.6965540" lon="39.2680780">
    <ele>110.0</ele>
    <time>2017-03-26T07:15:32Z</time>
   </trkpt>
   <trkpt lat="51.6965580" lon="39.2686810">
    <ele>110.0</ele>
    <time>2017-03-26T07:15:40Z</time>
   </trkpt>
   <trkpt lat="51.6965530" lon="39.2687610">
    <ele>110.4</ele>
    <time>2017-03-26T07:15:41Z</time>
   </trkpt>
   <trkpt lat="51.6965440" lon="39.2688360">
    <ele>110.4</ele>
    <time>2017-03-26T07:15:42Z</time>
   </trkpt>
   <trkpt lat="51.6965290" lon="39.2689020">
    <ele>110.4</ele>
    <time>2017-03-26T07:15:43Z</time>
   </trkpt>
   <trkpt lat="51.6965130" lon="39.2689730">
    <ele>110.0</ele>
    <time>2017-03-26T07:15:44Z</time>
   </trkpt>
   <trkpt lat="51.6964720" lon="39.2691920">
    <ele>109.1</ele>
    <time>2017-03-26T07:15:47Z</time>
   </trkpt>
   <trkpt lat="51.6964570" lon="39.2692610">
    <ele>109.0</ele>
    <time>2017-03-26T07:15:48Z</time>
   </trkpt>
   <trkpt lat="51.6964270" lon="39.2694030">
    <ele>109.0</ele>
    <time>2017-03-26T07:15:50Z</time>
   </trkpt>
   <trkpt lat="51.6964110" lon="39.2694650">
    <ele>109.0</ele>
    <time>2017-03-26T07:15:51Z</time>
   </trkpt>
   <trkpt lat="51.6963680" lon="39.2695790">
    <ele>109.0</ele>
    <time>2017-03-26T07:15:53Z</time>
   </trkpt>
   <trkpt lat="51.6962490" lon="39.2698770">
    <ele>108.3</ele>
    <time>2017-03-26T07:15:58Z</time>
   </trkpt>
   <trkpt lat="51.6961190" lon="39.2703960">
    <ele>108.0</ele>
    <time>2017-03-26T07:16:07Z</time>
   </trkpt>
   <trkpt lat="51.6961280" lon="39.2704390">
    <ele>108.0</ele>
    <time>2017-03-26T07:16:08Z</time>
   </trkpt>
   <trkpt lat="51.6961410" lon="39.2704760">
    <ele>108.0</ele>
    <time>2017-03-26T07:16:09Z</time>
   </trkpt>
   <trkpt lat="51.6961610" lon="39.2705060">
    <ele>108.0</ele>
    <time>2017-03-26T07:16:10Z</time>
   </trkpt>
   <trkpt lat="51.6966100" lon="39.2708410">
    <ele>109.2</ele>
    <time>2017-03-26T07:16:22Z</time>
   </trkpt>
   <trkpt lat="51.6969680" lon="39.2710730">
    <ele>110.1</ele>
    <time>2017-03-26T07:16:30Z</time>
   </trkpt>
   <trkpt lat="51.6971510" lon="39.2712100">
    <ele>110.6</ele>
    <time>2017-03-26T07:16:34Z</time>
   </trkpt>
   <trkpt lat="51.6974370" lon="39.2714100">
    <ele>111.0</ele>
    <time>2017-03-26T07:16:40Z</time>
   </trkpt>
   <trkpt lat="51.6976010" lon="39.2715890">
    <ele>110.9</ele>
    <time>2017-03-26T07:16:44Z</time>
   </trkpt>
   <trkpt lat="51.6978360" lon="39.2717090">
    <ele>112.0</ele>
    <time>2017-03-26T07:16:54Z</time>
   </trkpt>
   <trkpt lat="51.6981190" lon="39.2719140">
    <ele>111.8</ele>
    <time>2017-03-26T07:17:04Z</time>
   </trkpt>
   <trkpt lat="51.6989350" lon="39.2724600">
    <ele>111.4</ele>
    <time>2017-03-26T07:17:22Z</time>
   </trkpt>
   <trkpt lat="51.6995610" lon="39.2728470">
    <ele>110.7</ele>
    <time>2017-03-26T07:17:37Z</time>
   </trkpt>
   <trkpt lat="51.7002410" lon="39.2732890">
    <ele>108.6</ele>
    <time>2017-03-26T07:17:52Z</time>
   </trkpt>
   <trkpt lat="51.7006530" lon="39.2736350">
    <ele>108.0</ele>
    <time>2017-03-26T07:18:04Z</time>
   </trkpt>
   <trkpt lat="51.7006610" lon="39.2737100">
    <ele>108.0</ele>
    <time>2017-03-26T07:18:11Z</time>
   </trkpt>
   <trkpt lat="51.7006370" lon="39.2738090">
    <ele>108.0</ele>
    <time>2017-03-26T07:18:22Z</time>
   </trkpt>
   <trkpt lat="51.7006290" lon="39.2738350">
    <ele>108.0</ele>
    <time>2017-03-26T07:18:23Z</time>
   </trkpt>
   <trkpt lat="51.7005960" lon="39.2741120">
    <ele>108.0</ele>
    <time>2017-03-26T07:18:34Z</time>
   </trkpt>
   <trkpt lat="51.7009190" lon="39.2742940">
    <ele>108.0</ele>
    <time>2017-03-26T07:18:45Z</time>
   </trkpt>
   <trkpt lat="51.7018740" lon="39.2749110">
    <ele>109.7</ele>
    <time>2017-03-26T07:19:04Z</time>
   </trkpt>
   <trkpt lat="51.7027150" lon="39.2752930">
    <ele>107.0</ele>
    <time>2017-03-26T07:19:19Z</time>
   </trkpt>
   <trkpt lat="51.7027640" lon="39.2753380">
    <ele>107.0</ele>
    <time>2017-03-26T07:19:20Z</time>
   </trkpt>
   <trkpt lat="51.7028070" lon="39.2753920">
    <ele>107.0</ele>
    <time>2017-03-26T07:19:21Z</time>
   </trkpt>
   <trkpt lat="51.7028450" lon="39.2754530">
    <ele>107.0</ele>
    <time>2017-03-26T07:19:22Z</time>
   </trkpt>
   <trkpt lat="51.7028800" lon="39.2755200">
    <ele>107.1</ele>
    <time>2017-03-26T07:19:23Z</time>
   </trkpt>
   <trkpt lat="51.7029120" lon="39.2755890">
    <ele>107.2</ele>
    <time>2017-03-26T07:19:24Z</time>
   </trkpt>
   <trkpt lat="51.7029410" lon="39.2756640">
    <ele>107.4</ele>
    <time>2017-03-26T07:19:25Z</time>
   </trkpt>
   <trkpt lat="51.7029630" lon="39.2757450">
    <ele>107.5</ele>
    <time>2017-03-26T07:19:26Z</time>
   </trkpt>
   <trkpt lat="51.7029790" lon="39.2758310">
    <ele>107.7</ele>
    <time>2017-03-26T07:19:27Z</time>
   </trkpt>
   <trkpt lat="51.7029890" lon="39.2759190">
    <ele>107.8</ele>
    <time>2017-03-26T07:19:28Z</time>
   </trkpt>
   <trkpt lat="51.7029910" lon="39.2760110">
    <ele>108.0</ele>
    <time>2017-03-26T07:19:29Z</time>
   </trkpt>
   <trkpt lat="51.7029870" lon="39.2761050">
    <ele>108.0</ele>
    <time>2017-03-26T07:19:30Z</time>
   </trkpt>
   <trkpt lat="51.7029810" lon="39.2762010">
    <ele>108.0</ele>
    <time>2017-03-26T07:19:31Z</time>
   </trkpt>
   <trkpt lat="51.7028410" lon="39.2777000">
    <ele>108.6</ele>
    <time>2017-03-26T07:19:46Z</time>
   </trkpt>
   <trkpt lat="51.7027070" lon="39.2793750">
    <ele>110.1</ele>
    <time>2017-03-26T07:20:04Z</time>
   </trkpt>
   <trkpt lat="51.7026260" lon="39.2805510">
    <ele>111.2</ele>
    <time>2017-03-26T07:20:18Z</time>
   </trkpt>
   <trkpt lat="51.7024910" lon="39.2823150">
    <ele>117.6</ele>
    <time>2017-03-26T07:20:39Z</time>
   </trkpt>
   <trkpt lat="51.7023770" lon="39.2839390">
    <ele>120.0</ele>
    <time>2017-03-26T07:20:58Z</time>
   </trkpt>
   <trkpt lat="51.7022560" lon="39.2855650">
    <ele>121.6</ele>
    <time>2017-03-26T07:21:17Z</time>
   </trkpt>
   <trkpt lat="51.7021010" lon="39.2874000">
    <ele>119.3</ele>
    <time>2017-03-26T07:21:39Z</time>
   </trkpt>
   <trkpt lat="51.7021440" lon="39.2891530">
    <ele>118.4</ele>
    <time>2017-03-26T07:22:00Z</time>
   </trkpt>
   <trkpt lat="51.7026250" lon="39.2901630">
    <ele>117.1</ele>
    <time>2017-03-26T07:22:15Z</time>
   </trkpt>
   <trkpt lat="51.7031030" lon="39.2905240">
    <ele>115.7</ele>
    <time>2017-03-26T07:22:25Z</time>
   </trkpt>
   <trkpt lat="51.7040470" lon="39.2907920">
    <ele>116.8</ele>
    <time>2017-03-26T07:22:42Z</time>
   </trkpt>
   <trkpt lat="51.7051840" lon="39.2910810">
    <ele>116.4</ele>
    <time>2017-03-26T07:23:02Z</time>
   </trkpt>
   <trkpt lat="51.7063550" lon="39.2913700">
    <ele>114.3</ele>
    <time>2017-03-26T07:23:22Z</time>
   </trkpt>
   <trkpt lat="51.7075830" lon="39.2916880">
    <ele>112.1</ele>
    <time>2017-03-26T07:23:42Z</time>
   </trkpt>
   <trkpt lat="51.7088680" lon="39.2919960">
    <ele>111.7</ele>
    <time>2017-03-26T07:24:03Z</time>
   </trkpt>
   <trkpt lat="51.7103720" lon="39.2923730">
    <ele>110.5</ele>
    <time>2017-03-26T07:24:27Z</time>
   </trkpt>
   <trkpt lat="51.7110020" lon="39.2925480">
    <ele>109.6</ele>
    <time>2017-03-26T07:24:38Z</time>
   </trkpt>
   <trkpt lat="51.7110670" lon="39.2925580">
    <ele>109.4</ele>
    <time>2017-03-26T07:24:39Z</time>
   </trkpt>
   <trkpt lat="51.7119970" lon="39.2928040">
    <ele>108.8</ele>
    <time>2017-03-26T07:24:54Z</time>
   </trkpt>
   <trkpt lat="51.7127120" lon="39.2929860">
    <ele>109.7</ele>
    <time>2017-03-26T07:25:05Z</time>
   </trkpt>
   <trkpt lat="51.7133510" lon="39.2931500">
    <ele>109.2</ele>
    <time>2017-03-26T07:25:15Z</time>
   </trkpt>
   <trkpt lat="51.7142850" lon="39.2933880">
    <ele>108.6</ele>
    <time>2017-03-26T07:25:30Z</time>
   </trkpt>
   <trkpt lat="51.7154100" lon="39.2936810">
    <ele>110.1</ele>
    <time>2017-03-26T07:25:49Z</time>
   </trkpt>
   <trkpt lat="51.7166370" lon="39.2939820">
    <ele>110.9</ele>
    <time>2017-03-26T07:26:10Z</time>
   </trkpt>
   <trkpt lat="51.7177580" lon="39.2942650">
    <ele>112.2</ele>
    <time>2017-03-26T07:26:29Z</time>
   </trkpt>
   <trkpt lat="51.7188100" lon="39.2945290">
    <ele>109.9</ele>
    <time>2017-03-26T07:26:47Z</time>
   </trkpt>
   <trkpt lat="51.7198030" lon="39.2948320">
    <ele>108.0</ele>
    <time>2017-03-26T07:27:05Z</time>
   </trkpt>
   <trkpt lat="51.7212080" lon="39.2951580">
    <ele>106.6</ele>
    <time>2017-03-26T07:27:29Z</time>
   </trkpt>
   <trkpt lat="51.7224410" lon="39.2954990">
    <ele>108.1</ele>
    <time>2017-03-26T07:27:51Z</time>
   </trkpt>
   <trkpt lat="51.7232400" lon="39.2957110">
    <ele>108.1</ele>
    <time>2017-03-26T07:28:06Z</time>
   </trkpt>
   <trkpt lat="51.7241190" lon="39.2959330">
    <ele>107.7</ele>
    <time>2017-03-26T07:28:22Z</time>
   </trkpt>
   <trkpt lat="51.7252810" lon="39.2962270">
    <ele>107.7</ele>
    <time>2017-03-26T07:28:43Z</time>
   </trkpt>
   <trkpt lat="51.7265350" lon="39.2965680">
    <ele>110.8</ele>
    <time>2017-03-26T07:29:06Z</time>
   </trkpt>
   <trkpt lat="51.7276420" lon="39.2968790">
    <ele>112.5</ele>
    <time>2017-03-26T07:29:27Z</time>
   </trkpt>
   <trkpt lat="51.7276900" lon="39.2969090">
    <ele>112.6</ele>
    <time>2017-03-26T07:29:28Z</time>
   </trkpt>
   <trkpt lat="51.7277320" lon="39.2969520">
    <ele>112.7</ele>
    <time>2017-03-26T07:29:29Z</time>
   </trkpt>
   <trkpt lat="51.7277680" lon="39.2970060">
    <ele>112.8</ele>
    <time>2017-03-26T07:29:30Z</time>
   </trkpt>
   <trkpt lat="51.7277940" lon="39.2970710">
    <ele>112.8</ele>
    <time>2017-03-26T07:29:31Z</time>
   </trkpt>
   <trkpt lat="51.7278100" lon="39.2972250">
    <ele>113.0</ele>
    <time>2017-03-26T07:29:33Z</time>
   </trkpt>
   <trkpt lat="51.7278690" lon="39.2992190">
    <ele>115.0</ele>
    <time>2017-03-26T07:29:56Z</time>
   </trkpt>
   <trkpt lat="51.7276970" lon="39.3016490">
    <ele>114.9</ele>
    <time>2017-03-26T07:30:24Z</time>
   </trkpt>
   <trkpt lat="51.7274730" lon="39.3039880">
    <ele>117.6</ele>
    <time>2017-03-26T07:30:52Z</time>
   </trkpt>
   <trkpt lat="51.7273190" lon="39.3055380">
    <ele>118.6</ele>
    <time>2017-03-26T07:31:13Z</time>
   </trkpt>
   <trkpt lat="51.7271230" lon="39.3075540">
    <ele>120.4</ele>
    <time>2017-03-26T07:31:40Z</time>
   </trkpt>
   <trkpt lat="51.7268970" lon="39.3098690">
    <ele>112.8</ele>
    <time>2017-03-26T07:32:10Z</time>
   </trkpt>
   <trkpt lat="51.7267140" lon="39.3116690">
    <ele>110.7</ele>
    <time>2017-03-26T07:32:32Z</time>
   </trkpt>
   <trkpt lat="51.7265450" lon="39.3135360">
    <ele>111.6</ele>
    <time>2017-03-26T07:32:53Z</time>
   </trkpt>
   <trkpt lat="51.7264080" lon="39.3149170">
    <ele>111.8</ele>
    <time>2017-03-26T07:33:07Z</time>
   </trkpt>
   <trkpt lat="51.7263020" lon="39.3161200">
    <ele>112.2</ele>
    <time>2017-03-26T07:33:18Z</time>
   </trkpt>
   <trkpt lat="51.7262780" lon="39.3163510">
    <ele>112.1</ele>
    <time>2017-03-26T07:33:20Z</time>
   </trkpt>
   <trkpt lat="51.7261270" lon="39.3180320">
    <ele>110.9</ele>
    <time>2017-03-26T07:33:37Z</time>
   </trkpt>
   <trkpt lat="51.7261300" lon="39.3181050">
    <ele>111.0</ele>
    <time>2017-03-26T07:33:38Z</time>
   </trkpt>
   <trkpt lat="51.7261400" lon="39.3181760">
    <ele>111.2</ele>
    <time>2017-03-26T07:33:39Z</time>
   </trkpt>
   <trkpt lat="51.7261570" lon="39.3182440">
    <ele>111.5</ele>
    <time>2017-03-26T07:33:40Z</time>
   </trkpt>
   <trkpt lat="51.7261780" lon="39.3183080">
    <ele>110.0</ele>
    <time>2017-03-26T07:33:41Z</time>
   </trkpt>
   <trkpt lat="51.7262090" lon="39.3183620">
    <ele>110.0</ele>
    <time>2017-03-26T07:33:42Z</time>
   </trkpt>
   <trkpt lat="51.7262470" lon="39.3184060">
    <ele>110.0</ele>
    <time>2017-03-26T07:33:43Z</time>
   </trkpt>
   <trkpt lat="51.7262900" lon="39.3184370">
    <ele>110.0</ele>
    <time>2017-03-26T07:33:44Z</time>
   </trkpt>
   <trkpt lat="51.7263380" lon="39.3184530">
    <ele>110.0</ele>
    <time>2017-03-26T07:33:45Z</time>
   </trkpt>
   <trkpt lat="51.7263870" lon="39.3184620">
    <ele>110.0</ele>
    <time>2017-03-26T07:33:46Z</time>
   </trkpt>
   <trkpt lat="51.7264370" lon="39.3184720">
    <ele>110.1</ele>
    <time>2017-03-26T07:33:47Z</time>
   </trkpt>
   <trkpt lat="51.7275370" lon="39.3186970">
    <ele>111.5</ele>
    <time>2017-03-26T07:34:06Z</time>
   </trkpt>
   <trkpt lat="51.7287830" lon="39.3189320">
    <ele>111.0</ele>
    <time>2017-03-26T07:34:26Z</time>
   </trkpt>
   <trkpt lat="51.7298800" lon="39.3191710">
    <ele>109.6</ele>
    <time>2017-03-26T07:34:44Z</time>
   </trkpt>
   <trkpt lat="51.7308970" lon="39.3194330">
    <ele>110.0</ele>
    <time>2017-03-26T07:35:01Z</time>
   </trkpt>
   <trkpt lat="51.7312760" lon="39.3197070">
    <ele>109.5</ele>
    <time>2017-03-26T07:35:10Z</time>
   </trkpt>
   <trkpt lat="51.7317660" lon="39.3204840">
    <ele>106.0</ele>
    <time>2017-03-26T07:35:23Z</time>
   </trkpt>
   <trkpt lat="51.7318980" lon="39.3211210">
    <ele>104.0</ele>
    <time>2017-03-26T07:35:31Z</time>
   </trkpt>
   <trkpt lat="51.7319010" lon="39.3211920">
    <ele>104.0</ele>
    <time>2017-03-26T07:35:32Z</time>
   </trkpt>
   <trkpt lat="51.7318210" lon="39.3220370">
    <ele>103.5</ele>
    <time>2017-03-26T07:35:45Z</time>
   </trkpt>
   <trkpt lat="51.7317060" lon="39.3235420">
    <ele>103.6</ele>
    <time>2017-03-26T07:36:02Z</time>
   </trkpt>
   <trkpt lat="51.7315940" lon="39.3250840">
    <ele>99.4</ele>
    <time>2017-03-26T07:36:19Z</time>
   </trkpt>
   <trkpt lat="51.7314720" lon="39.3265430">
    <ele>99.2</ele>
    <time>2017-03-26T07:36:36Z</time>
   </trkpt>
   <trkpt lat="51.7312600" lon="39.3283440">
    <ele>99.7</ele>
    <time>2017-03-26T07:36:56Z</time>
   </trkpt>
   <trkpt lat="51.7312130" lon="39.3285120">
    <ele>99.9</ele>
    <time>2017-03-26T07:36:58Z</time>
   </trkpt>
   <trkpt lat="51.7311830" lon="39.3285890">
    <ele>100.0</ele>
    <time>2017-03-26T07:36:59Z</time>
   </trkpt>
   <trkpt lat="51.7311480" lon="39.3286610">
    <ele>100.1</ele>
    <time>2017-03-26T07:37:00Z</time>
   </trkpt>
   <trkpt lat="51.7305470" lon="39.3295740">
    <ele>101.3</ele>
    <time>2017-03-26T07:37:15Z</time>
   </trkpt>
   <trkpt lat="51.7300130" lon="39.3308200">
    <ele>99.2</ele>
    <time>2017-03-26T07:37:32Z</time>
   </trkpt>
   <trkpt lat="51.7296990" lon="39.3324790">
    <ele>98.0</ele>
    <time>2017-03-26T07:37:51Z</time>
   </trkpt>
   <trkpt lat="51.7297710" lon="39.3339250">
    <ele>102.9</ele>
    <time>2017-03-26T07:38:07Z</time>
   </trkpt>
   <trkpt lat="51.7297570" lon="39.3354250">
    <ele>101.1</ele>
    <time>2017-03-26T07:38:23Z</time>
   </trkpt>
   <trkpt lat="51.7295070" lon="39.3362860">
    <ele>102.1</ele>
    <time>2017-03-26T07:38:34Z</time>
   </trkpt>
   <trkpt lat="51.7290660" lon="39.3374520">
    <ele>102.2</ele>
    <time>2017-03-26T07:38:49Z</time>
   </trkpt>
   <trkpt lat="51.7290500" lon="39.3375460">
    <ele>102.2</ele>
    <time>2017-03-26T07:38:50Z</time>
   </trkpt>
   <trkpt lat="51.7290370" lon="39.3376430">
    <ele>102.4</ele>
    <time>2017-03-26T07:38:51Z</time>
   </trkpt>
   <trkpt lat="51.7290290" lon="39.3377390">
    <ele>102.4</ele>
    <time>2017-03-26T07:38:52Z</time>
   </trkpt>
   <trkpt lat="51.7290260" lon="39.3378400">
    <ele>102.5</ele>
    <time>2017-03-26T07:38:53Z</time>
   </trkpt>
   <trkpt lat="51.7290270" lon="39.3379410">
    <ele>102.6</ele>
    <time>2017-03-26T07:38:54Z</time>
   </trkpt>
   <trkpt lat="51.7291060" lon="39.3396500">
    <ele>107.4</ele>
    <time>2017-03-26T07:39:12Z</time>
   </trkpt>
   <trkpt lat="51.7291870" lon="39.3410540">
    <ele>105.2</ele>
    <time>2017-03-26T07:39:28Z</time>
   </trkpt>
   <trkpt lat="51.7291960" lon="39.3413650">
    <ele>105.7</ele>
    <time>2017-03-26T07:39:32Z</time>
   </trkpt>
   <trkpt lat="51.7291970" lon="39.3414350">
    <ele>105.8</ele>
    <time>2017-03-26T07:39:33Z</time>
   </trkpt>
   <trkpt lat="51.7292080" lon="39.3416670">
    <ele>106.1</ele>
    <time>2017-03-26T07:39:36Z</time>
   </trkpt>
   <trkpt lat="51.7292730" lon="39.3426870">
    <ele>107.2</ele>
    <time>2017-03-26T07:39:49Z</time>
   </trkpt>
   <trkpt lat="51.7293470" lon="39.3437810">
    <ele>107.4</ele>
    <time>2017-03-26T07:40:03Z</time>
   </trkpt>
   <trkpt lat="51.7294250" lon="39.3444300">
    <ele>106.8</ele>
    <time>2017-03-26T07:40:12Z</time>
   </trkpt>
   <trkpt lat="51.7294330" lon="39.3445030">
    <ele>106.8</ele>
    <time>2017-03-26T07:40:13Z</time>
   </trkpt>
   <trkpt lat="51.7295200" lon="39.3453650">
    <ele>107.4</ele>
    <time>2017-03-26T07:40:24Z</time>
   </trkpt>
   <trkpt lat="51.7295210" lon="39.3454480">
    <ele>107.5</ele>
    <time>2017-03-26T07:40:25Z</time>
   </trkpt>
   <trkpt lat="51.7295250" lon="39.3455300">
    <ele>107.6</ele>
    <time>2017-03-26T07:40:26Z</time>
   </trkpt>
   <trkpt lat="51.7295360" lon="39.3456080">
    <ele>107.6</ele>
    <time>2017-03-26T07:40:27Z</time>
   </trkpt>
   <trkpt lat="51.7295450" lon="39.3456830">
    <ele>107.7</ele>
    <time>2017-03-26T07:40:28Z</time>
   </trkpt>
   <trkpt lat="51.7295500" lon="39.3457580">
    <ele>107.7</ele>
    <time>2017-03-26T07:40:29Z</time>
   </trkpt>
   <trkpt lat="51.7295540" lon="39.3458360">
    <ele>107.7</ele>
    <time>2017-03-26T07:40:30Z</time>
   </trkpt>
   <trkpt lat="51.7296370" lon="39.3469050">
    <ele>108.0</ele>
    <time>2017-03-26T07:40:43Z</time>
   </trkpt>
   <trkpt lat="51.7297280" lon="39.3479850">
    <ele>107.0</ele>
    <time>2017-03-26T07:40:56Z</time>
   </trkpt>
   <trkpt lat="51.7297420" lon="39.3480600">
    <ele>107.0</ele>
    <time>2017-03-26T07:40:57Z</time>
   </trkpt>
   <trkpt lat="51.7297600" lon="39.3481350">
    <ele>107.0</ele>
    <time>2017-03-26T07:40:58Z</time>
   </trkpt>
   <trkpt lat="51.7298950" lon="39.3485140">
    <ele>107.2</ele>
    <time>2017-03-26T07:41:03Z</time>
   </trkpt>
   <trkpt lat="51.7302980" lon="39.3492530">
    <ele>107.0</ele>
    <time>2017-03-26T07:41:15Z</time>
   </trkpt>
   <trkpt lat="51.7305260" lon="39.3495800">
    <ele>107.8</ele>
    <time>2017-03-26T07:41:21Z</time>
   </trkpt>
   <trkpt lat="51.7306150" lon="39.3496690">
    <ele>108.0</ele>
    <time>2017-03-26T07:41:23Z</time>
   </trkpt>
   <trkpt lat="51.7311310" lon="39.3500370">
    <ele>108.0</ele>
    <time>2017-03-26T07:41:33Z</time>
   </trkpt>
   <trkpt lat="51.7312390" lon="39.3500960">
    <ele>107.9</ele>
    <time>2017-03-26T07:41:35Z</time>
   </trkpt>
   <trkpt lat="51.7318560" lon="39.3501800">
    <ele>107.1</ele>
    <time>2017-03-26T07:41:46Z</time>
   </trkpt>
   <trkpt lat="51.7319080" lon="39.3502040">
    <ele>107.1</ele>
    <time>2017-03-26T07:41:47Z</time>
   </trkpt>
   <trkpt lat="51.7319560" lon="39.3502440">
    <ele>107.1</ele>
    <time>2017-03-26T07:41:48Z</time>
   </trkpt>
   <trkpt lat="51.7320040" lon="39.3502930">
    <ele>107.1</ele>
    <time>2017-03-26T07:41:49Z</time>
   </trkpt>
   <trkpt lat="51.7320460" lon="39.3503530">
    <ele>107.8</ele>
    <time>2017-03-26T07:41:50Z</time>
   </trkpt>
   <trkpt lat="51.7320840" lon="39.3504180">
    <ele>108.4</ele>
    <time>2017-03-26T07:41:51Z</time>
   </trkpt>
   <trkpt lat="51.7321150" lon="39.3504920">
    <ele>109.0</ele>
    <time>2017-03-26T07:41:52Z</time>
   </trkpt>
   <trkpt lat="51.7321430" lon="39.3505720">
    <ele>109.5</ele>
    <time>2017-03-26T07:41:53Z</time>
   </trkpt>
   <trkpt lat="51.7323060" lon="39.3513980">
    <ele>110.8</ele>
    <time>2017-03-26T07:42:03Z</time>
   </trkpt>
   <trkpt lat="51.7323540" lon="39.3517910">
    <ele>110.6</ele>
    <time>2017-03-26T07:42:08Z</time>
   </trkpt>
   <trkpt lat="51.7325670" lon="39.3530120">
    <ele>111.3</ele>
    <time>2017-03-26T07:42:23Z</time>
   </trkpt>
   <trkpt lat="51.7326310" lon="39.3534260">
    <ele>111.7</ele>
    <time>2017-03-26T07:42:28Z</time>
   </trkpt>
   <trkpt lat="51.7326440" lon="39.3535090">
    <ele>111.5</ele>
    <time>2017-03-26T07:42:29Z</time>
   </trkpt>
   <trkpt lat="51.7328170" lon="39.3547380">
    <ele>111.9</ele>
    <time>2017-03-26T07:42:44Z</time>
   </trkpt>
   <trkpt lat="51.7329890" lon="39.3558330">
    <ele>111.6</ele>
    <time>2017-03-26T07:42:58Z</time>
   </trkpt>
   <trkpt lat="51.7331480" lon="39.3570980">
    <ele>108.8</ele>
    <time>2017-03-26T07:43:14Z</time>
   </trkpt>
   <trkpt lat="51.7333070" lon="39.3582710">
    <ele>108.4</ele>
    <time>2017-03-26T07:43:28Z</time>
   </trkpt>
   <trkpt lat="51.7335190" lon="39.3589540">
    <ele>106.2</ele>
    <time>2017-03-26T07:43:37Z</time>
   </trkpt>
   <trkpt lat="51.7335440" lon="39.3589960">
    <ele>106.0</ele>
    <time>2017-03-26T07:43:38Z</time>
   </trkpt>
   <trkpt lat="51.7335680" lon="39.3590240">
    <ele>106.0</ele>
    <time>2017-03-26T07:43:39Z</time>
   </trkpt>
   <trkpt lat="51.7335930" lon="39.3590460">
    <ele>106.0</ele>
    <time>2017-03-26T07:43:40Z</time>
   </trkpt>
   <trkpt lat="51.7336250" lon="39.3590640">
    <ele>106.0</ele>
    <time>2017-03-26T07:43:41Z</time>
   </trkpt>
   <trkpt lat="51.7336650" lon="39.3590720">
    <ele>106.0</ele>
    <time>2017-03-26T07:43:42Z</time>
   </trkpt>
   <trkpt lat="51.7337070" lon="39.3590510">
    <ele>105.9</ele>
    <time>2017-03-26T07:43:43Z</time>
   </trkpt>
   <trkpt lat="51.7337490" lon="39.3590080">
    <ele>105.7</ele>
    <time>2017-03-26T07:43:44Z</time>
   </trkpt>
   <trkpt lat="51.7345310" lon="39.3581500">
    <ele>104.1</ele>
    <time>2017-03-26T07:44:01Z</time>
   </trkpt>
   <trkpt lat="51.7354340" lon="39.3574240">
    <ele>104.4</ele>
    <time>2017-03-26T07:44:20Z</time>
   </trkpt>
   <trkpt lat="51.7365210" lon="39.3565250">
    <ele>103.5</ele>
    <time>2017-03-26T07:44:43Z</time>
   </trkpt>
   <trkpt lat="51.7375330" lon="39.3556580">
    <ele>103.5</ele>
    <time>2017-03-26T07:45:04Z</time>
   </trkpt>
   <trkpt lat="51.7382670" lon="39.3550700">
    <ele>101.5</ele>
    <time>2017-03-26T07:45:20Z</time>
   </trkpt>
   <trkpt lat="51.7384910" lon="39.3551380">
    <ele>101.3</ele>
    <time>2017-03-26T07:45:26Z</time>
   </trkpt>
   <trkpt lat="51.7385170" lon="39.3552010">
    <ele>101.4</ele>
    <time>2017-03-26T07:45:27Z</time>
   </trkpt>
   <trkpt lat="51.7388640" lon="39.3564210">
    <ele>103.2</ele>
    <time>2017-03-26T07:45:43Z</time>
   </trkpt>
   <trkpt lat="51.7392830" lon="39.3579590">
    <ele>104.8</ele>
    <time>2017-03-26T07:46:03Z</time>
   </trkpt>
   <trkpt lat="51.7396970" lon="39.3594590">
    <ele>104.1</ele>
    <time>2017-03-26T07:46:23Z</time>
   </trkpt>
   <trkpt lat="51.7401420" lon="39.3610370">
    <ele>106.0</ele>
    <time>2017-03-26T07:46:45Z</time>
   </trkpt>
   <trkpt lat="51.7403990" lon="39.3619600">
    <ele>106.9</ele>
    <time>2017-03-26T07:46:58Z</time>
   </trkpt>
   <trkpt lat="51.7407470" lon="39.3631750">
    <ele>108.0</ele>
    <time>2017-03-26T07:47:15Z</time>
   </trkpt>
   <trkpt lat="51.7411400" lon="39.3645650">
    <ele>108.4</ele>
    <time>2017-03-26T07:47:34Z</time>
   </trkpt>
   <trkpt lat="51.7414620" lon="39.3659500">
    <ele>108.1</ele>
    <time>2017-03-26T07:47:54Z</time>
   </trkpt>
   <trkpt lat="51.7417310" lon="39.3676020">
    <ele>110.9</ele>
    <time>2017-03-26T07:48:15Z</time>
   </trkpt>
   <trkpt lat="51.7420700" lon="39.3687640">
    <ele>111.1</ele>
    <time>2017-03-26T07:48:29Z</time>
   </trkpt>
   <trkpt lat="51.7425620" lon="39.3702640">
    <ele>112.1</ele>
    <time>2017-03-26T07:48:46Z</time>
   </trkpt>
   <trkpt lat="51.7430940" lon="39.3719240">
    <ele>111.0</ele>
    <time>2017-03-26T07:49:03Z</time>
   </trkpt>
   <trkpt lat="51.7433870" lon="39.3727870">
    <ele>110.5</ele>
    <time>2017-03-26T07:49:12Z</time>
   </trkpt>
   <trkpt lat="51.7438640" lon="39.3742290">
    <ele>111.4</ele>
    <time>2017-03-26T07:49:28Z</time>
   </trkpt>
   <trkpt lat="51.7443560" lon="39.3757340">
    <ele>113.8</ele>
    <time>2017-03-26T07:49:45Z</time>
   </trkpt>
   <trkpt lat="51.7443820" lon="39.3758210">
    <ele>113.8</ele>
    <time>2017-03-26T07:49:46Z</time>
   </trkpt>
   <trkpt lat="51.7449180" lon="39.3773360">
    <ele>115.9</ele>
    <time>2017-03-26T07:50:04Z</time>
   </trkpt>
   <trkpt lat="51.7452760" lon="39.3784610">
    <ele>116.9</ele>
    <time>2017-03-26T07:50:18Z</time>
   </trkpt>
   <trkpt lat="51.7456650" lon="39.3796450">
    <ele>118.4</ele>
    <time>2017-03-26T07:50:33Z</time>
   </trkpt>
   <trkpt lat="51.7457950" lon="39.3800230">
    <ele>118.5</ele>
    <time>2017-03-26T07:50:38Z</time>
   </trkpt>
   <trkpt lat="51.7458170" lon="39.3800940">
    <ele>118.6</ele>
    <time>2017-03-26T07:50:39Z</time>
   </trkpt>
   <trkpt lat="51.7462350" lon="39.3812790">
    <ele>119.7</ele>
    <time>2017-03-26T07:50:55Z</time>
   </trkpt>
   <trkpt lat="51.7462710" lon="39.3813470">
    <ele>119.8</ele>
    <time>2017-03-26T07:50:56Z</time>
   </trkpt>
   <trkpt lat="51.7463170" lon="39.3814010">
    <ele>119.9</ele>
    <time>2017-03-26T07:50:57Z</time>
   </trkpt>
   <trkpt lat="51.7463720" lon="39.3814320">
    <ele>120.0</ele>
    <time>2017-03-26T07:50:58Z</time>
   </trkpt>
   <trkpt lat="51.7464280" lon="39.3814430">
    <ele>119.9</ele>
    <time>2017-03-26T07:50:59Z</time>
   </trkpt>
   <trkpt lat="51.7464800" lon="39.3814310">
    <ele>119.6</ele>
    <time>2017-03-26T07:51:00Z</time>
   </trkpt>
   <trkpt lat="51.7465300" lon="39.3814040">
    <ele>119.3</ele>
    <time>2017-03-26T07:51:01Z</time>
   </trkpt>
   <trkpt lat="51.7465770" lon="39.3813710">
    <ele>119.0</ele>
    <time>2017-03-26T07:51:02Z</time>
   </trkpt>
   <trkpt lat="51.7471100" lon="39.3809390">
    <ele>117.7</ele>
    <time>2017-03-26T07:51:16Z</time>
   </trkpt>
   <trkpt lat="51.7471460" lon="39.3808990">
    <ele>117.9</ele>
    <time>2017-03-26T07:51:17Z</time>
   </trkpt>
   <trkpt lat="51.7471800" lon="39.3808470">
    <ele>118.0</ele>
    <time>2017-03-26T07:51:18Z</time>
   </trkpt>
   <trkpt lat="51.7472080" lon="39.3807840">
    <ele>118.0</ele>
    <time>2017-03-26T07:51:19Z</time>
   </trkpt>
   <trkpt lat="51.7472280" lon="39.3807110">
    <ele>118.0</ele>
    <time>2017-03-26T07:51:20Z</time>
   </trkpt>
   <trkpt lat="51.7472380" lon="39.3806310">
    <ele>118.0</ele>
    <time>2017-03-26T07:51:21Z</time>
   </trkpt>
   <trkpt lat="51.7472350" lon="39.3805510">
    <ele>118.0</ele>
    <time>2017-03-26T07:51:22Z</time>
   </trkpt>
   <trkpt lat="51.7472230" lon="39.3804740">
    <ele>118.0</ele>
    <time>2017-03-26T07:51:23Z</time>
   </trkpt>
   <trkpt lat="51.7472060" lon="39.3803970">
    <ele>118.0</ele>
    <time>2017-03-26T07:51:24Z</time>
   </trkpt>
   <trkpt lat="51.7471870" lon="39.3803200">
    <ele>118.0</ele>
    <time>2017-03-26T07:51:25Z</time>
   </trkpt>
   <trkpt lat="51.7466540" lon="39.3785070">
    <ele>120.7</ele>
    <time>2017-03-26T07:51:49Z</time>
   </trkpt>
   <trkpt lat="51.7461890" lon="39.3769480">
    <ele>121.7</ele>
    <time>2017-03-26T07:52:07Z</time>
   </trkpt>
   <trkpt lat="51.7457780" lon="39.3755950">
    <ele>118.7</ele>
    <time>2017-03-26T07:52:22Z</time>
   </trkpt>
   <trkpt lat="51.7453250" lon="39.3740950">
    <ele>118.0</ele>
    <time>2017-03-26T07:52:39Z</time>
   </trkpt>
   <trkpt lat="51.7450050" lon="39.3730160">
    <ele>114.5</ele>
    <time>2017-03-26T07:52:52Z</time>
   </trkpt>
   <trkpt lat="51.7445940" lon="39.3716780">
    <ele>112.7</ele>
    <time>2017-03-26T07:53:08Z</time>
   </trkpt>
   <trkpt lat="51.7443050" lon="39.3707040">
    <ele>112.3</ele>
    <time>2017-03-26T07:53:20Z</time>
   </trkpt>
   <trkpt lat="51.7442740" lon="39.3706300">
    <ele>112.1</ele>
    <time>2017-03-26T07:53:21Z</time>
   </trkpt>
   <trkpt lat="51.7442360" lon="39.3705790">
    <ele>111.8</ele>
    <time>2017-03-26T07:53:22Z</time>
   </trkpt>
   <trkpt lat="51.7441990" lon="39.3705450">
    <ele>111.8</ele>
    <time>2017-03-26T07:53:23Z</time>
   </trkpt>
   <trkpt lat="51.7441600" lon="39.3705180">
    <ele>111.8</ele>
    <time>2017-03-26T07:53:24Z</time>
   </trkpt>
   <trkpt lat="51.7441220" lon="39.3704910">
    <ele>111.8</ele>
    <time>2017-03-26T07:53:25Z</time>
   </trkpt>
   <trkpt lat="51.7440880" lon="39.3704590">
    <ele>111.9</ele>
    <time>2017-03-26T07:53:26Z</time>
   </trkpt>
   <trkpt lat="51.7440530" lon="39.3704130">
    <ele>112.0</ele>
    <time>2017-03-26T07:53:27Z</time>
   </trkpt>
   <trkpt lat="51.7440220" lon="39.3703640">
    <ele>112.2</ele>
    <time>2017-03-26T07:53:28Z</time>
   </trkpt>
   <trkpt lat="51.7439960" lon="39.3703140">
    <ele>112.3</ele>
    <time>2017-03-26T07:53:29Z</time>
   </trkpt>
   <trkpt lat="51.7439710" lon="39.3702600">
    <ele>112.4</ele>
    <time>2017-03-26T07:53:30Z</time>
   </trkpt>
   <trkpt lat="51.7437220" lon="39.3695370">
    <ele>115.2</ele>
    <time>2017-03-26T07:53:43Z</time>
   </trkpt>
   <trkpt lat="51.7435430" lon="39.3689230">
    <ele>114.9</ele>
    <time>2017-03-26T07:53:53Z</time>
   </trkpt>
   <trkpt lat="51.7435200" lon="39.3688590">
    <ele>114.7</ele>
    <time>2017-03-26T07:53:54Z</time>
   </trkpt>
   <trkpt lat="51.7434480" lon="39.3685970">
    <ele>115.0</ele>
    <time>2017-03-26T07:53:58Z</time>
   </trkpt>
   <trkpt lat="51.7434250" lon="39.3684700">
    <ele>114.8</ele>
    <time>2017-03-26T07:54:00Z</time>
   </trkpt>
   <trkpt lat="51.7431780" lon="39.3676290">
    <ele>113.2</ele>
    <time>2017-03-26T07:54:15Z</time>
   </trkpt>
   <trkpt lat="51.7430810" lon="39.3668570">
    <ele>112.0</ele>
    <time>2017-03-26T07:54:30Z</time>
   </trkpt>
   <trkpt lat="51.7430680" lon="39.3668300">
    <ele>112.0</ele>
    <time>2017-03-26T07:54:31Z</time>
   </trkpt>
   <trkpt lat="51.7430510" lon="39.3668200">
    <ele>112.1</ele>
    <time>2017-03-26T07:54:32Z</time>
   </trkpt>
   <trkpt lat="51.7430300" lon="39.3668100">
    <ele>112.1</ele>
    <time>2017-03-26T07:54:33Z</time>
   </trkpt>
   <trkpt lat="51.7430100" lon="39.3667990">
    <ele>112.2</ele>
    <time>2017-03-26T07:54:34Z</time>
   </trkpt>
   <trkpt lat="51.7429950" lon="39.3667870">
    <ele>112.1</ele>
    <time>2017-03-26T07:54:35Z</time>
   </trkpt>
   <trkpt lat="51.7429810" lon="39.3667710">
    <ele>112.1</ele>
    <time>2017-03-26T07:54:36Z</time>
   </trkpt>
   <trkpt lat="51.7429700" lon="39.3667510">
    <ele>112.1</ele>
    <time>2017-03-26T07:54:37Z</time>
   </trkpt>
   <trkpt lat="51.7429630" lon="39.3667280">
    <ele>112.0</ele>
    <time>2017-03-26T07:54:38Z</time>
   </trkpt>
   <trkpt lat="51.7429550" lon="39.3667020">
    <ele>112.0</ele>
    <time>2017-03-26T07:54:39Z</time>
   </trkpt>
   <trkpt lat="51.7429500" lon="39.3666770">
    <ele>112.0</ele>
    <time>2017-03-26T07:54:40Z</time>
   </trkpt>
   <trkpt lat="51.7429420" lon="39.3666500">
    <ele>112.0</ele>
    <time>2017-03-26T07:54:41Z</time>
   </trkpt>
   <trkpt lat="51.7429310" lon="39.3666190">
    <ele>112.0</ele>
    <time>2017-03-26T07:54:42Z</time>
   </trkpt>
   <trkpt lat="51.7429130" lon="39.3665880">
    <ele>112.0</ele>
    <time>2017-03-26T07:54:44Z</time>
   </trkpt>
   <trkpt lat="51.7429000" lon="39.3665830">
    <ele>112.0</ele>
    <time>2017-03-26T07:54:45Z</time>
   </trkpt>
   <trkpt lat="51.7428620" lon="39.3665800">
    <ele>112.0</ele>
    <time>2017-03-26T07:54:50Z</time>
   </trkpt>
   <trkpt lat="51.7429320" lon="39.3666880">
    <ele>112.0</ele>
    <time>2017-03-26T08:04:14Z</time>
   </trkpt>
   <trkpt lat="51.7429420" lon="39.3667210">
    <ele>112.0</ele>
    <time>2017-03-26T08:04:15Z</time>
   </trkpt>
   <trkpt lat="51.7429480" lon="39.3667510">
    <ele>112.1</ele>
    <time>2017-03-26T08:04:16Z</time>
   </trkpt>
   <trkpt lat="51.7429700" lon="39.3668070">
    <ele>112.1</ele>
    <time>2017-03-26T08:04:18Z</time>
   </trkpt>
   <trkpt lat="51.7429890" lon="39.3668160">
    <ele>112.1</ele>
    <time>2017-03-26T08:04:19Z</time>
   </trkpt>
   <trkpt lat="51.7430040" lon="39.3668160">
    <ele>112.1</ele>
    <time>2017-03-26T08:04:20Z</time>
   </trkpt>
   <trkpt lat="51.7430220" lon="39.3668050">
    <ele>112.1</ele>
    <time>2017-03-26T08:04:21Z</time>
   </trkpt>
   <trkpt lat="51.7431220" lon="39.3668430">
    <ele>111.9</ele>
    <time>2017-03-26T08:04:27Z</time>
   </trkpt>
   <trkpt lat="51.7431370" lon="39.3669060">
    <ele>111.8</ele>
    <time>2017-03-26T08:04:28Z</time>
   </trkpt>
   <trkpt lat="51.7431460" lon="39.3669700">
    <ele>111.9</ele>
    <time>2017-03-26T08:04:29Z</time>
   </trkpt>
   <trkpt lat="51.7431550" lon="39.3670370">
    <ele>112.0</ele>
    <time>2017-03-26T08:04:30Z</time>
   </trkpt>
   <trkpt lat="51.7431690" lon="39.3671060">
    <ele>112.1</ele>
    <time>2017-03-26T08:04:31Z</time>
   </trkpt>
   <trkpt lat="51.7431860" lon="39.3671730">
    <ele>112.3</ele>
    <time>2017-03-26T08:04:32Z</time>
   </trkpt>
   <trkpt lat="51.7432050" lon="39.3672400">
    <ele>112.5</ele>
    <time>2017-03-26T08:04:33Z</time>
   </trkpt>
   <trkpt lat="51.7435530" lon="39.3684580">
    <ele>115.0</ele>
    <time>2017-03-26T08:04:49Z</time>
   </trkpt>
   <trkpt lat="51.7439820" lon="39.3698510">
    <ele>114.1</ele>
    <time>2017-03-26T08:05:06Z</time>
   </trkpt>
   <trkpt lat="51.7444510" lon="39.3714240">
    <ele>113.5</ele>
    <time>2017-03-26T08:05:25Z</time>
   </trkpt>
   <trkpt lat="51.7448550" lon="39.3727370">
    <ele>113.2</ele>
    <time>2017-03-26T08:05:41Z</time>
   </trkpt>
   <trkpt lat="51.7452960" lon="39.3742050">
    <ele>118.0</ele>
    <time>2017-03-26T08:05:59Z</time>
   </trkpt>
   <trkpt lat="51.7455780" lon="39.3751860">
    <ele>118.3</ele>
    <time>2017-03-26T08:06:11Z</time>
   </trkpt>
   <trkpt lat="51.7460050" lon="39.3765910">
    <ele>121.0</ele>
    <time>2017-03-26T08:06:29Z</time>
   </trkpt>
   <trkpt lat="51.7463430" lon="39.3776840">
    <ele>122.4</ele>
    <time>2017-03-26T08:06:44Z</time>
   </trkpt>
   <trkpt lat="51.7466990" lon="39.3788640">
    <ele>121.3</ele>
    <time>2017-03-26T08:07:00Z</time>
   </trkpt>
   <trkpt lat="51.7471600" lon="39.3803970">
    <ele>118.0</ele>
    <time>2017-03-26T08:07:19Z</time>
   </trkpt>
   <trkpt lat="51.7474700" lon="39.3814990">
    <ele>118.3</ele>
    <time>2017-03-26T08:07:33Z</time>
   </trkpt>
   <trkpt lat="51.7477010" lon="39.3821810">
    <ele>120.2</ele>
    <time>2017-03-26T08:07:43Z</time>
   </trkpt>
   <trkpt lat="51.7477090" lon="39.3822480">
    <ele>120.5</ele>
    <time>2017-03-26T08:07:44Z</time>
   </trkpt>
   <trkpt lat="51.7477310" lon="39.3824580">
    <ele>120.9</ele>
    <time>2017-03-26T08:07:47Z</time>
   </trkpt>
   <trkpt lat="51.7477920" lon="39.3827210">
    <ele>120.3</ele>
    <time>2017-03-26T08:07:51Z</time>
   </trkpt>
   <trkpt lat="51.7478910" lon="39.3830010">
    <ele>119.7</ele>
    <time>2017-03-26T08:07:55Z</time>
   </trkpt>
   <trkpt lat="51.7479140" lon="39.3830680">
    <ele>119.6</ele>
    <time>2017-03-26T08:07:56Z</time>
   </trkpt>
   <trkpt lat="51.7479920" lon="39.3832560">
    <ele>119.1</ele>
    <time>2017-03-26T08:07:59Z</time>
   </trkpt>
   <trkpt lat="51.7480190" lon="39.3833140">
    <ele>119.0</ele>
    <time>2017-03-26T08:08:00Z</time>
   </trkpt>
   <trkpt lat="51.7480460" lon="39.3833660">
    <ele>119.0</ele>
    <time>2017-03-26T08:08:01Z</time>
   </trkpt>
   <trkpt lat="51.7480750" lon="39.3834120">
    <ele>119.0</ele>
    <time>2017-03-26T08:08:02Z</time>
   </trkpt>
   <trkpt lat="51.7481050" lon="39.3834550">
    <ele>119.0</ele>
    <time>2017-03-26T08:08:03Z</time>
   </trkpt>
   <trkpt lat="51.7481350" lon="39.3834930">
    <ele>119.0</ele>
    <time>2017-03-26T08:08:04Z</time>
   </trkpt>
   <trkpt lat="51.7482020" lon="39.3835730">
    <ele>119.0</ele>
    <time>2017-03-26T08:08:06Z</time>
   </trkpt>
   <trkpt lat="51.7484710" lon="39.3843020">
    <ele>121.2</ele>
    <time>2017-03-26T08:08:19Z</time>
   </trkpt>
   <trkpt lat="51.7487670" lon="39.3850970">
    <ele>123.0</ele>
    <time>2017-03-26T08:08:32Z</time>
   </trkpt>
   <trkpt lat="51.7488640" lon="39.3853490">
    <ele>122.4</ele>
    <time>2017-03-26T08:08:36Z</time>
   </trkpt>
   <trkpt lat="51.7489380" lon="39.3856150">
    <ele>121.5</ele>
    <time>2017-03-26T08:08:40Z</time>
   </trkpt>
   <trkpt lat="51.7489520" lon="39.3856830">
    <ele>121.3</ele>
    <time>2017-03-26T08:08:41Z</time>
   </trkpt>
   <trkpt lat="51.7489680" lon="39.3857540">
    <ele>121.1</ele>
    <time>2017-03-26T08:08:42Z</time>
   </trkpt>
   <trkpt lat="51.7490230" lon="39.3860590">
    <ele>119.9</ele>
    <time>2017-03-26T08:08:46Z</time>
   </trkpt>
   <trkpt lat="51.7490570" lon="39.3862920">
    <ele>119.6</ele>
    <time>2017-03-26T08:08:49Z</time>
   </trkpt>
   <trkpt lat="51.7490760" lon="39.3863650">
    <ele>119.7</ele>
    <time>2017-03-26T08:08:50Z</time>
   </trkpt>
   <trkpt lat="51.7493360" lon="39.3871600">
    <ele>120.6</ele>
    <time>2017-03-26T08:09:01Z</time>
   </trkpt>
   <trkpt lat="51.7493550" lon="39.3872340">
    <ele>120.5</ele>
    <time>2017-03-26T08:09:02Z</time>
   </trkpt>
   <trkpt lat="51.7495400" lon="39.3877060">
    <ele>120.1</ele>
    <time>2017-03-26T08:09:09Z</time>
   </trkpt>
   <trkpt lat="51.7495710" lon="39.3878480">
    <ele>120.2</ele>
    <time>2017-03-26T08:09:11Z</time>
   </trkpt>
   <trkpt lat="51.7496700" lon="39.3885150">
    <ele>122.5</ele>
    <time>2017-03-26T08:09:21Z</time>
   </trkpt>
   <trkpt lat="51.7496940" lon="39.3885790">
    <ele>122.5</ele>
    <time>2017-03-26T08:09:22Z</time>
   </trkpt>
   <trkpt lat="51.7497210" lon="39.3886390">
    <ele>122.3</ele>
    <time>2017-03-26T08:09:23Z</time>
   </trkpt>
   <trkpt lat="51.7497480" lon="39.3887010">
    <ele>122.2</ele>
    <time>2017-03-26T08:09:24Z</time>
   </trkpt>
   <trkpt lat="51.7497750" lon="39.3887620">
    <ele>122.1</ele>
    <time>2017-03-26T08:09:25Z</time>
   </trkpt>
   <trkpt lat="51.7499760" lon="39.3892510">
    <ele>123.0</ele>
    <time>2017-03-26T08:09:33Z</time>
   </trkpt>
   <trkpt lat="51.7500080" lon="39.3893090">
    <ele>123.4</ele>
    <time>2017-03-26T08:09:34Z</time>
   </trkpt>
   <trkpt lat="51.7501080" lon="39.3894570">
    <ele>124.3</ele>
    <time>2017-03-26T08:09:37Z</time>
   </trkpt>
   <trkpt lat="51.7505480" lon="39.3900830">
    <ele>127.1</ele>
    <time>2017-03-26T08:09:50Z</time>
   </trkpt>
   <trkpt lat="51.7505800" lon="39.3901360">
    <ele>127.1</ele>
    <time>2017-03-26T08:09:51Z</time>
   </trkpt>
   <trkpt lat="51.7506110" lon="39.3901840">
    <ele>127.1</ele>
    <time>2017-03-26T08:09:52Z</time>
   </trkpt>
   <trkpt lat="51.7506370" lon="39.3902370">
    <ele>127.0</ele>
    <time>2017-03-26T08:09:53Z</time>
   </trkpt>
   <trkpt lat="51.7506630" lon="39.3902990">
    <ele>127.0</ele>
    <time>2017-03-26T08:09:54Z</time>
   </trkpt>
   <trkpt lat="51.7509890" lon="39.3909420">
    <ele>128.3</ele>
    <time>2017-03-26T08:10:04Z</time>
   </trkpt>
   <trkpt lat="51.7510450" lon="39.3910880">
    <ele>127.9</ele>
    <time>2017-03-26T08:10:06Z</time>
   </trkpt>
   <trkpt lat="51.7512180" lon="39.3915360">
    <ele>126.8</ele>
    <time>2017-03-26T08:10:12Z</time>
   </trkpt>
   <trkpt lat="51.7512390" lon="39.3916080">
    <ele>126.5</ele>
    <time>2017-03-26T08:10:13Z</time>
   </trkpt>
   <trkpt lat="51.7512480" lon="39.3916810">
    <ele>126.4</ele>
    <time>2017-03-26T08:10:14Z</time>
   </trkpt>
   <trkpt lat="51.7512460" lon="39.3917580">
    <ele>126.2</ele>
    <time>2017-03-26T08:10:15Z</time>
   </trkpt>
   <trkpt lat="51.7512450" lon="39.3918420">
    <ele>126.3</ele>
    <time>2017-03-26T08:10:16Z</time>
   </trkpt>
   <trkpt lat="51.7512520" lon="39.3919260">
    <ele>126.4</ele>
    <time>2017-03-26T08:10:17Z</time>
   </trkpt>
   <trkpt lat="51.7512680" lon="39.3920100">
    <ele>126.8</ele>
    <time>2017-03-26T08:10:18Z</time>
   </trkpt>
   <trkpt lat="51.7512930" lon="39.3920920">
    <ele>127.3</ele>
    <time>2017-03-26T08:10:19Z</time>
   </trkpt>
   <trkpt lat="51.7513230" lon="39.3921690">
    <ele>127.6</ele>
    <time>2017-03-26T08:10:20Z</time>
   </trkpt>
   <trkpt lat="51.7513530" lon="39.3922460">
    <ele>127.8</ele>
    <time>2017-03-26T08:10:21Z</time>
   </trkpt>
   <trkpt lat="51.7515250" lon="39.3926790">
    <ele>129.1</ele>
    <time>2017-03-26T08:10:27Z</time>
   </trkpt>
   <trkpt lat="51.7515430" lon="39.3927520">
    <ele>129.2</ele>
    <time>2017-03-26T08:10:28Z</time>
   </trkpt>
   <trkpt lat="51.7516690" lon="39.3934570">
    <ele>130.0</ele>
    <time>2017-03-26T08:10:37Z</time>
   </trkpt>
   <trkpt lat="51.7519330" lon="39.3942570">
    <ele>129.2</ele>
    <time>2017-03-26T08:10:49Z</time>
   </trkpt>
   <trkpt lat="51.7520480" lon="39.3945810">
    <ele>129.2</ele>
    <time>2017-03-26T08:10:54Z</time>
   </trkpt>
   <trkpt lat="51.7520690" lon="39.3946460">
    <ele>129.2</ele>
    <time>2017-03-26T08:10:55Z</time>
   </trkpt>
   <trkpt lat="51.7522950" lon="39.3952450">
    <ele>128.2</ele>
    <time>2017-03-26T08:11:04Z</time>
   </trkpt>
   <trkpt lat="51.7523140" lon="39.3953090">
    <ele>128.2</ele>
    <time>2017-03-26T08:11:05Z</time>
   </trkpt>
   <trkpt lat="51.7523270" lon="39.3953740">
    <ele>128.2</ele>
    <time>2017-03-26T08:11:06Z</time>
   </trkpt>
   <trkpt lat="51.7523380" lon="39.3954460">
    <ele>128.1</ele>
    <time>2017-03-26T08:11:07Z</time>
   </trkpt>
   <trkpt lat="51.7523430" lon="39.3955240">
    <ele>128.1</ele>
    <time>2017-03-26T08:11:08Z</time>
   </trkpt>
   <trkpt lat="51.7523440" lon="39.3956020">
    <ele>128.1</ele>
    <time>2017-03-26T08:11:09Z</time>
   </trkpt>
   <trkpt lat="51.7523440" lon="39.3956850">
    <ele>128.1</ele>
    <time>2017-03-26T08:11:10Z</time>
   </trkpt>
   <trkpt lat="51.7523530" lon="39.3959840">
    <ele>128.6</ele>
    <time>2017-03-26T08:11:14Z</time>
   </trkpt>
   <trkpt lat="51.7523650" lon="39.3960560">
    <ele>128.6</ele>
    <time>2017-03-26T08:11:15Z</time>
   </trkpt>
   <trkpt lat="51.7523840" lon="39.3961310">
    <ele>128.5</ele>
    <time>2017-03-26T08:11:16Z</time>
   </trkpt>
   <trkpt lat="51.7524940" lon="39.3964590">
    <ele>126.4</ele>
    <time>2017-03-26T08:11:20Z</time>
   </trkpt>
   <trkpt lat="51.7525300" lon="39.3965350">
    <ele>125.7</ele>
    <time>2017-03-26T08:11:21Z</time>
   </trkpt>
   <trkpt lat="51.7526300" lon="39.3967800">
    <ele>125.1</ele>
    <time>2017-03-26T08:11:24Z</time>
   </trkpt>
   <trkpt lat="51.7527420" lon="39.3970990">
    <ele>124.1</ele>
    <time>2017-03-26T08:11:28Z</time>
   </trkpt>
   <trkpt lat="51.7528160" lon="39.3975600">
    <ele>122.6</ele>
    <time>2017-03-26T08:11:34Z</time>
   </trkpt>
   <trkpt lat="51.7528200" lon="39.3976330">
    <ele>122.4</ele>
    <time>2017-03-26T08:11:35Z</time>
   </trkpt>
   <trkpt lat="51.7529100" lon="39.3982620">
    <ele>121.8</ele>
    <time>2017-03-26T08:11:44Z</time>
   </trkpt>
   <trkpt lat="51.7530670" lon="39.3990300">
    <ele>123.8</ele>
    <time>2017-03-26T08:11:55Z</time>
   </trkpt>
   <trkpt lat="51.7531530" lon="39.3995990">
    <ele>125.1</ele>
    <time>2017-03-26T08:12:02Z</time>
   </trkpt>
   <trkpt lat="51.7531610" lon="39.3996800">
    <ele>125.0</ele>
    <time>2017-03-26T08:12:03Z</time>
   </trkpt>
   <trkpt lat="51.7532240" lon="39.4000020">
    <ele>124.5</ele>
    <time>2017-03-26T08:12:07Z</time>
   </trkpt>
   <trkpt lat="51.7532510" lon="39.4000860">
    <ele>124.2</ele>
    <time>2017-03-26T08:12:08Z</time>
   </trkpt>
   <trkpt lat="51.7534060" lon="39.4005340">
    <ele>121.7</ele>
    <time>2017-03-26T08:12:14Z</time>
   </trkpt>
   <trkpt lat="51.7535330" lon="39.4010720">
    <ele>120.0</ele>
    <time>2017-03-26T08:12:21Z</time>
   </trkpt>
   <trkpt lat="51.7535830" lon="39.4013700">
    <ele>119.7</ele>
    <time>2017-03-26T08:12:25Z</time>
   </trkpt>
   <trkpt lat="51.7536040" lon="39.4014450">
    <ele>119.6</ele>
    <time>2017-03-26T08:12:26Z</time>
   </trkpt>
   <trkpt lat="51.7538470" lon="39.4022510">
    <ele>120.3</ele>
    <time>2017-03-26T08:12:37Z</time>
   </trkpt>
   <trkpt lat="51.7538720" lon="39.4023240">
    <ele>120.1</ele>
    <time>2017-03-26T08:12:38Z</time>
   </trkpt>
   <trkpt lat="51.7539080" lon="39.4024710">
    <ele>120.0</ele>
    <time>2017-03-26T08:12:40Z</time>
   </trkpt>
   <trkpt lat="51.7539180" lon="39.4025390">
    <ele>120.0</ele>
    <time>2017-03-26T08:12:41Z</time>
   </trkpt>
   <trkpt lat="51.7539180" lon="39.4026060">
    <ele>120.0</ele>
    <time>2017-03-26T08:12:42Z</time>
   </trkpt>
   <trkpt lat="51.7539190" lon="39.4026780">
    <ele>119.7</ele>
    <time>2017-03-26T08:12:43Z</time>
   </trkpt>
   <trkpt lat="51.7539290" lon="39.4027430">
    <ele>119.4</ele>
    <time>2017-03-26T08:12:44Z</time>
   </trkpt>
   <trkpt lat="51.7539510" lon="39.4028050">
    <ele>119.1</ele>
    <time>2017-03-26T08:12:45Z</time>
   </trkpt>
   <trkpt lat="51.7539850" lon="39.4028630">
    <ele>119.0</ele>
    <time>2017-03-26T08:12:46Z</time>
   </trkpt>
   <trkpt lat="51.7540190" lon="39.4029180">
    <ele>118.9</ele>
    <time>2017-03-26T08:12:47Z</time>
   </trkpt>
   <trkpt lat="51.7541260" lon="39.4030830">
    <ele>118.5</ele>
    <time>2017-03-26T08:12:50Z</time>
   </trkpt>
   <trkpt lat="51.7541660" lon="39.4031240">
    <ele>118.3</ele>
    <time>2017-03-26T08:12:51Z</time>
   </trkpt>
   <trkpt lat="51.7542100" lon="39.4031570">
    <ele>119.0</ele>
    <time>2017-03-26T08:12:52Z</time>
   </trkpt>
   <trkpt lat="51.7543290" lon="39.4032330">
    <ele>120.6</ele>
    <time>2017-03-26T08:12:55Z</time>
   </trkpt>
   <trkpt lat="51.7548360" lon="39.4033900">
    <ele>123.3</ele>
    <time>2017-03-26T08:13:06Z</time>
   </trkpt>
   <trkpt lat="51.7553800" lon="39.4034440">
    <ele>125.2</ele>
    <time>2017-03-26T08:13:18Z</time>
   </trkpt>
   <trkpt lat="51.7559060" lon="39.4035190">
    <ele>128.6</ele>
    <time>2017-03-26T08:13:30Z</time>
   </trkpt>
   <trkpt lat="51.7564280" lon="39.4035300">
    <ele>129.9</ele>
    <time>2017-03-26T08:13:42Z</time>
   </trkpt>
   <trkpt lat="51.7566400" lon="39.4035520">
    <ele>130.1</ele>
    <time>2017-03-26T08:13:47Z</time>
   </trkpt>
   <trkpt lat="51.7567820" lon="39.4035760">
    <ele>130.0</ele>
    <time>2017-03-26T08:13:50Z</time>
   </trkpt>
   <trkpt lat="51.7569920" lon="39.4035460">
    <ele>130.5</ele>
    <time>2017-03-26T08:13:55Z</time>
   </trkpt>
   <trkpt lat="51.7574980" lon="39.4035250">
    <ele>134.7</ele>
    <time>2017-03-26T08:14:06Z</time>
   </trkpt>
   <trkpt lat="51.7577330" lon="39.4035220">
    <ele>135.1</ele>
    <time>2017-03-26T08:14:11Z</time>
   </trkpt>
   <trkpt lat="51.7582540" lon="39.4035490">
    <ele>135.0</ele>
    <time>2017-03-26T08:14:23Z</time>
   </trkpt>
   <trkpt lat="51.7586940" lon="39.4036270">
    <ele>137.2</ele>
    <time>2017-03-26T08:14:33Z</time>
   </trkpt>
   <trkpt lat="51.7592090" lon="39.4035920">
    <ele>139.7</ele>
    <time>2017-03-26T08:14:44Z</time>
   </trkpt>
   <trkpt lat="51.7593020" lon="39.4035810">
    <ele>140.5</ele>
    <time>2017-03-26T08:14:46Z</time>
   </trkpt>
   <trkpt lat="51.7593500" lon="39.4035850">
    <ele>140.9</ele>
    <time>2017-03-26T08:14:47Z</time>
   </trkpt>
   <trkpt lat="51.7598730" lon="39.4036380">
    <ele>141.6</ele>
    <time>2017-03-26T08:15:00Z</time>
   </trkpt>
   <trkpt lat="51.7603390" lon="39.4036610">
    <ele>141.9</ele>
    <time>2017-03-26T08:15:11Z</time>
   </trkpt>
   <trkpt lat="51.7605100" lon="39.4036450">
    <ele>142.7</ele>
    <time>2017-03-26T08:15:21Z</time>
   </trkpt>
   <trkpt lat="51.7605110" lon="39.4036450">
    <ele>142.7</ele>
    <time>2017-03-26T08:15:23Z</time>
   </trkpt>
   <trkpt lat="51.7606310" lon="39.4035920">
    <ele>143.1</ele>
    <time>2017-03-26T08:17:11Z</time>
   </trkpt>
   <trkpt lat="51.7606520" lon="39.4035900">
    <ele>143.1</ele>
    <time>2017-03-26T08:17:12Z</time>
   </trkpt>
   <trkpt lat="51.7606810" lon="39.4035910">
    <ele>143.2</ele>
    <time>2017-03-26T08:17:13Z</time>
   </trkpt>
   <trkpt lat="51.7607120" lon="39.4035920">
    <ele>143.2</ele>
    <time>2017-03-26T08:17:14Z</time>
   </trkpt>
   <trkpt lat="51.7611660" lon="39.4036150">
    <ele>143.5</ele>
    <time>2017-03-26T08:17:26Z</time>
   </trkpt>
   <trkpt lat="51.7612120" lon="39.4036170">
    <ele>143.9</ele>
    <time>2017-03-26T08:17:27Z</time>
   </trkpt>
   <trkpt lat="51.7616680" lon="39.4036500">
    <ele>144.1</ele>
    <time>2017-03-26T08:17:38Z</time>
   </trkpt>
   <trkpt lat="51.7619650" lon="39.4036650">
    <ele>144.0</ele>
    <time>2017-03-26T08:17:44Z</time>
   </trkpt>
   <trkpt lat="51.7620150" lon="39.4036710">
    <ele>143.9</ele>
    <time>2017-03-26T08:17:45Z</time>
   </trkpt>
   <trkpt lat="51.7620600" lon="39.4036750">
    <ele>143.8</ele>
    <time>2017-03-26T08:17:46Z</time>
   </trkpt>
   <trkpt lat="51.7625700" lon="39.4036660">
    <ele>142.8</ele>
    <time>2017-03-26T08:17:57Z</time>
   </trkpt>
   <trkpt lat="51.7629150" lon="39.4036580">
    <ele>140.4</ele>
    <time>2017-03-26T08:18:04Z</time>
   </trkpt>
   <trkpt lat="51.7629590" lon="39.4036610">
    <ele>140.2</ele>
    <time>2017-03-26T08:18:05Z</time>
   </trkpt>
   <trkpt lat="51.7630040" lon="39.4036650">
    <ele>140.1</ele>
    <time>2017-03-26T08:18:06Z</time>
   </trkpt>
   <trkpt lat="51.7630470" lon="39.4036670">
    <ele>140.1</ele>
    <time>2017-03-26T08:18:07Z</time>
   </trkpt>
   <trkpt lat="51.7630910" lon="39.4036720">
    <ele>140.1</ele>
    <time>2017-03-26T08:18:08Z</time>
   </trkpt>
   <trkpt lat="51.7631360" lon="39.4036760">
    <ele>140.1</ele>
    <time>2017-03-26T08:18:09Z</time>
   </trkpt>
   <trkpt lat="51.7631800" lon="39.4036790">
    <ele>140.2</ele>
    <time>2017-03-26T08:18:10Z</time>
   </trkpt>
   <trkpt lat="51.7637410" lon="39.4037010">
    <ele>139.8</ele>
    <time>2017-03-26T08:18:22Z</time>
   </trkpt>
   <trkpt lat="51.7642550" lon="39.4037170">
    <ele>142.4</ele>
    <time>2017-03-26T08:18:33Z</time>
   </trkpt>
   <trkpt lat="51.7649780" lon="39.4037380">
    <ele>144.0</ele>
    <time>2017-03-26T08:18:48Z</time>
   </trkpt>
   <trkpt lat="51.7655940" lon="39.4037650">
    <ele>147.2</ele>
    <time>2017-03-26T08:19:02Z</time>
   </trkpt>
   <trkpt lat="51.7656360" lon="39.4037730">
    <ele>147.4</ele>
    <time>2017-03-26T08:19:03Z</time>
   </trkpt>
   <trkpt lat="51.7656780" lon="39.4037810">
    <ele>147.5</ele>
    <time>2017-03-26T08:19:04Z</time>
   </trkpt>
   <trkpt lat="51.7658340" lon="39.4038450">
    <ele>148.0</ele>
    <time>2017-03-26T08:19:08Z</time>
   </trkpt>
   <trkpt lat="51.7658760" lon="39.4038550">
    <ele>148.1</ele>
    <time>2017-03-26T08:19:09Z</time>
   </trkpt>
   <trkpt lat="51.7659180" lon="39.4038570">
    <ele>148.2</ele>
    <time>2017-03-26T08:19:10Z</time>
   </trkpt>
   <trkpt lat="51.7659620" lon="39.4038510">
    <ele>148.3</ele>
    <time>2017-03-26T08:19:11Z</time>
   </trkpt>
   <trkpt lat="51.7660060" lon="39.4038420">
    <ele>148.5</ele>
    <time>2017-03-26T08:19:12Z</time>
   </trkpt>
   <trkpt lat="51.7666020" lon="39.4038220">
    <ele>149.4</ele>
    <time>2017-03-26T08:19:25Z</time>
   </trkpt>
   <trkpt lat="51.7671470" lon="39.4038110">
    <ele>147.3</ele>
    <time>2017-03-26T08:19:37Z</time>
   </trkpt>
   <trkpt lat="51.7676300" lon="39.4038400">
    <ele>147.4</ele>
    <time>2017-03-26T08:19:48Z</time>
   </trkpt>
   <trkpt lat="51.7677290" lon="39.4038410">
    <ele>147.7</ele>
    <time>2017-03-26T08:19:50Z</time>
   </trkpt>
   <trkpt lat="51.7677780" lon="39.4038430">
    <ele>147.9</ele>
    <time>2017-03-26T08:19:51Z</time>
   </trkpt>
   <trkpt lat="51.7680550" lon="39.4038780">
    <ele>148.0</ele>
    <time>2017-03-26T08:19:59Z</time>
   </trkpt>
   <trkpt lat="51.7680610" lon="39.4038980">
    <ele>148.0</ele>
    <time>2017-03-26T08:20:00Z</time>
   </trkpt>
   <trkpt lat="51.7680620" lon="39.4039260">
    <ele>148.0</ele>
    <time>2017-03-26T08:20:01Z</time>
   </trkpt>
   <trkpt lat="51.7680540" lon="39.4045230">
    <ele>149.4</ele>
    <time>2017-03-26T08:20:12Z</time>
   </trkpt>
   <trkpt lat="51.7680570" lon="39.4054210">
    <ele>149.3</ele>
    <time>2017-03-26T08:20:25Z</time>
   </trkpt>
   <trkpt lat="51.7680560" lon="39.4060100">
    <ele>149.7</ele>
    <time>2017-03-26T08:20:34Z</time>
   </trkpt>
   <trkpt lat="51.7680500" lon="39.4060690">
    <ele>149.7</ele>
    <time>2017-03-26T08:20:35Z</time>
   </trkpt>
   <trkpt lat="51.7680460" lon="39.4061300">
    <ele>149.8</ele>
    <time>2017-03-26T08:20:36Z</time>
   </trkpt>
   <trkpt lat="51.7680140" lon="39.4069600">
    <ele>150.0</ele>
    <time>2017-03-26T08:20:48Z</time>
   </trkpt>
   <trkpt lat="51.7680300" lon="39.4077790">
    <ele>150.3</ele>
    <time>2017-03-26T08:20:59Z</time>
   </trkpt>
   <trkpt lat="51.7680240" lon="39.4086140">
    <ele>148.4</ele>
    <time>2017-03-26T08:21:10Z</time>
   </trkpt>
   <trkpt lat="51.7680210" lon="39.4086890">
    <ele>148.1</ele>
    <time>2017-03-26T08:21:11Z</time>
   </trkpt>
   <trkpt lat="51.7680210" lon="39.4087650">
    <ele>147.8</ele>
    <time>2017-03-26T08:21:12Z</time>
   </trkpt>
   <trkpt lat="51.7680220" lon="39.4088400">
    <ele>147.6</ele>
    <time>2017-03-26T08:21:13Z</time>
   </trkpt>
   <trkpt lat="51.7680120" lon="39.4092010">
    <ele>147.6</ele>
    <time>2017-03-26T08:21:18Z</time>
   </trkpt>
   <trkpt lat="51.7680120" lon="39.4096640">
    <ele>148.6</ele>
    <time>2017-03-26T08:21:24Z</time>
   </trkpt>
   <trkpt lat="51.7680110" lon="39.4097380">
    <ele>149.1</ele>
    <time>2017-03-26T08:21:25Z</time>
   </trkpt>
   <trkpt lat="51.7680060" lon="39.4098110">
    <ele>149.7</ele>
    <time>2017-03-26T08:21:26Z</time>
   </trkpt>
   <trkpt lat="51.7679720" lon="39.4105050">
    <ele>153.2</ele>
    <time>2017-03-26T08:21:36Z</time>
   </trkpt>
   <trkpt lat="51.7679990" lon="39.4112720">
    <ele>154.6</ele>
    <time>2017-03-26T08:21:47Z</time>
   </trkpt>
   <trkpt lat="51.7679800" lon="39.4119970">
    <ele>153.5</ele>
    <time>2017-03-26T08:21:57Z</time>
   </trkpt>
   <trkpt lat="51.7679410" lon="39.4127560">
    <ele>154.0</ele>
    <time>2017-03-26T08:22:08Z</time>
   </trkpt>
   <trkpt lat="51.7679390" lon="39.4128280">
    <ele>154.0</ele>
    <time>2017-03-26T08:22:09Z</time>
   </trkpt>
   <trkpt lat="51.7679410" lon="39.4129010">
    <ele>153.9</ele>
    <time>2017-03-26T08:22:10Z</time>
   </trkpt>
   <trkpt lat="51.7679390" lon="39.4133440">
    <ele>151.1</ele>
    <time>2017-03-26T08:22:16Z</time>
   </trkpt>
   <trkpt lat="51.7679330" lon="39.4138490">
    <ele>149.1</ele>
    <time>2017-03-26T08:22:23Z</time>
   </trkpt>
   <trkpt lat="51.7679310" lon="39.4139180">
    <ele>149.0</ele>
    <time>2017-03-26T08:22:24Z</time>
   </trkpt>
   <trkpt lat="51.7679340" lon="39.4139870">
    <ele>149.0</ele>
    <time>2017-03-26T08:22:25Z</time>
   </trkpt>
   <trkpt lat="51.7679300" lon="39.4145860">
    <ele>151.2</ele>
    <time>2017-03-26T08:22:34Z</time>
   </trkpt>
   <trkpt lat="51.7679100" lon="39.4151190">
    <ele>152.4</ele>
    <time>2017-03-26T08:22:42Z</time>
   </trkpt>
   <trkpt lat="51.7679130" lon="39.4151920">
    <ele>152.4</ele>
    <time>2017-03-26T08:22:43Z</time>
   </trkpt>
   <trkpt lat="51.7679050" lon="39.4155410">
    <ele>152.8</ele>
    <time>2017-03-26T08:22:48Z</time>
   </trkpt>
   <trkpt lat="51.7679020" lon="39.4156080">
    <ele>153.0</ele>
    <time>2017-03-26T08:22:49Z</time>
   </trkpt>
   <trkpt lat="51.7678890" lon="39.4163480">
    <ele>154.6</ele>
    <time>2017-03-26T08:23:00Z</time>
   </trkpt>
   <trkpt lat="51.7678990" lon="39.4170550">
    <ele>153.4</ele>
    <time>2017-03-26T08:23:10Z</time>
   </trkpt>
   <trkpt lat="51.7678980" lon="39.4178670">
    <ele>152.5</ele>
    <time>2017-03-26T08:23:21Z</time>
   </trkpt>
   <trkpt lat="51.7678980" lon="39.4179380">
    <ele>152.5</ele>
    <time>2017-03-26T08:23:22Z</time>
   </trkpt>
   <trkpt lat="51.7678960" lon="39.4180050">
    <ele>152.5</ele>
    <time>2017-03-26T08:23:23Z</time>
   </trkpt>
   <trkpt lat="51.7678580" lon="39.4185150">
    <ele>152.4</ele>
    <time>2017-03-26T08:23:30Z</time>
   </trkpt>
   <trkpt lat="51.7678600" lon="39.4186620">
    <ele>152.2</ele>
    <time>2017-03-26T08:23:32Z</time>
   </trkpt>
   <trkpt lat="51.7678740" lon="39.4193520">
    <ele>151.8</ele>
    <time>2017-03-26T08:23:42Z</time>
   </trkpt>
   <trkpt lat="51.7678740" lon="39.4195710">
    <ele>151.7</ele>
    <time>2017-03-26T08:23:45Z</time>
   </trkpt>
   <trkpt lat="51.7678740" lon="39.4196470">
    <ele>151.6</ele>
    <time>2017-03-26T08:23:46Z</time>
   </trkpt>
   <trkpt lat="51.7678690" lon="39.4197190">
    <ele>151.7</ele>
    <time>2017-03-26T08:23:47Z</time>
   </trkpt>
   <trkpt lat="51.7678630" lon="39.4197910">
    <ele>151.8</ele>
    <time>2017-03-26T08:23:48Z</time>
   </trkpt>
   <trkpt lat="51.7678610" lon="39.4198640">
    <ele>152.1</ele>
    <time>2017-03-26T08:23:49Z</time>
   </trkpt>
   <trkpt lat="51.7678550" lon="39.4199370">
    <ele>152.4</ele>
    <time>2017-03-26T08:23:50Z</time>
   </trkpt>
   <trkpt lat="51.7678530" lon="39.4201520">
    <ele>152.7</ele>
    <time>2017-03-26T08:23:53Z</time>
   </trkpt>
   <trkpt lat="51.7678450" lon="39.4202250">
    <ele>152.6</ele>
    <time>2017-03-26T08:23:54Z</time>
   </trkpt>
   <trkpt lat="51.7678430" lon="39.4202990">
    <ele>152.5</ele>
    <time>2017-03-26T08:23:55Z</time>
   </trkpt>
   <trkpt lat="51.7678430" lon="39.4205320">
    <ele>151.9</ele>
    <time>2017-03-26T08:23:58Z</time>
   </trkpt>
   <trkpt lat="51.7678200" lon="39.4214520">
    <ele>150.9</ele>
    <time>2017-03-26T08:24:11Z</time>
   </trkpt>
   <trkpt lat="51.7678210" lon="39.4222950">
    <ele>151.4</ele>
    <time>2017-03-26T08:24:23Z</time>
   </trkpt>
   <trkpt lat="51.7678200" lon="39.4224400">
    <ele>151.3</ele>
    <time>2017-03-26T08:24:25Z</time>
   </trkpt>
   <trkpt lat="51.7678210" lon="39.4225160">
    <ele>151.3</ele>
    <time>2017-03-26T08:24:26Z</time>
   </trkpt>
   <trkpt lat="51.7678210" lon="39.4225850">
    <ele>151.1</ele>
    <time>2017-03-26T08:24:27Z</time>
   </trkpt>
   <trkpt lat="51.7678190" lon="39.4226550">
    <ele>150.8</ele>
    <time>2017-03-26T08:24:28Z</time>
   </trkpt>
   <trkpt lat="51.7678150" lon="39.4227240">
    <ele>150.5</ele>
    <time>2017-03-26T08:24:29Z</time>
   </trkpt>
   <trkpt lat="51.7678130" lon="39.4227890">
    <ele>150.3</ele>
    <time>2017-03-26T08:24:30Z</time>
   </trkpt>
   <trkpt lat="51.7678120" lon="39.4228590">
    <ele>150.0</ele>
    <time>2017-03-26T08:24:31Z</time>
   </trkpt>
   <trkpt lat="51.7678040" lon="39.4229280">
    <ele>149.8</ele>
    <time>2017-03-26T08:24:32Z</time>
   </trkpt>
   <trkpt lat="51.7677980" lon="39.4230000">
    <ele>149.5</ele>
    <time>2017-03-26T08:24:33Z</time>
   </trkpt>
   <trkpt lat="51.7677960" lon="39.4230700">
    <ele>149.2</ele>
    <time>2017-03-26T08:24:34Z</time>
   </trkpt>
   <trkpt lat="51.7677970" lon="39.4231370">
    <ele>148.9</ele>
    <time>2017-03-26T08:24:35Z</time>
   </trkpt>
   <trkpt lat="51.7678030" lon="39.4231960">
    <ele>148.6</ele>
    <time>2017-03-26T08:24:36Z</time>
   </trkpt>
   <trkpt lat="51.7678090" lon="39.4234090">
    <ele>148.2</ele>
    <time>2017-03-26T08:24:39Z</time>
   </trkpt>
   <trkpt lat="51.7678000" lon="39.4235740">
    <ele>148.1</ele>
    <time>2017-03-26T08:24:41Z</time>
   </trkpt>
   <trkpt lat="51.7677980" lon="39.4236490">
    <ele>147.9</ele>
    <time>2017-03-26T08:24:42Z</time>
   </trkpt>
   <trkpt lat="51.7677940" lon="39.4237230">
    <ele>147.6</ele>
    <time>2017-03-26T08:24:43Z</time>
   </trkpt>
   <trkpt lat="51.7677910" lon="39.4237960">
    <ele>147.2</ele>
    <time>2017-03-26T08:24:44Z</time>
   </trkpt>
   <trkpt lat="51.7677920" lon="39.4238730">
    <ele>147.0</ele>
    <time>2017-03-26T08:24:45Z</time>
   </trkpt>
   <trkpt lat="51.7677920" lon="39.4239430">
    <ele>147.0</ele>
    <time>2017-03-26T08:24:46Z</time>
   </trkpt>
   <trkpt lat="51.7677890" lon="39.4240050">
    <ele>147.0</ele>
    <time>2017-03-26T08:24:47Z</time>
   </trkpt>
   <trkpt lat="51.7677610" lon="39.4246640">
    <ele>147.0</ele>
    <time>2017-03-26T08:24:58Z</time>
   </trkpt>
   <trkpt lat="51.7677600" lon="39.4254560">
    <ele>148.4</ele>
    <time>2017-03-26T08:25:10Z</time>
   </trkpt>
   <trkpt lat="51.7677490" lon="39.4262810">
    <ele>147.6</ele>
    <time>2017-03-26T08:25:23Z</time>
   </trkpt>
   <trkpt lat="51.7677340" lon="39.4268110">
    <ele>147.5</ele>
    <time>2017-03-26T08:25:31Z</time>
   </trkpt>
   <trkpt lat="51.7677450" lon="39.4276400">
    <ele>147.0</ele>
    <time>2017-03-26T08:25:43Z</time>
   </trkpt>
   <trkpt lat="51.7677420" lon="39.4279390">
    <ele>146.3</ele>
    <time>2017-03-26T08:25:47Z</time>
   </trkpt>
   <trkpt lat="51.7677080" lon="39.4287180">
    <ele>145.8</ele>
    <time>2017-03-26T08:25:58Z</time>
   </trkpt>
   <trkpt lat="51.7677030" lon="39.4287990">
    <ele>145.5</ele>
    <time>2017-03-26T08:25:59Z</time>
   </trkpt>
   <trkpt lat="51.7677040" lon="39.4288740">
    <ele>145.3</ele>
    <time>2017-03-26T08:26:00Z</time>
   </trkpt>
   <trkpt lat="51.7677110" lon="39.4289410">
    <ele>145.2</ele>
    <time>2017-03-26T08:26:01Z</time>
   </trkpt>
   <trkpt lat="51.7677140" lon="39.4290120">
    <ele>145.2</ele>
    <time>2017-03-26T08:26:02Z</time>
   </trkpt>
   <trkpt lat="51.7677120" lon="39.4290800">
    <ele>145.2</ele>
    <time>2017-03-26T08:26:03Z</time>
   </trkpt>
   <trkpt lat="51.7676860" lon="39.4296340">
    <ele>144.5</ele>
    <time>2017-03-26T08:26:12Z</time>
   </trkpt>
   <trkpt lat="51.7676790" lon="39.4297960">
    <ele>145.2</ele>
    <time>2017-03-26T08:26:16Z</time>
   </trkpt>
   <trkpt lat="51.7676880" lon="39.4298320">
    <ele>145.4</ele>
    <time>2017-03-26T08:26:17Z</time>
   </trkpt>
   <trkpt lat="51.7676950" lon="39.4298660">
    <ele>145.6</ele>
    <time>2017-03-26T08:26:18Z</time>
   </trkpt>
   <trkpt lat="51.7677140" lon="39.4304070">
    <ele>146.3</ele>
    <time>2017-03-26T08:26:28Z</time>
   </trkpt>
   <trkpt lat="51.7676830" lon="39.4310870">
    <ele>146.8</ele>
    <time>2017-03-26T08:26:39Z</time>
   </trkpt>
   <trkpt lat="51.7676790" lon="39.4316700">
    <ele>146.8</ele>
    <time>2017-03-26T08:26:49Z</time>
   </trkpt>
   <trkpt lat="51.7676880" lon="39.4323400">
    <ele>147.2</ele>
    <time>2017-03-26T08:26:59Z</time>
   </trkpt>
   <trkpt lat="51.7676820" lon="39.4329580">
    <ele>146.1</ele>
    <time>2017-03-26T08:27:08Z</time>
   </trkpt>
   <trkpt lat="51.7676730" lon="39.4335910">
    <ele>147.0</ele>
    <time>2017-03-26T08:27:18Z</time>
   </trkpt>
   <trkpt lat="51.7676710" lon="39.4342730">
    <ele>147.6</ele>
    <time>2017-03-26T08:27:29Z</time>
   </trkpt>
   <trkpt lat="51.7676550" lon="39.4346520">
    <ele>147.0</ele>
    <time>2017-03-26T08:27:34Z</time>
   </trkpt>
   <trkpt lat="51.7676510" lon="39.4347340">
    <ele>147.0</ele>
    <time>2017-03-26T08:27:35Z</time>
   </trkpt>
   <trkpt lat="51.7676470" lon="39.4348070">
    <ele>146.9</ele>
    <time>2017-03-26T08:27:36Z</time>
   </trkpt>
   <trkpt lat="51.7676410" lon="39.4351420">
    <ele>146.4</ele>
    <time>2017-03-26T08:27:41Z</time>
   </trkpt>
   <trkpt lat="51.7676410" lon="39.4352160">
    <ele>146.5</ele>
    <time>2017-03-26T08:27:42Z</time>
   </trkpt>
   <trkpt lat="51.7676320" lon="39.4359460">
    <ele>148.2</ele>
    <time>2017-03-26T08:27:53Z</time>
   </trkpt>
   <trkpt lat="51.7676340" lon="39.4360100">
    <ele>148.4</ele>
    <time>2017-03-26T08:27:54Z</time>
   </trkpt>
   <trkpt lat="51.7676340" lon="39.4360750">
    <ele>148.5</ele>
    <time>2017-03-26T08:27:55Z</time>
   </trkpt>
   <trkpt lat="51.7676350" lon="39.4361350">
    <ele>148.6</ele>
    <time>2017-03-26T08:27:56Z</time>
   </trkpt>
   <trkpt lat="51.7676340" lon="39.4361930">
    <ele>148.7</ele>
    <time>2017-03-26T08:27:57Z</time>
   </trkpt>
   <trkpt lat="51.7676340" lon="39.4366870">
    <ele>148.2</ele>
    <time>2017-03-26T08:28:04Z</time>
   </trkpt>
   <trkpt lat="51.7676310" lon="39.4372340">
    <ele>147.9</ele>
    <time>2017-03-26T08:28:12Z</time>
   </trkpt>
   <trkpt lat="51.7676260" lon="39.4373030">
    <ele>147.8</ele>
    <time>2017-03-26T08:28:13Z</time>
   </trkpt>
   <trkpt lat="51.7676060" lon="39.4380200">
    <ele>147.1</ele>
    <time>2017-03-26T08:28:24Z</time>
   </trkpt>
   <trkpt lat="51.7675720" lon="39.4384910">
    <ele>145.6</ele>
    <time>2017-03-26T08:28:33Z</time>
   </trkpt>
   <trkpt lat="51.7674440" lon="39.4387470">
    <ele>144.9</ele>
    <time>2017-03-26T08:28:39Z</time>
   </trkpt>
   <trkpt lat="51.7674480" lon="39.4387890">
    <ele>144.7</ele>
    <time>2017-03-26T08:28:40Z</time>
   </trkpt>
   <trkpt lat="51.7674920" lon="39.4388420">
    <ele>144.4</ele>
    <time>2017-03-26T08:28:42Z</time>
   </trkpt>
   <trkpt lat="51.7675460" lon="39.4388840">
    <ele>143.9</ele>
    <time>2017-03-26T08:28:44Z</time>
   </trkpt>
   <trkpt lat="51.7675610" lon="39.4389250">
    <ele>143.6</ele>
    <time>2017-03-26T08:28:45Z</time>
   </trkpt>
   <trkpt lat="51.7675670" lon="39.4389770">
    <ele>143.4</ele>
    <time>2017-03-26T08:28:46Z</time>
   </trkpt>
   <trkpt lat="51.7675690" lon="39.4390320">
    <ele>143.1</ele>
    <time>2017-03-26T08:28:47Z</time>
   </trkpt>
   <trkpt lat="51.7675700" lon="39.4390860">
    <ele>142.9</ele>
    <time>2017-03-26T08:28:48Z</time>
   </trkpt>
   <trkpt lat="51.7676060" lon="39.4396250">
    <ele>140.5</ele>
    <time>2017-03-26T08:28:58Z</time>
   </trkpt>
   <trkpt lat="51.7676080" lon="39.4396600">
    <ele>140.3</ele>
    <time>2017-03-26T08:28:59Z</time>
   </trkpt>
   <trkpt lat="51.7676000" lon="39.4396890">
    <ele>140.0</ele>
    <time>2017-03-26T08:29:00Z</time>
   </trkpt>
   <trkpt lat="51.7675920" lon="39.4397170">
    <ele>139.8</ele>
    <time>2017-03-26T08:29:01Z</time>
   </trkpt>
   <trkpt lat="51.7675930" lon="39.4397480">
    <ele>139.5</ele>
    <time>2017-03-26T08:29:02Z</time>
   </trkpt>
   <trkpt lat="51.7675940" lon="39.4397810">
    <ele>139.3</ele>
    <time>2017-03-26T08:29:03Z</time>
   </trkpt>
   <trkpt lat="51.7675970" lon="39.4399700">
    <ele>138.4</ele>
    <time>2017-03-26T08:29:12Z</time>
   </trkpt>
   <trkpt lat="51.7675810" lon="39.4404830">
    <ele>140.9</ele>
    <time>2017-03-26T08:29:23Z</time>
   </trkpt>
   <trkpt lat="51.7675670" lon="39.4412970">
    <ele>144.5</ele>
    <time>2017-03-26T08:29:36Z</time>
   </trkpt>
   <trkpt lat="51.7675620" lon="39.4413660">
    <ele>144.3</ele>
    <time>2017-03-26T08:29:37Z</time>
   </trkpt>
   <trkpt lat="51.7675510" lon="39.4416380">
    <ele>143.5</ele>
    <time>2017-03-26T08:29:41Z</time>
   </trkpt>
   <trkpt lat="51.7675410" lon="39.4423010">
    <ele>140.5</ele>
    <time>2017-03-26T08:29:50Z</time>
   </trkpt>
   <trkpt lat="51.7675160" lon="39.4426030">
    <ele>141.2</ele>
    <time>2017-03-26T08:29:54Z</time>
   </trkpt>
   <trkpt lat="51.7675160" lon="39.4431850">
    <ele>143.0</ele>
    <time>2017-03-26T08:30:03Z</time>
   </trkpt>
   <trkpt lat="51.7675750" lon="39.4432940">
    <ele>143.4</ele>
    <time>2017-03-26T08:30:06Z</time>
   </trkpt>
   <trkpt lat="51.7676090" lon="39.4433120">
    <ele>143.6</ele>
    <time>2017-03-26T08:30:07Z</time>
   </trkpt>
   <trkpt lat="51.7676440" lon="39.4433270">
    <ele>143.8</ele>
    <time>2017-03-26T08:30:08Z</time>
   </trkpt>
   <trkpt lat="51.7676800" lon="39.4433430">
    <ele>143.9</ele>
    <time>2017-03-26T08:30:09Z</time>
   </trkpt>
   <trkpt lat="51.7677170" lon="39.4433630">
    <ele>144.0</ele>
    <time>2017-03-26T08:30:10Z</time>
   </trkpt>
   <trkpt lat="51.7677550" lon="39.4433840">
    <ele>144.0</ele>
    <time>2017-03-26T08:30:11Z</time>
   </trkpt>
   <trkpt lat="51.7681390" lon="39.4435250">
    <ele>143.2</ele>
    <time>2017-03-26T08:30:21Z</time>
   </trkpt>
   <trkpt lat="51.7681820" lon="39.4435410">
    <ele>142.9</ele>
    <time>2017-03-26T08:30:22Z</time>
   </trkpt>
   <trkpt lat="51.7686770" lon="39.4437940">
    <ele>138.1</ele>
    <time>2017-03-26T08:30:35Z</time>
   </trkpt>
   <trkpt lat="51.7690450" lon="39.4439330">
    <ele>139.3</ele>
    <time>2017-03-26T08:30:45Z</time>
   </trkpt>
   <trkpt lat="51.7694170" lon="39.4440700">
    <ele>145.7</ele>
    <time>2017-03-26T08:30:55Z</time>
   </trkpt>
   <trkpt lat="51.7698220" lon="39.4442440">
    <ele>147.7</ele>
    <time>2017-03-26T08:31:05Z</time>
   </trkpt>
   <trkpt lat="51.7703310" lon="39.4444190">
    <ele>148.4</ele>
    <time>2017-03-26T08:31:18Z</time>
   </trkpt>
   <trkpt lat="51.7707010" lon="39.4445430">
    <ele>149.6</ele>
    <time>2017-03-26T08:31:28Z</time>
   </trkpt>
   <trkpt lat="51.7711390" lon="39.4446970">
    <ele>147.3</ele>
    <time>2017-03-26T08:31:39Z</time>
   </trkpt>
   <trkpt lat="51.7714700" lon="39.4449060">
    <ele>143.7</ele>
    <time>2017-03-26T08:31:48Z</time>
   </trkpt>
   <trkpt lat="51.7718950" lon="39.4450400">
    <ele>140.8</ele>
    <time>2017-03-26T08:31:58Z</time>
   </trkpt>
   <trkpt lat="51.7723890" lon="39.4452170">
    <ele>141.8</ele>
    <time>2017-03-26T08:32:09Z</time>
   </trkpt>
   <trkpt lat="51.7729540" lon="39.4453510">
    <ele>144.0</ele>
    <time>2017-03-26T08:32:22Z</time>
   </trkpt>
   <trkpt lat="51.7734040" lon="39.4455350">
    <ele>146.7</ele>
    <time>2017-03-26T08:32:33Z</time>
   </trkpt>
   <trkpt lat="51.7738000" lon="39.4456790">
    <ele>148.2</ele>
    <time>2017-03-26T08:32:43Z</time>
   </trkpt>
   <trkpt lat="51.7742630" lon="39.4458320">
    <ele>147.3</ele>
    <time>2017-03-26T08:32:54Z</time>
   </trkpt>
   <trkpt lat="51.7744010" lon="39.4458560">
    <ele>147.5</ele>
    <time>2017-03-26T08:32:57Z</time>
   </trkpt>
   <trkpt lat="51.7747480" lon="39.4460470">
    <ele>149.0</ele>
    <time>2017-03-26T08:33:05Z</time>
   </trkpt>
   <trkpt lat="51.7751050" lon="39.4461060">
    <ele>150.2</ele>
    <time>2017-03-26T08:33:14Z</time>
   </trkpt>
   <trkpt lat="51.7754500" lon="39.4461810">
    <ele>151.0</ele>
    <time>2017-03-26T08:33:24Z</time>
   </trkpt>
   <trkpt lat="51.7757660" lon="39.4464830">
    <ele>149.0</ele>
    <time>2017-03-26T08:33:35Z</time>
   </trkpt>
   <trkpt lat="51.7758600" lon="39.4466080">
    <ele>148.8</ele>
    <time>2017-03-26T08:33:38Z</time>
   </trkpt>
   <trkpt lat="51.7759000" lon="39.4466140">
    <ele>148.8</ele>
    <time>2017-03-26T08:33:39Z</time>
   </trkpt>
   <trkpt lat="51.7759420" lon="39.4466140">
    <ele>148.8</ele>
    <time>2017-03-26T08:33:40Z</time>
   </trkpt>
   <trkpt lat="51.7762150" lon="39.4467150">
    <ele>148.5</ele>
    <time>2017-03-26T08:33:48Z</time>
   </trkpt>
   <trkpt lat="51.7764930" lon="39.4468070">
    <ele>148.6</ele>
    <time>2017-03-26T08:33:54Z</time>
   </trkpt>
   <trkpt lat="51.7769630" lon="39.4468850">
    <ele>149.1</ele>
    <time>2017-03-26T08:34:04Z</time>
   </trkpt>
   <trkpt lat="51.7773540" lon="39.4469510">
    <ele>147.9</ele>
    <time>2017-03-26T08:34:12Z</time>
   </trkpt>
   <trkpt lat="51.7774020" lon="39.4469600">
    <ele>147.8</ele>
    <time>2017-03-26T08:34:13Z</time>
   </trkpt>
   <trkpt lat="51.7778310" lon="39.4471310">
    <ele>145.7</ele>
    <time>2017-03-26T08:34:23Z</time>
   </trkpt>
   <trkpt lat="51.7784110" lon="39.4473120">
    <ele>145.1</ele>
    <time>2017-03-26T08:34:35Z</time>
   </trkpt>
   <trkpt lat="51.7784580" lon="39.4473270">
    <ele>145.3</ele>
    <time>2017-03-26T08:34:36Z</time>
   </trkpt>
   <trkpt lat="51.7785090" lon="39.4473410">
    <ele>145.4</ele>
    <time>2017-03-26T08:34:37Z</time>
   </trkpt>
   <trkpt lat="51.7785580" lon="39.4473590">
    <ele>145.4</ele>
    <time>2017-03-26T08:34:38Z</time>
   </trkpt>
   <trkpt lat="51.7786000" lon="39.4473790">
    <ele>145.3</ele>
    <time>2017-03-26T08:34:39Z</time>
   </trkpt>
   <trkpt lat="51.7786460" lon="39.4474020">
    <ele>145.2</ele>
    <time>2017-03-26T08:34:40Z</time>
   </trkpt>
   <trkpt lat="51.7786920" lon="39.4474220">
    <ele>145.1</ele>
    <time>2017-03-26T08:34:41Z</time>
   </trkpt>
   <trkpt lat="51.7789140" lon="39.4475220">
    <ele>145.3</ele>
    <time>2017-03-26T08:34:46Z</time>
   </trkpt>
   <trkpt lat="51.7790500" lon="39.4475790">
    <ele>146.3</ele>
    <time>2017-03-26T08:34:49Z</time>
   </trkpt>
   <trkpt lat="51.7792820" lon="39.4476790">
    <ele>147.0</ele>
    <time>2017-03-26T08:34:54Z</time>
   </trkpt>
   <trkpt lat="51.7795240" lon="39.4477700">
    <ele>146.0</ele>
    <time>2017-03-26T08:34:59Z</time>
   </trkpt>
   <trkpt lat="51.7795820" lon="39.4477780">
    <ele>146.0</ele>
    <time>2017-03-26T08:35:00Z</time>
   </trkpt>
   <trkpt lat="51.7798710" lon="39.4478700">
    <ele>146.8</ele>
    <time>2017-03-26T08:35:06Z</time>
   </trkpt>
   <trkpt lat="51.7799220" lon="39.4478890">
    <ele>146.9</ele>
    <time>2017-03-26T08:35:07Z</time>
   </trkpt>
   <trkpt lat="51.7801870" lon="39.4479730">
    <ele>146.9</ele>
    <time>2017-03-26T08:35:12Z</time>
   </trkpt>
   <trkpt lat="51.7802490" lon="39.4479790">
    <ele>146.8</ele>
    <time>2017-03-26T08:35:13Z</time>
   </trkpt>
   <trkpt lat="51.7807050" lon="39.4481530">
    <ele>147.1</ele>
    <time>2017-03-26T08:35:23Z</time>
   </trkpt>
   <trkpt lat="51.7811040" lon="39.4482650">
    <ele>147.5</ele>
    <time>2017-03-26T08:35:32Z</time>
   </trkpt>
   <trkpt lat="51.7811500" lon="39.4482770">
    <ele>147.3</ele>
    <time>2017-03-26T08:35:33Z</time>
   </trkpt>
   <trkpt lat="51.7813050" lon="39.4483070">
    <ele>146.8</ele>
    <time>2017-03-26T08:35:36Z</time>
   </trkpt>
   <trkpt lat="51.7813570" lon="39.4483250">
    <ele>146.4</ele>
    <time>2017-03-26T08:35:37Z</time>
   </trkpt>
   <trkpt lat="51.7815300" lon="39.4483850">
    <ele>145.1</ele>
    <time>2017-03-26T08:35:40Z</time>
   </trkpt>
   <trkpt lat="51.7819220" lon="39.4485440">
    <ele>143.2</ele>
    <time>2017-03-26T08:35:48Z</time>
   </trkpt>
   <trkpt lat="51.7819780" lon="39.4485650">
    <ele>143.3</ele>
    <time>2017-03-26T08:35:49Z</time>
   </trkpt>
   <trkpt lat="51.7820320" lon="39.4485890">
    <ele>143.5</ele>
    <time>2017-03-26T08:35:50Z</time>
   </trkpt>
   <trkpt lat="51.7821390" lon="39.4486460">
    <ele>143.7</ele>
    <time>2017-03-26T08:35:52Z</time>
   </trkpt>
   <trkpt lat="51.7825370" lon="39.4487780">
    <ele>143.4</ele>
    <time>2017-03-26T08:36:00Z</time>
   </trkpt>
   <trkpt lat="51.7825890" lon="39.4487950">
    <ele>143.3</ele>
    <time>2017-03-26T08:36:01Z</time>
   </trkpt>
   <trkpt lat="51.7826360" lon="39.4488200">
    <ele>143.2</ele>
    <time>2017-03-26T08:36:02Z</time>
   </trkpt>
   <trkpt lat="51.7828740" lon="39.4489150">
    <ele>142.9</ele>
    <time>2017-03-26T08:36:07Z</time>
   </trkpt>
   <trkpt lat="51.7829810" lon="39.4489450">
    <ele>142.8</ele>
    <time>2017-03-26T08:36:09Z</time>
   </trkpt>
   <trkpt lat="51.7830310" lon="39.4489600">
    <ele>142.7</ele>
    <time>2017-03-26T08:36:10Z</time>
   </trkpt>
   <trkpt lat="51.7835210" lon="39.4491520">
    <ele>141.2</ele>
    <time>2017-03-26T08:36:20Z</time>
   </trkpt>
   <trkpt lat="51.7835700" lon="39.4491760">
    <ele>141.1</ele>
    <time>2017-03-26T08:36:21Z</time>
   </trkpt>
   <trkpt lat="51.7837180" lon="39.4492410">
    <ele>141.0</ele>
    <time>2017-03-26T08:36:24Z</time>
   </trkpt>
   <trkpt lat="51.7838120" lon="39.4492810">
    <ele>140.7</ele>
    <time>2017-03-26T08:36:26Z</time>
   </trkpt>
   <trkpt lat="51.7839860" lon="39.4493440">
    <ele>140.2</ele>
    <time>2017-03-26T08:36:29Z</time>
   </trkpt>
   <trkpt lat="51.7840410" lon="39.4493730">
    <ele>140.1</ele>
    <time>2017-03-26T08:36:30Z</time>
   </trkpt>
   <trkpt lat="51.7840950" lon="39.4494090">
    <ele>139.7</ele>
    <time>2017-03-26T08:36:31Z</time>
   </trkpt>
   <trkpt lat="51.7843440" lon="39.4495440">
    <ele>139.9</ele>
    <time>2017-03-26T08:36:36Z</time>
   </trkpt>
   <trkpt lat="51.7844430" lon="39.4495890">
    <ele>140.0</ele>
    <time>2017-03-26T08:36:38Z</time>
   </trkpt>
   <trkpt lat="51.7847010" lon="39.4496840">
    <ele>139.3</ele>
    <time>2017-03-26T08:36:43Z</time>
   </trkpt>
   <trkpt lat="51.7847520" lon="39.4497080">
    <ele>139.3</ele>
    <time>2017-03-26T08:36:44Z</time>
   </trkpt>
   <trkpt lat="51.7848590" lon="39.4497430">
    <ele>139.6</ele>
    <time>2017-03-26T08:36:46Z</time>
   </trkpt>
   <trkpt lat="51.7849080" lon="39.4497570">
    <ele>139.8</ele>
    <time>2017-03-26T08:36:47Z</time>
   </trkpt>
   <trkpt lat="51.7849540" lon="39.4497830">
    <ele>140.1</ele>
    <time>2017-03-26T08:36:48Z</time>
   </trkpt>
   <trkpt lat="51.7849960" lon="39.4498090">
    <ele>140.2</ele>
    <time>2017-03-26T08:36:49Z</time>
   </trkpt>
   <trkpt lat="51.7850390" lon="39.4498440">
    <ele>140.2</ele>
    <time>2017-03-26T08:36:50Z</time>
   </trkpt>
   <trkpt lat="51.7850840" lon="39.4498790">
    <ele>140.2</ele>
    <time>2017-03-26T08:36:51Z</time>
   </trkpt>
   <trkpt lat="51.7851710" lon="39.4499370">
    <ele>140.1</ele>
    <time>2017-03-26T08:36:53Z</time>
   </trkpt>
   <trkpt lat="51.7852280" lon="39.4499610">
    <ele>140.0</ele>
    <time>2017-03-26T08:36:54Z</time>
   </trkpt>
   <trkpt lat="51.7852780" lon="39.4499830">
    <ele>139.9</ele>
    <time>2017-03-26T08:36:55Z</time>
   </trkpt>
   <trkpt lat="51.7854840" lon="39.4500510">
    <ele>139.9</ele>
    <time>2017-03-26T08:36:59Z</time>
   </trkpt>
   <trkpt lat="51.7855360" lon="39.4500800">
    <ele>139.8</ele>
    <time>2017-03-26T08:37:00Z</time>
   </trkpt>
   <trkpt lat="51.7860920" lon="39.4504120">
    <ele>138.9</ele>
    <time>2017-03-26T08:37:12Z</time>
   </trkpt>
   <trkpt lat="51.7861380" lon="39.4504480">
    <ele>138.7</ele>
    <time>2017-03-26T08:37:13Z</time>
   </trkpt>
   <trkpt lat="51.7861830" lon="39.4504790">
    <ele>138.5</ele>
    <time>2017-03-26T08:37:14Z</time>
   </trkpt>
   <trkpt lat="51.7862230" lon="39.4505070">
    <ele>138.3</ele>
    <time>2017-03-26T08:37:15Z</time>
   </trkpt>
   <trkpt lat="51.7862610" lon="39.4505330">
    <ele>138.1</ele>
    <time>2017-03-26T08:37:16Z</time>
   </trkpt>
   <trkpt lat="51.7864410" lon="39.4506110">
    <ele>137.4</ele>
    <time>2017-03-26T08:37:20Z</time>
   </trkpt>
   <trkpt lat="51.7868440" lon="39.4508270">
    <ele>136.9</ele>
    <time>2017-03-26T08:37:28Z</time>
   </trkpt>
   <trkpt lat="51.7868940" lon="39.4508540">
    <ele>136.7</ele>
    <time>2017-03-26T08:37:29Z</time>
   </trkpt>
   <trkpt lat="51.7873160" lon="39.4511500">
    <ele>137.6</ele>
    <time>2017-03-26T08:37:38Z</time>
   </trkpt>
   <trkpt lat="51.7874180" lon="39.4511970">
    <ele>137.6</ele>
    <time>2017-03-26T08:37:40Z</time>
   </trkpt>
   <trkpt lat="51.7874760" lon="39.4512170">
    <ele>137.6</ele>
    <time>2017-03-26T08:37:41Z</time>
   </trkpt>
   <trkpt lat="51.7875300" lon="39.4512420">
    <ele>137.8</ele>
    <time>2017-03-26T08:37:42Z</time>
   </trkpt>
   <trkpt lat="51.7877790" lon="39.4513480">
    <ele>139.2</ele>
    <time>2017-03-26T08:37:47Z</time>
   </trkpt>
   <trkpt lat="51.7878360" lon="39.4513620">
    <ele>139.6</ele>
    <time>2017-03-26T08:37:48Z</time>
   </trkpt>
   <trkpt lat="51.7883850" lon="39.4514570">
    <ele>139.5</ele>
    <time>2017-03-26T08:37:59Z</time>
   </trkpt>
   <trkpt lat="51.7884300" lon="39.4514550">
    <ele>139.4</ele>
    <time>2017-03-26T08:38:00Z</time>
   </trkpt>
   <trkpt lat="51.7884730" lon="39.4514640">
    <ele>139.4</ele>
    <time>2017-03-26T08:38:01Z</time>
   </trkpt>
   <trkpt lat="51.7887750" lon="39.4516230">
    <ele>139.9</ele>
    <time>2017-03-26T08:38:08Z</time>
   </trkpt>
   <trkpt lat="51.7888260" lon="39.4516230">
    <ele>139.9</ele>
    <time>2017-03-26T08:38:09Z</time>
   </trkpt>
   <trkpt lat="51.7888690" lon="39.4516070">
    <ele>139.9</ele>
    <time>2017-03-26T08:38:10Z</time>
   </trkpt>
   <trkpt lat="51.7889070" lon="39.4515790">
    <ele>139.8</ele>
    <time>2017-03-26T08:38:11Z</time>
   </trkpt>
   <trkpt lat="51.7889480" lon="39.4515540">
    <ele>139.5</ele>
    <time>2017-03-26T08:38:12Z</time>
   </trkpt>
   <trkpt lat="51.7889910" lon="39.4515330">
    <ele>139.5</ele>
    <time>2017-03-26T08:38:13Z</time>
   </trkpt>
   <trkpt lat="51.7890330" lon="39.4515260">
    <ele>139.5</ele>
    <time>2017-03-26T08:38:14Z</time>
   </trkpt>
   <trkpt lat="51.7890820" lon="39.4515280">
    <ele>139.4</ele>
    <time>2017-03-26T08:38:15Z</time>
   </trkpt>
   <trkpt lat="51.7891250" lon="39.4515360">
    <ele>139.4</ele>
    <time>2017-03-26T08:38:16Z</time>
   </trkpt>
   <trkpt lat="51.7891680" lon="39.4515530">
    <ele>139.3</ele>
    <time>2017-03-26T08:38:17Z</time>
   </trkpt>
   <trkpt lat="51.7892130" lon="39.4515640">
    <ele>139.4</ele>
    <time>2017-03-26T08:38:18Z</time>
   </trkpt>
   <trkpt lat="51.7896010" lon="39.4516980">
    <ele>139.0</ele>
    <time>2017-03-26T08:38:27Z</time>
   </trkpt>
   <trkpt lat="51.7900170" lon="39.4518310">
    <ele>139.5</ele>
    <time>2017-03-26T08:38:37Z</time>
   </trkpt>
   <trkpt lat="51.7904840" lon="39.4519130">
    <ele>138.8</ele>
    <time>2017-03-26T08:38:47Z</time>
   </trkpt>
   <trkpt lat="51.7908770" lon="39.4520820">
    <ele>138.5</ele>
    <time>2017-03-26T08:38:57Z</time>
   </trkpt>
   <trkpt lat="51.7914700" lon="39.4521820">
    <ele>138.3</ele>
    <time>2017-03-26T08:39:09Z</time>
   </trkpt>
   <trkpt lat="51.7916720" lon="39.4522670">
    <ele>138.3</ele>
    <time>2017-03-26T08:39:13Z</time>
   </trkpt>
   <trkpt lat="51.7917280" lon="39.4522770">
    <ele>138.0</ele>
    <time>2017-03-26T08:39:14Z</time>
   </trkpt>
   <trkpt lat="51.7918780" lon="39.4522990">
    <ele>136.8</ele>
    <time>2017-03-26T08:39:17Z</time>
   </trkpt>
   <trkpt lat="51.7919230" lon="39.4523120">
    <ele>136.5</ele>
    <time>2017-03-26T08:39:18Z</time>
   </trkpt>
   <trkpt lat="51.7923520" lon="39.4525500">
    <ele>135.2</ele>
    <time>2017-03-26T08:39:29Z</time>
   </trkpt>
   <trkpt lat="51.7927490" lon="39.4526950">
    <ele>134.6</ele>
    <time>2017-03-26T08:39:38Z</time>
   </trkpt>
   <trkpt lat="51.7933150" lon="39.4529710">
    <ele>133.0</ele>
    <time>2017-03-26T08:39:50Z</time>
   </trkpt>
   <trkpt lat="51.7934570" lon="39.4530570">
    <ele>133.0</ele>
    <time>2017-03-26T08:39:54Z</time>
   </trkpt>
   <trkpt lat="51.7934610" lon="39.4530930">
    <ele>133.6</ele>
    <time>2017-03-26T08:39:55Z</time>
   </trkpt>
   <trkpt lat="51.7934540" lon="39.4531260">
    <ele>133.8</ele>
    <time>2017-03-26T08:39:56Z</time>
   </trkpt>
   <trkpt lat="51.7934380" lon="39.4531560">
    <ele>134.1</ele>
    <time>2017-03-26T08:39:57Z</time>
   </trkpt>
   <trkpt lat="51.7934210" lon="39.4531870">
    <ele>134.5</ele>
    <time>2017-03-26T08:39:58Z</time>
   </trkpt>
   <trkpt lat="51.7934080" lon="39.4532260">
    <ele>134.9</ele>
    <time>2017-03-26T08:39:59Z</time>
   </trkpt>
   <trkpt lat="51.7934000" lon="39.4532600">
    <ele>135.2</ele>
    <time>2017-03-26T08:40:00Z</time>
   </trkpt>
   <trkpt lat="51.7933980" lon="39.4533000">
    <ele>135.4</ele>
    <time>2017-03-26T08:40:01Z</time>
   </trkpt>
   <trkpt lat="51.7934010" lon="39.4533450">
    <ele>135.6</ele>
    <time>2017-03-26T08:40:02Z</time>
   </trkpt>
   <trkpt lat="51.7934040" lon="39.4533920">
    <ele>135.8</ele>
    <time>2017-03-26T08:40:03Z</time>
   </trkpt>
   <trkpt lat="51.7934080" lon="39.4534440">
    <ele>136.1</ele>
    <time>2017-03-26T08:40:04Z</time>
   </trkpt>
   <trkpt lat="51.7933530" lon="39.4539940">
    <ele>138.7</ele>
    <time>2017-03-26T08:40:13Z</time>
   </trkpt>
   <trkpt lat="51.7933470" lon="39.4540640">
    <ele>138.5</ele>
    <time>2017-03-26T08:40:14Z</time>
   </trkpt>
   <trkpt lat="51.7933370" lon="39.4541320">
    <ele>138.4</ele>
    <time>2017-03-26T08:40:15Z</time>
   </trkpt>
   <trkpt lat="51.7933280" lon="39.4541980">
    <ele>138.3</ele>
    <time>2017-03-26T08:40:16Z</time>
   </trkpt>
   <trkpt lat="51.7933210" lon="39.4542650">
    <ele>138.2</ele>
    <time>2017-03-26T08:40:17Z</time>
   </trkpt>
   <trkpt lat="51.7933160" lon="39.4543260">
    <ele>138.1</ele>
    <time>2017-03-26T08:40:18Z</time>
   </trkpt>
   <trkpt lat="51.7931860" lon="39.4549300">
    <ele>136.8</ele>
    <time>2017-03-26T08:40:29Z</time>
   </trkpt>
   <trkpt lat="51.7931260" lon="39.4553360">
    <ele>136.6</ele>
    <time>2017-03-26T08:40:36Z</time>
   </trkpt>
   <trkpt lat="51.7931150" lon="39.4553990">
    <ele>136.8</ele>
    <time>2017-03-26T08:40:37Z</time>
   </trkpt>
   <trkpt lat="51.7931050" lon="39.4554640">
    <ele>137.0</ele>
    <time>2017-03-26T08:40:38Z</time>
   </trkpt>
   <trkpt lat="51.7930150" lon="39.4559790">
    <ele>139.0</ele>
    <time>2017-03-26T08:40:46Z</time>
   </trkpt>
   <trkpt lat="51.7928880" lon="39.4566390">
    <ele>140.8</ele>
    <time>2017-03-26T08:40:57Z</time>
   </trkpt>
   <trkpt lat="51.7927420" lon="39.4573600">
    <ele>140.4</ele>
    <time>2017-03-26T08:41:08Z</time>
   </trkpt>
   <trkpt lat="51.7926210" lon="39.4580000">
    <ele>140.1</ele>
    <time>2017-03-26T08:41:18Z</time>
   </trkpt>
   <trkpt lat="51.7925560" lon="39.4583830">
    <ele>139.3</ele>
    <time>2017-03-26T08:41:24Z</time>
   </trkpt>
   <trkpt lat="51.7925090" lon="39.4586170">
    <ele>139.5</ele>
    <time>2017-03-26T08:41:27Z</time>
   </trkpt>
   <trkpt lat="51.7923740" lon="39.4592630">
    <ele>140.2</ele>
    <time>2017-03-26T08:41:36Z</time>
   </trkpt>
   <trkpt lat="51.7923610" lon="39.4593360">
    <ele>140.1</ele>
    <time>2017-03-26T08:41:37Z</time>
   </trkpt>
   <trkpt lat="51.7921950" lon="39.4601610">
    <ele>136.0</ele>
    <time>2017-03-26T08:41:50Z</time>
   </trkpt>
   <trkpt lat="51.7920980" lon="39.4607820">
    <ele>134.5</ele>
    <time>2017-03-26T08:42:00Z</time>
   </trkpt>
   <trkpt lat="51.7919270" lon="39.4616550">
    <ele>138.8</ele>
    <time>2017-03-26T08:42:13Z</time>
   </trkpt>
   <trkpt lat="51.7918070" lon="39.4623400">
    <ele>138.5</ele>
    <time>2017-03-26T08:42:23Z</time>
   </trkpt>
   <trkpt lat="51.7916930" lon="39.4629320">
    <ele>135.6</ele>
    <time>2017-03-26T08:42:32Z</time>
   </trkpt>
   <trkpt lat="51.7916050" lon="39.4634710">
    <ele>135.0</ele>
    <time>2017-03-26T08:42:40Z</time>
   </trkpt>
   <trkpt lat="51.7915360" lon="39.4638410">
    <ele>134.4</ele>
    <time>2017-03-26T08:42:45Z</time>
   </trkpt>
   <trkpt lat="51.7915230" lon="39.4639210">
    <ele>134.2</ele>
    <time>2017-03-26T08:42:46Z</time>
   </trkpt>
   <trkpt lat="51.7915090" lon="39.4639990">
    <ele>134.3</ele>
    <time>2017-03-26T08:42:47Z</time>
   </trkpt>
   <trkpt lat="51.7914940" lon="39.4640760">
    <ele>134.4</ele>
    <time>2017-03-26T08:42:48Z</time>
   </trkpt>
   <trkpt lat="51.7914750" lon="39.4641500">
    <ele>134.5</ele>
    <time>2017-03-26T08:42:49Z</time>
   </trkpt>
   <trkpt lat="51.7914590" lon="39.4642230">
    <ele>134.4</ele>
    <time>2017-03-26T08:42:50Z</time>
   </trkpt>
   <trkpt lat="51.7914510" lon="39.4642920">
    <ele>134.3</ele>
    <time>2017-03-26T08:42:51Z</time>
   </trkpt>
   <trkpt lat="51.7914440" lon="39.4643580">
    <ele>134.1</ele>
    <time>2017-03-26T08:42:52Z</time>
   </trkpt>
   <trkpt lat="51.7914300" lon="39.4644270">
    <ele>133.9</ele>
    <time>2017-03-26T08:42:53Z</time>
   </trkpt>
   <trkpt lat="51.7914170" lon="39.4644950">
    <ele>133.8</ele>
    <time>2017-03-26T08:42:54Z</time>
   </trkpt>
   <trkpt lat="51.7913560" lon="39.4647630">
    <ele>133.9</ele>
    <time>2017-03-26T08:42:58Z</time>
   </trkpt>
   <trkpt lat="51.7913430" lon="39.4648340">
    <ele>133.7</ele>
    <time>2017-03-26T08:42:59Z</time>
   </trkpt>
   <trkpt lat="51.7911940" lon="39.4655750">
    <ele>132.7</ele>
    <time>2017-03-26T08:43:10Z</time>
   </trkpt>
   <trkpt lat="51.7910220" lon="39.4664580">
    <ele>136.1</ele>
    <time>2017-03-26T08:43:23Z</time>
   </trkpt>
   <trkpt lat="51.7909620" lon="39.4668560">
    <ele>135.8</ele>
    <time>2017-03-26T08:43:29Z</time>
   </trkpt>
   <trkpt lat="51.7909540" lon="39.4669190">
    <ele>135.8</ele>
    <time>2017-03-26T08:43:30Z</time>
   </trkpt>
   <trkpt lat="51.7908580" lon="39.4673180">
    <ele>135.5</ele>
    <time>2017-03-26T08:43:36Z</time>
   </trkpt>
   <trkpt lat="51.7908390" lon="39.4673880">
    <ele>135.6</ele>
    <time>2017-03-26T08:43:37Z</time>
   </trkpt>
   <trkpt lat="51.7907910" lon="39.4675940">
    <ele>136.3</ele>
    <time>2017-03-26T08:43:40Z</time>
   </trkpt>
   <trkpt lat="51.7906830" lon="39.4681560">
    <ele>138.6</ele>
    <time>2017-03-26T08:43:48Z</time>
   </trkpt>
   <trkpt lat="51.7906670" lon="39.4682270">
    <ele>139.1</ele>
    <time>2017-03-26T08:43:49Z</time>
   </trkpt>
   <trkpt lat="51.7906510" lon="39.4682970">
    <ele>139.7</ele>
    <time>2017-03-26T08:43:50Z</time>
   </trkpt>
   <trkpt lat="51.7906270" lon="39.4684390">
    <ele>140.2</ele>
    <time>2017-03-26T08:43:52Z</time>
   </trkpt>
   <trkpt lat="51.7906250" lon="39.4685050">
    <ele>140.3</ele>
    <time>2017-03-26T08:43:53Z</time>
   </trkpt>
   <trkpt lat="51.7906370" lon="39.4685570">
    <ele>140.3</ele>
    <time>2017-03-26T08:43:54Z</time>
   </trkpt>
   <trkpt lat="51.7906660" lon="39.4685920">
    <ele>140.3</ele>
    <time>2017-03-26T08:43:55Z</time>
   </trkpt>
   <trkpt lat="51.7907420" lon="39.4686400">
    <ele>139.7</ele>
    <time>2017-03-26T08:43:57Z</time>
   </trkpt>
   <trkpt lat="51.7913950" lon="39.4689910">
    <ele>139.6</ele>
    <time>2017-03-26T08:44:12Z</time>
   </trkpt>
   <trkpt lat="51.7914370" lon="39.4690210">
    <ele>139.7</ele>
    <time>2017-03-26T08:44:13Z</time>
   </trkpt>
   <trkpt lat="51.7918020" lon="39.4692660">
    <ele>139.6</ele>
    <time>2017-03-26T08:44:23Z</time>
   </trkpt>
   <trkpt lat="51.7922220" lon="39.4694850">
    <ele>140.3</ele>
    <time>2017-03-26T08:44:33Z</time>
   </trkpt>
   <trkpt lat="51.7926100" lon="39.4696740">
    <ele>138.8</ele>
    <time>2017-03-26T08:44:43Z</time>
   </trkpt>
   <trkpt lat="51.7931180" lon="39.4699150">
    <ele>138.5</ele>
    <time>2017-03-26T08:44:55Z</time>
   </trkpt>
   <trkpt lat="51.7935310" lon="39.4701250">
    <ele>140.6</ele>
    <time>2017-03-26T08:45:04Z</time>
   </trkpt>
   <trkpt lat="51.7941500" lon="39.4703960">
    <ele>140.0</ele>
    <time>2017-03-26T08:45:17Z</time>
   </trkpt>
   <trkpt lat="51.7941940" lon="39.4704290">
    <ele>140.1</ele>
    <time>2017-03-26T08:45:18Z</time>
   </trkpt>
   <trkpt lat="51.7942350" lon="39.4704650">
    <ele>140.3</ele>
    <time>2017-03-26T08:45:19Z</time>
   </trkpt>
   <trkpt lat="51.7942780" lon="39.4705020">
    <ele>140.4</ele>
    <time>2017-03-26T08:45:20Z</time>
   </trkpt>
   <trkpt lat="51.7943250" lon="39.4705290">
    <ele>140.4</ele>
    <time>2017-03-26T08:45:21Z</time>
   </trkpt>
   <trkpt lat="51.7943740" lon="39.4705480">
    <ele>140.4</ele>
    <time>2017-03-26T08:45:22Z</time>
   </trkpt>
   <trkpt lat="51.7944210" lon="39.4705700">
    <ele>140.0</ele>
    <time>2017-03-26T08:45:23Z</time>
   </trkpt>
   <trkpt lat="51.7948330" lon="39.4707720">
    <ele>134.5</ele>
    <time>2017-03-26T08:45:33Z</time>
   </trkpt>
   <trkpt lat="51.7948810" lon="39.4707870">
    <ele>133.5</ele>
    <time>2017-03-26T08:45:34Z</time>
   </trkpt>
   <trkpt lat="51.7949150" lon="39.4708090">
    <ele>132.9</ele>
    <time>2017-03-26T08:45:35Z</time>
   </trkpt>
   <trkpt lat="51.7949550" lon="39.4708420">
    <ele>132.2</ele>
    <time>2017-03-26T08:45:36Z</time>
   </trkpt>
   <trkpt lat="51.7949830" lon="39.4708820">
    <ele>131.6</ele>
    <time>2017-03-26T08:45:37Z</time>
   </trkpt>
   <trkpt lat="51.7950160" lon="39.4709250">
    <ele>131.1</ele>
    <time>2017-03-26T08:45:38Z</time>
   </trkpt>
   <trkpt lat="51.7950720" lon="39.4710930">
    <ele>129.7</ele>
    <time>2017-03-26T08:45:41Z</time>
   </trkpt>
   <trkpt lat="51.7950640" lon="39.4711610">
    <ele>129.8</ele>
    <time>2017-03-26T08:45:42Z</time>
   </trkpt>
   <trkpt lat="51.7950620" lon="39.4712330">
    <ele>129.8</ele>
    <time>2017-03-26T08:45:43Z</time>
   </trkpt>
   <trkpt lat="51.7950670" lon="39.4712970">
    <ele>129.8</ele>
    <time>2017-03-26T08:45:44Z</time>
   </trkpt>
   <trkpt lat="51.7950680" lon="39.4713650">
    <ele>129.7</ele>
    <time>2017-03-26T08:45:45Z</time>
   </trkpt>
   <trkpt lat="51.7950660" lon="39.4714380">
    <ele>129.7</ele>
    <time>2017-03-26T08:45:46Z</time>
   </trkpt>
   <trkpt lat="51.7950280" lon="39.4717060">
    <ele>130.5</ele>
    <time>2017-03-26T08:45:51Z</time>
   </trkpt>
   <trkpt lat="51.7950090" lon="39.4718470">
    <ele>131.7</ele>
    <time>2017-03-26T08:45:53Z</time>
   </trkpt>
   <trkpt lat="51.7949990" lon="39.4719200">
    <ele>132.5</ele>
    <time>2017-03-26T08:45:54Z</time>
   </trkpt>
   <trkpt lat="51.7948740" lon="39.4726840">
    <ele>137.0</ele>
    <time>2017-03-26T08:46:04Z</time>
   </trkpt>
   <trkpt lat="51.7948670" lon="39.4727480">
    <ele>137.3</ele>
    <time>2017-03-26T08:46:05Z</time>
   </trkpt>
   <trkpt lat="51.7948520" lon="39.4728120">
    <ele>137.5</ele>
    <time>2017-03-26T08:46:06Z</time>
   </trkpt>
   <trkpt lat="51.7948450" lon="39.4728780">
    <ele>137.5</ele>
    <time>2017-03-26T08:46:07Z</time>
   </trkpt>
   <trkpt lat="51.7948330" lon="39.4729420">
    <ele>137.6</ele>
    <time>2017-03-26T08:46:08Z</time>
   </trkpt>
   <trkpt lat="51.7947440" lon="39.4734080">
    <ele>138.2</ele>
    <time>2017-03-26T08:46:15Z</time>
   </trkpt>
   <trkpt lat="51.7946660" lon="39.4736850">
    <ele>137.8</ele>
    <time>2017-03-26T08:46:19Z</time>
   </trkpt>
   <trkpt lat="51.7946480" lon="39.4737500">
    <ele>137.5</ele>
    <time>2017-03-26T08:46:20Z</time>
   </trkpt>
   <trkpt lat="51.7946280" lon="39.4738190">
    <ele>137.3</ele>
    <time>2017-03-26T08:46:21Z</time>
   </trkpt>
   <trkpt lat="51.7946070" lon="39.4738980">
    <ele>137.2</ele>
    <time>2017-03-26T08:46:22Z</time>
   </trkpt>
   <trkpt lat="51.7945900" lon="39.4739800">
    <ele>137.4</ele>
    <time>2017-03-26T08:46:23Z</time>
   </trkpt>
   <trkpt lat="51.7945780" lon="39.4740590">
    <ele>137.6</ele>
    <time>2017-03-26T08:46:24Z</time>
   </trkpt>
   <trkpt lat="51.7945620" lon="39.4741360">
    <ele>137.7</ele>
    <time>2017-03-26T08:46:25Z</time>
   </trkpt>
   <trkpt lat="51.7944440" lon="39.4748460">
    <ele>137.9</ele>
    <time>2017-03-26T08:46:37Z</time>
   </trkpt>
   <trkpt lat="51.7943150" lon="39.4756070">
    <ele>136.6</ele>
    <time>2017-03-26T08:46:49Z</time>
   </trkpt>
   <trkpt lat="51.7941870" lon="39.4762040">
    <ele>137.2</ele>
    <time>2017-03-26T08:46:59Z</time>
   </trkpt>
   <trkpt lat="51.7941630" lon="39.4763160">
    <ele>137.6</ele>
    <time>2017-03-26T08:47:01Z</time>
   </trkpt>
   <trkpt lat="51.7941480" lon="39.4763750">
    <ele>137.9</ele>
    <time>2017-03-26T08:47:02Z</time>
   </trkpt>
   <trkpt lat="51.7941350" lon="39.4764320">
    <ele>138.1</ele>
    <time>2017-03-26T08:47:03Z</time>
   </trkpt>
   <trkpt lat="51.7940190" lon="39.4770980">
    <ele>142.2</ele>
    <time>2017-03-26T08:47:15Z</time>
   </trkpt>
   <trkpt lat="51.7939330" lon="39.4775160">
    <ele>142.7</ele>
    <time>2017-03-26T08:47:22Z</time>
   </trkpt>
   <trkpt lat="51.7938420" lon="39.4781280">
    <ele>141.0</ele>
    <time>2017-03-26T08:47:32Z</time>
   </trkpt>
   <trkpt lat="51.7936470" lon="39.4789830">
    <ele>137.2</ele>
    <time>2017-03-26T08:47:44Z</time>
   </trkpt>
   <trkpt lat="51.7936140" lon="39.4791820">
    <ele>137.9</ele>
    <time>2017-03-26T08:47:47Z</time>
   </trkpt>
   <trkpt lat="51.7936020" lon="39.4792520">
    <ele>138.1</ele>
    <time>2017-03-26T08:47:48Z</time>
   </trkpt>
   <trkpt lat="51.7935900" lon="39.4793260">
    <ele>138.3</ele>
    <time>2017-03-26T08:47:49Z</time>
   </trkpt>
   <trkpt lat="51.7935510" lon="39.4795080">
    <ele>138.9</ele>
    <time>2017-03-26T08:47:52Z</time>
   </trkpt>
   <trkpt lat="51.7934270" lon="39.4802400">
    <ele>142.2</ele>
    <time>2017-03-26T08:48:04Z</time>
   </trkpt>
   <trkpt lat="51.7933210" lon="39.4808300">
    <ele>143.6</ele>
    <time>2017-03-26T08:48:13Z</time>
   </trkpt>
   <trkpt lat="51.7932210" lon="39.4813820">
    <ele>144.4</ele>
    <time>2017-03-26T08:48:22Z</time>
   </trkpt>
   <trkpt lat="51.7930780" lon="39.4819970">
    <ele>145.0</ele>
    <time>2017-03-26T08:48:32Z</time>
   </trkpt>
   <trkpt lat="51.7930610" lon="39.4821230">
    <ele>145.2</ele>
    <time>2017-03-26T08:48:34Z</time>
   </trkpt>
   <trkpt lat="51.7930540" lon="39.4821790">
    <ele>145.3</ele>
    <time>2017-03-26T08:48:35Z</time>
   </trkpt>
   <trkpt lat="51.7930420" lon="39.4822410">
    <ele>145.6</ele>
    <time>2017-03-26T08:48:36Z</time>
   </trkpt>
   <trkpt lat="51.7929360" lon="39.4827240">
    <ele>146.8</ele>
    <time>2017-03-26T08:48:44Z</time>
   </trkpt>
   <trkpt lat="51.7929260" lon="39.4827920">
    <ele>146.9</ele>
    <time>2017-03-26T08:48:45Z</time>
   </trkpt>
   <trkpt lat="51.7929180" lon="39.4828570">
    <ele>147.1</ele>
    <time>2017-03-26T08:48:46Z</time>
   </trkpt>
   <trkpt lat="51.7928800" lon="39.4831050">
    <ele>148.0</ele>
    <time>2017-03-26T08:48:50Z</time>
   </trkpt>
   <trkpt lat="51.7928630" lon="39.4831700">
    <ele>148.4</ele>
    <time>2017-03-26T08:48:51Z</time>
   </trkpt>
   <trkpt lat="51.7928420" lon="39.4832390">
    <ele>148.8</ele>
    <time>2017-03-26T08:48:52Z</time>
   </trkpt>
   <trkpt lat="51.7928350" lon="39.4833020">
    <ele>149.2</ele>
    <time>2017-03-26T08:48:53Z</time>
   </trkpt>
   <trkpt lat="51.7928230" lon="39.4833610">
    <ele>149.5</ele>
    <time>2017-03-26T08:48:54Z</time>
   </trkpt>
   <trkpt lat="51.7928100" lon="39.4834180">
    <ele>149.7</ele>
    <time>2017-03-26T08:48:55Z</time>
   </trkpt>
   <trkpt lat="51.7927170" lon="39.4839050">
    <ele>151.1</ele>
    <time>2017-03-26T08:49:03Z</time>
   </trkpt>
   <trkpt lat="51.7925820" lon="39.4844790">
    <ele>148.9</ele>
    <time>2017-03-26T08:49:12Z</time>
   </trkpt>
   <trkpt lat="51.7925680" lon="39.4845570">
    <ele>148.5</ele>
    <time>2017-03-26T08:49:13Z</time>
   </trkpt>
   <trkpt lat="51.7923630" lon="39.4857590">
    <ele>143.9</ele>
    <time>2017-03-26T08:49:30Z</time>
   </trkpt>
   <trkpt lat="51.7922670" lon="39.4863590">
    <ele>147.0</ele>
    <time>2017-03-26T08:49:41Z</time>
   </trkpt>
   <trkpt lat="51.7921420" lon="39.4869870">
    <ele>147.7</ele>
    <time>2017-03-26T08:49:52Z</time>
   </trkpt>
   <trkpt lat="51.7920560" lon="39.4874080">
    <ele>147.1</ele>
    <time>2017-03-26T08:49:59Z</time>
   </trkpt>
   <trkpt lat="51.7920480" lon="39.4874770">
    <ele>147.1</ele>
    <time>2017-03-26T08:50:00Z</time>
   </trkpt>
   <trkpt lat="51.7919210" lon="39.4880930">
    <ele>148.2</ele>
    <time>2017-03-26T08:50:09Z</time>
   </trkpt>
   <trkpt lat="51.7919170" lon="39.4881670">
    <ele>148.5</ele>
    <time>2017-03-26T08:50:10Z</time>
   </trkpt>
   <trkpt lat="51.7919070" lon="39.4882480">
    <ele>148.8</ele>
    <time>2017-03-26T08:50:11Z</time>
   </trkpt>
   <trkpt lat="51.7918830" lon="39.4883220">
    <ele>149.2</ele>
    <time>2017-03-26T08:50:12Z</time>
   </trkpt>
   <trkpt lat="51.7918640" lon="39.4884000">
    <ele>149.5</ele>
    <time>2017-03-26T08:50:13Z</time>
   </trkpt>
   <trkpt lat="51.7917480" lon="39.4890530">
    <ele>151.3</ele>
    <time>2017-03-26T08:50:23Z</time>
   </trkpt>
   <trkpt lat="51.7916420" lon="39.4896420">
    <ele>151.3</ele>
    <time>2017-03-26T08:50:32Z</time>
   </trkpt>
   <trkpt lat="51.7916130" lon="39.4899050">
    <ele>150.8</ele>
    <time>2017-03-26T08:50:36Z</time>
   </trkpt>
   <trkpt lat="51.7915870" lon="39.4900730">
    <ele>150.4</ele>
    <time>2017-03-26T08:50:38Z</time>
   </trkpt>
   <trkpt lat="51.7915760" lon="39.4901530">
    <ele>150.2</ele>
    <time>2017-03-26T08:50:39Z</time>
   </trkpt>
   <trkpt lat="51.7915310" lon="39.4903510">
    <ele>150.0</ele>
    <time>2017-03-26T08:50:42Z</time>
   </trkpt>
   <trkpt lat="51.7915290" lon="39.4904130">
    <ele>150.0</ele>
    <time>2017-03-26T08:50:43Z</time>
   </trkpt>
   <trkpt lat="51.7915180" lon="39.4904930">
    <ele>150.0</ele>
    <time>2017-03-26T08:50:44Z</time>
   </trkpt>
   <trkpt lat="51.7915100" lon="39.4905650">
    <ele>150.0</ele>
    <time>2017-03-26T08:50:45Z</time>
   </trkpt>
   <trkpt lat="51.7915020" lon="39.4906320">
    <ele>149.9</ele>
    <time>2017-03-26T08:50:46Z</time>
   </trkpt>
   <trkpt lat="51.7914790" lon="39.4906970">
    <ele>149.8</ele>
    <time>2017-03-26T08:50:47Z</time>
   </trkpt>
   <trkpt lat="51.7914520" lon="39.4907590">
    <ele>149.6</ele>
    <time>2017-03-26T08:50:48Z</time>
   </trkpt>
   <trkpt lat="51.7914310" lon="39.4908220">
    <ele>149.4</ele>
    <time>2017-03-26T08:50:49Z</time>
   </trkpt>
   <trkpt lat="51.7914130" lon="39.4908810">
    <ele>149.1</ele>
    <time>2017-03-26T08:50:50Z</time>
   </trkpt>
   <trkpt lat="51.7913930" lon="39.4909450">
    <ele>148.9</ele>
    <time>2017-03-26T08:50:51Z</time>
   </trkpt>
   <trkpt lat="51.7913740" lon="39.4910070">
    <ele>148.8</ele>
    <time>2017-03-26T08:50:52Z</time>
   </trkpt>
   <trkpt lat="51.7913540" lon="39.4910740">
    <ele>148.8</ele>
    <time>2017-03-26T08:50:53Z</time>
   </trkpt>
   <trkpt lat="51.7913380" lon="39.4911340">
    <ele>148.8</ele>
    <time>2017-03-26T08:50:54Z</time>
   </trkpt>
   <trkpt lat="51.7913200" lon="39.4911990">
    <ele>148.8</ele>
    <time>2017-03-26T08:50:55Z</time>
   </trkpt>
   <trkpt lat="51.7913080" lon="39.4912660">
    <ele>148.8</ele>
    <time>2017-03-26T08:50:56Z</time>
   </trkpt>
   <trkpt lat="51.7912980" lon="39.4913380">
    <ele>148.7</ele>
    <time>2017-03-26T08:50:57Z</time>
   </trkpt>
   <trkpt lat="51.7912820" lon="39.4914120">
    <ele>148.6</ele>
    <time>2017-03-26T08:50:58Z</time>
   </trkpt>
   <trkpt lat="51.7912680" lon="39.4914840">
    <ele>148.5</ele>
    <time>2017-03-26T08:50:59Z</time>
   </trkpt>
   <trkpt lat="51.7912550" lon="39.4915580">
    <ele>148.5</ele>
    <time>2017-03-26T08:51:00Z</time>
   </trkpt>
   <trkpt lat="51.7912420" lon="39.4916240">
    <ele>148.5</ele>
    <time>2017-03-26T08:51:01Z</time>
   </trkpt>
   <trkpt lat="51.7911650" lon="39.4920910">
    <ele>149.5</ele>
    <time>2017-03-26T08:51:08Z</time>
   </trkpt>
   <trkpt lat="51.7911510" lon="39.4921690">
    <ele>149.6</ele>
    <time>2017-03-26T08:51:09Z</time>
   </trkpt>
   <trkpt lat="51.7911430" lon="39.4922330">
    <ele>150.1</ele>
    <time>2017-03-26T08:51:10Z</time>
   </trkpt>
   <trkpt lat="51.7910870" lon="39.4924310">
    <ele>152.8</ele>
    <time>2017-03-26T08:51:13Z</time>
   </trkpt>
   <trkpt lat="51.7910690" lon="39.4925120">
    <ele>154.3</ele>
    <time>2017-03-26T08:51:14Z</time>
   </trkpt>
   <trkpt lat="51.7909110" lon="39.4934010">
    <ele>157.6</ele>
    <time>2017-03-26T08:51:26Z</time>
   </trkpt>
   <trkpt lat="51.7908340" lon="39.4938420">
    <ele>156.0</ele>
    <time>2017-03-26T08:51:33Z</time>
   </trkpt>
   <trkpt lat="51.7908100" lon="39.4939170">
    <ele>155.6</ele>
    <time>2017-03-26T08:51:34Z</time>
   </trkpt>
   <trkpt lat="51.7907950" lon="39.4939870">
    <ele>155.3</ele>
    <time>2017-03-26T08:51:35Z</time>
   </trkpt>
   <trkpt lat="51.7907880" lon="39.4940540">
    <ele>155.1</ele>
    <time>2017-03-26T08:51:36Z</time>
   </trkpt>
   <trkpt lat="51.7907780" lon="39.4941190">
    <ele>154.8</ele>
    <time>2017-03-26T08:51:37Z</time>
   </trkpt>
   <trkpt lat="51.7906280" lon="39.4949820">
    <ele>154.2</ele>
    <time>2017-03-26T08:51:50Z</time>
   </trkpt>
   <trkpt lat="51.7906030" lon="39.4950480">
    <ele>154.3</ele>
    <time>2017-03-26T08:51:51Z</time>
   </trkpt>
   <trkpt lat="51.7905800" lon="39.4951170">
    <ele>154.4</ele>
    <time>2017-03-26T08:51:52Z</time>
   </trkpt>
   <trkpt lat="51.7905730" lon="39.4951900">
    <ele>154.4</ele>
    <time>2017-03-26T08:51:53Z</time>
   </trkpt>
   <trkpt lat="51.7905590" lon="39.4952580">
    <ele>154.6</ele>
    <time>2017-03-26T08:51:54Z</time>
   </trkpt>
   <trkpt lat="51.7905450" lon="39.4953240">
    <ele>154.9</ele>
    <time>2017-03-26T08:51:55Z</time>
   </trkpt>
   <trkpt lat="51.7904290" lon="39.4958310">
    <ele>157.0</ele>
    <time>2017-03-26T08:52:02Z</time>
   </trkpt>
   <trkpt lat="51.7904020" lon="39.4959760">
    <ele>157.8</ele>
    <time>2017-03-26T08:52:04Z</time>
   </trkpt>
   <trkpt lat="51.7903840" lon="39.4960550">
    <ele>158.2</ele>
    <time>2017-03-26T08:52:05Z</time>
   </trkpt>
   <trkpt lat="51.7903560" lon="39.4962270">
    <ele>158.3</ele>
    <time>2017-03-26T08:52:07Z</time>
   </trkpt>
   <trkpt lat="51.7903320" lon="39.4963050">
    <ele>158.1</ele>
    <time>2017-03-26T08:52:08Z</time>
   </trkpt>
   <trkpt lat="51.7903070" lon="39.4963820">
    <ele>157.9</ele>
    <time>2017-03-26T08:52:09Z</time>
   </trkpt>
   <trkpt lat="51.7902870" lon="39.4964620">
    <ele>157.6</ele>
    <time>2017-03-26T08:52:10Z</time>
   </trkpt>
   <trkpt lat="51.7902770" lon="39.4965430">
    <ele>157.2</ele>
    <time>2017-03-26T08:52:11Z</time>
   </trkpt>
   <trkpt lat="51.7902640" lon="39.4966230">
    <ele>156.7</ele>
    <time>2017-03-26T08:52:12Z</time>
   </trkpt>
   <trkpt lat="51.7902510" lon="39.4966990">
    <ele>156.0</ele>
    <time>2017-03-26T08:52:13Z</time>
   </trkpt>
   <trkpt lat="51.7901870" lon="39.4970040">
    <ele>153.4</ele>
    <time>2017-03-26T08:52:17Z</time>
   </trkpt>
   <trkpt lat="51.7901650" lon="39.4970860">
    <ele>152.8</ele>
    <time>2017-03-26T08:52:18Z</time>
   </trkpt>
   <trkpt lat="51.7901040" lon="39.4974170">
    <ele>152.8</ele>
    <time>2017-03-26T08:52:22Z</time>
   </trkpt>
   <trkpt lat="51.7900930" lon="39.4975060">
    <ele>153.0</ele>
    <time>2017-03-26T08:52:23Z</time>
   </trkpt>
   <trkpt lat="51.7900630" lon="39.4976790">
    <ele>153.2</ele>
    <time>2017-03-26T08:52:25Z</time>
   </trkpt>
   <trkpt lat="51.7899970" lon="39.4980700">
    <ele>154.4</ele>
    <time>2017-03-26T08:52:30Z</time>
   </trkpt>
   <trkpt lat="51.7899790" lon="39.4981420">
    <ele>154.6</ele>
    <time>2017-03-26T08:52:31Z</time>
   </trkpt>
   <trkpt lat="51.7899640" lon="39.4982180">
    <ele>154.8</ele>
    <time>2017-03-26T08:52:32Z</time>
   </trkpt>
   <trkpt lat="51.7899440" lon="39.4982970">
    <ele>155.1</ele>
    <time>2017-03-26T08:52:33Z</time>
   </trkpt>
   <trkpt lat="51.7899280" lon="39.4983790">
    <ele>155.4</ele>
    <time>2017-03-26T08:52:34Z</time>
   </trkpt>
   <trkpt lat="51.7899060" lon="39.4984590">
    <ele>155.7</ele>
    <time>2017-03-26T08:52:35Z</time>
   </trkpt>
   <trkpt lat="51.7898910" lon="39.4985390">
    <ele>156.0</ele>
    <time>2017-03-26T08:52:36Z</time>
   </trkpt>
   <trkpt lat="51.7898700" lon="39.4986190">
    <ele>156.0</ele>
    <time>2017-03-26T08:52:37Z</time>
   </trkpt>
   <trkpt lat="51.7898540" lon="39.4986970">
    <ele>155.9</ele>
    <time>2017-03-26T08:52:38Z</time>
   </trkpt>
   <trkpt lat="51.7898430" lon="39.4987670">
    <ele>155.7</ele>
    <time>2017-03-26T08:52:39Z</time>
   </trkpt>
   <trkpt lat="51.7898270" lon="39.4988370">
    <ele>155.6</ele>
    <time>2017-03-26T08:52:40Z</time>
   </trkpt>
   <trkpt lat="51.7898150" lon="39.4989120">
    <ele>155.7</ele>
    <time>2017-03-26T08:52:41Z</time>
   </trkpt>
   <trkpt lat="51.7897950" lon="39.4990600">
    <ele>156.2</ele>
    <time>2017-03-26T08:52:43Z</time>
   </trkpt>
   <trkpt lat="51.7897920" lon="39.4991450">
    <ele>156.5</ele>
    <time>2017-03-26T08:52:44Z</time>
   </trkpt>
   <trkpt lat="51.7897850" lon="39.4992320">
    <ele>156.9</ele>
    <time>2017-03-26T08:52:45Z</time>
   </trkpt>
   <trkpt lat="51.7897470" lon="39.4994660">
    <ele>157.3</ele>
    <time>2017-03-26T08:52:48Z</time>
   </trkpt>
   <trkpt lat="51.7897340" lon="39.4995390">
    <ele>157.4</ele>
    <time>2017-03-26T08:52:49Z</time>
   </trkpt>
   <trkpt lat="51.7895640" lon="39.5003270">
    <ele>155.3</ele>
    <time>2017-03-26T08:53:00Z</time>
   </trkpt>
   <trkpt lat="51.7895540" lon="39.5003940">
    <ele>154.8</ele>
    <time>2017-03-26T08:53:01Z</time>
   </trkpt>
   <trkpt lat="51.7895360" lon="39.5004670">
    <ele>154.1</ele>
    <time>2017-03-26T08:53:02Z</time>
   </trkpt>
   <trkpt lat="51.7895150" lon="39.5005380">
    <ele>154.0</ele>
    <time>2017-03-26T08:53:03Z</time>
   </trkpt>
   <trkpt lat="51.7895020" lon="39.5006080">
    <ele>154.0</ele>
    <time>2017-03-26T08:53:04Z</time>
   </trkpt>
   <trkpt lat="51.7894890" lon="39.5006720">
    <ele>153.8</ele>
    <time>2017-03-26T08:53:05Z</time>
   </trkpt>
   <trkpt lat="51.7894820" lon="39.5007420">
    <ele>153.5</ele>
    <time>2017-03-26T08:53:06Z</time>
   </trkpt>
   <trkpt lat="51.7894800" lon="39.5008180">
    <ele>153.1</ele>
    <time>2017-03-26T08:53:07Z</time>
   </trkpt>
   <trkpt lat="51.7894690" lon="39.5008970">
    <ele>152.7</ele>
    <time>2017-03-26T08:53:08Z</time>
   </trkpt>
   <trkpt lat="51.7894590" lon="39.5009740">
    <ele>152.2</ele>
    <time>2017-03-26T08:53:09Z</time>
   </trkpt>
   <trkpt lat="51.7894520" lon="39.5010510">
    <ele>151.6</ele>
    <time>2017-03-26T08:53:10Z</time>
   </trkpt>
   <trkpt lat="51.7894400" lon="39.5011260">
    <ele>151.4</ele>
    <time>2017-03-26T08:53:11Z</time>
   </trkpt>
   <trkpt lat="51.7894230" lon="39.5011840">
    <ele>151.1</ele>
    <time>2017-03-26T08:53:12Z</time>
   </trkpt>
   <trkpt lat="51.7894010" lon="39.5012490">
    <ele>151.1</ele>
    <time>2017-03-26T08:53:13Z</time>
   </trkpt>
   <trkpt lat="51.7893830" lon="39.5013150">
    <ele>151.1</ele>
    <time>2017-03-26T08:53:14Z</time>
   </trkpt>
   <trkpt lat="51.7893690" lon="39.5013830">
    <ele>151.1</ele>
    <time>2017-03-26T08:53:15Z</time>
   </trkpt>
   <trkpt lat="51.7893500" lon="39.5015530">
    <ele>151.0</ele>
    <time>2017-03-26T08:53:17Z</time>
   </trkpt>
   <trkpt lat="51.7893200" lon="39.5018590">
    <ele>151.0</ele>
    <time>2017-03-26T08:53:21Z</time>
   </trkpt>
   <trkpt lat="51.7892990" lon="39.5019370">
    <ele>151.2</ele>
    <time>2017-03-26T08:53:22Z</time>
   </trkpt>
   <trkpt lat="51.7892360" lon="39.5022310">
    <ele>152.0</ele>
    <time>2017-03-26T08:53:26Z</time>
   </trkpt>
   <trkpt lat="51.7892230" lon="39.5023140">
    <ele>152.1</ele>
    <time>2017-03-26T08:53:27Z</time>
   </trkpt>
   <trkpt lat="51.7892120" lon="39.5023980">
    <ele>152.2</ele>
    <time>2017-03-26T08:53:28Z</time>
   </trkpt>
   <trkpt lat="51.7891950" lon="39.5024840">
    <ele>152.4</ele>
    <time>2017-03-26T08:53:29Z</time>
   </trkpt>
   <trkpt lat="51.7891750" lon="39.5025830">
    <ele>152.9</ele>
    <time>2017-03-26T08:53:30Z</time>
   </trkpt>
   <trkpt lat="51.7891590" lon="39.5026810">
    <ele>153.4</ele>
    <time>2017-03-26T08:53:31Z</time>
   </trkpt>
   <trkpt lat="51.7891370" lon="39.5027690">
    <ele>153.8</ele>
    <time>2017-03-26T08:53:32Z</time>
   </trkpt>
   <trkpt lat="51.7891010" lon="39.5029250">
    <ele>153.8</ele>
    <time>2017-03-26T08:53:34Z</time>
   </trkpt>
   <trkpt lat="51.7890800" lon="39.5029970">
    <ele>153.6</ele>
    <time>2017-03-26T08:53:35Z</time>
   </trkpt>
   <trkpt lat="51.7890660" lon="39.5030760">
    <ele>153.3</ele>
    <time>2017-03-26T08:53:36Z</time>
   </trkpt>
   <trkpt lat="51.7890560" lon="39.5031560">
    <ele>153.0</ele>
    <time>2017-03-26T08:53:37Z</time>
   </trkpt>
   <trkpt lat="51.7890450" lon="39.5032320">
    <ele>152.9</ele>
    <time>2017-03-26T08:53:38Z</time>
   </trkpt>
   <trkpt lat="51.7890110" lon="39.5035860">
    <ele>152.1</ele>
    <time>2017-03-26T08:53:43Z</time>
   </trkpt>
   <trkpt lat="51.7889780" lon="39.5037490">
    <ele>151.7</ele>
    <time>2017-03-26T08:53:45Z</time>
   </trkpt>
   <trkpt lat="51.7889400" lon="39.5039040">
    <ele>151.3</ele>
    <time>2017-03-26T08:53:47Z</time>
   </trkpt>
   <trkpt lat="51.7888220" lon="39.5045220">
    <ele>151.4</ele>
    <time>2017-03-26T08:53:55Z</time>
   </trkpt>
   <trkpt lat="51.7886700" lon="39.5052200">
    <ele>148.6</ele>
    <time>2017-03-26T08:54:05Z</time>
   </trkpt>
   <trkpt lat="51.7886060" lon="39.5055140">
    <ele>147.1</ele>
    <time>2017-03-26T08:54:09Z</time>
   </trkpt>
   <trkpt lat="51.7885960" lon="39.5055830">
    <ele>147.1</ele>
    <time>2017-03-26T08:54:10Z</time>
   </trkpt>
   <trkpt lat="51.7885820" lon="39.5056570">
    <ele>147.1</ele>
    <time>2017-03-26T08:54:11Z</time>
   </trkpt>
   <trkpt lat="51.7885720" lon="39.5057350">
    <ele>147.1</ele>
    <time>2017-03-26T08:54:12Z</time>
   </trkpt>
   <trkpt lat="51.7885540" lon="39.5058040">
    <ele>147.1</ele>
    <time>2017-03-26T08:54:13Z</time>
   </trkpt>
   <trkpt lat="51.7884630" lon="39.5062880">
    <ele>145.8</ele>
    <time>2017-03-26T08:54:22Z</time>
   </trkpt>
   <trkpt lat="51.7884550" lon="39.5063450">
    <ele>145.8</ele>
    <time>2017-03-26T08:54:23Z</time>
   </trkpt>
   <trkpt lat="51.7883490" lon="39.5069400">
    <ele>147.6</ele>
    <time>2017-03-26T08:54:32Z</time>
   </trkpt>
   <trkpt lat="51.7883330" lon="39.5070050">
    <ele>147.7</ele>
    <time>2017-03-26T08:54:33Z</time>
   </trkpt>
   <trkpt lat="51.7883200" lon="39.5070720">
    <ele>147.8</ele>
    <time>2017-03-26T08:54:34Z</time>
   </trkpt>
   <trkpt lat="51.7883070" lon="39.5071460">
    <ele>147.9</ele>
    <time>2017-03-26T08:54:35Z</time>
   </trkpt>
   <trkpt lat="51.7882950" lon="39.5072150">
    <ele>148.0</ele>
    <time>2017-03-26T08:54:36Z</time>
   </trkpt>
   <trkpt lat="51.7882720" lon="39.5072810">
    <ele>148.0</ele>
    <time>2017-03-26T08:54:37Z</time>
   </trkpt>
   <trkpt lat="51.7882490" lon="39.5073500">
    <ele>148.1</ele>
    <time>2017-03-26T08:54:38Z</time>
   </trkpt>
   <trkpt lat="51.7882320" lon="39.5074220">
    <ele>148.2</ele>
    <time>2017-03-26T08:54:39Z</time>
   </trkpt>
   <trkpt lat="51.7882260" lon="39.5075030">
    <ele>148.2</ele>
    <time>2017-03-26T08:54:40Z</time>
   </trkpt>
   <trkpt lat="51.7882200" lon="39.5075790">
    <ele>148.1</ele>
    <time>2017-03-26T08:54:41Z</time>
   </trkpt>
   <trkpt lat="51.7882210" lon="39.5076520">
    <ele>148.0</ele>
    <time>2017-03-26T08:54:42Z</time>
   </trkpt>
   <trkpt lat="51.7882170" lon="39.5077920">
    <ele>147.8</ele>
    <time>2017-03-26T08:54:44Z</time>
   </trkpt>
   <trkpt lat="51.7882190" lon="39.5078600">
    <ele>147.8</ele>
    <time>2017-03-26T08:54:45Z</time>
   </trkpt>
   <trkpt lat="51.7882130" lon="39.5079260">
    <ele>147.8</ele>
    <time>2017-03-26T08:54:46Z</time>
   </trkpt>
   <trkpt lat="51.7882000" lon="39.5079870">
    <ele>147.9</ele>
    <time>2017-03-26T08:54:47Z</time>
   </trkpt>
   <trkpt lat="51.7881890" lon="39.5080400">
    <ele>147.9</ele>
    <time>2017-03-26T08:54:48Z</time>
   </trkpt>
   <trkpt lat="51.7881730" lon="39.5081030">
    <ele>148.0</ele>
    <time>2017-03-26T08:54:49Z</time>
   </trkpt>
   <trkpt lat="51.7880230" lon="39.5087960">
    <ele>150.5</ele>
    <time>2017-03-26T08:55:00Z</time>
   </trkpt>
   <trkpt lat="51.7879260" lon="39.5093530">
    <ele>154.7</ele>
    <time>2017-03-26T08:55:08Z</time>
   </trkpt>
   <trkpt lat="51.7879130" lon="39.5094290">
    <ele>155.0</ele>
    <time>2017-03-26T08:55:09Z</time>
   </trkpt>
   <trkpt lat="51.7879000" lon="39.5095100">
    <ele>155.1</ele>
    <time>2017-03-26T08:55:10Z</time>
   </trkpt>
   <trkpt lat="51.7878890" lon="39.5095790">
    <ele>155.1</ele>
    <time>2017-03-26T08:55:11Z</time>
   </trkpt>
   <trkpt lat="51.7878950" lon="39.5096470">
    <ele>155.1</ele>
    <time>2017-03-26T08:55:12Z</time>
   </trkpt>
   <trkpt lat="51.7878790" lon="39.5097090">
    <ele>155.1</ele>
    <time>2017-03-26T08:55:13Z</time>
   </trkpt>
   <trkpt lat="51.7878620" lon="39.5097660">
    <ele>155.1</ele>
    <time>2017-03-26T08:55:14Z</time>
   </trkpt>
   <trkpt lat="51.7878080" lon="39.5099900">
    <ele>155.7</ele>
    <time>2017-03-26T08:55:17Z</time>
   </trkpt>
   <trkpt lat="51.7877990" lon="39.5100730">
    <ele>155.7</ele>
    <time>2017-03-26T08:55:18Z</time>
   </trkpt>
   <trkpt lat="51.7877850" lon="39.5101470">
    <ele>155.6</ele>
    <time>2017-03-26T08:55:19Z</time>
   </trkpt>
   <trkpt lat="51.7877620" lon="39.5102250">
    <ele>155.4</ele>
    <time>2017-03-26T08:55:20Z</time>
   </trkpt>
   <trkpt lat="51.7877540" lon="39.5103090">
    <ele>155.4</ele>
    <time>2017-03-26T08:55:21Z</time>
   </trkpt>
   <trkpt lat="51.7877470" lon="39.5103820">
    <ele>155.3</ele>
    <time>2017-03-26T08:55:22Z</time>
   </trkpt>
   <trkpt lat="51.7877270" lon="39.5104550">
    <ele>155.4</ele>
    <time>2017-03-26T08:55:23Z</time>
   </trkpt>
   <trkpt lat="51.7877050" lon="39.5105250">
    <ele>155.5</ele>
    <time>2017-03-26T08:55:24Z</time>
   </trkpt>
   <trkpt lat="51.7876790" lon="39.5105890">
    <ele>155.6</ele>
    <time>2017-03-26T08:55:25Z</time>
   </trkpt>
   <trkpt lat="51.7876530" lon="39.5106610">
    <ele>155.6</ele>
    <time>2017-03-26T08:55:26Z</time>
   </trkpt>
   <trkpt lat="51.7876280" lon="39.5107390">
    <ele>155.5</ele>
    <time>2017-03-26T08:55:27Z</time>
   </trkpt>
   <trkpt lat="51.7875320" lon="39.5110970">
    <ele>153.9</ele>
    <time>2017-03-26T08:55:32Z</time>
   </trkpt>
   <trkpt lat="51.7875160" lon="39.5111740">
    <ele>153.4</ele>
    <time>2017-03-26T08:55:33Z</time>
   </trkpt>
   <trkpt lat="51.7875000" lon="39.5112460">
    <ele>153.1</ele>
    <time>2017-03-26T08:55:34Z</time>
   </trkpt>
   <trkpt lat="51.7874850" lon="39.5113110">
    <ele>152.8</ele>
    <time>2017-03-26T08:55:35Z</time>
   </trkpt>
   <trkpt lat="51.7874800" lon="39.5113790">
    <ele>152.5</ele>
    <time>2017-03-26T08:55:36Z</time>
   </trkpt>
   <trkpt lat="51.7874730" lon="39.5114530">
    <ele>152.2</ele>
    <time>2017-03-26T08:55:37Z</time>
   </trkpt>
   <trkpt lat="51.7874610" lon="39.5115290">
    <ele>151.8</ele>
    <time>2017-03-26T08:55:38Z</time>
   </trkpt>
   <trkpt lat="51.7874540" lon="39.5116020">
    <ele>151.5</ele>
    <time>2017-03-26T08:55:39Z</time>
   </trkpt>
   <trkpt lat="51.7874020" lon="39.5117920">
    <ele>150.9</ele>
    <time>2017-03-26T08:55:42Z</time>
   </trkpt>
   <trkpt lat="51.7873860" lon="39.5118520">
    <ele>150.8</ele>
    <time>2017-03-26T08:55:43Z</time>
   </trkpt>
   <trkpt lat="51.7873730" lon="39.5119110">
    <ele>150.9</ele>
    <time>2017-03-26T08:55:44Z</time>
   </trkpt>
   <trkpt lat="51.7873510" lon="39.5119780">
    <ele>150.9</ele>
    <time>2017-03-26T08:55:45Z</time>
   </trkpt>
   <trkpt lat="51.7873350" lon="39.5120420">
    <ele>151.0</ele>
    <time>2017-03-26T08:55:46Z</time>
   </trkpt>
   <trkpt lat="51.7872620" lon="39.5125070">
    <ele>151.8</ele>
    <time>2017-03-26T08:55:54Z</time>
   </trkpt>
   <trkpt lat="51.7872460" lon="39.5125630">
    <ele>151.6</ele>
    <time>2017-03-26T08:55:55Z</time>
   </trkpt>
   <trkpt lat="51.7872260" lon="39.5126300">
    <ele>151.9</ele>
    <time>2017-03-26T08:55:56Z</time>
   </trkpt>
   <trkpt lat="51.7872130" lon="39.5127030">
    <ele>151.8</ele>
    <time>2017-03-26T08:55:57Z</time>
   </trkpt>
   <trkpt lat="51.7871990" lon="39.5127780">
    <ele>152.0</ele>
    <time>2017-03-26T08:55:58Z</time>
   </trkpt>
   <trkpt lat="51.7871910" lon="39.5128440">
    <ele>151.9</ele>
    <time>2017-03-26T08:55:59Z</time>
   </trkpt>
   <trkpt lat="51.7870250" lon="39.5133360">
    <ele>152.5</ele>
    <time>2017-03-26T08:56:08Z</time>
   </trkpt>
   <trkpt lat="51.7870070" lon="39.5133920">
    <ele>152.3</ele>
    <time>2017-03-26T08:56:09Z</time>
   </trkpt>
   <trkpt lat="51.7869940" lon="39.5134510">
    <ele>152.2</ele>
    <time>2017-03-26T08:56:10Z</time>
   </trkpt>
   <trkpt lat="51.7869780" lon="39.5135080">
    <ele>151.9</ele>
    <time>2017-03-26T08:56:11Z</time>
   </trkpt>
   <trkpt lat="51.7869680" lon="39.5135680">
    <ele>151.8</ele>
    <time>2017-03-26T08:56:12Z</time>
   </trkpt>
   <trkpt lat="51.7869530" lon="39.5136230">
    <ele>151.7</ele>
    <time>2017-03-26T08:56:13Z</time>
   </trkpt>
   <trkpt lat="51.7869340" lon="39.5136790">
    <ele>151.7</ele>
    <time>2017-03-26T08:56:14Z</time>
   </trkpt>
   <trkpt lat="51.7869310" lon="39.5137440">
    <ele>151.7</ele>
    <time>2017-03-26T08:56:15Z</time>
   </trkpt>
   <trkpt lat="51.7869280" lon="39.5138020">
    <ele>152.0</ele>
    <time>2017-03-26T08:56:16Z</time>
   </trkpt>
   <trkpt lat="51.7869210" lon="39.5139940">
    <ele>152.3</ele>
    <time>2017-03-26T08:56:19Z</time>
   </trkpt>
   <trkpt lat="51.7869250" lon="39.5140570">
    <ele>152.2</ele>
    <time>2017-03-26T08:56:20Z</time>
   </trkpt>
   <trkpt lat="51.7869260" lon="39.5141060">
    <ele>152.1</ele>
    <time>2017-03-26T08:56:21Z</time>
   </trkpt>
   <trkpt lat="51.7869250" lon="39.5141570">
    <ele>152.1</ele>
    <time>2017-03-26T08:56:22Z</time>
   </trkpt>
   <trkpt lat="51.7869220" lon="39.5142170">
    <ele>152.1</ele>
    <time>2017-03-26T08:56:23Z</time>
   </trkpt>
   <trkpt lat="51.7868320" lon="39.5146880">
    <ele>153.1</ele>
    <time>2017-03-26T08:56:31Z</time>
   </trkpt>
   <trkpt lat="51.7866850" lon="39.5152380">
    <ele>152.2</ele>
    <time>2017-03-26T08:56:41Z</time>
   </trkpt>
   <trkpt lat="51.7866900" lon="39.5152690">
    <ele>151.9</ele>
    <time>2017-03-26T08:56:42Z</time>
   </trkpt>
   <trkpt lat="51.7867080" lon="39.5152910">
    <ele>151.7</ele>
    <time>2017-03-26T08:56:43Z</time>
   </trkpt>
   <trkpt lat="51.7867260" lon="39.5153070">
    <ele>151.8</ele>
    <time>2017-03-26T08:56:44Z</time>
   </trkpt>
   <trkpt lat="51.7867520" lon="39.5153240">
    <ele>151.8</ele>
    <time>2017-03-26T08:56:45Z</time>
   </trkpt>
   <trkpt lat="51.7867800" lon="39.5153560">
    <ele>151.8</ele>
    <time>2017-03-26T08:56:46Z</time>
   </trkpt>
   <trkpt lat="51.7868070" lon="39.5153800">
    <ele>151.9</ele>
    <time>2017-03-26T08:56:47Z</time>
   </trkpt>
   <trkpt lat="51.7868380" lon="39.5154120">
    <ele>152.0</ele>
    <time>2017-03-26T08:56:48Z</time>
   </trkpt>
   <trkpt lat="51.7868650" lon="39.5154410">
    <ele>152.1</ele>
    <time>2017-03-26T08:56:49Z</time>
   </trkpt>
   <trkpt lat="51.7871880" lon="39.5156860">
    <ele>151.3</ele>
    <time>2017-03-26T08:56:59Z</time>
   </trkpt>
   <trkpt lat="51.7872410" lon="39.5157170">
    <ele>151.0</ele>
    <time>2017-03-26T08:57:00Z</time>
   </trkpt>
   <trkpt lat="51.7872900" lon="39.5157500">
    <ele>150.9</ele>
    <time>2017-03-26T08:57:01Z</time>
   </trkpt>
   <trkpt lat="51.7873340" lon="39.5157810">
    <ele>150.8</ele>
    <time>2017-03-26T08:57:02Z</time>
   </trkpt>
   <trkpt lat="51.7877260" lon="39.5160370">
    <ele>151.8</ele>
    <time>2017-03-26T08:57:13Z</time>
   </trkpt>
   <trkpt lat="51.7877590" lon="39.5160570">
    <ele>151.8</ele>
    <time>2017-03-26T08:57:14Z</time>
   </trkpt>
   <trkpt lat="51.7877960" lon="39.5160750">
    <ele>151.8</ele>
    <time>2017-03-26T08:57:15Z</time>
   </trkpt>
   <trkpt lat="51.7878330" lon="39.5160840">
    <ele>151.8</ele>
    <time>2017-03-26T08:57:16Z</time>
   </trkpt>
   <trkpt lat="51.7878690" lon="39.5160970">
    <ele>151.8</ele>
    <time>2017-03-26T08:57:17Z</time>
   </trkpt>
   <trkpt lat="51.7879160" lon="39.5161170">
    <ele>151.9</ele>
    <time>2017-03-26T08:57:18Z</time>
   </trkpt>
   <trkpt lat="51.7879670" lon="39.5161400">
    <ele>152.1</ele>
    <time>2017-03-26T08:57:19Z</time>
   </trkpt>
   <trkpt lat="51.7880070" lon="39.5161650">
    <ele>152.3</ele>
    <time>2017-03-26T08:57:20Z</time>
   </trkpt>
   <trkpt lat="51.7881230" lon="39.5162400">
    <ele>152.6</ele>
    <time>2017-03-26T08:57:23Z</time>
   </trkpt>
   <trkpt lat="51.7881650" lon="39.5162590">
    <ele>152.7</ele>
    <time>2017-03-26T08:57:24Z</time>
   </trkpt>
   <trkpt lat="51.7882070" lon="39.5162790">
    <ele>152.9</ele>
    <time>2017-03-26T08:57:25Z</time>
   </trkpt>
   <trkpt lat="51.7882470" lon="39.5163040">
    <ele>153.1</ele>
    <time>2017-03-26T08:57:26Z</time>
   </trkpt>
   <trkpt lat="51.7882860" lon="39.5163270">
    <ele>153.3</ele>
    <time>2017-03-26T08:57:27Z</time>
   </trkpt>
   <trkpt lat="51.7885430" lon="39.5164570">
    <ele>154.2</ele>
    <time>2017-03-26T08:57:33Z</time>
   </trkpt>
   <trkpt lat="51.7885950" lon="39.5164810">
    <ele>154.4</ele>
    <time>2017-03-26T08:57:34Z</time>
   </trkpt>
   <trkpt lat="51.7886460" lon="39.5165020">
    <ele>154.7</ele>
    <time>2017-03-26T08:57:35Z</time>
   </trkpt>
   <trkpt lat="51.7892040" lon="39.5167400">
    <ele>154.1</ele>
    <time>2017-03-26T08:57:48Z</time>
   </trkpt>
   <trkpt lat="51.7896560" lon="39.5169780">
    <ele>153.3</ele>
    <time>2017-03-26T08:57:59Z</time>
   </trkpt>
   <trkpt lat="51.7898280" lon="39.5170680">
    <ele>154.1</ele>
    <time>2017-03-26T08:58:03Z</time>
   </trkpt>
   <trkpt lat="51.7901670" lon="39.5172200">
    <ele>154.7</ele>
    <time>2017-03-26T08:58:11Z</time>
   </trkpt>
   <trkpt lat="51.7905720" lon="39.5174550">
    <ele>153.6</ele>
    <time>2017-03-26T08:58:21Z</time>
   </trkpt>
   <trkpt lat="51.7906460" lon="39.5174890">
    <ele>153.6</ele>
    <time>2017-03-26T08:58:23Z</time>
   </trkpt>
   <trkpt lat="51.7906850" lon="39.5174970">
    <ele>153.6</ele>
    <time>2017-03-26T08:58:24Z</time>
   </trkpt>
   <trkpt lat="51.7907280" lon="39.5175070">
    <ele>153.6</ele>
    <time>2017-03-26T08:58:25Z</time>
   </trkpt>
   <trkpt lat="51.7907640" lon="39.5175260">
    <ele>153.6</ele>
    <time>2017-03-26T08:58:26Z</time>
   </trkpt>
   <trkpt lat="51.7908010" lon="39.5175490">
    <ele>153.6</ele>
    <time>2017-03-26T08:58:27Z</time>
   </trkpt>
   <trkpt lat="51.7908360" lon="39.5175750">
    <ele>153.5</ele>
    <time>2017-03-26T08:58:28Z</time>
   </trkpt>
   <trkpt lat="51.7908670" lon="39.5176000">
    <ele>153.3</ele>
    <time>2017-03-26T08:58:29Z</time>
   </trkpt>
   <trkpt lat="51.7912560" lon="39.5178320">
    <ele>150.5</ele>
    <time>2017-03-26T08:58:39Z</time>
   </trkpt>
   <trkpt lat="51.7915710" lon="39.5179460">
    <ele>151.5</ele>
    <time>2017-03-26T08:58:48Z</time>
   </trkpt>
   <trkpt lat="51.7915780" lon="39.5179530">
    <ele>151.5</ele>
    <time>2017-03-26T08:58:49Z</time>
   </trkpt>
   <trkpt lat="51.7918540" lon="39.5180810">
    <ele>151.1</ele>
    <time>2017-03-26T08:59:26Z</time>
   </trkpt>
   <trkpt lat="51.7921720" lon="39.5182080">
    <ele>150.1</ele>
    <time>2017-03-26T08:59:37Z</time>
   </trkpt>
   <trkpt lat="51.7925510" lon="39.5184500">
    <ele>150.9</ele>
    <time>2017-03-26T08:59:49Z</time>
   </trkpt>
   <trkpt lat="51.7929690" lon="39.5186840">
    <ele>152.7</ele>
    <time>2017-03-26T09:00:00Z</time>
   </trkpt>
   <trkpt lat="51.7935170" lon="39.5189190">
    <ele>151.8</ele>
    <time>2017-03-26T09:00:13Z</time>
   </trkpt>
   <trkpt lat="51.7940270" lon="39.5192150">
    <ele>153.0</ele>
    <time>2017-03-26T09:00:26Z</time>
   </trkpt>
   <trkpt lat="51.7940680" lon="39.5192350">
    <ele>153.0</ele>
    <time>2017-03-26T09:00:27Z</time>
   </trkpt>
   <trkpt lat="51.7944340" lon="39.5193980">
    <ele>153.8</ele>
    <time>2017-03-26T09:00:37Z</time>
   </trkpt>
   <trkpt lat="51.7947990" lon="39.5196140">
    <ele>154.0</ele>
    <time>2017-03-26T09:00:46Z</time>
   </trkpt>
   <trkpt lat="51.7948460" lon="39.5196370">
    <ele>154.2</ele>
    <time>2017-03-26T09:00:47Z</time>
   </trkpt>
   <trkpt lat="51.7948950" lon="39.5196630">
    <ele>154.4</ele>
    <time>2017-03-26T09:00:48Z</time>
   </trkpt>
   <trkpt lat="51.7950330" lon="39.5197380">
    <ele>154.9</ele>
    <time>2017-03-26T09:00:51Z</time>
   </trkpt>
   <trkpt lat="51.7951790" lon="39.5197960">
    <ele>154.7</ele>
    <time>2017-03-26T09:00:54Z</time>
   </trkpt>
   <trkpt lat="51.7956610" lon="39.5199220">
    <ele>150.6</ele>
    <time>2017-03-26T09:01:03Z</time>
   </trkpt>
   <trkpt lat="51.7957090" lon="39.5199010">
    <ele>150.6</ele>
    <time>2017-03-26T09:01:04Z</time>
   </trkpt>
   <trkpt lat="51.7957470" lon="39.5198680">
    <ele>150.6</ele>
    <time>2017-03-26T09:01:05Z</time>
   </trkpt>
   <trkpt lat="51.7957690" lon="39.5198200">
    <ele>150.7</ele>
    <time>2017-03-26T09:01:06Z</time>
   </trkpt>
   <trkpt lat="51.7958000" lon="39.5197660">
    <ele>151.0</ele>
    <time>2017-03-26T09:01:07Z</time>
   </trkpt>
   <trkpt lat="51.7958290" lon="39.5197200">
    <ele>151.2</ele>
    <time>2017-03-26T09:01:08Z</time>
   </trkpt>
   <trkpt lat="51.7958650" lon="39.5196720">
    <ele>151.3</ele>
    <time>2017-03-26T09:01:09Z</time>
   </trkpt>
   <trkpt lat="51.7959110" lon="39.5196230">
    <ele>151.2</ele>
    <time>2017-03-26T09:01:10Z</time>
   </trkpt>
   <trkpt lat="51.7959570" lon="39.5195800">
    <ele>151.2</ele>
    <time>2017-03-26T09:01:11Z</time>
   </trkpt>
   <trkpt lat="51.7960780" lon="39.5194300">
    <ele>150.8</ele>
    <time>2017-03-26T09:01:14Z</time>
   </trkpt>
   <trkpt lat="51.7961080" lon="39.5193700">
    <ele>150.6</ele>
    <time>2017-03-26T09:01:15Z</time>
   </trkpt>
   <trkpt lat="51.7961310" lon="39.5193030">
    <ele>150.5</ele>
    <time>2017-03-26T09:01:16Z</time>
   </trkpt>
   <trkpt lat="51.7963730" lon="39.5184870">
    <ele>149.2</ele>
    <time>2017-03-26T09:01:30Z</time>
   </trkpt>
   <trkpt lat="51.7963950" lon="39.5183120">
    <ele>149.0</ele>
    <time>2017-03-26T09:01:40Z</time>
   </trkpt>
   <trkpt lat="51.7964780" lon="39.5185740">
    <ele>149.0</ele>
    <time>2017-03-26T09:12:18Z</time>
   </trkpt>
   <trkpt lat="51.7964810" lon="39.5188290">
    <ele>149.1</ele>
    <time>2017-03-26T09:12:24Z</time>
   </trkpt>
   <trkpt lat="51.7964910" lon="39.5188690">
    <ele>149.2</ele>
    <time>2017-03-26T09:12:25Z</time>
   </trkpt>
   <trkpt lat="51.7965090" lon="39.5189040">
    <ele>149.3</ele>
    <time>2017-03-26T09:12:26Z</time>
   </trkpt>
   <trkpt lat="51.7965340" lon="39.5189390">
    <ele>149.4</ele>
    <time>2017-03-26T09:12:27Z</time>
   </trkpt>
   <trkpt lat="51.7965640" lon="39.5189690">
    <ele>149.5</ele>
    <time>2017-03-26T09:12:28Z</time>
   </trkpt>
   <trkpt lat="51.7965940" lon="39.5189980">
    <ele>149.7</ele>
    <time>2017-03-26T09:12:29Z</time>
   </trkpt>
   <trkpt lat="51.7969480" lon="39.5194750">
    <ele>148.9</ele>
    <time>2017-03-26T09:12:42Z</time>
   </trkpt>
   <trkpt lat="51.7970320" lon="39.5200920">
    <ele>143.7</ele>
    <time>2017-03-26T09:12:53Z</time>
   </trkpt>
   <trkpt lat="51.7970030" lon="39.5204380">
    <ele>144.8</ele>
    <time>2017-03-26T09:13:00Z</time>
   </trkpt>
   <trkpt lat="51.7970150" lon="39.5204820">
    <ele>144.9</ele>
    <time>2017-03-26T09:13:01Z</time>
   </trkpt>
   <trkpt lat="51.7970930" lon="39.5207650">
    <ele>145.2</ele>
    <time>2017-03-26T09:13:07Z</time>
   </trkpt>
   <trkpt lat="51.7971550" lon="39.5213510">
    <ele>147.0</ele>
    <time>2017-03-26T09:13:17Z</time>
   </trkpt>
   <trkpt lat="51.7972040" lon="39.5222040">
    <ele>148.0</ele>
    <time>2017-03-26T09:13:30Z</time>
   </trkpt>
   <trkpt lat="51.7973290" lon="39.5228360">
    <ele>152.1</ele>
    <time>2017-03-26T09:13:41Z</time>
   </trkpt>
   <trkpt lat="51.7973510" lon="39.5234090">
    <ele>154.1</ele>
    <time>2017-03-26T09:13:51Z</time>
   </trkpt>
   <trkpt lat="51.7973760" lon="39.5241160">
    <ele>156.0</ele>
    <time>2017-03-26T09:14:03Z</time>
   </trkpt>
   <trkpt lat="51.7974680" lon="39.5246210">
    <ele>157.7</ele>
    <time>2017-03-26T09:14:12Z</time>
   </trkpt>
   <trkpt lat="51.7976060" lon="39.5252780">
    <ele>156.2</ele>
    <time>2017-03-26T09:14:23Z</time>
   </trkpt>
   <trkpt lat="51.7977850" lon="39.5259120">
    <ele>157.5</ele>
    <time>2017-03-26T09:14:34Z</time>
   </trkpt>
   <trkpt lat="51.7979910" lon="39.5265280">
    <ele>158.3</ele>
    <time>2017-03-26T09:14:44Z</time>
   </trkpt>
   <trkpt lat="51.7982360" lon="39.5272010">
    <ele>156.0</ele>
    <time>2017-03-26T09:14:55Z</time>
   </trkpt>
   <trkpt lat="51.7984120" lon="39.5277600">
    <ele>158.5</ele>
    <time>2017-03-26T09:15:05Z</time>
   </trkpt>
   <trkpt lat="51.7986820" lon="39.5284640">
    <ele>155.9</ele>
    <time>2017-03-26T09:15:17Z</time>
   </trkpt>
   <trkpt lat="51.7987620" lon="39.5287900">
    <ele>151.8</ele>
    <time>2017-03-26T09:15:22Z</time>
   </trkpt>
   <trkpt lat="51.7987900" lon="39.5288400">
    <ele>151.1</ele>
    <time>2017-03-26T09:15:23Z</time>
   </trkpt>
   <trkpt lat="51.7988170" lon="39.5288780">
    <ele>150.7</ele>
    <time>2017-03-26T09:15:24Z</time>
   </trkpt>
   <trkpt lat="51.7988430" lon="39.5289090">
    <ele>150.4</ele>
    <time>2017-03-26T09:15:25Z</time>
   </trkpt>
   <trkpt lat="51.7988750" lon="39.5289450">
    <ele>150.1</ele>
    <time>2017-03-26T09:15:26Z</time>
   </trkpt>
   <trkpt lat="51.7990510" lon="39.5293470">
    <ele>150.5</ele>
    <time>2017-03-26T09:15:34Z</time>
   </trkpt>
   <trkpt lat="51.7989770" lon="39.5299160">
    <ele>149.5</ele>
    <time>2017-03-26T09:15:43Z</time>
   </trkpt>
   <trkpt lat="51.7989640" lon="39.5299790">
    <ele>149.6</ele>
    <time>2017-03-26T09:15:44Z</time>
   </trkpt>
   <trkpt lat="51.7989570" lon="39.5300420">
    <ele>149.8</ele>
    <time>2017-03-26T09:15:45Z</time>
   </trkpt>
   <trkpt lat="51.7989480" lon="39.5301060">
    <ele>150.0</ele>
    <time>2017-03-26T09:15:46Z</time>
   </trkpt>
   <trkpt lat="51.7989360" lon="39.5301640">
    <ele>150.2</ele>
    <time>2017-03-26T09:15:47Z</time>
   </trkpt>
   <trkpt lat="51.7989250" lon="39.5302240">
    <ele>150.4</ele>
    <time>2017-03-26T09:15:48Z</time>
   </trkpt>
   <trkpt lat="51.7989120" lon="39.5302860">
    <ele>150.5</ele>
    <time>2017-03-26T09:15:49Z</time>
   </trkpt>
   <trkpt lat="51.7989050" lon="39.5303500">
    <ele>150.6</ele>
    <time>2017-03-26T09:15:50Z</time>
   </trkpt>
   <trkpt lat="51.7989010" lon="39.5304130">
    <ele>150.6</ele>
    <time>2017-03-26T09:15:51Z</time>
   </trkpt>
   <trkpt lat="51.7987810" lon="39.5311250">
    <ele>151.7</ele>
    <time>2017-03-26T09:16:03Z</time>
   </trkpt>
   <trkpt lat="51.7986110" lon="39.5319550">
    <ele>152.4</ele>
    <time>2017-03-26T09:16:16Z</time>
   </trkpt>
   <trkpt lat="51.7984790" lon="39.5325820">
    <ele>153.7</ele>
    <time>2017-03-26T09:16:26Z</time>
   </trkpt>
   <trkpt lat="51.7983710" lon="39.5332600">
    <ele>155.9</ele>
    <time>2017-03-26T09:16:38Z</time>
   </trkpt>
   <trkpt lat="51.7983600" lon="39.5333350">
    <ele>156.5</ele>
    <time>2017-03-26T09:16:42Z</time>
   </trkpt>
   <trkpt lat="51.7983590" lon="39.5333580">
    <ele>156.7</ele>
    <time>2017-03-26T09:16:43Z</time>
   </trkpt>
   <trkpt lat="51.7983590" lon="39.5333840">
    <ele>156.8</ele>
    <time>2017-03-26T09:16:44Z</time>
   </trkpt>
   <trkpt lat="51.7983580" lon="39.5334110">
    <ele>157.0</ele>
    <time>2017-03-26T09:16:45Z</time>
   </trkpt>
   <trkpt lat="51.7983550" lon="39.5334370">
    <ele>157.1</ele>
    <time>2017-03-26T09:16:46Z</time>
   </trkpt>
   <trkpt lat="51.7982790" lon="39.5337960">
    <ele>159.0</ele>
    <time>2017-03-26T09:17:03Z</time>
   </trkpt>
   <trkpt lat="51.7982210" lon="39.5341270">
    <ele>159.8</ele>
    <time>2017-03-26T09:17:19Z</time>
   </trkpt>
   <trkpt lat="51.7981700" lon="39.5344250">
    <ele>159.9</ele>
    <time>2017-03-26T09:17:35Z</time>
   </trkpt>
   <trkpt lat="51.7981150" lon="39.5347190">
    <ele>160.2</ele>
    <time>2017-03-26T09:17:52Z</time>
   </trkpt>
   <trkpt lat="51.7980460" lon="39.5349920">
    <ele>160.5</ele>
    <time>2017-03-26T09:18:07Z</time>
   </trkpt>
   <trkpt lat="51.7979960" lon="39.5352390">
    <ele>160.6</ele>
    <time>2017-03-26T09:18:23Z</time>
   </trkpt>
   <trkpt lat="51.7979920" lon="39.5352680">
    <ele>160.6</ele>
    <time>2017-03-26T09:18:24Z</time>
   </trkpt>
   <trkpt lat="51.7979880" lon="39.5353000">
    <ele>160.6</ele>
    <time>2017-03-26T09:18:25Z</time>
   </trkpt>
   <trkpt lat="51.7979840" lon="39.5353350">
    <ele>160.6</ele>
    <time>2017-03-26T09:18:26Z</time>
   </trkpt>
   <trkpt lat="51.7979820" lon="39.5353690">
    <ele>160.7</ele>
    <time>2017-03-26T09:18:27Z</time>
   </trkpt>
   <trkpt lat="51.7979780" lon="39.5354020">
    <ele>160.7</ele>
    <time>2017-03-26T09:18:28Z</time>
   </trkpt>
   <trkpt lat="51.7979770" lon="39.5354330">
    <ele>160.7</ele>
    <time>2017-03-26T09:18:29Z</time>
   </trkpt>
   <trkpt lat="51.7979730" lon="39.5354580">
    <ele>160.7</ele>
    <time>2017-03-26T09:18:30Z</time>
   </trkpt>
   <trkpt lat="51.7980410" lon="39.5358750">
    <ele>160.7</ele>
    <time>2017-03-26T09:18:43Z</time>
   </trkpt>
   <trkpt lat="51.7980490" lon="39.5359590">
    <ele>160.7</ele>
    <time>2017-03-26T09:18:45Z</time>
   </trkpt>
   <trkpt lat="51.7980470" lon="39.5359950">
    <ele>160.7</ele>
    <time>2017-03-26T09:18:46Z</time>
   </trkpt>
   <trkpt lat="51.7980440" lon="39.5360310">
    <ele>160.7</ele>
    <time>2017-03-26T09:18:47Z</time>
   </trkpt>
   <trkpt lat="51.7980460" lon="39.5360720">
    <ele>160.7</ele>
    <time>2017-03-26T09:18:48Z</time>
   </trkpt>
   <trkpt lat="51.7980460" lon="39.5361070">
    <ele>160.7</ele>
    <time>2017-03-26T09:18:49Z</time>
   </trkpt>
   <trkpt lat="51.7980440" lon="39.5361400">
    <ele>160.7</ele>
    <time>2017-03-26T09:18:50Z</time>
   </trkpt>
   <trkpt lat="51.7980380" lon="39.5361840">
    <ele>160.8</ele>
    <time>2017-03-26T09:18:51Z</time>
   </trkpt>
   <trkpt lat="51.7980260" lon="39.5362330">
    <ele>160.8</ele>
    <time>2017-03-26T09:18:52Z</time>
   </trkpt>
   <trkpt lat="51.7980180" lon="39.5362830">
    <ele>160.8</ele>
    <time>2017-03-26T09:18:53Z</time>
   </trkpt>
   <trkpt lat="51.7980060" lon="39.5363300">
    <ele>160.7</ele>
    <time>2017-03-26T09:18:54Z</time>
   </trkpt>
   <trkpt lat="51.7979400" lon="39.5368580">
    <ele>158.8</ele>
    <time>2017-03-26T09:19:03Z</time>
   </trkpt>
   <trkpt lat="51.7981510" lon="39.5373680">
    <ele>157.9</ele>
    <time>2017-03-26T09:19:14Z</time>
   </trkpt>
   <trkpt lat="51.7984480" lon="39.5373360">
    <ele>156.7</ele>
    <time>2017-03-26T09:19:25Z</time>
   </trkpt>
   <trkpt lat="51.7984730" lon="39.5373360">
    <ele>156.5</ele>
    <time>2017-03-26T09:19:26Z</time>
   </trkpt>
   <trkpt lat="51.7985100" lon="39.5373360">
    <ele>156.3</ele>
    <time>2017-03-26T09:19:28Z</time>
   </trkpt>
   <trkpt lat="51.7985450" lon="39.5373500">
    <ele>156.1</ele>
    <time>2017-03-26T09:19:30Z</time>
   </trkpt>
   <trkpt lat="51.7985600" lon="39.5373680">
    <ele>156.0</ele>
    <time>2017-03-26T09:19:31Z</time>
   </trkpt>
   <trkpt lat="51.7986490" lon="39.5375190">
    <ele>155.1</ele>
    <time>2017-03-26T09:19:39Z</time>
   </trkpt>
   <trkpt lat="51.7986750" lon="39.5375300">
    <ele>155.0</ele>
    <time>2017-03-26T09:19:40Z</time>
   </trkpt>
   <trkpt lat="51.7986980" lon="39.5375430">
    <ele>154.8</ele>
    <time>2017-03-26T09:19:41Z</time>
   </trkpt>
   <trkpt lat="51.7987210" lon="39.5375630">
    <ele>154.7</ele>
    <time>2017-03-26T09:19:42Z</time>
   </trkpt>
   <trkpt lat="51.7987460" lon="39.5375790">
    <ele>154.5</ele>
    <time>2017-03-26T09:19:43Z</time>
   </trkpt>
   <trkpt lat="51.7987720" lon="39.5375970">
    <ele>154.4</ele>
    <time>2017-03-26T09:19:44Z</time>
   </trkpt>
   <trkpt lat="51.7988020" lon="39.5376160">
    <ele>154.1</ele>
    <time>2017-03-26T09:19:45Z</time>
   </trkpt>
   <trkpt lat="51.7988320" lon="39.5376330">
    <ele>154.0</ele>
    <time>2017-03-26T09:19:46Z</time>
   </trkpt>
   <trkpt lat="51.7988710" lon="39.5376530">
    <ele>153.8</ele>
    <time>2017-03-26T09:19:47Z</time>
   </trkpt>
   <trkpt lat="51.7989070" lon="39.5376750">
    <ele>153.7</ele>
    <time>2017-03-26T09:19:48Z</time>
   </trkpt>
   <trkpt lat="51.7989420" lon="39.5376910">
    <ele>153.7</ele>
    <time>2017-03-26T09:19:49Z</time>
   </trkpt>
   <trkpt lat="51.7989760" lon="39.5377090">
    <ele>153.7</ele>
    <time>2017-03-26T09:19:50Z</time>
   </trkpt>
   <trkpt lat="51.7990130" lon="39.5377250">
    <ele>153.9</ele>
    <time>2017-03-26T09:19:51Z</time>
   </trkpt>
   <trkpt lat="51.7990480" lon="39.5377350">
    <ele>154.2</ele>
    <time>2017-03-26T09:19:52Z</time>
   </trkpt>
   <trkpt lat="51.7990880" lon="39.5377530">
    <ele>154.5</ele>
    <time>2017-03-26T09:19:53Z</time>
   </trkpt>
   <trkpt lat="51.7991260" lon="39.5377830">
    <ele>154.7</ele>
    <time>2017-03-26T09:19:54Z</time>
   </trkpt>
   <trkpt lat="51.7991650" lon="39.5378090">
    <ele>154.9</ele>
    <time>2017-03-26T09:19:55Z</time>
   </trkpt>
   <trkpt lat="51.7992020" lon="39.5378270">
    <ele>155.0</ele>
    <time>2017-03-26T09:19:56Z</time>
   </trkpt>
   <trkpt lat="51.7996010" lon="39.5379900">
    <ele>155.8</ele>
    <time>2017-03-26T09:20:07Z</time>
   </trkpt>
   <trkpt lat="51.7997630" lon="39.5381220">
    <ele>155.8</ele>
    <time>2017-03-26T09:20:11Z</time>
   </trkpt>
   <trkpt lat="51.7998030" lon="39.5381590">
    <ele>155.7</ele>
    <time>2017-03-26T09:20:12Z</time>
   </trkpt>
   <trkpt lat="51.7998490" lon="39.5381930">
    <ele>155.5</ele>
    <time>2017-03-26T09:20:13Z</time>
   </trkpt>
   <trkpt lat="51.8003090" lon="39.5384710">
    <ele>154.9</ele>
    <time>2017-03-26T09:20:25Z</time>
   </trkpt>
   <trkpt lat="51.8005540" lon="39.5386160">
    <ele>154.8</ele>
    <time>2017-03-26T09:20:34Z</time>
   </trkpt>
   <trkpt lat="51.8005750" lon="39.5386220">
    <ele>154.9</ele>
    <time>2017-03-26T09:20:36Z</time>
   </trkpt>
   <trkpt lat="51.8007460" lon="39.5386880">
    <ele>155.7</ele>
    <time>2017-03-26T09:20:47Z</time>
   </trkpt>
   <trkpt lat="51.8010910" lon="39.5388710">
    <ele>152.8</ele>
    <time>2017-03-26T09:21:00Z</time>
   </trkpt>
   <trkpt lat="51.8015270" lon="39.5391290">
    <ele>152.7</ele>
    <time>2017-03-26T09:21:13Z</time>
   </trkpt>
   <trkpt lat="51.8019510" lon="39.5393380">
    <ele>154.9</ele>
    <time>2017-03-26T09:21:24Z</time>
   </trkpt>
   <trkpt lat="51.8023620" lon="39.5395630">
    <ele>156.6</ele>
    <time>2017-03-26T09:21:34Z</time>
   </trkpt>
   <trkpt lat="51.8028390" lon="39.5398360">
    <ele>160.7</ele>
    <time>2017-03-26T09:21:46Z</time>
   </trkpt>
   <trkpt lat="51.8032250" lon="39.5400980">
    <ele>161.0</ele>
    <time>2017-03-26T09:21:56Z</time>
   </trkpt>
   <trkpt lat="51.8032630" lon="39.5401130">
    <ele>160.9</ele>
    <time>2017-03-26T09:21:57Z</time>
   </trkpt>
   <trkpt lat="51.8037490" lon="39.5403580">
    <ele>165.1</ele>
    <time>2017-03-26T09:22:08Z</time>
   </trkpt>
   <trkpt lat="51.8038000" lon="39.5403750">
    <ele>165.2</ele>
    <time>2017-03-26T09:22:09Z</time>
   </trkpt>
   <trkpt lat="51.8038540" lon="39.5403920">
    <ele>165.3</ele>
    <time>2017-03-26T09:22:10Z</time>
   </trkpt>
   <trkpt lat="51.8043050" lon="39.5405350">
    <ele>164.9</ele>
    <time>2017-03-26T09:22:20Z</time>
   </trkpt>
   <trkpt lat="51.8047110" lon="39.5407070">
    <ele>164.7</ele>
    <time>2017-03-26T09:22:31Z</time>
   </trkpt>
   <trkpt lat="51.8049240" lon="39.5408190">
    <ele>163.6</ele>
    <time>2017-03-26T09:22:36Z</time>
   </trkpt>
   <trkpt lat="51.8049700" lon="39.5408460">
    <ele>163.4</ele>
    <time>2017-03-26T09:22:37Z</time>
   </trkpt>
   <trkpt lat="51.8054630" lon="39.5411060">
    <ele>162.4</ele>
    <time>2017-03-26T09:22:48Z</time>
   </trkpt>
   <trkpt lat="51.8056910" lon="39.5412300">
    <ele>161.5</ele>
    <time>2017-03-26T09:22:53Z</time>
   </trkpt>
   <trkpt lat="51.8057390" lon="39.5412490">
    <ele>161.2</ele>
    <time>2017-03-26T09:22:54Z</time>
   </trkpt>
   <trkpt lat="51.8057880" lon="39.5412750">
    <ele>161.0</ele>
    <time>2017-03-26T09:22:55Z</time>
   </trkpt>
   <trkpt lat="51.8062430" lon="39.5414900">
    <ele>156.4</ele>
    <time>2017-03-26T09:23:05Z</time>
   </trkpt>
   <trkpt lat="51.8068030" lon="39.5417560">
    <ele>156.0</ele>
    <time>2017-03-26T09:23:18Z</time>
   </trkpt>
   <trkpt lat="51.8071530" lon="39.5419480">
    <ele>156.3</ele>
    <time>2017-03-26T09:23:27Z</time>
   </trkpt>
   <trkpt lat="51.8076520" lon="39.5421840">
    <ele>158.7</ele>
    <time>2017-03-26T09:23:39Z</time>
   </trkpt>
   <trkpt lat="51.8081440" lon="39.5424410">
    <ele>158.4</ele>
    <time>2017-03-26T09:23:51Z</time>
   </trkpt>
   <trkpt lat="51.8086670" lon="39.5426970">
    <ele>155.8</ele>
    <time>2017-03-26T09:24:03Z</time>
   </trkpt>
   <trkpt lat="51.8091190" lon="39.5429430">
    <ele>153.9</ele>
    <time>2017-03-26T09:24:14Z</time>
   </trkpt>
   <trkpt lat="51.8095330" lon="39.5431680">
    <ele>154.2</ele>
    <time>2017-03-26T09:24:24Z</time>
   </trkpt>
   <trkpt lat="51.8100530" lon="39.5433640">
    <ele>155.2</ele>
    <time>2017-03-26T09:24:35Z</time>
   </trkpt>
   <trkpt lat="51.8104470" lon="39.5436270">
    <ele>154.7</ele>
    <time>2017-03-26T09:24:45Z</time>
   </trkpt>
   <trkpt lat="51.8105500" lon="39.5436630">
    <ele>154.9</ele>
    <time>2017-03-26T09:24:49Z</time>
   </trkpt>
   <trkpt lat="51.8106160" lon="39.5435960">
    <ele>154.9</ele>
    <time>2017-03-26T09:24:55Z</time>
   </trkpt>
   <trkpt lat="51.8106970" lon="39.5437000">
    <ele>154.9</ele>
    <time>2017-03-26T09:25:03Z</time>
   </trkpt>
   <trkpt lat="51.8107150" lon="39.5437120">
    <ele>154.9</ele>
    <time>2017-03-26T09:25:04Z</time>
   </trkpt>
   <trkpt lat="51.8107400" lon="39.5437300">
    <ele>154.9</ele>
    <time>2017-03-26T09:25:05Z</time>
   </trkpt>
   <trkpt lat="51.8107710" lon="39.5437490">
    <ele>154.8</ele>
    <time>2017-03-26T09:25:06Z</time>
   </trkpt>
   <trkpt lat="51.8112130" lon="39.5439810">
    <ele>154.8</ele>
    <time>2017-03-26T09:25:17Z</time>
   </trkpt>
   <trkpt lat="51.8115780" lon="39.5441260">
    <ele>155.1</ele>
    <time>2017-03-26T09:25:27Z</time>
   </trkpt>
   <trkpt lat="51.8119460" lon="39.5443270">
    <ele>154.2</ele>
    <time>2017-03-26T09:25:36Z</time>
   </trkpt>
   <trkpt lat="51.8121150" lon="39.5444050">
    <ele>154.6</ele>
    <time>2017-03-26T09:25:40Z</time>
   </trkpt>
   <trkpt lat="51.8121660" lon="39.5444180">
    <ele>154.7</ele>
    <time>2017-03-26T09:25:41Z</time>
   </trkpt>
   <trkpt lat="51.8122720" lon="39.5444550">
    <ele>154.8</ele>
    <time>2017-03-26T09:25:43Z</time>
   </trkpt>
   <trkpt lat="51.8125370" lon="39.5446100">
    <ele>154.0</ele>
    <time>2017-03-26T09:25:51Z</time>
   </trkpt>
   <trkpt lat="51.8129970" lon="39.5448800">
    <ele>152.5</ele>
    <time>2017-03-26T09:26:03Z</time>
   </trkpt>
   <trkpt lat="51.8133400" lon="39.5451260">
    <ele>148.2</ele>
    <time>2017-03-26T09:26:13Z</time>
   </trkpt>
   <trkpt lat="51.8133470" lon="39.5454930">
    <ele>148.7</ele>
    <time>2017-03-26T09:26:22Z</time>
   </trkpt>
   <trkpt lat="51.8133460" lon="39.5455760">
    <ele>148.9</ele>
    <time>2017-03-26T09:26:24Z</time>
   </trkpt>
   <trkpt lat="51.8133710" lon="39.5461010">
    <ele>150.8</ele>
    <time>2017-03-26T09:26:35Z</time>
   </trkpt>
   <trkpt lat="51.8133730" lon="39.5461480">
    <ele>151.1</ele>
    <time>2017-03-26T09:26:36Z</time>
   </trkpt>
   <trkpt lat="51.8133700" lon="39.5462010">
    <ele>151.6</ele>
    <time>2017-03-26T09:26:37Z</time>
   </trkpt>
   <trkpt lat="51.8133780" lon="39.5462670">
    <ele>152.2</ele>
    <time>2017-03-26T09:26:38Z</time>
   </trkpt>
   <trkpt lat="51.8133970" lon="39.5463280">
    <ele>153.0</ele>
    <time>2017-03-26T09:26:39Z</time>
   </trkpt>
   <trkpt lat="51.8134150" lon="39.5463880">
    <ele>153.8</ele>
    <time>2017-03-26T09:26:40Z</time>
   </trkpt>
   <trkpt lat="51.8134270" lon="39.5464540">
    <ele>154.5</ele>
    <time>2017-03-26T09:26:41Z</time>
   </trkpt>
   <trkpt lat="51.8134280" lon="39.5465220">
    <ele>155.3</ele>
    <time>2017-03-26T09:26:42Z</time>
   </trkpt>
   <trkpt lat="51.8134170" lon="39.5465830">
    <ele>155.9</ele>
    <time>2017-03-26T09:26:43Z</time>
   </trkpt>
   <trkpt lat="51.8133860" lon="39.5466380">
    <ele>156.5</ele>
    <time>2017-03-26T09:26:44Z</time>
   </trkpt>
   <trkpt lat="51.8132210" lon="39.5473930">
    <ele>158.6</ele>
    <time>2017-03-26T09:26:55Z</time>
   </trkpt>
   <trkpt lat="51.8130530" lon="39.5478240">
    <ele>158.7</ele>
    <time>2017-03-26T09:27:04Z</time>
   </trkpt>
   <trkpt lat="51.8130460" lon="39.5478780">
    <ele>158.7</ele>
    <time>2017-03-26T09:27:05Z</time>
   </trkpt>
   <trkpt lat="51.8130460" lon="39.5479370">
    <ele>158.7</ele>
    <time>2017-03-26T09:27:06Z</time>
   </trkpt>
   <trkpt lat="51.8130400" lon="39.5483660">
    <ele>159.9</ele>
    <time>2017-03-26T09:27:13Z</time>
   </trkpt>
   <trkpt lat="51.8130620" lon="39.5484190">
    <ele>160.0</ele>
    <time>2017-03-26T09:27:14Z</time>
   </trkpt>
   <trkpt lat="51.8130820" lon="39.5484670">
    <ele>160.2</ele>
    <time>2017-03-26T09:27:15Z</time>
   </trkpt>
   <trkpt lat="51.8130900" lon="39.5485150">
    <ele>160.4</ele>
    <time>2017-03-26T09:27:16Z</time>
   </trkpt>
   <trkpt lat="51.8130890" lon="39.5485690">
    <ele>160.5</ele>
    <time>2017-03-26T09:27:17Z</time>
   </trkpt>
   <trkpt lat="51.8130850" lon="39.5486300">
    <ele>160.8</ele>
    <time>2017-03-26T09:27:18Z</time>
   </trkpt>
   <trkpt lat="51.8130760" lon="39.5486910">
    <ele>161.1</ele>
    <time>2017-03-26T09:27:19Z</time>
   </trkpt>
   <trkpt lat="51.8129820" lon="39.5495690">
    <ele>158.1</ele>
    <time>2017-03-26T09:27:33Z</time>
   </trkpt>
   <trkpt lat="51.8128930" lon="39.5502880">
    <ele>156.6</ele>
    <time>2017-03-26T09:27:45Z</time>
   </trkpt>
   <trkpt lat="51.8128000" lon="39.5512230">
    <ele>158.7</ele>
    <time>2017-03-26T09:28:00Z</time>
   </trkpt>
   <trkpt lat="51.8127620" lon="39.5516490">
    <ele>158.4</ele>
    <time>2017-03-26T09:28:07Z</time>
   </trkpt>
   <trkpt lat="51.8127470" lon="39.5519020">
    <ele>158.4</ele>
    <time>2017-03-26T09:28:11Z</time>
   </trkpt>
   <trkpt lat="51.8127510" lon="39.5520350">
    <ele>158.3</ele>
    <time>2017-03-26T09:28:13Z</time>
   </trkpt>
   <trkpt lat="51.8127450" lon="39.5521030">
    <ele>158.1</ele>
    <time>2017-03-26T09:28:14Z</time>
   </trkpt>
   <trkpt lat="51.8127360" lon="39.5521680">
    <ele>157.9</ele>
    <time>2017-03-26T09:28:15Z</time>
   </trkpt>
   <trkpt lat="51.8127340" lon="39.5522350">
    <ele>157.6</ele>
    <time>2017-03-26T09:28:16Z</time>
   </trkpt>
   <trkpt lat="51.8127410" lon="39.5523040">
    <ele>157.3</ele>
    <time>2017-03-26T09:28:17Z</time>
   </trkpt>
   <trkpt lat="51.8127520" lon="39.5523780">
    <ele>157.0</ele>
    <time>2017-03-26T09:28:18Z</time>
   </trkpt>
   <trkpt lat="51.8127570" lon="39.5524550">
    <ele>156.8</ele>
    <time>2017-03-26T09:28:19Z</time>
   </trkpt>
   <trkpt lat="51.8127530" lon="39.5525350">
    <ele>156.5</ele>
    <time>2017-03-26T09:28:20Z</time>
   </trkpt>
   <trkpt lat="51.8127410" lon="39.5526130">
    <ele>156.3</ele>
    <time>2017-03-26T09:28:21Z</time>
   </trkpt>
   <trkpt lat="51.8127260" lon="39.5526890">
    <ele>156.0</ele>
    <time>2017-03-26T09:28:22Z</time>
   </trkpt>
   <trkpt lat="51.8127140" lon="39.5527630">
    <ele>155.9</ele>
    <time>2017-03-26T09:28:23Z</time>
   </trkpt>
   <trkpt lat="51.8125870" lon="39.5534510">
    <ele>156.6</ele>
    <time>2017-03-26T09:28:33Z</time>
   </trkpt>
   <trkpt lat="51.8125640" lon="39.5535200">
    <ele>156.8</ele>
    <time>2017-03-26T09:28:34Z</time>
   </trkpt>
   <trkpt lat="51.8125430" lon="39.5535830">
    <ele>157.0</ele>
    <time>2017-03-26T09:28:35Z</time>
   </trkpt>
   <trkpt lat="51.8125260" lon="39.5536490">
    <ele>157.2</ele>
    <time>2017-03-26T09:28:36Z</time>
   </trkpt>
   <trkpt lat="51.8125130" lon="39.5537150">
    <ele>157.4</ele>
    <time>2017-03-26T09:28:37Z</time>
   </trkpt>
   <trkpt lat="51.8124970" lon="39.5537820">
    <ele>157.7</ele>
    <time>2017-03-26T09:28:38Z</time>
   </trkpt>
   <trkpt lat="51.8124010" lon="39.5541420">
    <ele>157.6</ele>
    <time>2017-03-26T09:28:44Z</time>
   </trkpt>
   <trkpt lat="51.8124340" lon="39.5543570">
    <ele>157.1</ele>
    <time>2017-03-26T09:28:48Z</time>
   </trkpt>
   <trkpt lat="51.8124470" lon="39.5544230">
    <ele>157.2</ele>
    <time>2017-03-26T09:28:49Z</time>
   </trkpt>
   <trkpt lat="51.8125110" lon="39.5551350">
    <ele>155.4</ele>
    <time>2017-03-26T09:29:00Z</time>
   </trkpt>
   <trkpt lat="51.8124890" lon="39.5554300">
    <ele>155.5</ele>
    <time>2017-03-26T09:29:05Z</time>
   </trkpt>
   <trkpt lat="51.8124950" lon="39.5555020">
    <ele>155.5</ele>
    <time>2017-03-26T09:29:06Z</time>
   </trkpt>
   <trkpt lat="51.8125170" lon="39.5559490">
    <ele>156.0</ele>
    <time>2017-03-26T09:29:14Z</time>
   </trkpt>
   <trkpt lat="51.8125020" lon="39.5560730">
    <ele>156.5</ele>
    <time>2017-03-26T09:29:17Z</time>
   </trkpt>
   <trkpt lat="51.8125040" lon="39.5561140">
    <ele>156.5</ele>
    <time>2017-03-26T09:29:18Z</time>
   </trkpt>
   <trkpt lat="51.8125060" lon="39.5561600">
    <ele>156.6</ele>
    <time>2017-03-26T09:29:19Z</time>
   </trkpt>
   <trkpt lat="51.8125070" lon="39.5561980">
    <ele>156.6</ele>
    <time>2017-03-26T09:29:20Z</time>
   </trkpt>
   <trkpt lat="51.8125080" lon="39.5562400">
    <ele>156.6</ele>
    <time>2017-03-26T09:29:21Z</time>
   </trkpt>
   <trkpt lat="51.8125120" lon="39.5562840">
    <ele>156.6</ele>
    <time>2017-03-26T09:29:22Z</time>
   </trkpt>
   <trkpt lat="51.8125380" lon="39.5569380">
    <ele>157.6</ele>
    <time>2017-03-26T09:29:34Z</time>
   </trkpt>
   <trkpt lat="51.8125920" lon="39.5574050">
    <ele>157.7</ele>
    <time>2017-03-26T09:29:41Z</time>
   </trkpt>
   <trkpt lat="51.8124640" lon="39.5580770">
    <ele>158.5</ele>
    <time>2017-03-26T09:29:53Z</time>
   </trkpt>
   <trkpt lat="51.8124170" lon="39.5586000">
    <ele>157.8</ele>
    <time>2017-03-26T09:30:02Z</time>
   </trkpt>
   <trkpt lat="51.8124140" lon="39.5586260">
    <ele>157.8</ele>
    <time>2017-03-26T09:30:03Z</time>
   </trkpt>
   <trkpt lat="51.8124020" lon="39.5586230">
    <ele>157.9</ele>
    <time>2017-03-26T09:30:06Z</time>
   </trkpt>
   <trkpt lat="51.8123910" lon="39.5585960">
    <ele>157.9</ele>
    <time>2017-03-26T09:30:09Z</time>
   </trkpt>
   <trkpt lat="51.8123890" lon="39.5585750">
    <ele>157.9</ele>
    <time>2017-03-26T09:30:10Z</time>
   </trkpt>
   <trkpt lat="51.8123790" lon="39.5585360">
    <ele>158.0</ele>
    <time>2017-03-26T09:30:16Z</time>
   </trkpt>
   <trkpt lat="51.8124070" lon="39.5585660">
    <ele>157.9</ele>
    <time>2017-03-26T09:30:47Z</time>
   </trkpt>
   <trkpt lat="51.8124120" lon="39.5586730">
    <ele>158.0</ele>
    <time>2017-03-26T09:30:50Z</time>
   </trkpt>
   <trkpt lat="51.8124070" lon="39.5587170">
    <ele>158.1</ele>
    <time>2017-03-26T09:30:51Z</time>
   </trkpt>
   <trkpt lat="51.8124040" lon="39.5587570">
    <ele>158.1</ele>
    <time>2017-03-26T09:30:52Z</time>
   </trkpt>
   <trkpt lat="51.8124040" lon="39.5588020">
    <ele>158.2</ele>
    <time>2017-03-26T09:30:53Z</time>
   </trkpt>
   <trkpt lat="51.8124040" lon="39.5588490">
    <ele>158.3</ele>
    <time>2017-03-26T09:30:54Z</time>
   </trkpt>
   <trkpt lat="51.8124060" lon="39.5589040">
    <ele>158.4</ele>
    <time>2017-03-26T09:30:55Z</time>
   </trkpt>
   <trkpt lat="51.8124070" lon="39.5589570">
    <ele>158.5</ele>
    <time>2017-03-26T09:30:56Z</time>
   </trkpt>
   <trkpt lat="51.8124070" lon="39.5590140">
    <ele>158.5</ele>
    <time>2017-03-26T09:30:57Z</time>
   </trkpt>
   <trkpt lat="51.8124090" lon="39.5590680">
    <ele>158.6</ele>
    <time>2017-03-26T09:30:58Z</time>
   </trkpt>
   <trkpt lat="51.8124110" lon="39.5591200">
    <ele>158.5</ele>
    <time>2017-03-26T09:30:59Z</time>
   </trkpt>
   <trkpt lat="51.8124120" lon="39.5591640">
    <ele>158.3</ele>
    <time>2017-03-26T09:31:00Z</time>
   </trkpt>
   <trkpt lat="51.8124450" lon="39.5598540">
    <ele>157.0</ele>
    <time>2017-03-26T09:31:13Z</time>
   </trkpt>
   <trkpt lat="51.8124260" lon="39.5600540">
    <ele>156.1</ele>
    <time>2017-03-26T09:31:16Z</time>
   </trkpt>
   <trkpt lat="51.8123960" lon="39.5606570">
    <ele>157.0</ele>
    <time>2017-03-26T09:31:26Z</time>
   </trkpt>
   <trkpt lat="51.8124180" lon="39.5607660">
    <ele>157.8</ele>
    <time>2017-03-26T09:31:28Z</time>
   </trkpt>
   <trkpt lat="51.8124510" lon="39.5608030">
    <ele>158.1</ele>
    <time>2017-03-26T09:31:29Z</time>
   </trkpt>
   <trkpt lat="51.8129300" lon="39.5610730">
    <ele>159.9</ele>
    <time>2017-03-26T09:31:41Z</time>
   </trkpt>
   <trkpt lat="51.8132650" lon="39.5612470">
    <ele>161.0</ele>
    <time>2017-03-26T09:31:49Z</time>
   </trkpt>
   <trkpt lat="51.8133500" lon="39.5612670">
    <ele>161.4</ele>
    <time>2017-03-26T09:31:51Z</time>
   </trkpt>
   <trkpt lat="51.8139010" lon="39.5615900">
    <ele>161.6</ele>
    <time>2017-03-26T09:32:05Z</time>
   </trkpt>
   <trkpt lat="51.8140550" lon="39.5616830">
    <ele>162.4</ele>
    <time>2017-03-26T09:32:09Z</time>
   </trkpt>
   <trkpt lat="51.8146170" lon="39.5619310">
    <ele>162.7</ele>
    <time>2017-03-26T09:32:22Z</time>
   </trkpt>
   <trkpt lat="51.8154240" lon="39.5623200">
    <ele>166.2</ele>
    <time>2017-03-26T09:32:41Z</time>
   </trkpt>
   <trkpt lat="51.8161140" lon="39.5626450">
    <ele>165.5</ele>
    <time>2017-03-26T09:32:57Z</time>
   </trkpt>
   <trkpt lat="51.8168320" lon="39.5629950">
    <ele>163.9</ele>
    <time>2017-03-26T09:33:15Z</time>
   </trkpt>
   <trkpt lat="51.8172570" lon="39.5632360">
    <ele>159.4</ele>
    <time>2017-03-26T09:33:26Z</time>
   </trkpt>
   <trkpt lat="51.8173030" lon="39.5632620">
    <ele>159.2</ele>
    <time>2017-03-26T09:33:27Z</time>
   </trkpt>
   <trkpt lat="51.8175480" lon="39.5634140">
    <ele>159.1</ele>
    <time>2017-03-26T09:33:33Z</time>
   </trkpt>
   <trkpt lat="51.8180410" lon="39.5636500">
    <ele>161.0</ele>
    <time>2017-03-26T09:33:46Z</time>
   </trkpt>
   <trkpt lat="51.8184310" lon="39.5638360">
    <ele>162.1</ele>
    <time>2017-03-26T09:33:56Z</time>
   </trkpt>
   <trkpt lat="51.8184750" lon="39.5638590">
    <ele>162.5</ele>
    <time>2017-03-26T09:33:57Z</time>
   </trkpt>
   <trkpt lat="51.8185150" lon="39.5638880">
    <ele>162.9</ele>
    <time>2017-03-26T09:33:58Z</time>
   </trkpt>
   <trkpt lat="51.8185520" lon="39.5639060">
    <ele>163.2</ele>
    <time>2017-03-26T09:33:59Z</time>
   </trkpt>
   <trkpt lat="51.8185930" lon="39.5639260">
    <ele>163.5</ele>
    <time>2017-03-26T09:34:00Z</time>
   </trkpt>
   <trkpt lat="51.8186330" lon="39.5639430">
    <ele>163.7</ele>
    <time>2017-03-26T09:34:01Z</time>
   </trkpt>
   <trkpt lat="51.8190360" lon="39.5641520">
    <ele>165.0</ele>
    <time>2017-03-26T09:34:11Z</time>
   </trkpt>
   <trkpt lat="51.8193930" lon="39.5643240">
    <ele>165.0</ele>
    <time>2017-03-26T09:34:20Z</time>
   </trkpt>
   <trkpt lat="51.8198240" lon="39.5645330">
    <ele>164.5</ele>
    <time>2017-03-26T09:34:31Z</time>
   </trkpt>
   <trkpt lat="51.8202450" lon="39.5647570">
    <ele>163.8</ele>
    <time>2017-03-26T09:34:42Z</time>
   </trkpt>
   <trkpt lat="51.8207500" lon="39.5649890">
    <ele>163.3</ele>
    <time>2017-03-26T09:34:54Z</time>
   </trkpt>
   <trkpt lat="51.8212570" lon="39.5652080">
    <ele>164.0</ele>
    <time>2017-03-26T09:35:06Z</time>
   </trkpt>
   <trkpt lat="51.8217180" lon="39.5654430">
    <ele>164.0</ele>
    <time>2017-03-26T09:35:19Z</time>
   </trkpt>
   <trkpt lat="51.8221830" lon="39.5656900">
    <ele>166.0</ele>
    <time>2017-03-26T09:35:31Z</time>
   </trkpt>
   <trkpt lat="51.8222810" lon="39.5657390">
    <ele>166.0</ele>
    <time>2017-03-26T09:35:34Z</time>
   </trkpt>
   <trkpt lat="51.8223140" lon="39.5657420">
    <ele>166.0</ele>
    <time>2017-03-26T09:35:35Z</time>
   </trkpt>
   <trkpt lat="51.8223440" lon="39.5657520">
    <ele>166.0</ele>
    <time>2017-03-26T09:35:36Z</time>
   </trkpt>
   <trkpt lat="51.8227550" lon="39.5659370">
    <ele>165.1</ele>
    <time>2017-03-26T09:35:47Z</time>
   </trkpt>
   <trkpt lat="51.8229850" lon="39.5660800">
    <ele>164.0</ele>
    <time>2017-03-26T09:35:53Z</time>
   </trkpt>
   <trkpt lat="51.8230290" lon="39.5661050">
    <ele>163.7</ele>
    <time>2017-03-26T09:35:54Z</time>
   </trkpt>
   <trkpt lat="51.8230760" lon="39.5661320">
    <ele>163.5</ele>
    <time>2017-03-26T09:35:55Z</time>
   </trkpt>
   <trkpt lat="51.8231290" lon="39.5661620">
    <ele>163.2</ele>
    <time>2017-03-26T09:35:56Z</time>
   </trkpt>
   <trkpt lat="51.8231820" lon="39.5661850">
    <ele>163.0</ele>
    <time>2017-03-26T09:35:57Z</time>
   </trkpt>
   <trkpt lat="51.8232310" lon="39.5661960">
    <ele>162.8</ele>
    <time>2017-03-26T09:35:58Z</time>
   </trkpt>
   <trkpt lat="51.8232700" lon="39.5662010">
    <ele>162.6</ele>
    <time>2017-03-26T09:35:59Z</time>
   </trkpt>
   <trkpt lat="51.8233080" lon="39.5662060">
    <ele>162.5</ele>
    <time>2017-03-26T09:36:00Z</time>
   </trkpt>
   <trkpt lat="51.8233470" lon="39.5662180">
    <ele>162.4</ele>
    <time>2017-03-26T09:36:01Z</time>
   </trkpt>
   <trkpt lat="51.8233860" lon="39.5662370">
    <ele>162.2</ele>
    <time>2017-03-26T09:36:02Z</time>
   </trkpt>
   <trkpt lat="51.8237200" lon="39.5664960">
    <ele>161.2</ele>
    <time>2017-03-26T09:36:12Z</time>
   </trkpt>
   <trkpt lat="51.8240580" lon="39.5665710">
    <ele>159.8</ele>
    <time>2017-03-26T09:36:21Z</time>
   </trkpt>
   <trkpt lat="51.8243750" lon="39.5667710">
    <ele>158.9</ele>
    <time>2017-03-26T09:36:31Z</time>
   </trkpt>
   <trkpt lat="51.8243970" lon="39.5667890">
    <ele>158.9</ele>
    <time>2017-03-26T09:36:32Z</time>
   </trkpt>
   <trkpt lat="51.8245760" lon="39.5668770">
    <ele>159.5</ele>
    <time>2017-03-26T09:36:43Z</time>
   </trkpt>
   <trkpt lat="51.8247470" lon="39.5669870">
    <ele>160.5</ele>
    <time>2017-03-26T09:36:52Z</time>
   </trkpt>
   <trkpt lat="51.8247660" lon="39.5669970">
    <ele>160.7</ele>
    <time>2017-03-26T09:36:53Z</time>
   </trkpt>
   <trkpt lat="51.8247830" lon="39.5670010">
    <ele>160.8</ele>
    <time>2017-03-26T09:36:54Z</time>
   </trkpt>
   <trkpt lat="51.8248040" lon="39.5670090">
    <ele>161.0</ele>
    <time>2017-03-26T09:36:55Z</time>
   </trkpt>
   <trkpt lat="51.8248270" lon="39.5670190">
    <ele>161.3</ele>
    <time>2017-03-26T09:36:56Z</time>
   </trkpt>
   <trkpt lat="51.8251800" lon="39.5671550">
    <ele>165.0</ele>
    <time>2017-03-26T09:37:07Z</time>
   </trkpt>
   <trkpt lat="51.8256140" lon="39.5674040">
    <ele>170.6</ele>
    <time>2017-03-26T09:37:19Z</time>
   </trkpt>
   <trkpt lat="51.8260320" lon="39.5676370">
    <ele>172.1</ele>
    <time>2017-03-26T09:37:30Z</time>
   </trkpt>
   <trkpt lat="51.8264320" lon="39.5678300">
    <ele>170.7</ele>
    <time>2017-03-26T09:37:41Z</time>
   </trkpt>
   <trkpt lat="51.8267490" lon="39.5679790">
    <ele>169.3</ele>
    <time>2017-03-26T09:37:51Z</time>
   </trkpt>
   <trkpt lat="51.8269410" lon="39.5680420">
    <ele>168.8</ele>
    <time>2017-03-26T09:38:02Z</time>
   </trkpt>
   <trkpt lat="51.8269430" lon="39.5680400">
    <ele>168.8</ele>
    <time>2017-03-26T09:38:04Z</time>
   </trkpt>
   <trkpt lat="51.8270200" lon="39.5680880">
    <ele>168.7</ele>
    <time>2017-03-26T09:38:19Z</time>
   </trkpt>
   <trkpt lat="51.8271960" lon="39.5681780">
    <ele>169.5</ele>
    <time>2017-03-26T09:38:24Z</time>
   </trkpt>
   <trkpt lat="51.8273710" lon="39.5682940">
    <ele>171.0</ele>
    <time>2017-03-26T09:38:28Z</time>
   </trkpt>
   <trkpt lat="51.8277530" lon="39.5684750">
    <ele>169.7</ele>
    <time>2017-03-26T09:38:37Z</time>
   </trkpt>
   <trkpt lat="51.8277960" lon="39.5684980">
    <ele>169.5</ele>
    <time>2017-03-26T09:38:38Z</time>
   </trkpt>
   <trkpt lat="51.8278400" lon="39.5685220">
    <ele>169.7</ele>
    <time>2017-03-26T09:38:39Z</time>
   </trkpt>
   <trkpt lat="51.8281830" lon="39.5687070">
    <ele>171.4</ele>
    <time>2017-03-26T09:38:46Z</time>
   </trkpt>
   <trkpt lat="51.8282370" lon="39.5687240">
    <ele>171.7</ele>
    <time>2017-03-26T09:38:47Z</time>
   </trkpt>
   <trkpt lat="51.8282850" lon="39.5687460">
    <ele>171.9</ele>
    <time>2017-03-26T09:38:48Z</time>
   </trkpt>
   <trkpt lat="51.8283330" lon="39.5687670">
    <ele>171.9</ele>
    <time>2017-03-26T09:38:49Z</time>
   </trkpt>
   <trkpt lat="51.8283780" lon="39.5687870">
    <ele>171.9</ele>
    <time>2017-03-26T09:38:50Z</time>
   </trkpt>
   <trkpt lat="51.8284180" lon="39.5688080">
    <ele>171.7</ele>
    <time>2017-03-26T09:38:51Z</time>
   </trkpt>
   <trkpt lat="51.8284550" lon="39.5688290">
    <ele>171.4</ele>
    <time>2017-03-26T09:38:52Z</time>
   </trkpt>
   <trkpt lat="51.8288470" lon="39.5690600">
    <ele>170.5</ele>
    <time>2017-03-26T09:39:02Z</time>
   </trkpt>
   <trkpt lat="51.8291540" lon="39.5692350">
    <ele>172.8</ele>
    <time>2017-03-26T09:39:09Z</time>
   </trkpt>
   <trkpt lat="51.8293300" lon="39.5693200">
    <ele>172.4</ele>
    <time>2017-03-26T09:39:13Z</time>
   </trkpt>
   <trkpt lat="51.8293760" lon="39.5693360">
    <ele>172.0</ele>
    <time>2017-03-26T09:39:14Z</time>
   </trkpt>
   <trkpt lat="51.8294200" lon="39.5693520">
    <ele>171.6</ele>
    <time>2017-03-26T09:39:15Z</time>
   </trkpt>
   <trkpt lat="51.8295820" lon="39.5694490">
    <ele>170.2</ele>
    <time>2017-03-26T09:39:19Z</time>
   </trkpt>
   <trkpt lat="51.8299520" lon="39.5696400">
    <ele>169.0</ele>
    <time>2017-03-26T09:39:28Z</time>
   </trkpt>
   <trkpt lat="51.8302720" lon="39.5697630">
    <ele>167.9</ele>
    <time>2017-03-26T09:39:36Z</time>
   </trkpt>
   <trkpt lat="51.8303140" lon="39.5697750">
    <ele>167.6</ele>
    <time>2017-03-26T09:39:37Z</time>
   </trkpt>
   <trkpt lat="51.8307980" lon="39.5700190">
    <ele>165.8</ele>
    <time>2017-03-26T09:39:48Z</time>
   </trkpt>
   <trkpt lat="51.8309420" lon="39.5701020">
    <ele>167.1</ele>
    <time>2017-03-26T09:39:51Z</time>
   </trkpt>
   <trkpt lat="51.8309890" lon="39.5701230">
    <ele>167.4</ele>
    <time>2017-03-26T09:39:52Z</time>
   </trkpt>
   <trkpt lat="51.8310380" lon="39.5701420">
    <ele>167.6</ele>
    <time>2017-03-26T09:39:53Z</time>
   </trkpt>
   <trkpt lat="51.8313640" lon="39.5702950">
    <ele>168.4</ele>
    <time>2017-03-26T09:40:00Z</time>
   </trkpt>
   <trkpt lat="51.8314050" lon="39.5703120">
    <ele>168.4</ele>
    <time>2017-03-26T09:40:01Z</time>
   </trkpt>
   <trkpt lat="51.8314440" lon="39.5703400">
    <ele>168.2</ele>
    <time>2017-03-26T09:40:02Z</time>
   </trkpt>
   <trkpt lat="51.8315320" lon="39.5703950">
    <ele>167.4</ele>
    <time>2017-03-26T09:40:04Z</time>
   </trkpt>
   <trkpt lat="51.8315740" lon="39.5704210">
    <ele>166.8</ele>
    <time>2017-03-26T09:40:05Z</time>
   </trkpt>
   <trkpt lat="51.8316960" lon="39.5705040">
    <ele>165.6</ele>
    <time>2017-03-26T09:40:08Z</time>
   </trkpt>
   <trkpt lat="51.8317900" lon="39.5705490">
    <ele>165.1</ele>
    <time>2017-03-26T09:40:10Z</time>
   </trkpt>
   <trkpt lat="51.8318340" lon="39.5705770">
    <ele>165.0</ele>
    <time>2017-03-26T09:40:11Z</time>
   </trkpt>
   <trkpt lat="51.8318770" lon="39.5706020">
    <ele>165.0</ele>
    <time>2017-03-26T09:40:12Z</time>
   </trkpt>
   <trkpt lat="51.8319180" lon="39.5706230">
    <ele>165.0</ele>
    <time>2017-03-26T09:40:13Z</time>
   </trkpt>
   <trkpt lat="51.8319590" lon="39.5706430">
    <ele>165.0</ele>
    <time>2017-03-26T09:40:14Z</time>
   </trkpt>
   <trkpt lat="51.8323850" lon="39.5708880">
    <ele>165.8</ele>
    <time>2017-03-26T09:40:26Z</time>
   </trkpt>
   <trkpt lat="51.8326930" lon="39.5710140">
    <ele>166.5</ele>
    <time>2017-03-26T09:40:34Z</time>
   </trkpt>
   <trkpt lat="51.8331070" lon="39.5712310">
    <ele>167.1</ele>
    <time>2017-03-26T09:40:44Z</time>
   </trkpt>
   <trkpt lat="51.8331520" lon="39.5712690">
    <ele>167.0</ele>
    <time>2017-03-26T09:40:45Z</time>
   </trkpt>
   <trkpt lat="51.8336170" lon="39.5715080">
    <ele>164.6</ele>
    <time>2017-03-26T09:40:56Z</time>
   </trkpt>
   <trkpt lat="51.8339970" lon="39.5716970">
    <ele>164.0</ele>
    <time>2017-03-26T09:41:08Z</time>
   </trkpt>
   <trkpt lat="51.8340220" lon="39.5717020">
    <ele>164.0</ele>
    <time>2017-03-26T09:41:09Z</time>
   </trkpt>
   <trkpt lat="51.8340410" lon="39.5717050">
    <ele>164.1</ele>
    <time>2017-03-26T09:41:10Z</time>
   </trkpt>
   <trkpt lat="51.8340640" lon="39.5717080">
    <ele>164.1</ele>
    <time>2017-03-26T09:41:11Z</time>
   </trkpt>
   <trkpt lat="51.8340870" lon="39.5717110">
    <ele>164.1</ele>
    <time>2017-03-26T09:41:12Z</time>
   </trkpt>
   <trkpt lat="51.8341130" lon="39.5717210">
    <ele>164.2</ele>
    <time>2017-03-26T09:41:13Z</time>
   </trkpt>
   <trkpt lat="51.8341420" lon="39.5717370">
    <ele>164.2</ele>
    <time>2017-03-26T09:41:14Z</time>
   </trkpt>
   <trkpt lat="51.8341680" lon="39.5717510">
    <ele>164.3</ele>
    <time>2017-03-26T09:41:15Z</time>
   </trkpt>
   <trkpt lat="51.8341950" lon="39.5717680">
    <ele>164.4</ele>
    <time>2017-03-26T09:41:16Z</time>
   </trkpt>
   <trkpt lat="51.8345730" lon="39.5720020">
    <ele>166.9</ele>
    <time>2017-03-26T09:41:28Z</time>
   </trkpt>
   <trkpt lat="51.8346960" lon="39.5720570">
    <ele>166.9</ele>
    <time>2017-03-26T09:41:36Z</time>
   </trkpt>
   <trkpt lat="51.8348410" lon="39.5721010">
    <ele>166.8</ele>
    <time>2017-03-26T09:41:46Z</time>
   </trkpt>
   <trkpt lat="51.8349260" lon="39.5721520">
    <ele>166.9</ele>
    <time>2017-03-26T09:41:51Z</time>
   </trkpt>
   <trkpt lat="51.8349420" lon="39.5721560">
    <ele>166.9</ele>
    <time>2017-03-26T09:41:52Z</time>
   </trkpt>
   <trkpt lat="51.8351860" lon="39.5722970">
    <ele>166.6</ele>
    <time>2017-03-26T09:42:06Z</time>
   </trkpt>
   <trkpt lat="51.8352670" lon="39.5723090">
    <ele>166.3</ele>
    <time>2017-03-26T09:42:11Z</time>
   </trkpt>
   <trkpt lat="51.8352800" lon="39.5723060">
    <ele>166.3</ele>
    <time>2017-03-26T09:42:12Z</time>
   </trkpt>
   <trkpt lat="51.8352940" lon="39.5723130">
    <ele>166.2</ele>
    <time>2017-03-26T09:42:13Z</time>
   </trkpt>
   <trkpt lat="51.8353100" lon="39.5723210">
    <ele>166.1</ele>
    <time>2017-03-26T09:42:14Z</time>
   </trkpt>
   <trkpt lat="51.8353290" lon="39.5723270">
    <ele>166.1</ele>
    <time>2017-03-26T09:42:15Z</time>
   </trkpt>
   <trkpt lat="51.8355210" lon="39.5726020">
    <ele>164.8</ele>
    <time>2017-03-26T09:42:26Z</time>
   </trkpt>
   <trkpt lat="51.8356440" lon="39.5728710">
    <ele>164.3</ele>
    <time>2017-03-26T09:42:40Z</time>
   </trkpt>
   <trkpt lat="51.8356570" lon="39.5728730">
    <ele>164.3</ele>
    <time>2017-03-26T09:42:42Z</time>
   </trkpt>
   <trkpt lat="51.8358720" lon="39.5728530">
    <ele>164.9</ele>
    <time>2017-03-26T09:43:29Z</time>
   </trkpt>
   <trkpt lat="51.8362200" lon="39.5727750">
    <ele>166.3</ele>
    <time>2017-03-26T09:43:42Z</time>
   </trkpt>
   <trkpt lat="51.8366150" lon="39.5729860">
    <ele>167.0</ele>
    <time>2017-03-26T09:43:53Z</time>
   </trkpt>
   <trkpt lat="51.8369560" lon="39.5731530">
    <ele>167.5</ele>
    <time>2017-03-26T09:44:02Z</time>
   </trkpt>
   <trkpt lat="51.8372920" lon="39.5733150">
    <ele>167.4</ele>
    <time>2017-03-26T09:44:12Z</time>
   </trkpt>
   <trkpt lat="51.8376900" lon="39.5735310">
    <ele>169.1</ele>
    <time>2017-03-26T09:44:22Z</time>
   </trkpt>
   <trkpt lat="51.8379450" lon="39.5736550">
    <ele>169.2</ele>
    <time>2017-03-26T09:44:28Z</time>
   </trkpt>
   <trkpt lat="51.8379920" lon="39.5736740">
    <ele>169.0</ele>
    <time>2017-03-26T09:44:29Z</time>
   </trkpt>
   <trkpt lat="51.8380370" lon="39.5736980">
    <ele>168.8</ele>
    <time>2017-03-26T09:44:30Z</time>
   </trkpt>
   <trkpt lat="51.8381230" lon="39.5737450">
    <ele>168.3</ele>
    <time>2017-03-26T09:44:32Z</time>
   </trkpt>
   <trkpt lat="51.8382140" lon="39.5737850">
    <ele>167.7</ele>
    <time>2017-03-26T09:44:34Z</time>
   </trkpt>
   <trkpt lat="51.8384980" lon="39.5739200">
    <ele>167.2</ele>
    <time>2017-03-26T09:44:41Z</time>
   </trkpt>
   <trkpt lat="51.8385280" lon="39.5739380">
    <ele>167.2</ele>
    <time>2017-03-26T09:44:42Z</time>
   </trkpt>
   <trkpt lat="51.8385620" lon="39.5739540">
    <ele>167.3</ele>
    <time>2017-03-26T09:44:43Z</time>
   </trkpt>
   <trkpt lat="51.8389770" lon="39.5741690">
    <ele>166.8</ele>
    <time>2017-03-26T09:44:54Z</time>
   </trkpt>
   <trkpt lat="51.8393580" lon="39.5743620">
    <ele>167.2</ele>
    <time>2017-03-26T09:45:03Z</time>
   </trkpt>
   <trkpt lat="51.8396270" lon="39.5744640">
    <ele>167.1</ele>
    <time>2017-03-26T09:45:09Z</time>
   </trkpt>
   <trkpt lat="51.8396790" lon="39.5744640">
    <ele>167.0</ele>
    <time>2017-03-26T09:45:10Z</time>
   </trkpt>
   <trkpt lat="51.8397280" lon="39.5744550">
    <ele>166.7</ele>
    <time>2017-03-26T09:45:11Z</time>
   </trkpt>
   <trkpt lat="51.8397700" lon="39.5744380">
    <ele>166.4</ele>
    <time>2017-03-26T09:45:12Z</time>
   </trkpt>
   <trkpt lat="51.8398050" lon="39.5744010">
    <ele>166.1</ele>
    <time>2017-03-26T09:45:13Z</time>
   </trkpt>
   <trkpt lat="51.8398330" lon="39.5743530">
    <ele>165.6</ele>
    <time>2017-03-26T09:45:14Z</time>
   </trkpt>
   <trkpt lat="51.8398570" lon="39.5743000">
    <ele>165.0</ele>
    <time>2017-03-26T09:45:15Z</time>
   </trkpt>
   <trkpt lat="51.8398840" lon="39.5742450">
    <ele>164.3</ele>
    <time>2017-03-26T09:45:16Z</time>
   </trkpt>
   <trkpt lat="51.8399150" lon="39.5741900">
    <ele>163.5</ele>
    <time>2017-03-26T09:45:17Z</time>
   </trkpt>
   <trkpt lat="51.8399510" lon="39.5741430">
    <ele>163.0</ele>
    <time>2017-03-26T09:45:18Z</time>
   </trkpt>
   <trkpt lat="51.8399860" lon="39.5741120">
    <ele>162.5</ele>
    <time>2017-03-26T09:45:19Z</time>
   </trkpt>
   <trkpt lat="51.8400190" lon="39.5740980">
    <ele>162.1</ele>
    <time>2017-03-26T09:45:20Z</time>
   </trkpt>
   <trkpt lat="51.8400560" lon="39.5740930">
    <ele>161.7</ele>
    <time>2017-03-26T09:45:21Z</time>
   </trkpt>
   <trkpt lat="51.8400960" lon="39.5740960">
    <ele>161.5</ele>
    <time>2017-03-26T09:45:22Z</time>
   </trkpt>
   <trkpt lat="51.8401380" lon="39.5741000">
    <ele>161.4</ele>
    <time>2017-03-26T09:45:23Z</time>
   </trkpt>
   <trkpt lat="51.8403440" lon="39.5742270">
    <ele>162.3</ele>
    <time>2017-03-26T09:45:28Z</time>
   </trkpt>
   <trkpt lat="51.8403860" lon="39.5742550">
    <ele>162.8</ele>
    <time>2017-03-26T09:45:29Z</time>
   </trkpt>
   <trkpt lat="51.8405130" lon="39.5743630">
    <ele>164.1</ele>
    <time>2017-03-26T09:45:32Z</time>
   </trkpt>
   <trkpt lat="51.8405570" lon="39.5744010">
    <ele>164.5</ele>
    <time>2017-03-26T09:45:33Z</time>
   </trkpt>
   <trkpt lat="51.8406000" lon="39.5744310">
    <ele>164.7</ele>
    <time>2017-03-26T09:45:34Z</time>
   </trkpt>
   <trkpt lat="51.8408500" lon="39.5747930">
    <ele>164.0</ele>
    <time>2017-03-26T09:45:43Z</time>
   </trkpt>
   <trkpt lat="51.8411260" lon="39.5751680">
    <ele>165.2</ele>
    <time>2017-03-26T09:45:52Z</time>
   </trkpt>
   <trkpt lat="51.8414690" lon="39.5754200">
    <ele>164.4</ele>
    <time>2017-03-26T09:46:01Z</time>
   </trkpt>
   <trkpt lat="51.8415550" lon="39.5754770">
    <ele>164.2</ele>
    <time>2017-03-26T09:46:03Z</time>
   </trkpt>
   <trkpt lat="51.8415980" lon="39.5754930">
    <ele>164.1</ele>
    <time>2017-03-26T09:46:04Z</time>
   </trkpt>
   <trkpt lat="51.8416390" lon="39.5755030">
    <ele>164.1</ele>
    <time>2017-03-26T09:46:05Z</time>
   </trkpt>
   <trkpt lat="51.8416850" lon="39.5755140">
    <ele>164.2</ele>
    <time>2017-03-26T09:46:06Z</time>
   </trkpt>
   <trkpt lat="51.8417310" lon="39.5755280">
    <ele>164.3</ele>
    <time>2017-03-26T09:46:07Z</time>
   </trkpt>
   <trkpt lat="51.8419120" lon="39.5756110">
    <ele>165.3</ele>
    <time>2017-03-26T09:46:11Z</time>
   </trkpt>
   <trkpt lat="51.8420050" lon="39.5756780">
    <ele>165.7</ele>
    <time>2017-03-26T09:46:13Z</time>
   </trkpt>
   <trkpt lat="51.8420510" lon="39.5757110">
    <ele>165.9</ele>
    <time>2017-03-26T09:46:14Z</time>
   </trkpt>
   <trkpt lat="51.8421000" lon="39.5757350">
    <ele>166.2</ele>
    <time>2017-03-26T09:46:15Z</time>
   </trkpt>
   <trkpt lat="51.8422410" lon="39.5757970">
    <ele>166.9</ele>
    <time>2017-03-26T09:46:18Z</time>
   </trkpt>
   <trkpt lat="51.8426460" lon="39.5759810">
    <ele>167.2</ele>
    <time>2017-03-26T09:46:27Z</time>
   </trkpt>
   <trkpt lat="51.8428380" lon="39.5761040">
    <ele>166.5</ele>
    <time>2017-03-26T09:46:31Z</time>
   </trkpt>
   <trkpt lat="51.8434030" lon="39.5763690">
    <ele>165.8</ele>
    <time>2017-03-26T09:46:43Z</time>
   </trkpt>
   <trkpt lat="51.8435920" lon="39.5764540">
    <ele>165.8</ele>
    <time>2017-03-26T09:46:47Z</time>
   </trkpt>
   <trkpt lat="51.8441090" lon="39.5766890">
    <ele>163.0</ele>
    <time>2017-03-26T09:46:58Z</time>
   </trkpt>
   <trkpt lat="51.8443700" lon="39.5768270">
    <ele>162.5</ele>
    <time>2017-03-26T09:47:04Z</time>
   </trkpt>
   <trkpt lat="51.8444940" lon="39.5768690">
    <ele>162.3</ele>
    <time>2017-03-26T09:47:06Z</time>
   </trkpt>
   <trkpt lat="51.8445490" lon="39.5768650">
    <ele>162.5</ele>
    <time>2017-03-26T09:47:07Z</time>
   </trkpt>
   <trkpt lat="51.8445990" lon="39.5768450">
    <ele>162.6</ele>
    <time>2017-03-26T09:47:08Z</time>
   </trkpt>
   <trkpt lat="51.8446460" lon="39.5768230">
    <ele>162.4</ele>
    <time>2017-03-26T09:47:09Z</time>
   </trkpt>
   <trkpt lat="51.8446900" lon="39.5767990">
    <ele>162.2</ele>
    <time>2017-03-26T09:47:10Z</time>
   </trkpt>
   <trkpt lat="51.8450400" lon="39.5766300">
    <ele>163.9</ele>
    <time>2017-03-26T09:47:18Z</time>
   </trkpt>
   <trkpt lat="51.8451390" lon="39.5765870">
    <ele>164.5</ele>
    <time>2017-03-26T09:47:20Z</time>
   </trkpt>
   <trkpt lat="51.8451890" lon="39.5765800">
    <ele>164.9</ele>
    <time>2017-03-26T09:47:21Z</time>
   </trkpt>
   <trkpt lat="51.8452820" lon="39.5765830">
    <ele>165.9</ele>
    <time>2017-03-26T09:47:23Z</time>
   </trkpt>
   <trkpt lat="51.8453260" lon="39.5766010">
    <ele>166.3</ele>
    <time>2017-03-26T09:47:24Z</time>
   </trkpt>
   <trkpt lat="51.8453670" lon="39.5766290">
    <ele>166.6</ele>
    <time>2017-03-26T09:47:25Z</time>
   </trkpt>
   <trkpt lat="51.8454580" lon="39.5766790">
    <ele>166.9</ele>
    <time>2017-03-26T09:47:27Z</time>
   </trkpt>
   <trkpt lat="51.8457630" lon="39.5768870">
    <ele>167.4</ele>
    <time>2017-03-26T09:47:36Z</time>
   </trkpt>
   <trkpt lat="51.8458240" lon="39.5770730">
    <ele>167.3</ele>
    <time>2017-03-26T09:47:40Z</time>
   </trkpt>
   <trkpt lat="51.8458180" lon="39.5771270">
    <ele>167.3</ele>
    <time>2017-03-26T09:47:41Z</time>
   </trkpt>
   <trkpt lat="51.8458060" lon="39.5771800">
    <ele>167.3</ele>
    <time>2017-03-26T09:47:42Z</time>
   </trkpt>
   <trkpt lat="51.8457990" lon="39.5772360">
    <ele>167.2</ele>
    <time>2017-03-26T09:47:43Z</time>
   </trkpt>
   <trkpt lat="51.8458030" lon="39.5772950">
    <ele>167.1</ele>
    <time>2017-03-26T09:47:44Z</time>
   </trkpt>
   <trkpt lat="51.8458120" lon="39.5773570">
    <ele>167.0</ele>
    <time>2017-03-26T09:47:45Z</time>
   </trkpt>
   <trkpt lat="51.8458230" lon="39.5774090">
    <ele>166.9</ele>
    <time>2017-03-26T09:47:46Z</time>
   </trkpt>
   <trkpt lat="51.8458390" lon="39.5774730">
    <ele>166.6</ele>
    <time>2017-03-26T09:47:47Z</time>
   </trkpt>
   <trkpt lat="51.8458510" lon="39.5776780">
    <ele>166.3</ele>
    <time>2017-03-26T09:47:50Z</time>
   </trkpt>
   <trkpt lat="51.8458650" lon="39.5777440">
    <ele>166.2</ele>
    <time>2017-03-26T09:47:51Z</time>
   </trkpt>
   <trkpt lat="51.8458880" lon="39.5778030">
    <ele>166.2</ele>
    <time>2017-03-26T09:47:52Z</time>
   </trkpt>
   <trkpt lat="51.8459170" lon="39.5778410">
    <ele>166.2</ele>
    <time>2017-03-26T09:47:53Z</time>
   </trkpt>
   <trkpt lat="51.8459590" lon="39.5778770">
    <ele>166.2</ele>
    <time>2017-03-26T09:47:54Z</time>
   </trkpt>
   <trkpt lat="51.8460000" lon="39.5779050">
    <ele>166.0</ele>
    <time>2017-03-26T09:47:55Z</time>
   </trkpt>
   <trkpt lat="51.8463650" lon="39.5780040">
    <ele>164.9</ele>
    <time>2017-03-26T09:48:06Z</time>
   </trkpt>
   <trkpt lat="51.8467800" lon="39.5781450">
    <ele>163.5</ele>
    <time>2017-03-26T09:48:16Z</time>
   </trkpt>
   <trkpt lat="51.8468300" lon="39.5781410">
    <ele>163.2</ele>
    <time>2017-03-26T09:48:17Z</time>
   </trkpt>
   <trkpt lat="51.8470890" lon="39.5781040">
    <ele>163.4</ele>
    <time>2017-03-26T09:48:22Z</time>
   </trkpt>
   <trkpt lat="51.8471410" lon="39.5781090">
    <ele>163.5</ele>
    <time>2017-03-26T09:48:23Z</time>
   </trkpt>
   <trkpt lat="51.8471890" lon="39.5781180">
    <ele>163.5</ele>
    <time>2017-03-26T09:48:24Z</time>
   </trkpt>
   <trkpt lat="51.8472400" lon="39.5781270">
    <ele>163.1</ele>
    <time>2017-03-26T09:48:25Z</time>
   </trkpt>
   <trkpt lat="51.8472870" lon="39.5781320">
    <ele>162.8</ele>
    <time>2017-03-26T09:48:26Z</time>
   </trkpt>
   <trkpt lat="51.8474650" lon="39.5781910">
    <ele>161.7</ele>
    <time>2017-03-26T09:48:30Z</time>
   </trkpt>
   <trkpt lat="51.8475180" lon="39.5781960">
    <ele>161.7</ele>
    <time>2017-03-26T09:48:31Z</time>
   </trkpt>
   <trkpt lat="51.8475790" lon="39.5781960">
    <ele>161.6</ele>
    <time>2017-03-26T09:48:32Z</time>
   </trkpt>
   <trkpt lat="51.8476880" lon="39.5782000">
    <ele>161.5</ele>
    <time>2017-03-26T09:48:34Z</time>
   </trkpt>
   <trkpt lat="51.8482550" lon="39.5782900">
    <ele>163.2</ele>
    <time>2017-03-26T09:48:46Z</time>
   </trkpt>
   <trkpt lat="51.8484690" lon="39.5782880">
    <ele>164.5</ele>
    <time>2017-03-26T09:48:51Z</time>
   </trkpt>
   <trkpt lat="51.8486400" lon="39.5783280">
    <ele>163.7</ele>
    <time>2017-03-26T09:48:55Z</time>
   </trkpt>
   <trkpt lat="51.8490650" lon="39.5784010">
    <ele>158.8</ele>
    <time>2017-03-26T09:49:05Z</time>
   </trkpt>
   <trkpt lat="51.8491120" lon="39.5783980">
    <ele>158.6</ele>
    <time>2017-03-26T09:49:06Z</time>
   </trkpt>
   <trkpt lat="51.8493920" lon="39.5783800">
    <ele>158.6</ele>
    <time>2017-03-26T09:49:12Z</time>
   </trkpt>
   <trkpt lat="51.8494390" lon="39.5783880">
    <ele>158.6</ele>
    <time>2017-03-26T09:49:13Z</time>
   </trkpt>
   <trkpt lat="51.8495930" lon="39.5784180">
    <ele>158.5</ele>
    <time>2017-03-26T09:49:16Z</time>
   </trkpt>
   <trkpt lat="51.8497890" lon="39.5785090">
    <ele>158.3</ele>
    <time>2017-03-26T09:49:20Z</time>
   </trkpt>
   <trkpt lat="51.8500260" lon="39.5786240">
    <ele>158.4</ele>
    <time>2017-03-26T09:49:25Z</time>
   </trkpt>
   <trkpt lat="51.8504190" lon="39.5786520">
    <ele>158.3</ele>
    <time>2017-03-26T09:49:34Z</time>
   </trkpt>
   <trkpt lat="51.8505770" lon="39.5786960">
    <ele>159.6</ele>
    <time>2017-03-26T09:49:37Z</time>
   </trkpt>
   <trkpt lat="51.8506260" lon="39.5787070">
    <ele>160.2</ele>
    <time>2017-03-26T09:49:38Z</time>
   </trkpt>
   <trkpt lat="51.8507900" lon="39.5787130">
    <ele>162.4</ele>
    <time>2017-03-26T09:49:41Z</time>
   </trkpt>
   <trkpt lat="51.8508420" lon="39.5787190">
    <ele>163.0</ele>
    <time>2017-03-26T09:49:42Z</time>
   </trkpt>
   <trkpt lat="51.8509570" lon="39.5787320">
    <ele>163.9</ele>
    <time>2017-03-26T09:49:44Z</time>
   </trkpt>
   <trkpt lat="51.8510160" lon="39.5787520">
    <ele>164.2</ele>
    <time>2017-03-26T09:49:45Z</time>
   </trkpt>
   <trkpt lat="51.8511730" lon="39.5788200">
    <ele>164.0</ele>
    <time>2017-03-26T09:49:48Z</time>
   </trkpt>
   <trkpt lat="51.8512210" lon="39.5788420">
    <ele>163.8</ele>
    <time>2017-03-26T09:49:49Z</time>
   </trkpt>
   <trkpt lat="51.8512710" lon="39.5788560">
    <ele>163.6</ele>
    <time>2017-03-26T09:49:50Z</time>
   </trkpt>
   <trkpt lat="51.8518850" lon="39.5789340">
    <ele>160.4</ele>
    <time>2017-03-26T09:50:02Z</time>
   </trkpt>
   <trkpt lat="51.8519910" lon="39.5789610">
    <ele>160.5</ele>
    <time>2017-03-26T09:50:04Z</time>
   </trkpt>
   <trkpt lat="51.8520440" lon="39.5789740">
    <ele>160.8</ele>
    <time>2017-03-26T09:50:05Z</time>
   </trkpt>
   <trkpt lat="51.8520950" lon="39.5789850">
    <ele>160.8</ele>
    <time>2017-03-26T09:50:06Z</time>
   </trkpt>
   <trkpt lat="51.8525590" lon="39.5790840">
    <ele>158.6</ele>
    <time>2017-03-26T09:50:15Z</time>
   </trkpt>
   <trkpt lat="51.8531120" lon="39.5791700">
    <ele>158.1</ele>
    <time>2017-03-26T09:50:26Z</time>
   </trkpt>
   <trkpt lat="51.8532490" lon="39.5791970">
    <ele>158.5</ele>
    <time>2017-03-26T09:50:29Z</time>
   </trkpt>
   <trkpt lat="51.8532970" lon="39.5792160">
    <ele>158.5</ele>
    <time>2017-03-26T09:50:30Z</time>
   </trkpt>
   <trkpt lat="51.8533400" lon="39.5792310">
    <ele>158.5</ele>
    <time>2017-03-26T09:50:31Z</time>
   </trkpt>
   <trkpt lat="51.8533840" lon="39.5792440">
    <ele>158.5</ele>
    <time>2017-03-26T09:50:32Z</time>
   </trkpt>
   <trkpt lat="51.8534360" lon="39.5792480">
    <ele>158.3</ele>
    <time>2017-03-26T09:50:33Z</time>
   </trkpt>
   <trkpt lat="51.8534800" lon="39.5792410">
    <ele>158.1</ele>
    <time>2017-03-26T09:50:34Z</time>
   </trkpt>
   <trkpt lat="51.8535100" lon="39.5792370">
    <ele>157.9</ele>
    <time>2017-03-26T09:50:35Z</time>
   </trkpt>
   <trkpt lat="51.8535310" lon="39.5792460">
    <ele>157.8</ele>
    <time>2017-03-26T09:50:36Z</time>
   </trkpt>
   <trkpt lat="51.8535470" lon="39.5792610">
    <ele>157.7</ele>
    <time>2017-03-26T09:50:37Z</time>
   </trkpt>
   <trkpt lat="51.8535650" lon="39.5792770">
    <ele>157.5</ele>
    <time>2017-03-26T09:50:38Z</time>
   </trkpt>
   <trkpt lat="51.8535900" lon="39.5792910">
    <ele>157.4</ele>
    <time>2017-03-26T09:50:39Z</time>
   </trkpt>
   <trkpt lat="51.8536200" lon="39.5793040">
    <ele>157.2</ele>
    <time>2017-03-26T09:50:40Z</time>
   </trkpt>
   <trkpt lat="51.8536490" lon="39.5793070">
    <ele>157.1</ele>
    <time>2017-03-26T09:50:41Z</time>
   </trkpt>
   <trkpt lat="51.8536800" lon="39.5792990">
    <ele>157.0</ele>
    <time>2017-03-26T09:50:42Z</time>
   </trkpt>
   <trkpt lat="51.8539420" lon="39.5792560">
    <ele>156.3</ele>
    <time>2017-03-26T09:50:51Z</time>
   </trkpt>
   <trkpt lat="51.8542800" lon="39.5792920">
    <ele>155.9</ele>
    <time>2017-03-26T09:50:59Z</time>
   </trkpt>
   <trkpt lat="51.8546070" lon="39.5792450">
    <ele>155.2</ele>
    <time>2017-03-26T09:51:07Z</time>
   </trkpt>
   <trkpt lat="51.8546530" lon="39.5792550">
    <ele>155.3</ele>
    <time>2017-03-26T09:51:08Z</time>
   </trkpt>
   <trkpt lat="51.8550990" lon="39.5793090">
    <ele>155.7</ele>
    <time>2017-03-26T09:51:19Z</time>
   </trkpt>
   <trkpt lat="51.8555930" lon="39.5795600">
    <ele>154.5</ele>
    <time>2017-03-26T09:51:29Z</time>
   </trkpt>
   <trkpt lat="51.8559810" lon="39.5796600">
    <ele>153.8</ele>
    <time>2017-03-26T09:51:37Z</time>
   </trkpt>
   <trkpt lat="51.8560220" lon="39.5796780">
    <ele>153.8</ele>
    <time>2017-03-26T09:51:38Z</time>
   </trkpt>
   <trkpt lat="51.8560630" lon="39.5796950">
    <ele>153.9</ele>
    <time>2017-03-26T09:51:39Z</time>
   </trkpt>
   <trkpt lat="51.8561060" lon="39.5797040">
    <ele>153.9</ele>
    <time>2017-03-26T09:51:40Z</time>
   </trkpt>
   <trkpt lat="51.8561520" lon="39.5797100">
    <ele>154.1</ele>
    <time>2017-03-26T09:51:41Z</time>
   </trkpt>
   <trkpt lat="51.8563960" lon="39.5797600">
    <ele>154.3</ele>
    <time>2017-03-26T09:51:46Z</time>
   </trkpt>
   <trkpt lat="51.8564490" lon="39.5797650">
    <ele>154.2</ele>
    <time>2017-03-26T09:51:47Z</time>
   </trkpt>
   <trkpt lat="51.8564970" lon="39.5797660">
    <ele>154.0</ele>
    <time>2017-03-26T09:51:48Z</time>
   </trkpt>
   <trkpt lat="51.8565440" lon="39.5797580">
    <ele>153.8</ele>
    <time>2017-03-26T09:51:49Z</time>
   </trkpt>
   <trkpt lat="51.8565930" lon="39.5797530">
    <ele>153.6</ele>
    <time>2017-03-26T09:51:50Z</time>
   </trkpt>
   <trkpt lat="51.8566360" lon="39.5797590">
    <ele>153.5</ele>
    <time>2017-03-26T09:51:51Z</time>
   </trkpt>
   <trkpt lat="51.8566800" lon="39.5797650">
    <ele>153.4</ele>
    <time>2017-03-26T09:51:52Z</time>
   </trkpt>
   <trkpt lat="51.8567280" lon="39.5797690">
    <ele>153.3</ele>
    <time>2017-03-26T09:51:53Z</time>
   </trkpt>
   <trkpt lat="51.8567770" lon="39.5797750">
    <ele>153.3</ele>
    <time>2017-03-26T09:51:54Z</time>
   </trkpt>
   <trkpt lat="51.8570650" lon="39.5797720">
    <ele>153.5</ele>
    <time>2017-03-26T09:52:00Z</time>
   </trkpt>
   <trkpt lat="51.8571120" lon="39.5797740">
    <ele>153.6</ele>
    <time>2017-03-26T09:52:01Z</time>
   </trkpt>
   <trkpt lat="51.8571600" lon="39.5797790">
    <ele>153.6</ele>
    <time>2017-03-26T09:52:02Z</time>
   </trkpt>
   <trkpt lat="51.8574750" lon="39.5798160">
    <ele>155.3</ele>
    <time>2017-03-26T09:52:09Z</time>
   </trkpt>
   <trkpt lat="51.8575160" lon="39.5798290">
    <ele>155.6</ele>
    <time>2017-03-26T09:52:10Z</time>
   </trkpt>
   <trkpt lat="51.8575590" lon="39.5798370">
    <ele>156.0</ele>
    <time>2017-03-26T09:52:11Z</time>
   </trkpt>
   <trkpt lat="51.8576050" lon="39.5798520">
    <ele>156.3</ele>
    <time>2017-03-26T09:52:12Z</time>
   </trkpt>
   <trkpt lat="51.8576520" lon="39.5798720">
    <ele>156.6</ele>
    <time>2017-03-26T09:52:13Z</time>
   </trkpt>
   <trkpt lat="51.8580310" lon="39.5799860">
    <ele>156.8</ele>
    <time>2017-03-26T09:52:21Z</time>
   </trkpt>
   <trkpt lat="51.8580800" lon="39.5799980">
    <ele>156.8</ele>
    <time>2017-03-26T09:52:22Z</time>
   </trkpt>
   <trkpt lat="51.8583710" lon="39.5800750">
    <ele>157.5</ele>
    <time>2017-03-26T09:52:28Z</time>
   </trkpt>
   <trkpt lat="51.8584170" lon="39.5800970">
    <ele>157.5</ele>
    <time>2017-03-26T09:52:29Z</time>
   </trkpt>
   <trkpt lat="51.8584680" lon="39.5801160">
    <ele>157.5</ele>
    <time>2017-03-26T09:52:30Z</time>
   </trkpt>
   <trkpt lat="51.8585650" lon="39.5801320">
    <ele>157.5</ele>
    <time>2017-03-26T09:52:32Z</time>
   </trkpt>
   <trkpt lat="51.8586130" lon="39.5801280">
    <ele>157.5</ele>
    <time>2017-03-26T09:52:33Z</time>
   </trkpt>
   <trkpt lat="51.8586580" lon="39.5801090">
    <ele>157.7</ele>
    <time>2017-03-26T09:52:34Z</time>
   </trkpt>
   <trkpt lat="51.8590370" lon="39.5798650">
    <ele>159.3</ele>
    <time>2017-03-26T09:52:44Z</time>
   </trkpt>
   <trkpt lat="51.8593090" lon="39.5798200">
    <ele>159.8</ele>
    <time>2017-03-26T09:52:50Z</time>
   </trkpt>
   <trkpt lat="51.8593640" lon="39.5798170">
    <ele>159.8</ele>
    <time>2017-03-26T09:52:51Z</time>
   </trkpt>
   <trkpt lat="51.8594160" lon="39.5798240">
    <ele>159.8</ele>
    <time>2017-03-26T09:52:52Z</time>
   </trkpt>
   <trkpt lat="51.8594670" lon="39.5798380">
    <ele>159.7</ele>
    <time>2017-03-26T09:52:53Z</time>
   </trkpt>
   <trkpt lat="51.8595170" lon="39.5798510">
    <ele>159.8</ele>
    <time>2017-03-26T09:52:54Z</time>
   </trkpt>
   <trkpt lat="51.8595630" lon="39.5798620">
    <ele>159.9</ele>
    <time>2017-03-26T09:52:55Z</time>
   </trkpt>
   <trkpt lat="51.8596060" lon="39.5798820">
    <ele>159.8</ele>
    <time>2017-03-26T09:52:56Z</time>
   </trkpt>
   <trkpt lat="51.8596470" lon="39.5799150">
    <ele>159.9</ele>
    <time>2017-03-26T09:52:57Z</time>
   </trkpt>
   <trkpt lat="51.8596800" lon="39.5799500">
    <ele>159.8</ele>
    <time>2017-03-26T09:52:58Z</time>
   </trkpt>
   <trkpt lat="51.8597060" lon="39.5799720">
    <ele>159.7</ele>
    <time>2017-03-26T09:52:59Z</time>
   </trkpt>
   <trkpt lat="51.8597260" lon="39.5799810">
    <ele>159.7</ele>
    <time>2017-03-26T09:53:00Z</time>
   </trkpt>
   <trkpt lat="51.8598620" lon="39.5799960">
    <ele>160.1</ele>
    <time>2017-03-26T09:53:11Z</time>
   </trkpt>
   <trkpt lat="51.8599720" lon="39.5800730">
    <ele>159.8</ele>
    <time>2017-03-26T09:53:25Z</time>
   </trkpt>
   <trkpt lat="51.8600720" lon="39.5801050">
    <ele>159.5</ele>
    <time>2017-03-26T09:53:38Z</time>
   </trkpt>
   <trkpt lat="51.8601940" lon="39.5802020">
    <ele>159.1</ele>
    <time>2017-03-26T09:53:43Z</time>
   </trkpt>
   <trkpt lat="51.8602260" lon="39.5802320">
    <ele>159.3</ele>
    <time>2017-03-26T09:53:44Z</time>
   </trkpt>
   <trkpt lat="51.8602620" lon="39.5802600">
    <ele>159.5</ele>
    <time>2017-03-26T09:53:45Z</time>
   </trkpt>
   <trkpt lat="51.8602960" lon="39.5802890">
    <ele>159.7</ele>
    <time>2017-03-26T09:53:46Z</time>
   </trkpt>
   <trkpt lat="51.8603270" lon="39.5803240">
    <ele>159.8</ele>
    <time>2017-03-26T09:53:47Z</time>
   </trkpt>
   <trkpt lat="51.8603630" lon="39.5803450">
    <ele>160.0</ele>
    <time>2017-03-26T09:53:48Z</time>
   </trkpt>
   <trkpt lat="51.8604020" lon="39.5803560">
    <ele>160.1</ele>
    <time>2017-03-26T09:53:49Z</time>
   </trkpt>
   <trkpt lat="51.8604410" lon="39.5803630">
    <ele>160.2</ele>
    <time>2017-03-26T09:53:50Z</time>
   </trkpt>
   <trkpt lat="51.8605250" lon="39.5803840">
    <ele>160.3</ele>
    <time>2017-03-26T09:53:52Z</time>
   </trkpt>
   <trkpt lat="51.8605620" lon="39.5803990">
    <ele>160.3</ele>
    <time>2017-03-26T09:53:53Z</time>
   </trkpt>
   <trkpt lat="51.8605950" lon="39.5804060">
    <ele>160.3</ele>
    <time>2017-03-26T09:53:54Z</time>
   </trkpt>
   <trkpt lat="51.8610900" lon="39.5804530">
    <ele>156.7</ele>
    <time>2017-03-26T09:54:06Z</time>
   </trkpt>
   <trkpt lat="51.8613780" lon="39.5805110">
    <ele>156.5</ele>
    <time>2017-03-26T09:54:14Z</time>
   </trkpt>
   <trkpt lat="51.8616980" lon="39.5805700">
    <ele>156.6</ele>
    <time>2017-03-26T09:54:24Z</time>
   </trkpt>
   <trkpt lat="51.8619380" lon="39.5806690">
    <ele>156.7</ele>
    <time>2017-03-26T09:54:30Z</time>
   </trkpt>
   <trkpt lat="51.8619850" lon="39.5806670">
    <ele>156.7</ele>
    <time>2017-03-26T09:54:31Z</time>
   </trkpt>
   <trkpt lat="51.8623150" lon="39.5807500">
    <ele>156.2</ele>
    <time>2017-03-26T09:54:39Z</time>
   </trkpt>
   <trkpt lat="51.8626250" lon="39.5808550">
    <ele>157.3</ele>
    <time>2017-03-26T09:54:46Z</time>
   </trkpt>
   <trkpt lat="51.8626690" lon="39.5808810">
    <ele>157.6</ele>
    <time>2017-03-26T09:54:47Z</time>
   </trkpt>
   <trkpt lat="51.8627100" lon="39.5808940">
    <ele>157.7</ele>
    <time>2017-03-26T09:54:48Z</time>
   </trkpt>
   <trkpt lat="51.8627560" lon="39.5809050">
    <ele>157.8</ele>
    <time>2017-03-26T09:54:49Z</time>
   </trkpt>
   <trkpt lat="51.8628080" lon="39.5809100">
    <ele>158.0</ele>
    <time>2017-03-26T09:54:50Z</time>
   </trkpt>
   <trkpt lat="51.8631720" lon="39.5809050">
    <ele>158.3</ele>
    <time>2017-03-26T09:54:59Z</time>
   </trkpt>
   <trkpt lat="51.8633490" lon="39.5808830">
    <ele>158.7</ele>
    <time>2017-03-26T09:55:03Z</time>
   </trkpt>
   <trkpt lat="51.8633980" lon="39.5808880">
    <ele>158.8</ele>
    <time>2017-03-26T09:55:04Z</time>
   </trkpt>
   <trkpt lat="51.8634440" lon="39.5808820">
    <ele>158.8</ele>
    <time>2017-03-26T09:55:05Z</time>
   </trkpt>
   <trkpt lat="51.8634900" lon="39.5808850">
    <ele>158.7</ele>
    <time>2017-03-26T09:55:06Z</time>
   </trkpt>
   <trkpt lat="51.8635290" lon="39.5809030">
    <ele>158.6</ele>
    <time>2017-03-26T09:55:07Z</time>
   </trkpt>
   <trkpt lat="51.8635670" lon="39.5809310">
    <ele>158.6</ele>
    <time>2017-03-26T09:55:08Z</time>
   </trkpt>
   <trkpt lat="51.8636140" lon="39.5809630">
    <ele>158.5</ele>
    <time>2017-03-26T09:55:09Z</time>
   </trkpt>
   <trkpt lat="51.8636640" lon="39.5809830">
    <ele>158.5</ele>
    <time>2017-03-26T09:55:10Z</time>
   </trkpt>
   <trkpt lat="51.8637050" lon="39.5809750">
    <ele>158.5</ele>
    <time>2017-03-26T09:55:11Z</time>
   </trkpt>
   <trkpt lat="51.8641280" lon="39.5810230">
    <ele>159.1</ele>
    <time>2017-03-26T09:55:21Z</time>
   </trkpt>
   <trkpt lat="51.8643230" lon="39.5811580">
    <ele>160.2</ele>
    <time>2017-03-26T09:55:25Z</time>
   </trkpt>
   <trkpt lat="51.8643760" lon="39.5811830">
    <ele>160.4</ele>
    <time>2017-03-26T09:55:26Z</time>
   </trkpt>
   <trkpt lat="51.8644330" lon="39.5812060">
    <ele>160.6</ele>
    <time>2017-03-26T09:55:27Z</time>
   </trkpt>
   <trkpt lat="51.8644870" lon="39.5812150">
    <ele>160.7</ele>
    <time>2017-03-26T09:55:28Z</time>
   </trkpt>
   <trkpt lat="51.8645380" lon="39.5812210">
    <ele>160.5</ele>
    <time>2017-03-26T09:55:29Z</time>
   </trkpt>
   <trkpt lat="51.8645890" lon="39.5812230">
    <ele>160.2</ele>
    <time>2017-03-26T09:55:30Z</time>
   </trkpt>
   <trkpt lat="51.8649680" lon="39.5811960">
    <ele>158.8</ele>
    <time>2017-03-26T09:55:38Z</time>
   </trkpt>
   <trkpt lat="51.8650130" lon="39.5811920">
    <ele>158.6</ele>
    <time>2017-03-26T09:55:39Z</time>
   </trkpt>
   <trkpt lat="51.8650570" lon="39.5811920">
    <ele>158.4</ele>
    <time>2017-03-26T09:55:40Z</time>
   </trkpt>
   <trkpt lat="51.8652870" lon="39.5811590">
    <ele>157.6</ele>
    <time>2017-03-26T09:55:45Z</time>
   </trkpt>
   <trkpt lat="51.8654040" lon="39.5811510">
    <ele>157.2</ele>
    <time>2017-03-26T09:55:47Z</time>
   </trkpt>
   <trkpt lat="51.8655030" lon="39.5811430">
    <ele>156.9</ele>
    <time>2017-03-26T09:55:49Z</time>
   </trkpt>
   <trkpt lat="51.8656740" lon="39.5811210">
    <ele>156.0</ele>
    <time>2017-03-26T09:55:52Z</time>
   </trkpt>
   <trkpt lat="51.8657330" lon="39.5811150">
    <ele>155.8</ele>
    <time>2017-03-26T09:55:53Z</time>
   </trkpt>
   <trkpt lat="51.8657990" lon="39.5811140">
    <ele>155.9</ele>
    <time>2017-03-26T09:55:54Z</time>
   </trkpt>
   <trkpt lat="51.8658640" lon="39.5811110">
    <ele>156.2</ele>
    <time>2017-03-26T09:55:55Z</time>
   </trkpt>
   <trkpt lat="51.8659270" lon="39.5811060">
    <ele>156.6</ele>
    <time>2017-03-26T09:55:56Z</time>
   </trkpt>
   <trkpt lat="51.8659860" lon="39.5810930">
    <ele>157.1</ele>
    <time>2017-03-26T09:55:57Z</time>
   </trkpt>
   <trkpt lat="51.8660430" lon="39.5810690">
    <ele>157.7</ele>
    <time>2017-03-26T09:55:58Z</time>
   </trkpt>
   <trkpt lat="51.8661010" lon="39.5810470">
    <ele>158.2</ele>
    <time>2017-03-26T09:55:59Z</time>
   </trkpt>
   <trkpt lat="51.8662880" lon="39.5810020">
    <ele>158.5</ele>
    <time>2017-03-26T09:56:02Z</time>
   </trkpt>
   <trkpt lat="51.8665340" lon="39.5810130">
    <ele>158.2</ele>
    <time>2017-03-26T09:56:06Z</time>
   </trkpt>
   <trkpt lat="51.8669800" lon="39.5811500">
    <ele>159.4</ele>
    <time>2017-03-26T09:56:13Z</time>
   </trkpt>
   <trkpt lat="51.8672750" lon="39.5812460">
    <ele>161.7</ele>
    <time>2017-03-26T09:56:18Z</time>
   </trkpt>
   <trkpt lat="51.8673340" lon="39.5812640">
    <ele>161.9</ele>
    <time>2017-03-26T09:56:19Z</time>
   </trkpt>
   <trkpt lat="51.8675140" lon="39.5813060">
    <ele>161.5</ele>
    <time>2017-03-26T09:56:22Z</time>
   </trkpt>
   <trkpt lat="51.8676770" lon="39.5813860">
    <ele>160.9</ele>
    <time>2017-03-26T09:56:25Z</time>
   </trkpt>
   <trkpt lat="51.8677330" lon="39.5814160">
    <ele>160.7</ele>
    <time>2017-03-26T09:56:26Z</time>
   </trkpt>
   <trkpt lat="51.8677900" lon="39.5814480">
    <ele>160.1</ele>
    <time>2017-03-26T09:56:27Z</time>
   </trkpt>
   <trkpt lat="51.8678430" lon="39.5814870">
    <ele>159.7</ele>
    <time>2017-03-26T09:56:28Z</time>
   </trkpt>
   <trkpt lat="51.8678990" lon="39.5815200">
    <ele>159.3</ele>
    <time>2017-03-26T09:56:29Z</time>
   </trkpt>
   <trkpt lat="51.8679610" lon="39.5815370">
    <ele>159.2</ele>
    <time>2017-03-26T09:56:30Z</time>
   </trkpt>
   <trkpt lat="51.8680240" lon="39.5815370">
    <ele>159.2</ele>
    <time>2017-03-26T09:56:31Z</time>
   </trkpt>
   <trkpt lat="51.8680840" lon="39.5815260">
    <ele>159.0</ele>
    <time>2017-03-26T09:56:32Z</time>
   </trkpt>
   <trkpt lat="51.8681430" lon="39.5815070">
    <ele>158.9</ele>
    <time>2017-03-26T09:56:33Z</time>
   </trkpt>
   <trkpt lat="51.8684390" lon="39.5813870">
    <ele>159.4</ele>
    <time>2017-03-26T09:56:38Z</time>
   </trkpt>
   <trkpt lat="51.8684960" lon="39.5813880">
    <ele>159.5</ele>
    <time>2017-03-26T09:56:39Z</time>
   </trkpt>
   <trkpt lat="51.8687270" lon="39.5814410">
    <ele>159.4</ele>
    <time>2017-03-26T09:56:43Z</time>
   </trkpt>
   <trkpt lat="51.8692320" lon="39.5816830">
    <ele>161.1</ele>
    <time>2017-03-26T09:56:52Z</time>
   </trkpt>
   <trkpt lat="51.8692780" lon="39.5817390">
    <ele>161.0</ele>
    <time>2017-03-26T09:56:53Z</time>
   </trkpt>
   <trkpt lat="51.8695820" lon="39.5821930">
    <ele>159.7</ele>
    <time>2017-03-26T09:57:00Z</time>
   </trkpt>
   <trkpt lat="51.8696260" lon="39.5822450">
    <ele>159.3</ele>
    <time>2017-03-26T09:57:01Z</time>
   </trkpt>
   <trkpt lat="51.8696690" lon="39.5822950">
    <ele>158.8</ele>
    <time>2017-03-26T09:57:02Z</time>
   </trkpt>
   <trkpt lat="51.8697160" lon="39.5823450">
    <ele>158.4</ele>
    <time>2017-03-26T09:57:03Z</time>
   </trkpt>
   <trkpt lat="51.8697630" lon="39.5823940">
    <ele>158.1</ele>
    <time>2017-03-26T09:57:04Z</time>
   </trkpt>
   <trkpt lat="51.8700540" lon="39.5826270">
    <ele>158.3</ele>
    <time>2017-03-26T09:57:10Z</time>
   </trkpt>
   <trkpt lat="51.8701070" lon="39.5826540">
    <ele>158.2</ele>
    <time>2017-03-26T09:57:11Z</time>
   </trkpt>
   <trkpt lat="51.8705740" lon="39.5829950">
    <ele>156.8</ele>
    <time>2017-03-26T09:57:21Z</time>
   </trkpt>
   <trkpt lat="51.8708890" lon="39.5832320">
    <ele>156.0</ele>
    <time>2017-03-26T09:57:28Z</time>
   </trkpt>
   <trkpt lat="51.8709210" lon="39.5832800">
    <ele>156.1</ele>
    <time>2017-03-26T09:57:29Z</time>
   </trkpt>
   <trkpt lat="51.8709480" lon="39.5833350">
    <ele>156.3</ele>
    <time>2017-03-26T09:57:30Z</time>
   </trkpt>
   <trkpt lat="51.8709700" lon="39.5833950">
    <ele>156.4</ele>
    <time>2017-03-26T09:57:31Z</time>
   </trkpt>
   <trkpt lat="51.8709900" lon="39.5834580">
    <ele>156.5</ele>
    <time>2017-03-26T09:57:32Z</time>
   </trkpt>
   <trkpt lat="51.8710160" lon="39.5835750">
    <ele>156.6</ele>
    <time>2017-03-26T09:57:34Z</time>
   </trkpt>
   <trkpt lat="51.8710400" lon="39.5836240">
    <ele>156.6</ele>
    <time>2017-03-26T09:57:35Z</time>
   </trkpt>
   <trkpt lat="51.8710710" lon="39.5836640">
    <ele>156.6</ele>
    <time>2017-03-26T09:57:36Z</time>
   </trkpt>
   <trkpt lat="51.8711070" lon="39.5836970">
    <ele>156.6</ele>
    <time>2017-03-26T09:57:37Z</time>
   </trkpt>
   <trkpt lat="51.8711440" lon="39.5837270">
    <ele>156.6</ele>
    <time>2017-03-26T09:57:38Z</time>
   </trkpt>
   <trkpt lat="51.8711860" lon="39.5837560">
    <ele>156.5</ele>
    <time>2017-03-26T09:57:39Z</time>
   </trkpt>
   <trkpt lat="51.8718090" lon="39.5841430">
    <ele>154.4</ele>
    <time>2017-03-26T09:57:54Z</time>
   </trkpt>
   <trkpt lat="51.8718520" lon="39.5841590">
    <ele>154.1</ele>
    <time>2017-03-26T09:57:55Z</time>
   </trkpt>
   <trkpt lat="51.8718950" lon="39.5841740">
    <ele>153.9</ele>
    <time>2017-03-26T09:57:56Z</time>
   </trkpt>
   <trkpt lat="51.8721530" lon="39.5843010">
    <ele>153.0</ele>
    <time>2017-03-26T09:58:02Z</time>
   </trkpt>
   <trkpt lat="51.8728210" lon="39.5847800">
    <ele>151.8</ele>
    <time>2017-03-26T09:58:17Z</time>
   </trkpt>
   <trkpt lat="51.8735690" lon="39.5853380">
    <ele>147.3</ele>
    <time>2017-03-26T09:58:33Z</time>
   </trkpt>
   <trkpt lat="51.8741960" lon="39.5857830">
    <ele>147.5</ele>
    <time>2017-03-26T09:58:47Z</time>
   </trkpt>
   <trkpt lat="51.8742430" lon="39.5857910">
    <ele>147.7</ele>
    <time>2017-03-26T09:58:48Z</time>
   </trkpt>
   <trkpt lat="51.8742910" lon="39.5857810">
    <ele>148.0</ele>
    <time>2017-03-26T09:58:49Z</time>
   </trkpt>
   <trkpt lat="51.8743370" lon="39.5857580">
    <ele>148.4</ele>
    <time>2017-03-26T09:58:50Z</time>
   </trkpt>
   <trkpt lat="51.8743770" lon="39.5857180">
    <ele>148.6</ele>
    <time>2017-03-26T09:58:51Z</time>
   </trkpt>
   <trkpt lat="51.8744110" lon="39.5856620">
    <ele>148.8</ele>
    <time>2017-03-26T09:58:52Z</time>
   </trkpt>
   <trkpt lat="51.8744440" lon="39.5855960">
    <ele>149.0</ele>
    <time>2017-03-26T09:58:53Z</time>
   </trkpt>
   <trkpt lat="51.8745480" lon="39.5854030">
    <ele>149.1</ele>
    <time>2017-03-26T09:58:56Z</time>
   </trkpt>
   <trkpt lat="51.8745870" lon="39.5853550">
    <ele>149.0</ele>
    <time>2017-03-26T09:58:57Z</time>
   </trkpt>
   <trkpt lat="51.8746280" lon="39.5853140">
    <ele>149.0</ele>
    <time>2017-03-26T09:58:58Z</time>
   </trkpt>
   <trkpt lat="51.8746700" lon="39.5852890">
    <ele>149.0</ele>
    <time>2017-03-26T09:58:59Z</time>
   </trkpt>
   <trkpt lat="51.8747140" lon="39.5852900">
    <ele>149.4</ele>
    <time>2017-03-26T09:59:00Z</time>
   </trkpt>
   <trkpt lat="51.8747590" lon="39.5853090">
    <ele>149.8</ele>
    <time>2017-03-26T09:59:01Z</time>
   </trkpt>
   <trkpt lat="51.8748010" lon="39.5853390">
    <ele>150.2</ele>
    <time>2017-03-26T09:59:02Z</time>
   </trkpt>
   <trkpt lat="51.8748430" lon="39.5853740">
    <ele>150.6</ele>
    <time>2017-03-26T09:59:03Z</time>
   </trkpt>
   <trkpt lat="51.8750630" lon="39.5855240">
    <ele>151.7</ele>
    <time>2017-03-26T09:59:08Z</time>
   </trkpt>
   <trkpt lat="51.8751080" lon="39.5855450">
    <ele>151.9</ele>
    <time>2017-03-26T09:59:09Z</time>
   </trkpt>
   <trkpt lat="51.8752010" lon="39.5856040">
    <ele>152.2</ele>
    <time>2017-03-26T09:59:11Z</time>
   </trkpt>
   <trkpt lat="51.8752430" lon="39.5856470">
    <ele>152.4</ele>
    <time>2017-03-26T09:59:12Z</time>
   </trkpt>
   <trkpt lat="51.8753990" lon="39.5858250">
    <ele>153.8</ele>
    <time>2017-03-26T09:59:16Z</time>
   </trkpt>
   <trkpt lat="51.8756840" lon="39.5861740">
    <ele>154.4</ele>
    <time>2017-03-26T09:59:23Z</time>
   </trkpt>
   <trkpt lat="51.8757550" lon="39.5862810">
    <ele>154.3</ele>
    <time>2017-03-26T09:59:25Z</time>
   </trkpt>
   <trkpt lat="51.8757910" lon="39.5863270">
    <ele>154.1</ele>
    <time>2017-03-26T09:59:26Z</time>
   </trkpt>
   <trkpt lat="51.8760130" lon="39.5865330">
    <ele>152.9</ele>
    <time>2017-03-26T09:59:31Z</time>
   </trkpt>
   <trkpt lat="51.8762370" lon="39.5867310">
    <ele>152.7</ele>
    <time>2017-03-26T09:59:36Z</time>
   </trkpt>
   <trkpt lat="51.8769620" lon="39.5873190">
    <ele>153.9</ele>
    <time>2017-03-26T09:59:52Z</time>
   </trkpt>
   <trkpt lat="51.8776410" lon="39.5878900">
    <ele>153.8</ele>
    <time>2017-03-26T10:00:08Z</time>
   </trkpt>
   <trkpt lat="51.8777670" lon="39.5879720">
    <ele>154.4</ele>
    <time>2017-03-26T10:00:11Z</time>
   </trkpt>
   <trkpt lat="51.8778080" lon="39.5880110">
    <ele>154.6</ele>
    <time>2017-03-26T10:00:12Z</time>
   </trkpt>
   <trkpt lat="51.8778460" lon="39.5880570">
    <ele>154.7</ele>
    <time>2017-03-26T10:00:13Z</time>
   </trkpt>
   <trkpt lat="51.8780330" lon="39.5882490">
    <ele>154.2</ele>
    <time>2017-03-26T10:00:18Z</time>
   </trkpt>
   <trkpt lat="51.8784540" lon="39.5881810">
    <ele>154.6</ele>
    <time>2017-03-26T10:00:30Z</time>
   </trkpt>
   <trkpt lat="51.8785900" lon="39.5876970">
    <ele>155.0</ele>
    <time>2017-03-26T10:00:40Z</time>
   </trkpt>
   <trkpt lat="51.8786130" lon="39.5876960">
    <ele>155.0</ele>
    <time>2017-03-26T10:00:41Z</time>
   </trkpt>
   <trkpt lat="51.8786390" lon="39.5877090">
    <ele>155.0</ele>
    <time>2017-03-26T10:00:42Z</time>
   </trkpt>
   <trkpt lat="51.8786570" lon="39.5877310">
    <ele>155.0</ele>
    <time>2017-03-26T10:00:43Z</time>
   </trkpt>
   <trkpt lat="51.8786680" lon="39.5877510">
    <ele>155.0</ele>
    <time>2017-03-26T10:00:44Z</time>
   </trkpt>
   <trkpt lat="51.8787020" lon="39.5877900">
    <ele>154.8</ele>
    <time>2017-03-26T10:00:51Z</time>
   </trkpt>
   <trkpt lat="51.8787980" lon="39.5877810">
    <ele>154.4</ele>
    <time>2017-03-26T10:04:59Z</time>
   </trkpt>
   <trkpt lat="51.8791560" lon="39.5880950">
    <ele>154.1</ele>
    <time>2017-03-26T10:05:10Z</time>
   </trkpt>
   <trkpt lat="51.8800780" lon="39.5888010">
    <ele>155.0</ele>
    <time>2017-03-26T10:05:29Z</time>
   </trkpt>
   <trkpt lat="51.8814020" lon="39.5896270">
    <ele>152.3</ele>
    <time>2017-03-26T10:05:54Z</time>
   </trkpt>
   <trkpt lat="51.8825710" lon="39.5904030">
    <ele>152.2</ele>
    <time>2017-03-26T10:06:17Z</time>
   </trkpt>
   <trkpt lat="51.8836940" lon="39.5912290">
    <ele>154.9</ele>
    <time>2017-03-26T10:06:39Z</time>
   </trkpt>
   <trkpt lat="51.8847380" lon="39.5919370">
    <ele>153.9</ele>
    <time>2017-03-26T10:06:59Z</time>
   </trkpt>
   <trkpt lat="51.8847840" lon="39.5919270">
    <ele>154.0</ele>
    <time>2017-03-26T10:07:00Z</time>
   </trkpt>
   <trkpt lat="51.8848200" lon="39.5918850">
    <ele>153.9</ele>
    <time>2017-03-26T10:07:01Z</time>
   </trkpt>
   <trkpt lat="51.8848480" lon="39.5918280">
    <ele>153.8</ele>
    <time>2017-03-26T10:07:02Z</time>
   </trkpt>
   <trkpt lat="51.8848690" lon="39.5917640">
    <ele>153.8</ele>
    <time>2017-03-26T10:07:03Z</time>
   </trkpt>
   <trkpt lat="51.8848860" lon="39.5916980">
    <ele>153.8</ele>
    <time>2017-03-26T10:07:04Z</time>
   </trkpt>
   <trkpt lat="51.8849010" lon="39.5916320">
    <ele>153.7</ele>
    <time>2017-03-26T10:07:05Z</time>
   </trkpt>
   <trkpt lat="51.8850290" lon="39.5910160">
    <ele>153.3</ele>
    <time>2017-03-26T10:07:17Z</time>
   </trkpt>
   <trkpt lat="51.8851340" lon="39.5905240">
    <ele>153.0</ele>
    <time>2017-03-26T10:07:26Z</time>
   </trkpt>
   <trkpt lat="51.8851560" lon="39.5904840">
    <ele>153.0</ele>
    <time>2017-03-26T10:07:27Z</time>
   </trkpt>
   <trkpt lat="51.8851800" lon="39.5904660">
    <ele>153.0</ele>
    <time>2017-03-26T10:07:28Z</time>
   </trkpt>
   <trkpt lat="51.8852030" lon="39.5904620">
    <ele>153.0</ele>
    <time>2017-03-26T10:07:29Z</time>
   </trkpt>
   <trkpt lat="51.8852280" lon="39.5904650">
    <ele>153.0</ele>
    <time>2017-03-26T10:07:30Z</time>
   </trkpt>
   <trkpt lat="51.8852540" lon="39.5904730">
    <ele>153.0</ele>
    <time>2017-03-26T10:07:31Z</time>
   </trkpt>
   <trkpt lat="51.8852810" lon="39.5904870">
    <ele>153.1</ele>
    <time>2017-03-26T10:07:32Z</time>
   </trkpt>
   <trkpt lat="51.8853120" lon="39.5905040">
    <ele>153.1</ele>
    <time>2017-03-26T10:07:33Z</time>
   </trkpt>
   <trkpt lat="51.8858970" lon="39.5908150">
    <ele>153.0</ele>
    <time>2017-03-26T10:07:48Z</time>
   </trkpt>
   <trkpt lat="51.8860230" lon="39.5908460">
    <ele>153.0</ele>
    <time>2017-03-26T10:07:51Z</time>
   </trkpt>
   <trkpt lat="51.8863590" lon="39.5910000">
    <ele>153.0</ele>
    <time>2017-03-26T10:07:59Z</time>
   </trkpt>
   <trkpt lat="51.8864050" lon="39.5910030">
    <ele>153.0</ele>
    <time>2017-03-26T10:08:00Z</time>
   </trkpt>
   <trkpt lat="51.8864510" lon="39.5909930">
    <ele>153.0</ele>
    <time>2017-03-26T10:08:01Z</time>
   </trkpt>
   <trkpt lat="51.8864970" lon="39.5909740">
    <ele>153.2</ele>
    <time>2017-03-26T10:08:02Z</time>
   </trkpt>
   <trkpt lat="51.8865450" lon="39.5909390">
    <ele>153.5</ele>
    <time>2017-03-26T10:08:03Z</time>
   </trkpt>
   <trkpt lat="51.8865940" lon="39.5909040">
    <ele>153.8</ele>
    <time>2017-03-26T10:08:04Z</time>
   </trkpt>
   <trkpt lat="51.8866410" lon="39.5908820">
    <ele>154.2</ele>
    <time>2017-03-26T10:08:05Z</time>
   </trkpt>
   <trkpt lat="51.8870640" lon="39.5907740">
    <ele>156.9</ele>
    <time>2017-03-26T10:08:14Z</time>
   </trkpt>
   <trkpt lat="51.8874310" lon="39.5906670">
    <ele>159.3</ele>
    <time>2017-03-26T10:08:21Z</time>
   </trkpt>
   <trkpt lat="51.8875890" lon="39.5906080">
    <ele>159.4</ele>
    <time>2017-03-26T10:08:24Z</time>
   </trkpt>
   <trkpt lat="51.8876410" lon="39.5905880">
    <ele>159.2</ele>
    <time>2017-03-26T10:08:25Z</time>
   </trkpt>
   <trkpt lat="51.8876910" lon="39.5905600">
    <ele>159.0</ele>
    <time>2017-03-26T10:08:26Z</time>
   </trkpt>
   <trkpt lat="51.8877920" lon="39.5905010">
    <ele>158.3</ele>
    <time>2017-03-26T10:08:28Z</time>
   </trkpt>
   <trkpt lat="51.8878410" lon="39.5904830">
    <ele>157.9</ele>
    <time>2017-03-26T10:08:29Z</time>
   </trkpt>
   <trkpt lat="51.8880200" lon="39.5904060">
    <ele>157.1</ele>
    <time>2017-03-26T10:08:33Z</time>
   </trkpt>
   <trkpt lat="51.8880600" lon="39.5903640">
    <ele>157.3</ele>
    <time>2017-03-26T10:08:34Z</time>
   </trkpt>
   <trkpt lat="51.8881400" lon="39.5902700">
    <ele>157.6</ele>
    <time>2017-03-26T10:08:36Z</time>
   </trkpt>
   <trkpt lat="51.8884150" lon="39.5900350">
    <ele>159.3</ele>
    <time>2017-03-26T10:08:42Z</time>
   </trkpt>
   <trkpt lat="51.8887550" lon="39.5897940">
    <ele>160.9</ele>
    <time>2017-03-26T10:08:49Z</time>
   </trkpt>
   <trkpt lat="51.8892240" lon="39.5895190">
    <ele>165.5</ele>
    <time>2017-03-26T10:08:59Z</time>
   </trkpt>
   <trkpt lat="51.8892740" lon="39.5894960">
    <ele>166.2</ele>
    <time>2017-03-26T10:09:00Z</time>
   </trkpt>
   <trkpt lat="51.8893260" lon="39.5894800">
    <ele>166.8</ele>
    <time>2017-03-26T10:09:01Z</time>
   </trkpt>
   <trkpt lat="51.8894850" lon="39.5894450">
    <ele>168.1</ele>
    <time>2017-03-26T10:09:04Z</time>
   </trkpt>
   <trkpt lat="51.8895340" lon="39.5894220">
    <ele>168.5</ele>
    <time>2017-03-26T10:09:05Z</time>
   </trkpt>
   <trkpt lat="51.8896260" lon="39.5893550">
    <ele>168.8</ele>
    <time>2017-03-26T10:09:07Z</time>
   </trkpt>
   <trkpt lat="51.8897490" lon="39.5892370">
    <ele>169.0</ele>
    <time>2017-03-26T10:09:10Z</time>
   </trkpt>
   <trkpt lat="51.8901080" lon="39.5890240">
    <ele>167.2</ele>
    <time>2017-03-26T10:09:18Z</time>
   </trkpt>
   <trkpt lat="51.8901520" lon="39.5889950">
    <ele>167.1</ele>
    <time>2017-03-26T10:09:19Z</time>
   </trkpt>
   <trkpt lat="51.8901930" lon="39.5889650">
    <ele>166.7</ele>
    <time>2017-03-26T10:09:20Z</time>
   </trkpt>
   <trkpt lat="51.8902310" lon="39.5889370">
    <ele>166.6</ele>
    <time>2017-03-26T10:09:21Z</time>
   </trkpt>
   <trkpt lat="51.8902690" lon="39.5889070">
    <ele>166.3</ele>
    <time>2017-03-26T10:09:22Z</time>
   </trkpt>
   <trkpt lat="51.8903120" lon="39.5888770">
    <ele>166.1</ele>
    <time>2017-03-26T10:09:23Z</time>
   </trkpt>
   <trkpt lat="51.8903560" lon="39.5888520">
    <ele>165.8</ele>
    <time>2017-03-26T10:09:24Z</time>
   </trkpt>
   <trkpt lat="51.8904020" lon="39.5888340">
    <ele>165.2</ele>
    <time>2017-03-26T10:09:25Z</time>
   </trkpt>
   <trkpt lat="51.8907370" lon="39.5886920">
    <ele>159.6</ele>
    <time>2017-03-26T10:09:35Z</time>
   </trkpt>
   <trkpt lat="51.8907740" lon="39.5886780">
    <ele>158.3</ele>
    <time>2017-03-26T10:09:40Z</time>
   </trkpt>
   <trkpt lat="51.8907970" lon="39.5886100">
    <ele>156.2</ele>
    <time>2017-03-26T10:10:55Z</time>
   </trkpt>
   <trkpt lat="51.8907830" lon="39.5885860">
    <ele>156.3</ele>
    <time>2017-03-26T10:10:56Z</time>
   </trkpt>
   <trkpt lat="51.8905910" lon="39.5883300">
    <ele>158.6</ele>
    <time>2017-03-26T10:11:04Z</time>
   </trkpt>
   <trkpt lat="51.8905980" lon="39.5881430">
    <ele>157.5</ele>
    <time>2017-03-26T10:11:08Z</time>
   </trkpt>
   <trkpt lat="51.8907520" lon="39.5874880">
    <ele>156.3</ele>
    <time>2017-03-26T10:11:20Z</time>
   </trkpt>
   <trkpt lat="51.8908140" lon="39.5868950">
    <ele>159.1</ele>
    <time>2017-03-26T10:11:29Z</time>
   </trkpt>
   <trkpt lat="51.8907890" lon="39.5865760">
    <ele>159.7</ele>
    <time>2017-03-26T10:11:33Z</time>
   </trkpt>
   <trkpt lat="51.8907950" lon="39.5863410">
    <ele>158.8</ele>
    <time>2017-03-26T10:11:36Z</time>
   </trkpt>
   <trkpt lat="51.8906540" lon="39.5859190">
    <ele>161.6</ele>
    <time>2017-03-26T10:11:43Z</time>
   </trkpt>
   <trkpt lat="51.8905480" lon="39.5856670">
    <ele>163.6</ele>
    <time>2017-03-26T10:11:47Z</time>
   </trkpt>
   <trkpt lat="51.8904170" lon="39.5853500">
    <ele>165.8</ele>
    <time>2017-03-26T10:11:52Z</time>
   </trkpt>
   <trkpt lat="51.8902720" lon="39.5849740">
    <ele>167.0</ele>
    <time>2017-03-26T10:11:58Z</time>
   </trkpt>
   <trkpt lat="51.8901910" lon="39.5848420">
    <ele>166.2</ele>
    <time>2017-03-26T10:12:00Z</time>
   </trkpt>
   <trkpt lat="51.8899400" lon="39.5843750">
    <ele>165.0</ele>
    <time>2017-03-26T10:12:08Z</time>
   </trkpt>
   <trkpt lat="51.8898900" lon="39.5841520">
    <ele>163.8</ele>
    <time>2017-03-26T10:12:11Z</time>
   </trkpt>
   <trkpt lat="51.8897790" lon="39.5839150">
    <ele>162.7</ele>
    <time>2017-03-26T10:12:15Z</time>
   </trkpt>
   <trkpt lat="51.8896520" lon="39.5836430">
    <ele>160.1</ele>
    <time>2017-03-26T10:12:20Z</time>
   </trkpt>
   <trkpt lat="51.8896390" lon="39.5830790">
    <ele>159.1</ele>
    <time>2017-03-26T10:12:28Z</time>
   </trkpt>
   <trkpt lat="51.8898570" lon="39.5824950">
    <ele>161.1</ele>
    <time>2017-03-26T10:12:37Z</time>
   </trkpt>
   <trkpt lat="51.8898820" lon="39.5824200">
    <ele>161.5</ele>
    <time>2017-03-26T10:12:38Z</time>
   </trkpt>
   <trkpt lat="51.8899140" lon="39.5823570">
    <ele>162.1</ele>
    <time>2017-03-26T10:12:39Z</time>
   </trkpt>
   <trkpt lat="51.8899540" lon="39.5823100">
    <ele>162.4</ele>
    <time>2017-03-26T10:12:40Z</time>
   </trkpt>
   <trkpt lat="51.8899980" lon="39.5822710">
    <ele>162.5</ele>
    <time>2017-03-26T10:12:41Z</time>
   </trkpt>
   <trkpt lat="51.8900370" lon="39.5822200">
    <ele>162.5</ele>
    <time>2017-03-26T10:12:42Z</time>
   </trkpt>
   <trkpt lat="51.8900650" lon="39.5821530">
    <ele>162.4</ele>
    <time>2017-03-26T10:12:43Z</time>
   </trkpt>
   <trkpt lat="51.8900870" lon="39.5820830">
    <ele>162.2</ele>
    <time>2017-03-26T10:12:44Z</time>
   </trkpt>
   <trkpt lat="51.8901160" lon="39.5820160">
    <ele>162.0</ele>
    <time>2017-03-26T10:12:45Z</time>
   </trkpt>
   <trkpt lat="51.8901510" lon="39.5819520">
    <ele>162.0</ele>
    <time>2017-03-26T10:12:46Z</time>
   </trkpt>
   <trkpt lat="51.8901900" lon="39.5818920">
    <ele>162.0</ele>
    <time>2017-03-26T10:12:47Z</time>
   </trkpt>
   <trkpt lat="51.8902340" lon="39.5818400">
    <ele>162.1</ele>
    <time>2017-03-26T10:12:48Z</time>
   </trkpt>
   <trkpt lat="51.8902760" lon="39.5817860">
    <ele>162.0</ele>
    <time>2017-03-26T10:12:49Z</time>
   </trkpt>
   <trkpt lat="51.8903150" lon="39.5817230">
    <ele>161.8</ele>
    <time>2017-03-26T10:12:50Z</time>
   </trkpt>
   <trkpt lat="51.8903500" lon="39.5816570">
    <ele>161.5</ele>
    <time>2017-03-26T10:12:51Z</time>
   </trkpt>
   <trkpt lat="51.8904900" lon="39.5814210">
    <ele>159.4</ele>
    <time>2017-03-26T10:12:55Z</time>
   </trkpt>
   <trkpt lat="51.8905820" lon="39.5812030">
    <ele>159.0</ele>
    <time>2017-03-26T10:12:58Z</time>
   </trkpt>
   <trkpt lat="51.8906310" lon="39.5810760">
    <ele>158.9</ele>
    <time>2017-03-26T10:13:00Z</time>
   </trkpt>
   <trkpt lat="51.8909210" lon="39.5805400">
    <ele>158.5</ele>
    <time>2017-03-26T10:13:08Z</time>
   </trkpt>
   <trkpt lat="51.8911490" lon="39.5801600">
    <ele>158.2</ele>
    <time>2017-03-26T10:13:14Z</time>
   </trkpt>
   <trkpt lat="51.8911900" lon="39.5801020">
    <ele>158.5</ele>
    <time>2017-03-26T10:13:15Z</time>
   </trkpt>
   <trkpt lat="51.8912320" lon="39.5800460">
    <ele>159.1</ele>
    <time>2017-03-26T10:13:16Z</time>
   </trkpt>
   <trkpt lat="51.8912690" lon="39.5799860">
    <ele>159.4</ele>
    <time>2017-03-26T10:13:17Z</time>
   </trkpt>
   <trkpt lat="51.8913010" lon="39.5799220">
    <ele>159.9</ele>
    <time>2017-03-26T10:13:18Z</time>
   </trkpt>
   <trkpt lat="51.8913290" lon="39.5798560">
    <ele>160.2</ele>
    <time>2017-03-26T10:13:19Z</time>
   </trkpt>
   <trkpt lat="51.8914080" lon="39.5796440">
    <ele>160.6</ele>
    <time>2017-03-26T10:13:22Z</time>
   </trkpt>
   <trkpt lat="51.8914330" lon="39.5795780">
    <ele>160.7</ele>
    <time>2017-03-26T10:13:23Z</time>
   </trkpt>
   <trkpt lat="51.8914570" lon="39.5795110">
    <ele>160.8</ele>
    <time>2017-03-26T10:13:24Z</time>
   </trkpt>
   <trkpt lat="51.8915070" lon="39.5793520">
    <ele>160.2</ele>
    <time>2017-03-26T10:13:26Z</time>
   </trkpt>
   <trkpt lat="51.8915230" lon="39.5792650">
    <ele>159.6</ele>
    <time>2017-03-26T10:13:27Z</time>
   </trkpt>
   <trkpt lat="51.8915410" lon="39.5791810">
    <ele>159.3</ele>
    <time>2017-03-26T10:13:28Z</time>
   </trkpt>
   <trkpt lat="51.8915890" lon="39.5790310">
    <ele>159.0</ele>
    <time>2017-03-26T10:13:30Z</time>
   </trkpt>
   <trkpt lat="51.8917760" lon="39.5785840">
    <ele>158.9</ele>
    <time>2017-03-26T10:13:36Z</time>
   </trkpt>
   <trkpt lat="51.8918360" lon="39.5783470">
    <ele>159.4</ele>
    <time>2017-03-26T10:13:39Z</time>
   </trkpt>
   <trkpt lat="51.8919160" lon="39.5781150">
    <ele>158.8</ele>
    <time>2017-03-26T10:13:42Z</time>
   </trkpt>
   <trkpt lat="51.8919670" lon="39.5779460">
    <ele>159.1</ele>
    <time>2017-03-26T10:13:44Z</time>
   </trkpt>
   <trkpt lat="51.8920220" lon="39.5777910">
    <ele>159.4</ele>
    <time>2017-03-26T10:13:46Z</time>
   </trkpt>
   <trkpt lat="51.8920390" lon="39.5777080">
    <ele>159.1</ele>
    <time>2017-03-26T10:13:47Z</time>
   </trkpt>
   <trkpt lat="51.8920600" lon="39.5776220">
    <ele>158.9</ele>
    <time>2017-03-26T10:13:48Z</time>
   </trkpt>
   <trkpt lat="51.8920860" lon="39.5775470">
    <ele>158.9</ele>
    <time>2017-03-26T10:13:49Z</time>
   </trkpt>
   <trkpt lat="51.8921140" lon="39.5774740">
    <ele>159.0</ele>
    <time>2017-03-26T10:13:50Z</time>
   </trkpt>
   <trkpt lat="51.8922100" lon="39.5772560">
    <ele>160.1</ele>
    <time>2017-03-26T10:13:53Z</time>
   </trkpt>
   <trkpt lat="51.8922470" lon="39.5771880">
    <ele>160.4</ele>
    <time>2017-03-26T10:13:54Z</time>
   </trkpt>
   <trkpt lat="51.8924290" lon="39.5767840">
    <ele>162.2</ele>
    <time>2017-03-26T10:13:59Z</time>
   </trkpt>
   <trkpt lat="51.8924580" lon="39.5766940">
    <ele>162.2</ele>
    <time>2017-03-26T10:14:00Z</time>
   </trkpt>
   <trkpt lat="51.8924860" lon="39.5766040">
    <ele>162.1</ele>
    <time>2017-03-26T10:14:01Z</time>
   </trkpt>
   <trkpt lat="51.8925200" lon="39.5765250">
    <ele>162.0</ele>
    <time>2017-03-26T10:14:02Z</time>
   </trkpt>
   <trkpt lat="51.8925580" lon="39.5764480">
    <ele>161.9</ele>
    <time>2017-03-26T10:14:03Z</time>
   </trkpt>
   <trkpt lat="51.8925960" lon="39.5763700">
    <ele>161.5</ele>
    <time>2017-03-26T10:14:04Z</time>
   </trkpt>
   <trkpt lat="51.8926350" lon="39.5762940">
    <ele>160.9</ele>
    <time>2017-03-26T10:14:05Z</time>
   </trkpt>
   <trkpt lat="51.8926590" lon="39.5762150">
    <ele>160.2</ele>
    <time>2017-03-26T10:14:06Z</time>
   </trkpt>
   <trkpt lat="51.8926800" lon="39.5760590">
    <ele>159.3</ele>
    <time>2017-03-26T10:14:08Z</time>
   </trkpt>
   <trkpt lat="51.8926940" lon="39.5758860">
    <ele>158.5</ele>
    <time>2017-03-26T10:14:10Z</time>
   </trkpt>
   <trkpt lat="51.8926950" lon="39.5757880">
    <ele>158.3</ele>
    <time>2017-03-26T10:14:11Z</time>
   </trkpt>
   <trkpt lat="51.8927260" lon="39.5754970">
    <ele>158.2</ele>
    <time>2017-03-26T10:14:14Z</time>
   </trkpt>
   <trkpt lat="51.8927390" lon="39.5753960">
    <ele>158.3</ele>
    <time>2017-03-26T10:14:15Z</time>
   </trkpt>
   <trkpt lat="51.8927570" lon="39.5751960">
    <ele>159.4</ele>
    <time>2017-03-26T10:14:17Z</time>
   </trkpt>
   <trkpt lat="51.8927620" lon="39.5751060">
    <ele>159.8</ele>
    <time>2017-03-26T10:14:18Z</time>
   </trkpt>
   <trkpt lat="51.8927680" lon="39.5750180">
    <ele>160.0</ele>
    <time>2017-03-26T10:14:19Z</time>
   </trkpt>
   <trkpt lat="51.8928590" lon="39.5742790">
    <ele>157.8</ele>
    <time>2017-03-26T10:14:27Z</time>
   </trkpt>
   <trkpt lat="51.8928810" lon="39.5741970">
    <ele>157.8</ele>
    <time>2017-03-26T10:14:28Z</time>
   </trkpt>
   <trkpt lat="51.8929060" lon="39.5741260">
    <ele>157.7</ele>
    <time>2017-03-26T10:14:29Z</time>
   </trkpt>
   <trkpt lat="51.8929370" lon="39.5740510">
    <ele>157.7</ele>
    <time>2017-03-26T10:14:30Z</time>
   </trkpt>
   <trkpt lat="51.8929670" lon="39.5739740">
    <ele>157.7</ele>
    <time>2017-03-26T10:14:31Z</time>
   </trkpt>
   <trkpt lat="51.8929950" lon="39.5738870">
    <ele>158.0</ele>
    <time>2017-03-26T10:14:32Z</time>
   </trkpt>
   <trkpt lat="51.8930200" lon="39.5737950">
    <ele>158.4</ele>
    <time>2017-03-26T10:14:33Z</time>
   </trkpt>
   <trkpt lat="51.8931140" lon="39.5734460">
    <ele>159.7</ele>
    <time>2017-03-26T10:14:37Z</time>
   </trkpt>
   <trkpt lat="51.8933170" lon="39.5726260">
    <ele>157.4</ele>
    <time>2017-03-26T10:14:46Z</time>
   </trkpt>
   <trkpt lat="51.8933570" lon="39.5722370">
    <ele>157.4</ele>
    <time>2017-03-26T10:14:50Z</time>
   </trkpt>
   <trkpt lat="51.8933850" lon="39.5720510">
    <ele>158.9</ele>
    <time>2017-03-26T10:14:52Z</time>
   </trkpt>
   <trkpt lat="51.8934050" lon="39.5719830">
    <ele>159.3</ele>
    <time>2017-03-26T10:14:53Z</time>
   </trkpt>
   <trkpt lat="51.8934290" lon="39.5719170">
    <ele>159.6</ele>
    <time>2017-03-26T10:14:54Z</time>
   </trkpt>
   <trkpt lat="51.8934490" lon="39.5718580">
    <ele>159.8</ele>
    <time>2017-03-26T10:14:55Z</time>
   </trkpt>
   <trkpt lat="51.8934760" lon="39.5717960">
    <ele>159.9</ele>
    <time>2017-03-26T10:14:56Z</time>
   </trkpt>
   <trkpt lat="51.8935080" lon="39.5717290">
    <ele>159.9</ele>
    <time>2017-03-26T10:14:57Z</time>
   </trkpt>
   <trkpt lat="51.8935330" lon="39.5716570">
    <ele>159.9</ele>
    <time>2017-03-26T10:14:58Z</time>
   </trkpt>
   <trkpt lat="51.8935600" lon="39.5715780">
    <ele>159.8</ele>
    <time>2017-03-26T10:14:59Z</time>
   </trkpt>
   <trkpt lat="51.8935880" lon="39.5715130">
    <ele>159.8</ele>
    <time>2017-03-26T10:15:00Z</time>
   </trkpt>
   <trkpt lat="51.8936210" lon="39.5714480">
    <ele>159.9</ele>
    <time>2017-03-26T10:15:01Z</time>
   </trkpt>
   <trkpt lat="51.8936610" lon="39.5713930">
    <ele>160.0</ele>
    <time>2017-03-26T10:15:02Z</time>
   </trkpt>
   <trkpt lat="51.8937030" lon="39.5713400">
    <ele>160.1</ele>
    <time>2017-03-26T10:15:03Z</time>
   </trkpt>
   <trkpt lat="51.8937440" lon="39.5712800">
    <ele>160.3</ele>
    <time>2017-03-26T10:15:04Z</time>
   </trkpt>
   <trkpt lat="51.8937800" lon="39.5712170">
    <ele>160.5</ele>
    <time>2017-03-26T10:15:05Z</time>
   </trkpt>
   <trkpt lat="51.8938140" lon="39.5711530">
    <ele>160.7</ele>
    <time>2017-03-26T10:15:06Z</time>
   </trkpt>
   <trkpt lat="51.8938760" lon="39.5710100">
    <ele>160.9</ele>
    <time>2017-03-26T10:15:08Z</time>
   </trkpt>
   <trkpt lat="51.8939100" lon="39.5709420">
    <ele>160.8</ele>
    <time>2017-03-26T10:15:09Z</time>
   </trkpt>
   <trkpt lat="51.8940490" lon="39.5706790">
    <ele>159.4</ele>
    <time>2017-03-26T10:15:13Z</time>
   </trkpt>
   <trkpt lat="51.8941230" lon="39.5705760">
    <ele>158.3</ele>
    <time>2017-03-26T10:15:15Z</time>
   </trkpt>
   <trkpt lat="51.8943700" lon="39.5701350">
    <ele>151.2</ele>
    <time>2017-03-26T10:15:24Z</time>
   </trkpt>
   <trkpt lat="51.8946060" lon="39.5696410">
    <ele>146.0</ele>
    <time>2017-03-26T10:15:35Z</time>
   </trkpt>
   <trkpt lat="51.8949080" lon="39.5691480">
    <ele>142.1</ele>
    <time>2017-03-26T10:15:49Z</time>
   </trkpt>
   <trkpt lat="51.8950340" lon="39.5689860">
    <ele>142.0</ele>
    <time>2017-03-26T10:15:53Z</time>
   </trkpt>
   <trkpt lat="51.8950670" lon="39.5689430">
    <ele>142.0</ele>
    <time>2017-03-26T10:15:54Z</time>
   </trkpt>
   <trkpt lat="51.8951670" lon="39.5688130">
    <ele>142.0</ele>
    <time>2017-03-26T10:15:57Z</time>
   </trkpt>
   <trkpt lat="51.8952080" lon="39.5687790">
    <ele>142.0</ele>
    <time>2017-03-26T10:15:58Z</time>
   </trkpt>
   <trkpt lat="51.8954640" lon="39.5685830">
    <ele>142.5</ele>
    <time>2017-03-26T10:16:06Z</time>
   </trkpt>
   <trkpt lat="51.8955090" lon="39.5685520">
    <ele>142.6</ele>
    <time>2017-03-26T10:16:07Z</time>
   </trkpt>
   <trkpt lat="51.8955930" lon="39.5684640">
    <ele>143.5</ele>
    <time>2017-03-26T10:16:09Z</time>
   </trkpt>
   <trkpt lat="51.8956220" lon="39.5684100">
    <ele>144.0</ele>
    <time>2017-03-26T10:16:10Z</time>
   </trkpt>
   <trkpt lat="51.8956540" lon="39.5683570">
    <ele>144.6</ele>
    <time>2017-03-26T10:16:11Z</time>
   </trkpt>
   <trkpt lat="51.8956890" lon="39.5683070">
    <ele>145.4</ele>
    <time>2017-03-26T10:16:12Z</time>
   </trkpt>
   <trkpt lat="51.8957320" lon="39.5682610">
    <ele>146.0</ele>
    <time>2017-03-26T10:16:13Z</time>
   </trkpt>
   <trkpt lat="51.8958930" lon="39.5680890">
    <ele>147.4</ele>
    <time>2017-03-26T10:16:21Z</time>
   </trkpt>
   <trkpt lat="51.8958930" lon="39.5680880">
    <ele>147.4</ele>
    <time>2017-03-26T10:16:22Z</time>
   </trkpt>
   <trkpt lat="51.8958680" lon="39.5680880">
    <ele>147.2</ele>
    <time>2017-03-26T10:16:40Z</time>
   </trkpt>
   <trkpt lat="51.8958490" lon="39.5681030">
    <ele>147.1</ele>
    <time>2017-03-26T10:16:41Z</time>
   </trkpt>
   <trkpt lat="51.8956450" lon="39.5683470">
    <ele>144.9</ele>
    <time>2017-03-26T10:16:51Z</time>
   </trkpt>
   <trkpt lat="51.8953640" lon="39.5686160">
    <ele>142.0</ele>
    <time>2017-03-26T10:17:01Z</time>
   </trkpt>
   <trkpt lat="51.8950220" lon="39.5690470">
    <ele>142.0</ele>
    <time>2017-03-26T10:17:12Z</time>
   </trkpt>
   <trkpt lat="51.8947080" lon="39.5694370">
    <ele>144.1</ele>
    <time>2017-03-26T10:17:22Z</time>
   </trkpt>
   <trkpt lat="51.8946670" lon="39.5694550">
    <ele>144.4</ele>
    <time>2017-03-26T10:17:23Z</time>
   </trkpt>
   <trkpt lat="51.8946250" lon="39.5694540">
    <ele>144.8</ele>
    <time>2017-03-26T10:17:24Z</time>
   </trkpt>
   <trkpt lat="51.8945840" lon="39.5694450">
    <ele>145.2</ele>
    <time>2017-03-26T10:17:25Z</time>
   </trkpt>
   <trkpt lat="51.8945420" lon="39.5694330">
    <ele>145.5</ele>
    <time>2017-03-26T10:17:26Z</time>
   </trkpt>
   <trkpt lat="51.8944610" lon="39.5694110">
    <ele>150.1</ele>
    <time>2017-03-26T10:17:28Z</time>
   </trkpt>
   <trkpt lat="51.8942240" lon="39.5692820">
    <ele>153.7</ele>
    <time>2017-03-26T10:17:34Z</time>
   </trkpt>
   <trkpt lat="51.8938030" lon="39.5690460">
    <ele>158.7</ele>
    <time>2017-03-26T10:17:45Z</time>
   </trkpt>
   <trkpt lat="51.8933210" lon="39.5688830">
    <ele>157.3</ele>
    <time>2017-03-26T10:17:56Z</time>
   </trkpt>
   <trkpt lat="51.8928820" lon="39.5687070">
    <ele>157.6</ele>
    <time>2017-03-26T10:18:07Z</time>
   </trkpt>
   <trkpt lat="51.8926880" lon="39.5684620">
    <ele>157.9</ele>
    <time>2017-03-26T10:18:13Z</time>
   </trkpt>
   <trkpt lat="51.8925090" lon="39.5679340">
    <ele>155.2</ele>
    <time>2017-03-26T10:18:23Z</time>
   </trkpt>
   <trkpt lat="51.8925080" lon="39.5678070">
    <ele>155.0</ele>
    <time>2017-03-26T10:18:25Z</time>
   </trkpt>
   <trkpt lat="51.8925150" lon="39.5677370">
    <ele>155.2</ele>
    <time>2017-03-26T10:18:26Z</time>
   </trkpt>
   <trkpt lat="51.8925260" lon="39.5676710">
    <ele>155.4</ele>
    <time>2017-03-26T10:18:27Z</time>
   </trkpt>
   <trkpt lat="51.8925350" lon="39.5676040">
    <ele>155.6</ele>
    <time>2017-03-26T10:18:28Z</time>
   </trkpt>
   <trkpt lat="51.8925420" lon="39.5675370">
    <ele>155.7</ele>
    <time>2017-03-26T10:18:29Z</time>
   </trkpt>
   <trkpt lat="51.8925490" lon="39.5674780">
    <ele>155.9</ele>
    <time>2017-03-26T10:18:30Z</time>
   </trkpt>
   <trkpt lat="51.8925550" lon="39.5674210">
    <ele>156.0</ele>
    <time>2017-03-26T10:18:31Z</time>
   </trkpt>
   <trkpt lat="51.8926320" lon="39.5672050">
    <ele>156.3</ele>
    <time>2017-03-26T10:18:41Z</time>
   </trkpt>
   <trkpt lat="51.8925530" lon="39.5670880">
    <ele>156.4</ele>
    <time>2017-03-26T10:39:18Z</time>
   </trkpt>
   <trkpt lat="51.8925520" lon="39.5670220">
    <ele>156.5</ele>
    <time>2017-03-26T10:39:22Z</time>
   </trkpt>
   <trkpt lat="51.8925560" lon="39.5670020">
    <ele>156.4</ele>
    <time>2017-03-26T10:39:23Z</time>
   </trkpt>
   <trkpt lat="51.8925590" lon="39.5669790">
    <ele>156.4</ele>
    <time>2017-03-26T10:39:24Z</time>
   </trkpt>
   <trkpt lat="51.8926410" lon="39.5665540">
    <ele>155.3</ele>
    <time>2017-03-26T10:39:38Z</time>
   </trkpt>
   <trkpt lat="51.8927690" lon="39.5659640">
    <ele>152.9</ele>
    <time>2017-03-26T10:39:52Z</time>
   </trkpt>
   <trkpt lat="51.8928430" lon="39.5655530">
    <ele>152.7</ele>
    <time>2017-03-26T10:40:03Z</time>
   </trkpt>
   <trkpt lat="51.8928440" lon="39.5655500">
    <ele>152.7</ele>
    <time>2017-03-26T10:40:06Z</time>
   </trkpt>
   <trkpt lat="51.8929170" lon="39.5654010">
    <ele>152.1</ele>
    <time>2017-03-26T10:43:27Z</time>
   </trkpt>
   <trkpt lat="51.8929930" lon="39.5648400">
    <ele>151.0</ele>
    <time>2017-03-26T10:43:40Z</time>
   </trkpt>
   <trkpt lat="51.8930940" lon="39.5642240">
    <ele>151.4</ele>
    <time>2017-03-26T10:43:53Z</time>
   </trkpt>
   <trkpt lat="51.8932250" lon="39.5636200">
    <ele>150.7</ele>
    <time>2017-03-26T10:44:05Z</time>
   </trkpt>
   <trkpt lat="51.8932440" lon="39.5635840">
    <ele>150.6</ele>
    <time>2017-03-26T10:44:06Z</time>
   </trkpt>
   <trkpt lat="51.8932650" lon="39.5635560">
    <ele>150.6</ele>
    <time>2017-03-26T10:44:07Z</time>
   </trkpt>
   <trkpt lat="51.8934630" lon="39.5632400">
    <ele>150.5</ele>
    <time>2017-03-26T10:44:14Z</time>
   </trkpt>
   <trkpt lat="51.8934900" lon="39.5631840">
    <ele>150.4</ele>
    <time>2017-03-26T10:44:15Z</time>
   </trkpt>
   <trkpt lat="51.8935160" lon="39.5631230">
    <ele>150.3</ele>
    <time>2017-03-26T10:44:16Z</time>
   </trkpt>
   <trkpt lat="51.8937460" lon="39.5626630">
    <ele>149.5</ele>
    <time>2017-03-26T10:44:25Z</time>
   </trkpt>
   <trkpt lat="51.8940340" lon="39.5624900">
    <ele>149.8</ele>
    <time>2017-03-26T10:44:32Z</time>
   </trkpt>
   <trkpt lat="51.8940730" lon="39.5624530">
    <ele>149.9</ele>
    <time>2017-03-26T10:44:33Z</time>
   </trkpt>
   <trkpt lat="51.8941120" lon="39.5624050">
    <ele>150.1</ele>
    <time>2017-03-26T10:44:34Z</time>
   </trkpt>
   <trkpt lat="51.8941500" lon="39.5623460">
    <ele>150.4</ele>
    <time>2017-03-26T10:44:35Z</time>
   </trkpt>
   <trkpt lat="51.8941870" lon="39.5622810">
    <ele>150.6</ele>
    <time>2017-03-26T10:44:36Z</time>
   </trkpt>
   <trkpt lat="51.8942300" lon="39.5622170">
    <ele>150.7</ele>
    <time>2017-03-26T10:44:37Z</time>
   </trkpt>
   <trkpt lat="51.8942720" lon="39.5621580">
    <ele>150.8</ele>
    <time>2017-03-26T10:44:38Z</time>
   </trkpt>
   <trkpt lat="51.8943080" lon="39.5621050">
    <ele>150.7</ele>
    <time>2017-03-26T10:44:39Z</time>
   </trkpt>
   <trkpt lat="51.8946230" lon="39.5614540">
    <ele>149.3</ele>
    <time>2017-03-26T10:44:50Z</time>
   </trkpt>
   <trkpt lat="51.8947810" lon="39.5611530">
    <ele>149.5</ele>
    <time>2017-03-26T10:44:55Z</time>
   </trkpt>
   <trkpt lat="51.8948550" lon="39.5610400">
    <ele>149.4</ele>
    <time>2017-03-26T10:44:57Z</time>
   </trkpt>
   <trkpt lat="51.8948930" lon="39.5609880">
    <ele>149.5</ele>
    <time>2017-03-26T10:44:58Z</time>
   </trkpt>
   <trkpt lat="51.8949340" lon="39.5609470">
    <ele>149.6</ele>
    <time>2017-03-26T10:44:59Z</time>
   </trkpt>
   <trkpt lat="51.8949770" lon="39.5609100">
    <ele>149.9</ele>
    <time>2017-03-26T10:45:00Z</time>
   </trkpt>
   <trkpt lat="51.8950180" lon="39.5608810">
    <ele>150.0</ele>
    <time>2017-03-26T10:45:01Z</time>
   </trkpt>
   <trkpt lat="51.8950590" lon="39.5608500">
    <ele>150.0</ele>
    <time>2017-03-26T10:45:02Z</time>
   </trkpt>
   <trkpt lat="51.8950990" lon="39.5608100">
    <ele>150.0</ele>
    <time>2017-03-26T10:45:03Z</time>
   </trkpt>
   <trkpt lat="51.8951360" lon="39.5607620">
    <ele>150.0</ele>
    <time>2017-03-26T10:45:04Z</time>
   </trkpt>
   <trkpt lat="51.8951680" lon="39.5607080">
    <ele>149.9</ele>
    <time>2017-03-26T10:45:05Z</time>
   </trkpt>
   <trkpt lat="51.8951930" lon="39.5606450">
    <ele>149.9</ele>
    <time>2017-03-26T10:45:06Z</time>
   </trkpt>
   <trkpt lat="51.8952130" lon="39.5605710">
    <ele>149.7</ele>
    <time>2017-03-26T10:45:07Z</time>
   </trkpt>
   <trkpt lat="51.8952270" lon="39.5604990">
    <ele>149.6</ele>
    <time>2017-03-26T10:45:08Z</time>
   </trkpt>
   <trkpt lat="51.8952380" lon="39.5603530">
    <ele>149.5</ele>
    <time>2017-03-26T10:45:10Z</time>
   </trkpt>
   <trkpt lat="51.8952020" lon="39.5601470">
    <ele>149.1</ele>
    <time>2017-03-26T10:45:13Z</time>
   </trkpt>
   <trkpt lat="51.8950500" lon="39.5598780">
    <ele>151.5</ele>
    <time>2017-03-26T10:45:18Z</time>
   </trkpt>
   <trkpt lat="51.8946960" lon="39.5593930">
    <ele>153.0</ele>
    <time>2017-03-26T10:45:29Z</time>
   </trkpt>
   <trkpt lat="51.8944640" lon="39.5589100">
    <ele>154.5</ele>
    <time>2017-03-26T10:45:39Z</time>
   </trkpt>
   <trkpt lat="51.8945580" lon="39.5581490">
    <ele>153.1</ele>
    <time>2017-03-26T10:45:50Z</time>
   </trkpt>
   <trkpt lat="51.8946260" lon="39.5574160">
    <ele>149.9</ele>
    <time>2017-03-26T10:46:01Z</time>
   </trkpt>
   <trkpt lat="51.8946190" lon="39.5572930">
    <ele>150.0</ele>
    <time>2017-03-26T10:46:03Z</time>
   </trkpt>
   <trkpt lat="51.8946260" lon="39.5572280">
    <ele>150.1</ele>
    <time>2017-03-26T10:46:04Z</time>
   </trkpt>
   <trkpt lat="51.8946360" lon="39.5571680">
    <ele>150.1</ele>
    <time>2017-03-26T10:46:05Z</time>
   </trkpt>
   <trkpt lat="51.8947770" lon="39.5567090">
    <ele>151.0</ele>
    <time>2017-03-26T10:46:15Z</time>
   </trkpt>
   <trkpt lat="51.8946560" lon="39.5563550">
    <ele>152.2</ele>
    <time>2017-03-26T10:46:22Z</time>
   </trkpt>
   <trkpt lat="51.8946620" lon="39.5562910">
    <ele>152.3</ele>
    <time>2017-03-26T10:46:23Z</time>
   </trkpt>
   <trkpt lat="51.8946720" lon="39.5562270">
    <ele>152.6</ele>
    <time>2017-03-26T10:46:24Z</time>
   </trkpt>
   <trkpt lat="51.8947960" lon="39.5554700">
    <ele>153.4</ele>
    <time>2017-03-26T10:46:35Z</time>
   </trkpt>
   <trkpt lat="51.8948490" lon="39.5551120">
    <ele>152.9</ele>
    <time>2017-03-26T10:46:40Z</time>
   </trkpt>
   <trkpt lat="51.8948580" lon="39.5550370">
    <ele>152.8</ele>
    <time>2017-03-26T10:46:41Z</time>
   </trkpt>
   <trkpt lat="51.8948740" lon="39.5549740">
    <ele>152.6</ele>
    <time>2017-03-26T10:46:42Z</time>
   </trkpt>
   <trkpt lat="51.8948850" lon="39.5549040">
    <ele>152.3</ele>
    <time>2017-03-26T10:46:43Z</time>
   </trkpt>
   <trkpt lat="51.8949010" lon="39.5548290">
    <ele>152.0</ele>
    <time>2017-03-26T10:46:44Z</time>
   </trkpt>
   <trkpt lat="51.8950530" lon="39.5541380">
    <ele>149.7</ele>
    <time>2017-03-26T10:46:54Z</time>
   </trkpt>
   <trkpt lat="51.8951570" lon="39.5536250">
    <ele>147.9</ele>
    <time>2017-03-26T10:47:03Z</time>
   </trkpt>
   <trkpt lat="51.8951970" lon="39.5533340">
    <ele>147.6</ele>
    <time>2017-03-26T10:47:07Z</time>
   </trkpt>
   <trkpt lat="51.8952680" lon="39.5529860">
    <ele>147.9</ele>
    <time>2017-03-26T10:47:11Z</time>
   </trkpt>
   <trkpt lat="51.8952830" lon="39.5529050">
    <ele>147.9</ele>
    <time>2017-03-26T10:47:12Z</time>
   </trkpt>
   <trkpt lat="51.8952980" lon="39.5528190">
    <ele>147.9</ele>
    <time>2017-03-26T10:47:13Z</time>
   </trkpt>
   <trkpt lat="51.8953110" lon="39.5527370">
    <ele>147.6</ele>
    <time>2017-03-26T10:47:14Z</time>
   </trkpt>
   <trkpt lat="51.8953240" lon="39.5526570">
    <ele>147.4</ele>
    <time>2017-03-26T10:47:15Z</time>
   </trkpt>
   <trkpt lat="51.8953330" lon="39.5525840">
    <ele>147.3</ele>
    <time>2017-03-26T10:47:16Z</time>
   </trkpt>
   <trkpt lat="51.8954170" lon="39.5522250">
    <ele>147.1</ele>
    <time>2017-03-26T10:47:21Z</time>
   </trkpt>
   <trkpt lat="51.8954380" lon="39.5521510">
    <ele>147.0</ele>
    <time>2017-03-26T10:47:22Z</time>
   </trkpt>
   <trkpt lat="51.8954500" lon="39.5520710">
    <ele>146.7</ele>
    <time>2017-03-26T10:47:23Z</time>
   </trkpt>
   <trkpt lat="51.8955690" lon="39.5514260">
    <ele>143.5</ele>
    <time>2017-03-26T10:47:31Z</time>
   </trkpt>
   <trkpt lat="51.8955840" lon="39.5513400">
    <ele>143.3</ele>
    <time>2017-03-26T10:47:32Z</time>
   </trkpt>
   <trkpt lat="51.8956020" lon="39.5512530">
    <ele>143.3</ele>
    <time>2017-03-26T10:47:33Z</time>
   </trkpt>
   <trkpt lat="51.8956400" lon="39.5510700">
    <ele>142.5</ele>
    <time>2017-03-26T10:47:35Z</time>
   </trkpt>
   <trkpt lat="51.8956590" lon="39.5509880">
    <ele>141.9</ele>
    <time>2017-03-26T10:47:36Z</time>
   </trkpt>
   <trkpt lat="51.8957230" lon="39.5506570">
    <ele>140.0</ele>
    <time>2017-03-26T10:47:40Z</time>
   </trkpt>
   <trkpt lat="51.8958300" lon="39.5499220">
    <ele>142.7</ele>
    <time>2017-03-26T10:47:49Z</time>
   </trkpt>
   <trkpt lat="51.8958240" lon="39.5498330">
    <ele>143.0</ele>
    <time>2017-03-26T10:47:50Z</time>
   </trkpt>
   <trkpt lat="51.8958190" lon="39.5497440">
    <ele>143.1</ele>
    <time>2017-03-26T10:47:51Z</time>
   </trkpt>
   <trkpt lat="51.8958240" lon="39.5496540">
    <ele>143.5</ele>
    <time>2017-03-26T10:47:52Z</time>
   </trkpt>
   <trkpt lat="51.8958300" lon="39.5495720">
    <ele>143.8</ele>
    <time>2017-03-26T10:47:53Z</time>
   </trkpt>
   <trkpt lat="51.8958380" lon="39.5494890">
    <ele>143.9</ele>
    <time>2017-03-26T10:47:54Z</time>
   </trkpt>
   <trkpt lat="51.8958440" lon="39.5494070">
    <ele>143.6</ele>
    <time>2017-03-26T10:47:55Z</time>
   </trkpt>
   <trkpt lat="51.8958660" lon="39.5492430">
    <ele>143.0</ele>
    <time>2017-03-26T10:47:57Z</time>
   </trkpt>
   <trkpt lat="51.8958920" lon="39.5490750">
    <ele>142.8</ele>
    <time>2017-03-26T10:47:59Z</time>
   </trkpt>
   <trkpt lat="51.8959150" lon="39.5488060">
    <ele>142.8</ele>
    <time>2017-03-26T10:48:02Z</time>
   </trkpt>
   <trkpt lat="51.8959120" lon="39.5487150">
    <ele>142.8</ele>
    <time>2017-03-26T10:48:03Z</time>
   </trkpt>
   <trkpt lat="51.8958890" lon="39.5483690">
    <ele>142.8</ele>
    <time>2017-03-26T10:48:07Z</time>
   </trkpt>
   <trkpt lat="51.8958690" lon="39.5482120">
    <ele>142.6</ele>
    <time>2017-03-26T10:48:09Z</time>
   </trkpt>
   <trkpt lat="51.8958650" lon="39.5481330">
    <ele>142.5</ele>
    <time>2017-03-26T10:48:10Z</time>
   </trkpt>
   <trkpt lat="51.8958680" lon="39.5480530">
    <ele>142.3</ele>
    <time>2017-03-26T10:48:11Z</time>
   </trkpt>
   <trkpt lat="51.8959000" lon="39.5474880">
    <ele>142.2</ele>
    <time>2017-03-26T10:48:17Z</time>
   </trkpt>
   <trkpt lat="51.8959150" lon="39.5474000">
    <ele>142.0</ele>
    <time>2017-03-26T10:48:18Z</time>
   </trkpt>
   <trkpt lat="51.8959650" lon="39.5470780">
    <ele>141.8</ele>
    <time>2017-03-26T10:48:22Z</time>
   </trkpt>
   <trkpt lat="51.8960010" lon="39.5465400">
    <ele>140.8</ele>
    <time>2017-03-26T10:48:29Z</time>
   </trkpt>
   <trkpt lat="51.8960090" lon="39.5464650">
    <ele>140.5</ele>
    <time>2017-03-26T10:48:30Z</time>
   </trkpt>
   <trkpt lat="51.8960160" lon="39.5463960">
    <ele>140.4</ele>
    <time>2017-03-26T10:48:31Z</time>
   </trkpt>
   <trkpt lat="51.8960470" lon="39.5462320">
    <ele>140.5</ele>
    <time>2017-03-26T10:48:33Z</time>
   </trkpt>
   <trkpt lat="51.8960590" lon="39.5461440">
    <ele>140.4</ele>
    <time>2017-03-26T10:48:34Z</time>
   </trkpt>
   <trkpt lat="51.8960660" lon="39.5460570">
    <ele>140.4</ele>
    <time>2017-03-26T10:48:35Z</time>
   </trkpt>
   <trkpt lat="51.8960660" lon="39.5459750">
    <ele>140.3</ele>
    <time>2017-03-26T10:48:36Z</time>
   </trkpt>
   <trkpt lat="51.8960610" lon="39.5459000">
    <ele>140.0</ele>
    <time>2017-03-26T10:48:37Z</time>
   </trkpt>
   <trkpt lat="51.8960550" lon="39.5458310">
    <ele>139.8</ele>
    <time>2017-03-26T10:48:38Z</time>
   </trkpt>
   <trkpt lat="51.8960640" lon="39.5457560">
    <ele>139.6</ele>
    <time>2017-03-26T10:48:39Z</time>
   </trkpt>
   <trkpt lat="51.8960840" lon="39.5456030">
    <ele>139.7</ele>
    <time>2017-03-26T10:48:41Z</time>
   </trkpt>
   <trkpt lat="51.8961150" lon="39.5453740">
    <ele>139.0</ele>
    <time>2017-03-26T10:48:44Z</time>
   </trkpt>
   <trkpt lat="51.8961200" lon="39.5452940">
    <ele>138.8</ele>
    <time>2017-03-26T10:48:45Z</time>
   </trkpt>
   <trkpt lat="51.8961150" lon="39.5452070">
    <ele>138.8</ele>
    <time>2017-03-26T10:48:46Z</time>
   </trkpt>
   <trkpt lat="51.8961030" lon="39.5448500">
    <ele>138.9</ele>
    <time>2017-03-26T10:48:50Z</time>
   </trkpt>
   <trkpt lat="51.8961150" lon="39.5446740">
    <ele>138.9</ele>
    <time>2017-03-26T10:48:52Z</time>
   </trkpt>
   <trkpt lat="51.8961270" lon="39.5445870">
    <ele>138.8</ele>
    <time>2017-03-26T10:48:53Z</time>
   </trkpt>
   <trkpt lat="51.8961620" lon="39.5442180">
    <ele>139.5</ele>
    <time>2017-03-26T10:48:57Z</time>
   </trkpt>
   <trkpt lat="51.8961710" lon="39.5441240">
    <ele>139.5</ele>
    <time>2017-03-26T10:48:58Z</time>
   </trkpt>
   <trkpt lat="51.8961730" lon="39.5440310">
    <ele>139.4</ele>
    <time>2017-03-26T10:48:59Z</time>
   </trkpt>
   <trkpt lat="51.8961770" lon="39.5437780">
    <ele>139.6</ele>
    <time>2017-03-26T10:49:02Z</time>
   </trkpt>
   <trkpt lat="51.8961760" lon="39.5432320">
    <ele>140.0</ele>
    <time>2017-03-26T10:49:08Z</time>
   </trkpt>
   <trkpt lat="51.8961820" lon="39.5431410">
    <ele>140.1</ele>
    <time>2017-03-26T10:49:09Z</time>
   </trkpt>
   <trkpt lat="51.8961990" lon="39.5428700">
    <ele>140.1</ele>
    <time>2017-03-26T10:49:12Z</time>
   </trkpt>
   <trkpt lat="51.8962360" lon="39.5426310">
    <ele>140.0</ele>
    <time>2017-03-26T10:49:15Z</time>
   </trkpt>
   <trkpt lat="51.8962410" lon="39.5425480">
    <ele>140.0</ele>
    <time>2017-03-26T10:49:16Z</time>
   </trkpt>
   <trkpt lat="51.8962480" lon="39.5424680">
    <ele>140.0</ele>
    <time>2017-03-26T10:49:17Z</time>
   </trkpt>
   <trkpt lat="51.8962540" lon="39.5423850">
    <ele>139.9</ele>
    <time>2017-03-26T10:49:18Z</time>
   </trkpt>
   <trkpt lat="51.8962560" lon="39.5422900">
    <ele>139.9</ele>
    <time>2017-03-26T10:49:19Z</time>
   </trkpt>
   <trkpt lat="51.8962600" lon="39.5422030">
    <ele>139.9</ele>
    <time>2017-03-26T10:49:20Z</time>
   </trkpt>
   <trkpt lat="51.8962640" lon="39.5421220">
    <ele>139.9</ele>
    <time>2017-03-26T10:49:21Z</time>
   </trkpt>
   <trkpt lat="51.8962680" lon="39.5420400">
    <ele>139.9</ele>
    <time>2017-03-26T10:49:22Z</time>
   </trkpt>
   <trkpt lat="51.8963020" lon="39.5416940">
    <ele>139.8</ele>
    <time>2017-03-26T10:49:26Z</time>
   </trkpt>
   <trkpt lat="51.8963110" lon="39.5416100">
    <ele>139.8</ele>
    <time>2017-03-26T10:49:27Z</time>
   </trkpt>
   <trkpt lat="51.8963130" lon="39.5415320">
    <ele>139.9</ele>
    <time>2017-03-26T10:49:28Z</time>
   </trkpt>
   <trkpt lat="51.8963040" lon="39.5414540">
    <ele>139.9</ele>
    <time>2017-03-26T10:49:29Z</time>
   </trkpt>
   <trkpt lat="51.8962940" lon="39.5413810">
    <ele>139.9</ele>
    <time>2017-03-26T10:49:30Z</time>
   </trkpt>
   <trkpt lat="51.8962740" lon="39.5413020">
    <ele>139.8</ele>
    <time>2017-03-26T10:49:31Z</time>
   </trkpt>
   <trkpt lat="51.8962490" lon="39.5412190">
    <ele>140.0</ele>
    <time>2017-03-26T10:49:32Z</time>
   </trkpt>
   <trkpt lat="51.8962290" lon="39.5411370">
    <ele>140.2</ele>
    <time>2017-03-26T10:49:33Z</time>
   </trkpt>
   <trkpt lat="51.8962110" lon="39.5410470">
    <ele>140.5</ele>
    <time>2017-03-26T10:49:34Z</time>
   </trkpt>
   <trkpt lat="51.8962020" lon="39.5409630">
    <ele>140.7</ele>
    <time>2017-03-26T10:49:35Z</time>
   </trkpt>
   <trkpt lat="51.8961980" lon="39.5408780">
    <ele>141.0</ele>
    <time>2017-03-26T10:49:36Z</time>
   </trkpt>
   <trkpt lat="51.8961980" lon="39.5407930">
    <ele>141.1</ele>
    <time>2017-03-26T10:49:37Z</time>
   </trkpt>
   <trkpt lat="51.8962080" lon="39.5407190">
    <ele>141.2</ele>
    <time>2017-03-26T10:49:38Z</time>
   </trkpt>
   <trkpt lat="51.8962210" lon="39.5406360">
    <ele>141.0</ele>
    <time>2017-03-26T10:49:39Z</time>
   </trkpt>
   <trkpt lat="51.8962310" lon="39.5405390">
    <ele>140.7</ele>
    <time>2017-03-26T10:49:40Z</time>
   </trkpt>
   <trkpt lat="51.8962300" lon="39.5404390">
    <ele>140.4</ele>
    <time>2017-03-26T10:49:41Z</time>
   </trkpt>
   <trkpt lat="51.8962230" lon="39.5403450">
    <ele>140.2</ele>
    <time>2017-03-26T10:49:42Z</time>
   </trkpt>
   <trkpt lat="51.8962140" lon="39.5402550">
    <ele>139.9</ele>
    <time>2017-03-26T10:49:43Z</time>
   </trkpt>
   <trkpt lat="51.8962080" lon="39.5401700">
    <ele>139.7</ele>
    <time>2017-03-26T10:49:44Z</time>
   </trkpt>
   <trkpt lat="51.8962010" lon="39.5400890">
    <ele>139.7</ele>
    <time>2017-03-26T10:49:45Z</time>
   </trkpt>
   <trkpt lat="51.8962030" lon="39.5400180">
    <ele>139.7</ele>
    <time>2017-03-26T10:49:46Z</time>
   </trkpt>
   <trkpt lat="51.8962100" lon="39.5399490">
    <ele>139.9</ele>
    <time>2017-03-26T10:49:47Z</time>
   </trkpt>
   <trkpt lat="51.8962360" lon="39.5398080">
    <ele>140.2</ele>
    <time>2017-03-26T10:49:49Z</time>
   </trkpt>
   <trkpt lat="51.8963130" lon="39.5394760">
    <ele>141.3</ele>
    <time>2017-03-26T10:49:53Z</time>
   </trkpt>
   <trkpt lat="51.8963520" lon="39.5391430">
    <ele>142.3</ele>
    <time>2017-03-26T10:49:57Z</time>
   </trkpt>
   <trkpt lat="51.8963660" lon="39.5390620">
    <ele>142.3</ele>
    <time>2017-03-26T10:49:58Z</time>
   </trkpt>
   <trkpt lat="51.8963920" lon="39.5388210">
    <ele>141.2</ele>
    <time>2017-03-26T10:50:01Z</time>
   </trkpt>
   <trkpt lat="51.8963990" lon="39.5387370">
    <ele>140.5</ele>
    <time>2017-03-26T10:50:02Z</time>
   </trkpt>
   <trkpt lat="51.8964050" lon="39.5386570">
    <ele>140.1</ele>
    <time>2017-03-26T10:50:03Z</time>
   </trkpt>
   <trkpt lat="51.8964090" lon="39.5385810">
    <ele>139.8</ele>
    <time>2017-03-26T10:50:04Z</time>
   </trkpt>
   <trkpt lat="51.8964070" lon="39.5385010">
    <ele>139.5</ele>
    <time>2017-03-26T10:50:05Z</time>
   </trkpt>
   <trkpt lat="51.8964030" lon="39.5384130">
    <ele>139.2</ele>
    <time>2017-03-26T10:50:06Z</time>
   </trkpt>
   <trkpt lat="51.8963860" lon="39.5383290">
    <ele>138.7</ele>
    <time>2017-03-26T10:50:07Z</time>
   </trkpt>
   <trkpt lat="51.8963620" lon="39.5382520">
    <ele>137.8</ele>
    <time>2017-03-26T10:50:08Z</time>
   </trkpt>
   <trkpt lat="51.8963300" lon="39.5381880">
    <ele>137.1</ele>
    <time>2017-03-26T10:50:09Z</time>
   </trkpt>
   <trkpt lat="51.8963000" lon="39.5381320">
    <ele>136.4</ele>
    <time>2017-03-26T10:50:10Z</time>
   </trkpt>
   <trkpt lat="51.8962730" lon="39.5380820">
    <ele>135.6</ele>
    <time>2017-03-26T10:50:11Z</time>
   </trkpt>
   <trkpt lat="51.8961330" lon="39.5378650">
    <ele>133.0</ele>
    <time>2017-03-26T10:50:15Z</time>
   </trkpt>
   <trkpt lat="51.8960220" lon="39.5376690">
    <ele>132.4</ele>
    <time>2017-03-26T10:50:18Z</time>
   </trkpt>
   <trkpt lat="51.8959810" lon="39.5376150">
    <ele>132.2</ele>
    <time>2017-03-26T10:50:19Z</time>
   </trkpt>
   <trkpt lat="51.8959370" lon="39.5375710">
    <ele>132.1</ele>
    <time>2017-03-26T10:50:20Z</time>
   </trkpt>
   <trkpt lat="51.8958910" lon="39.5375320">
    <ele>132.2</ele>
    <time>2017-03-26T10:50:21Z</time>
   </trkpt>
   <trkpt lat="51.8958460" lon="39.5374960">
    <ele>132.3</ele>
    <time>2017-03-26T10:50:22Z</time>
   </trkpt>
   <trkpt lat="51.8958000" lon="39.5374610">
    <ele>131.9</ele>
    <time>2017-03-26T10:50:23Z</time>
   </trkpt>
   <trkpt lat="51.8950830" lon="39.5368220">
    <ele>131.2</ele>
    <time>2017-03-26T10:50:39Z</time>
   </trkpt>
   <trkpt lat="51.8950410" lon="39.5367920">
    <ele>131.0</ele>
    <time>2017-03-26T10:50:40Z</time>
   </trkpt>
   <trkpt lat="51.8950030" lon="39.5367500">
    <ele>130.9</ele>
    <time>2017-03-26T10:50:41Z</time>
   </trkpt>
   <trkpt lat="51.8949770" lon="39.5366900">
    <ele>130.8</ele>
    <time>2017-03-26T10:50:42Z</time>
   </trkpt>
   <trkpt lat="51.8949700" lon="39.5366190">
    <ele>130.7</ele>
    <time>2017-03-26T10:50:43Z</time>
   </trkpt>
   <trkpt lat="51.8949830" lon="39.5365500">
    <ele>130.7</ele>
    <time>2017-03-26T10:50:44Z</time>
   </trkpt>
   <trkpt lat="51.8950100" lon="39.5364900">
    <ele>131.0</ele>
    <time>2017-03-26T10:50:45Z</time>
   </trkpt>
   <trkpt lat="51.8950410" lon="39.5364240">
    <ele>131.4</ele>
    <time>2017-03-26T10:50:46Z</time>
   </trkpt>
   <trkpt lat="51.8950690" lon="39.5363490">
    <ele>131.8</ele>
    <time>2017-03-26T10:50:47Z</time>
   </trkpt>
   <trkpt lat="51.8950910" lon="39.5362720">
    <ele>131.9</ele>
    <time>2017-03-26T10:50:48Z</time>
   </trkpt>
   <trkpt lat="51.8951070" lon="39.5361930">
    <ele>132.2</ele>
    <time>2017-03-26T10:50:49Z</time>
   </trkpt>
   <trkpt lat="51.8951190" lon="39.5361140">
    <ele>132.4</ele>
    <time>2017-03-26T10:50:50Z</time>
   </trkpt>
   <trkpt lat="51.8951240" lon="39.5360360">
    <ele>132.5</ele>
    <time>2017-03-26T10:50:51Z</time>
   </trkpt>
   <trkpt lat="51.8951160" lon="39.5359570">
    <ele>132.7</ele>
    <time>2017-03-26T10:50:52Z</time>
   </trkpt>
   <trkpt lat="51.8950910" lon="39.5358870">
    <ele>132.7</ele>
    <time>2017-03-26T10:50:53Z</time>
   </trkpt>
   <trkpt lat="51.8950480" lon="39.5358350">
    <ele>132.6</ele>
    <time>2017-03-26T10:50:54Z</time>
   </trkpt>
   <trkpt lat="51.8949980" lon="39.5358090">
    <ele>132.5</ele>
    <time>2017-03-26T10:50:55Z</time>
   </trkpt>
   <trkpt lat="51.8949400" lon="39.5357960">
    <ele>132.3</ele>
    <time>2017-03-26T10:50:56Z</time>
   </trkpt>
   <trkpt lat="51.8948870" lon="39.5357890">
    <ele>132.3</ele>
    <time>2017-03-26T10:50:57Z</time>
   </trkpt>
   <trkpt lat="51.8948360" lon="39.5357760">
    <ele>132.4</ele>
    <time>2017-03-26T10:50:58Z</time>
   </trkpt>
   <trkpt lat="51.8947920" lon="39.5357480">
    <ele>132.5</ele>
    <time>2017-03-26T10:50:59Z</time>
   </trkpt>
   <trkpt lat="51.8944080" lon="39.5355780">
    <ele>132.9</ele>
    <time>2017-03-26T10:51:10Z</time>
   </trkpt>
   <trkpt lat="51.8943060" lon="39.5354530">
    <ele>133.8</ele>
    <time>2017-03-26T10:51:13Z</time>
   </trkpt>
   <trkpt lat="51.8942570" lon="39.5354060">
    <ele>134.3</ele>
    <time>2017-03-26T10:51:14Z</time>
   </trkpt>
   <trkpt lat="51.8941500" lon="39.5353150">
    <ele>134.8</ele>
    <time>2017-03-26T10:51:16Z</time>
   </trkpt>
   <trkpt lat="51.8940920" lon="39.5352830">
    <ele>135.0</ele>
    <time>2017-03-26T10:51:17Z</time>
   </trkpt>
   <trkpt lat="51.8940340" lon="39.5352660">
    <ele>135.0</ele>
    <time>2017-03-26T10:51:18Z</time>
   </trkpt>
   <trkpt lat="51.8939830" lon="39.5352620">
    <ele>134.9</ele>
    <time>2017-03-26T10:51:19Z</time>
   </trkpt>
   <trkpt lat="51.8939370" lon="39.5352650">
    <ele>134.8</ele>
    <time>2017-03-26T10:51:20Z</time>
   </trkpt>
   <trkpt lat="51.8938670" lon="39.5352380">
    <ele>134.6</ele>
    <time>2017-03-26T10:51:22Z</time>
   </trkpt>
   <trkpt lat="51.8938500" lon="39.5351990">
    <ele>134.5</ele>
    <time>2017-03-26T10:51:23Z</time>
   </trkpt>
   <trkpt lat="51.8938540" lon="39.5351030">
    <ele>134.3</ele>
    <time>2017-03-26T10:51:25Z</time>
   </trkpt>
   <trkpt lat="51.8938560" lon="39.5350520">
    <ele>134.5</ele>
    <time>2017-03-26T10:51:26Z</time>
   </trkpt>
   <trkpt lat="51.8938580" lon="39.5349880">
    <ele>134.9</ele>
    <time>2017-03-26T10:51:27Z</time>
   </trkpt>
   <trkpt lat="51.8938560" lon="39.5349240">
    <ele>135.3</ele>
    <time>2017-03-26T10:51:28Z</time>
   </trkpt>
   <trkpt lat="51.8938490" lon="39.5348630">
    <ele>135.6</ele>
    <time>2017-03-26T10:51:29Z</time>
   </trkpt>
   <trkpt lat="51.8938400" lon="39.5348010">
    <ele>135.8</ele>
    <time>2017-03-26T10:51:30Z</time>
   </trkpt>
   <trkpt lat="51.8938360" lon="39.5347380">
    <ele>135.9</ele>
    <time>2017-03-26T10:51:31Z</time>
   </trkpt>
   <trkpt lat="51.8938330" lon="39.5346780">
    <ele>136.1</ele>
    <time>2017-03-26T10:51:32Z</time>
   </trkpt>
   <trkpt lat="51.8938290" lon="39.5346210">
    <ele>136.3</ele>
    <time>2017-03-26T10:51:33Z</time>
   </trkpt>
   <trkpt lat="51.8938300" lon="39.5345600">
    <ele>136.3</ele>
    <time>2017-03-26T10:51:34Z</time>
   </trkpt>
   <trkpt lat="51.8938370" lon="39.5345050">
    <ele>136.3</ele>
    <time>2017-03-26T10:51:35Z</time>
   </trkpt>
   <trkpt lat="51.8938450" lon="39.5344490">
    <ele>136.3</ele>
    <time>2017-03-26T10:51:36Z</time>
   </trkpt>
   <trkpt lat="51.8938540" lon="39.5343860">
    <ele>136.0</ele>
    <time>2017-03-26T10:51:37Z</time>
   </trkpt>
   <trkpt lat="51.8938620" lon="39.5343200">
    <ele>135.7</ele>
    <time>2017-03-26T10:51:38Z</time>
   </trkpt>
   <trkpt lat="51.8938670" lon="39.5342500">
    <ele>135.2</ele>
    <time>2017-03-26T10:51:39Z</time>
   </trkpt>
   <trkpt lat="51.8938760" lon="39.5341790">
    <ele>134.7</ele>
    <time>2017-03-26T10:51:40Z</time>
   </trkpt>
   <trkpt lat="51.8938840" lon="39.5341030">
    <ele>134.3</ele>
    <time>2017-03-26T10:51:41Z</time>
   </trkpt>
   <trkpt lat="51.8938860" lon="39.5340250">
    <ele>133.9</ele>
    <time>2017-03-26T10:51:42Z</time>
   </trkpt>
   <trkpt lat="51.8939000" lon="39.5338710">
    <ele>133.0</ele>
    <time>2017-03-26T10:51:44Z</time>
   </trkpt>
   <trkpt lat="51.8940010" lon="39.5332700">
    <ele>133.5</ele>
    <time>2017-03-26T10:51:51Z</time>
   </trkpt>
   <trkpt lat="51.8940370" lon="39.5330300">
    <ele>134.4</ele>
    <time>2017-03-26T10:51:54Z</time>
   </trkpt>
   <trkpt lat="51.8940870" lon="39.5328150">
    <ele>135.1</ele>
    <time>2017-03-26T10:51:57Z</time>
   </trkpt>
   <trkpt lat="51.8940990" lon="39.5327470">
    <ele>135.2</ele>
    <time>2017-03-26T10:51:58Z</time>
   </trkpt>
   <trkpt lat="51.8942610" lon="39.5320120">
    <ele>135.0</ele>
    <time>2017-03-26T10:52:09Z</time>
   </trkpt>
   <trkpt lat="51.8943930" lon="39.5312590">
    <ele>135.6</ele>
    <time>2017-03-26T10:52:20Z</time>
   </trkpt>
   <trkpt lat="51.8945390" lon="39.5303670">
    <ele>133.1</ele>
    <time>2017-03-26T10:52:32Z</time>
   </trkpt>
   <trkpt lat="51.8945540" lon="39.5302940">
    <ele>132.7</ele>
    <time>2017-03-26T10:52:33Z</time>
   </trkpt>
   <trkpt lat="51.8946500" lon="39.5298820">
    <ele>131.8</ele>
    <time>2017-03-26T10:52:38Z</time>
   </trkpt>
   <trkpt lat="51.8946740" lon="39.5298030">
    <ele>131.9</ele>
    <time>2017-03-26T10:52:39Z</time>
   </trkpt>
   <trkpt lat="51.8947350" lon="39.5295540">
    <ele>132.2</ele>
    <time>2017-03-26T10:52:42Z</time>
   </trkpt>
   <trkpt lat="51.8947510" lon="39.5294720">
    <ele>132.4</ele>
    <time>2017-03-26T10:52:43Z</time>
   </trkpt>
   <trkpt lat="51.8947830" lon="39.5293180">
    <ele>132.6</ele>
    <time>2017-03-26T10:52:45Z</time>
   </trkpt>
   <trkpt lat="51.8948710" lon="39.5287050">
    <ele>133.0</ele>
    <time>2017-03-26T10:52:53Z</time>
   </trkpt>
   <trkpt lat="51.8948890" lon="39.5286320">
    <ele>133.0</ele>
    <time>2017-03-26T10:52:54Z</time>
   </trkpt>
   <trkpt lat="51.8949030" lon="39.5285640">
    <ele>133.0</ele>
    <time>2017-03-26T10:52:55Z</time>
   </trkpt>
   <trkpt lat="51.8949170" lon="39.5284990">
    <ele>133.1</ele>
    <time>2017-03-26T10:52:56Z</time>
   </trkpt>
   <trkpt lat="51.8949280" lon="39.5284390">
    <ele>133.1</ele>
    <time>2017-03-26T10:52:57Z</time>
   </trkpt>
   <trkpt lat="51.8949380" lon="39.5283750">
    <ele>133.0</ele>
    <time>2017-03-26T10:52:58Z</time>
   </trkpt>
   <trkpt lat="51.8949510" lon="39.5283090">
    <ele>132.8</ele>
    <time>2017-03-26T10:52:59Z</time>
   </trkpt>
   <trkpt lat="51.8949640" lon="39.5282440">
    <ele>132.5</ele>
    <time>2017-03-26T10:53:00Z</time>
   </trkpt>
   <trkpt lat="51.8949930" lon="39.5281160">
    <ele>132.0</ele>
    <time>2017-03-26T10:53:02Z</time>
   </trkpt>
   <trkpt lat="51.8950120" lon="39.5280520">
    <ele>131.8</ele>
    <time>2017-03-26T10:53:03Z</time>
   </trkpt>
   <trkpt lat="51.8951340" lon="39.5276520">
    <ele>130.7</ele>
    <time>2017-03-26T10:53:09Z</time>
   </trkpt>
   <trkpt lat="51.8951500" lon="39.5275800">
    <ele>130.4</ele>
    <time>2017-03-26T10:53:10Z</time>
   </trkpt>
   <trkpt lat="51.8951850" lon="39.5274250">
    <ele>130.0</ele>
    <time>2017-03-26T10:53:12Z</time>
   </trkpt>
   <trkpt lat="51.8952010" lon="39.5273430">
    <ele>130.0</ele>
    <time>2017-03-26T10:53:13Z</time>
   </trkpt>
   <trkpt lat="51.8952180" lon="39.5272660">
    <ele>130.1</ele>
    <time>2017-03-26T10:53:14Z</time>
   </trkpt>
   <trkpt lat="51.8952350" lon="39.5271990">
    <ele>130.4</ele>
    <time>2017-03-26T10:53:15Z</time>
   </trkpt>
   <trkpt lat="51.8952520" lon="39.5271270">
    <ele>130.8</ele>
    <time>2017-03-26T10:53:16Z</time>
   </trkpt>
   <trkpt lat="51.8952690" lon="39.5270450">
    <ele>131.6</ele>
    <time>2017-03-26T10:53:17Z</time>
   </trkpt>
   <trkpt lat="51.8952850" lon="39.5269660">
    <ele>132.2</ele>
    <time>2017-03-26T10:53:18Z</time>
   </trkpt>
   <trkpt lat="51.8953000" lon="39.5268920">
    <ele>132.7</ele>
    <time>2017-03-26T10:53:19Z</time>
   </trkpt>
   <trkpt lat="51.8953200" lon="39.5268210">
    <ele>133.1</ele>
    <time>2017-03-26T10:53:20Z</time>
   </trkpt>
   <trkpt lat="51.8953400" lon="39.5267440">
    <ele>133.6</ele>
    <time>2017-03-26T10:53:21Z</time>
   </trkpt>
   <trkpt lat="51.8953570" lon="39.5266630">
    <ele>134.2</ele>
    <time>2017-03-26T10:53:22Z</time>
   </trkpt>
   <trkpt lat="51.8953690" lon="39.5265900">
    <ele>134.7</ele>
    <time>2017-03-26T10:53:23Z</time>
   </trkpt>
   <trkpt lat="51.8953810" lon="39.5265220">
    <ele>135.0</ele>
    <time>2017-03-26T10:53:24Z</time>
   </trkpt>
   <trkpt lat="51.8954540" lon="39.5260750">
    <ele>137.0</ele>
    <time>2017-03-26T10:53:30Z</time>
   </trkpt>
   <trkpt lat="51.8955320" lon="39.5256660">
    <ele>137.7</ele>
    <time>2017-03-26T10:53:35Z</time>
   </trkpt>
   <trkpt lat="51.8955980" lon="39.5253390">
    <ele>136.4</ele>
    <time>2017-03-26T10:53:39Z</time>
   </trkpt>
   <trkpt lat="51.8956150" lon="39.5252650">
    <ele>136.0</ele>
    <time>2017-03-26T10:53:40Z</time>
   </trkpt>
   <trkpt lat="51.8957270" lon="39.5246080">
    <ele>136.0</ele>
    <time>2017-03-26T10:53:49Z</time>
   </trkpt>
   <trkpt lat="51.8957420" lon="39.5245260">
    <ele>136.0</ele>
    <time>2017-03-26T10:53:50Z</time>
   </trkpt>
   <trkpt lat="51.8957540" lon="39.5244500">
    <ele>136.0</ele>
    <time>2017-03-26T10:53:51Z</time>
   </trkpt>
   <trkpt lat="51.8957600" lon="39.5243660">
    <ele>136.0</ele>
    <time>2017-03-26T10:53:52Z</time>
   </trkpt>
   <trkpt lat="51.8957660" lon="39.5242890">
    <ele>136.1</ele>
    <time>2017-03-26T10:53:53Z</time>
   </trkpt>
   <trkpt lat="51.8957800" lon="39.5242150">
    <ele>136.2</ele>
    <time>2017-03-26T10:53:54Z</time>
   </trkpt>
   <trkpt lat="51.8957950" lon="39.5241410">
    <ele>136.3</ele>
    <time>2017-03-26T10:53:55Z</time>
   </trkpt>
   <trkpt lat="51.8958150" lon="39.5240660">
    <ele>136.3</ele>
    <time>2017-03-26T10:53:56Z</time>
   </trkpt>
   <trkpt lat="51.8958370" lon="39.5239860">
    <ele>136.1</ele>
    <time>2017-03-26T10:53:57Z</time>
   </trkpt>
   <trkpt lat="51.8958590" lon="39.5239070">
    <ele>135.9</ele>
    <time>2017-03-26T10:53:58Z</time>
   </trkpt>
   <trkpt lat="51.8958790" lon="39.5238180">
    <ele>135.6</ele>
    <time>2017-03-26T10:53:59Z</time>
   </trkpt>
   <trkpt lat="51.8959790" lon="39.5232200">
    <ele>135.4</ele>
    <time>2017-03-26T10:54:06Z</time>
   </trkpt>
   <trkpt lat="51.8961320" lon="39.5223780">
    <ele>136.7</ele>
    <time>2017-03-26T10:54:19Z</time>
   </trkpt>
   <trkpt lat="51.8962010" lon="39.5219300">
    <ele>138.5</ele>
    <time>2017-03-26T10:54:30Z</time>
   </trkpt>
   <trkpt lat="51.8962460" lon="39.5214490">
    <ele>142.1</ele>
    <time>2017-03-26T10:54:40Z</time>
   </trkpt>
   <trkpt lat="51.8960230" lon="39.5212220">
    <ele>142.3</ele>
    <time>2017-03-26T10:54:48Z</time>
   </trkpt>
   <trkpt lat="51.8956130" lon="39.5209730">
    <ele>139.2</ele>
    <time>2017-03-26T10:54:59Z</time>
   </trkpt>
   <trkpt lat="51.8951740" lon="39.5207110">
    <ele>139.4</ele>
    <time>2017-03-26T10:55:10Z</time>
   </trkpt>
   <trkpt lat="51.8949820" lon="39.5206210">
    <ele>141.2</ele>
    <time>2017-03-26T10:55:14Z</time>
   </trkpt>
   <trkpt lat="51.8947880" lon="39.5205400">
    <ele>142.0</ele>
    <time>2017-03-26T10:55:18Z</time>
   </trkpt>
   <trkpt lat="51.8946420" lon="39.5203340">
    <ele>143.2</ele>
    <time>2017-03-26T10:55:23Z</time>
   </trkpt>
   <trkpt lat="51.8946410" lon="39.5202660">
    <ele>143.5</ele>
    <time>2017-03-26T10:55:24Z</time>
   </trkpt>
   <trkpt lat="51.8946460" lon="39.5201170">
    <ele>143.8</ele>
    <time>2017-03-26T10:55:26Z</time>
   </trkpt>
   <trkpt lat="51.8946470" lon="39.5200420">
    <ele>144.0</ele>
    <time>2017-03-26T10:55:27Z</time>
   </trkpt>
   <trkpt lat="51.8946410" lon="39.5199760">
    <ele>144.1</ele>
    <time>2017-03-26T10:55:28Z</time>
   </trkpt>
   <trkpt lat="51.8946320" lon="39.5199060">
    <ele>144.1</ele>
    <time>2017-03-26T10:55:29Z</time>
   </trkpt>
   <trkpt lat="51.8946270" lon="39.5198280">
    <ele>144.1</ele>
    <time>2017-03-26T10:55:30Z</time>
   </trkpt>
   <trkpt lat="51.8946240" lon="39.5197590">
    <ele>144.1</ele>
    <time>2017-03-26T10:55:31Z</time>
   </trkpt>
   <trkpt lat="51.8946670" lon="39.5194940">
    <ele>144.1</ele>
    <time>2017-03-26T10:55:35Z</time>
   </trkpt>
   <trkpt lat="51.8946570" lon="39.5187220">
    <ele>143.2</ele>
    <time>2017-03-26T10:55:45Z</time>
   </trkpt>
   <trkpt lat="51.8946860" lon="39.5182510">
    <ele>142.6</ele>
    <time>2017-03-26T10:55:51Z</time>
   </trkpt>
   <trkpt lat="51.8947280" lon="39.5176980">
    <ele>141.7</ele>
    <time>2017-03-26T10:55:59Z</time>
   </trkpt>
   <trkpt lat="51.8947330" lon="39.5176180">
    <ele>141.4</ele>
    <time>2017-03-26T10:56:00Z</time>
   </trkpt>
   <trkpt lat="51.8947300" lon="39.5175340">
    <ele>141.4</ele>
    <time>2017-03-26T10:56:01Z</time>
   </trkpt>
   <trkpt lat="51.8947330" lon="39.5172750">
    <ele>141.7</ele>
    <time>2017-03-26T10:56:04Z</time>
   </trkpt>
   <trkpt lat="51.8947460" lon="39.5171990">
    <ele>141.5</ele>
    <time>2017-03-26T10:56:05Z</time>
   </trkpt>
   <trkpt lat="51.8947650" lon="39.5171260">
    <ele>141.3</ele>
    <time>2017-03-26T10:56:06Z</time>
   </trkpt>
   <trkpt lat="51.8947900" lon="39.5170530">
    <ele>141.1</ele>
    <time>2017-03-26T10:56:07Z</time>
   </trkpt>
   <trkpt lat="51.8948200" lon="39.5169860">
    <ele>141.0</ele>
    <time>2017-03-26T10:56:08Z</time>
   </trkpt>
   <trkpt lat="51.8948550" lon="39.5169300">
    <ele>140.8</ele>
    <time>2017-03-26T10:56:09Z</time>
   </trkpt>
   <trkpt lat="51.8948950" lon="39.5168830">
    <ele>140.7</ele>
    <time>2017-03-26T10:56:10Z</time>
   </trkpt>
   <trkpt lat="51.8949280" lon="39.5168340">
    <ele>140.7</ele>
    <time>2017-03-26T10:56:11Z</time>
   </trkpt>
   <trkpt lat="51.8949570" lon="39.5167760">
    <ele>140.7</ele>
    <time>2017-03-26T10:56:12Z</time>
   </trkpt>
   <trkpt lat="51.8949880" lon="39.5167230">
    <ele>140.7</ele>
    <time>2017-03-26T10:56:13Z</time>
   </trkpt>
   <trkpt lat="51.8950170" lon="39.5166680">
    <ele>140.8</ele>
    <time>2017-03-26T10:56:14Z</time>
   </trkpt>
   <trkpt lat="51.8950500" lon="39.5166130">
    <ele>140.8</ele>
    <time>2017-03-26T10:56:15Z</time>
   </trkpt>
   <trkpt lat="51.8950820" lon="39.5165600">
    <ele>140.9</ele>
    <time>2017-03-26T10:56:16Z</time>
   </trkpt>
   <trkpt lat="51.8951140" lon="39.5165020">
    <ele>140.9</ele>
    <time>2017-03-26T10:56:17Z</time>
   </trkpt>
   <trkpt lat="51.8951470" lon="39.5164440">
    <ele>140.9</ele>
    <time>2017-03-26T10:56:18Z</time>
   </trkpt>
   <trkpt lat="51.8952090" lon="39.5163290">
    <ele>141.1</ele>
    <time>2017-03-26T10:56:20Z</time>
   </trkpt>
   <trkpt lat="51.8952340" lon="39.5162760">
    <ele>141.0</ele>
    <time>2017-03-26T10:56:21Z</time>
   </trkpt>
   <trkpt lat="51.8952590" lon="39.5162230">
    <ele>140.8</ele>
    <time>2017-03-26T10:56:22Z</time>
   </trkpt>
   <trkpt lat="51.8954340" lon="39.5156000">
    <ele>140.3</ele>
    <time>2017-03-26T10:56:32Z</time>
   </trkpt>
   <trkpt lat="51.8954530" lon="39.5152980">
    <ele>139.5</ele>
    <time>2017-03-26T10:56:36Z</time>
   </trkpt>
   <trkpt lat="51.8954380" lon="39.5152250">
    <ele>139.6</ele>
    <time>2017-03-26T10:56:37Z</time>
   </trkpt>
   <trkpt lat="51.8953910" lon="39.5146740">
    <ele>138.9</ele>
    <time>2017-03-26T10:56:45Z</time>
   </trkpt>
   <trkpt lat="51.8954430" lon="39.5142760">
    <ele>138.7</ele>
    <time>2017-03-26T10:56:50Z</time>
   </trkpt>
   <trkpt lat="51.8954560" lon="39.5141210">
    <ele>138.7</ele>
    <time>2017-03-26T10:56:52Z</time>
   </trkpt>
   <trkpt lat="51.8954820" lon="39.5140490">
    <ele>138.6</ele>
    <time>2017-03-26T10:56:53Z</time>
   </trkpt>
   <trkpt lat="51.8955160" lon="39.5139830">
    <ele>138.3</ele>
    <time>2017-03-26T10:56:54Z</time>
   </trkpt>
   <trkpt lat="51.8955450" lon="39.5139210">
    <ele>137.9</ele>
    <time>2017-03-26T10:56:55Z</time>
   </trkpt>
   <trkpt lat="51.8955720" lon="39.5138570">
    <ele>137.4</ele>
    <time>2017-03-26T10:56:56Z</time>
   </trkpt>
   <trkpt lat="51.8955950" lon="39.5137880">
    <ele>136.8</ele>
    <time>2017-03-26T10:56:57Z</time>
   </trkpt>
   <trkpt lat="51.8956790" lon="39.5135680">
    <ele>134.9</ele>
    <time>2017-03-26T10:57:00Z</time>
   </trkpt>
   <trkpt lat="51.8957180" lon="39.5135080">
    <ele>134.6</ele>
    <time>2017-03-26T10:57:01Z</time>
   </trkpt>
   <trkpt lat="51.8957590" lon="39.5134520">
    <ele>134.4</ele>
    <time>2017-03-26T10:57:02Z</time>
   </trkpt>
   <trkpt lat="51.8958260" lon="39.5133260">
    <ele>134.0</ele>
    <time>2017-03-26T10:57:04Z</time>
   </trkpt>
   <trkpt lat="51.8958500" lon="39.5132570">
    <ele>133.7</ele>
    <time>2017-03-26T10:57:05Z</time>
   </trkpt>
   <trkpt lat="51.8959630" lon="39.5124280">
    <ele>131.7</ele>
    <time>2017-03-26T10:57:17Z</time>
   </trkpt>
   <trkpt lat="51.8959540" lon="39.5121750">
    <ele>132.0</ele>
    <time>2017-03-26T10:57:20Z</time>
   </trkpt>
   <trkpt lat="51.8959620" lon="39.5120840">
    <ele>132.3</ele>
    <time>2017-03-26T10:57:21Z</time>
   </trkpt>
   <trkpt lat="51.8960780" lon="39.5112950">
    <ele>132.4</ele>
    <time>2017-03-26T10:57:31Z</time>
   </trkpt>
   <trkpt lat="51.8962120" lon="39.5108900">
    <ele>131.7</ele>
    <time>2017-03-26T10:57:37Z</time>
   </trkpt>
   <trkpt lat="51.8962670" lon="39.5107710">
    <ele>131.3</ele>
    <time>2017-03-26T10:57:39Z</time>
   </trkpt>
   <trkpt lat="51.8965090" lon="39.5103280">
    <ele>131.0</ele>
    <time>2017-03-26T10:57:47Z</time>
   </trkpt>
   <trkpt lat="51.8965330" lon="39.5102570">
    <ele>131.0</ele>
    <time>2017-03-26T10:57:48Z</time>
   </trkpt>
   <trkpt lat="51.8966050" lon="39.5100440">
    <ele>131.3</ele>
    <time>2017-03-26T10:57:51Z</time>
   </trkpt>
   <trkpt lat="51.8966330" lon="39.5099680">
    <ele>131.4</ele>
    <time>2017-03-26T10:57:52Z</time>
   </trkpt>
   <trkpt lat="51.8966640" lon="39.5098950">
    <ele>131.5</ele>
    <time>2017-03-26T10:57:53Z</time>
   </trkpt>
   <trkpt lat="51.8967310" lon="39.5097480">
    <ele>131.6</ele>
    <time>2017-03-26T10:57:55Z</time>
   </trkpt>
   <trkpt lat="51.8967600" lon="39.5096770">
    <ele>131.7</ele>
    <time>2017-03-26T10:57:56Z</time>
   </trkpt>
   <trkpt lat="51.8967940" lon="39.5096060">
    <ele>131.8</ele>
    <time>2017-03-26T10:57:57Z</time>
   </trkpt>
   <trkpt lat="51.8968290" lon="39.5095430">
    <ele>132.0</ele>
    <time>2017-03-26T10:57:58Z</time>
   </trkpt>
   <trkpt lat="51.8968600" lon="39.5094810">
    <ele>132.2</ele>
    <time>2017-03-26T10:57:59Z</time>
   </trkpt>
   <trkpt lat="51.8968840" lon="39.5094250">
    <ele>132.3</ele>
    <time>2017-03-26T10:58:00Z</time>
   </trkpt>
   <trkpt lat="51.8969120" lon="39.5093690">
    <ele>132.4</ele>
    <time>2017-03-26T10:58:01Z</time>
   </trkpt>
   <trkpt lat="51.8969710" lon="39.5092460">
    <ele>132.2</ele>
    <time>2017-03-26T10:58:03Z</time>
   </trkpt>
   <trkpt lat="51.8970000" lon="39.5091830">
    <ele>132.1</ele>
    <time>2017-03-26T10:58:04Z</time>
   </trkpt>
   <trkpt lat="51.8970290" lon="39.5091240">
    <ele>132.1</ele>
    <time>2017-03-26T10:58:05Z</time>
   </trkpt>
   <trkpt lat="51.8970570" lon="39.5090640">
    <ele>132.1</ele>
    <time>2017-03-26T10:58:06Z</time>
   </trkpt>
   <trkpt lat="51.8970900" lon="39.5090110">
    <ele>132.2</ele>
    <time>2017-03-26T10:58:07Z</time>
   </trkpt>
   <trkpt lat="51.8971300" lon="39.5089650">
    <ele>132.3</ele>
    <time>2017-03-26T10:58:08Z</time>
   </trkpt>
   <trkpt lat="51.8971660" lon="39.5089120">
    <ele>132.4</ele>
    <time>2017-03-26T10:58:09Z</time>
   </trkpt>
   <trkpt lat="51.8972010" lon="39.5088480">
    <ele>132.4</ele>
    <time>2017-03-26T10:58:10Z</time>
   </trkpt>
   <trkpt lat="51.8972280" lon="39.5087720">
    <ele>132.4</ele>
    <time>2017-03-26T10:58:11Z</time>
   </trkpt>
   <trkpt lat="51.8972560" lon="39.5087010">
    <ele>132.3</ele>
    <time>2017-03-26T10:58:12Z</time>
   </trkpt>
   <trkpt lat="51.8973470" lon="39.5084780">
    <ele>131.8</ele>
    <time>2017-03-26T10:58:15Z</time>
   </trkpt>
   <trkpt lat="51.8973760" lon="39.5083980">
    <ele>131.6</ele>
    <time>2017-03-26T10:58:16Z</time>
   </trkpt>
   <trkpt lat="51.8974000" lon="39.5083100">
    <ele>131.6</ele>
    <time>2017-03-26T10:58:17Z</time>
   </trkpt>
   <trkpt lat="51.8974660" lon="39.5080440">
    <ele>133.1</ele>
    <time>2017-03-26T10:58:20Z</time>
   </trkpt>
   <trkpt lat="51.8974820" lon="39.5079560">
    <ele>133.8</ele>
    <time>2017-03-26T10:58:21Z</time>
   </trkpt>
   <trkpt lat="51.8974970" lon="39.5078660">
    <ele>134.3</ele>
    <time>2017-03-26T10:58:22Z</time>
   </trkpt>
   <trkpt lat="51.8975120" lon="39.5077840">
    <ele>134.8</ele>
    <time>2017-03-26T10:58:23Z</time>
   </trkpt>
   <trkpt lat="51.8975300" lon="39.5076980">
    <ele>135.2</ele>
    <time>2017-03-26T10:58:24Z</time>
   </trkpt>
   <trkpt lat="51.8975680" lon="39.5075340">
    <ele>136.4</ele>
    <time>2017-03-26T10:58:26Z</time>
   </trkpt>
   <trkpt lat="51.8975920" lon="39.5074500">
    <ele>137.0</ele>
    <time>2017-03-26T10:58:27Z</time>
   </trkpt>
   <trkpt lat="51.8976120" lon="39.5073660">
    <ele>137.6</ele>
    <time>2017-03-26T10:58:28Z</time>
   </trkpt>
   <trkpt lat="51.8976470" lon="39.5072030">
    <ele>138.5</ele>
    <time>2017-03-26T10:58:30Z</time>
   </trkpt>
   <trkpt lat="51.8976620" lon="39.5071230">
    <ele>138.5</ele>
    <time>2017-03-26T10:58:31Z</time>
   </trkpt>
   <trkpt lat="51.8976850" lon="39.5069570">
    <ele>138.0</ele>
    <time>2017-03-26T10:58:33Z</time>
   </trkpt>
   <trkpt lat="51.8977300" lon="39.5067310">
    <ele>138.2</ele>
    <time>2017-03-26T10:58:36Z</time>
   </trkpt>
   <trkpt lat="51.8977600" lon="39.5065850">
    <ele>138.5</ele>
    <time>2017-03-26T10:58:38Z</time>
   </trkpt>
   <trkpt lat="51.8978020" lon="39.5062490">
    <ele>137.1</ele>
    <time>2017-03-26T10:58:42Z</time>
   </trkpt>
   <trkpt lat="51.8977970" lon="39.5061730">
    <ele>136.9</ele>
    <time>2017-03-26T10:58:43Z</time>
   </trkpt>
   <trkpt lat="51.8977780" lon="39.5061020">
    <ele>136.8</ele>
    <time>2017-03-26T10:58:44Z</time>
   </trkpt>
   <trkpt lat="51.8977570" lon="39.5060250">
    <ele>136.9</ele>
    <time>2017-03-26T10:58:45Z</time>
   </trkpt>
   <trkpt lat="51.8977320" lon="39.5059410">
    <ele>137.4</ele>
    <time>2017-03-26T10:58:46Z</time>
   </trkpt>
   <trkpt lat="51.8977010" lon="39.5058560">
    <ele>137.9</ele>
    <time>2017-03-26T10:58:47Z</time>
   </trkpt>
   <trkpt lat="51.8976340" lon="39.5056850">
    <ele>138.4</ele>
    <time>2017-03-26T10:58:49Z</time>
   </trkpt>
   <trkpt lat="51.8975270" lon="39.5053670">
    <ele>139.5</ele>
    <time>2017-03-26T10:58:53Z</time>
   </trkpt>
   <trkpt lat="51.8975090" lon="39.5052850">
    <ele>139.9</ele>
    <time>2017-03-26T10:58:54Z</time>
   </trkpt>
   <trkpt lat="51.8975020" lon="39.5052030">
    <ele>139.5</ele>
    <time>2017-03-26T10:58:55Z</time>
   </trkpt>
   <trkpt lat="51.8975000" lon="39.5051270">
    <ele>139.1</ele>
    <time>2017-03-26T10:58:56Z</time>
   </trkpt>
   <trkpt lat="51.8975000" lon="39.5050540">
    <ele>138.7</ele>
    <time>2017-03-26T10:58:57Z</time>
   </trkpt>
   <trkpt lat="51.8975020" lon="39.5049840">
    <ele>138.3</ele>
    <time>2017-03-26T10:58:58Z</time>
   </trkpt>
   <trkpt lat="51.8975050" lon="39.5049160">
    <ele>137.9</ele>
    <time>2017-03-26T10:58:59Z</time>
   </trkpt>
   <trkpt lat="51.8975600" lon="39.5045900">
    <ele>137.0</ele>
    <time>2017-03-26T10:59:04Z</time>
   </trkpt>
   <trkpt lat="51.8975810" lon="39.5045220">
    <ele>137.0</ele>
    <time>2017-03-26T10:59:05Z</time>
   </trkpt>
   <trkpt lat="51.8977450" lon="39.5040350">
    <ele>135.4</ele>
    <time>2017-03-26T10:59:12Z</time>
   </trkpt>
   <trkpt lat="51.8978110" lon="39.5037960">
    <ele>134.9</ele>
    <time>2017-03-26T10:59:15Z</time>
   </trkpt>
   <trkpt lat="51.8978240" lon="39.5037100">
    <ele>134.7</ele>
    <time>2017-03-26T10:59:16Z</time>
   </trkpt>
   <trkpt lat="51.8978340" lon="39.5036190">
    <ele>134.4</ele>
    <time>2017-03-26T10:59:17Z</time>
   </trkpt>
   <trkpt lat="51.8978370" lon="39.5035270">
    <ele>134.3</ele>
    <time>2017-03-26T10:59:18Z</time>
   </trkpt>
   <trkpt lat="51.8978400" lon="39.5034390">
    <ele>134.1</ele>
    <time>2017-03-26T10:59:19Z</time>
   </trkpt>
   <trkpt lat="51.8978490" lon="39.5033560">
    <ele>133.7</ele>
    <time>2017-03-26T10:59:20Z</time>
   </trkpt>
   <trkpt lat="51.8978650" lon="39.5032810">
    <ele>133.3</ele>
    <time>2017-03-26T10:59:21Z</time>
   </trkpt>
   <trkpt lat="51.8978840" lon="39.5032110">
    <ele>132.8</ele>
    <time>2017-03-26T10:59:22Z</time>
   </trkpt>
   <trkpt lat="51.8979220" lon="39.5030770">
    <ele>131.3</ele>
    <time>2017-03-26T10:59:24Z</time>
   </trkpt>
   <trkpt lat="51.8980490" lon="39.5026430">
    <ele>126.9</ele>
    <time>2017-03-26T10:59:30Z</time>
   </trkpt>
   <trkpt lat="51.8980740" lon="39.5025780">
    <ele>126.4</ele>
    <time>2017-03-26T10:59:31Z</time>
   </trkpt>
   <trkpt lat="51.8980900" lon="39.5025140">
    <ele>125.7</ele>
    <time>2017-03-26T10:59:32Z</time>
   </trkpt>
   <trkpt lat="51.8981110" lon="39.5024450">
    <ele>124.9</ele>
    <time>2017-03-26T10:59:33Z</time>
   </trkpt>
   <trkpt lat="51.8981290" lon="39.5023730">
    <ele>124.2</ele>
    <time>2017-03-26T10:59:34Z</time>
   </trkpt>
   <trkpt lat="51.8981480" lon="39.5023000">
    <ele>123.4</ele>
    <time>2017-03-26T10:59:35Z</time>
   </trkpt>
   <trkpt lat="51.8981650" lon="39.5022180">
    <ele>122.9</ele>
    <time>2017-03-26T10:59:36Z</time>
   </trkpt>
   <trkpt lat="51.8981820" lon="39.5021290">
    <ele>123.1</ele>
    <time>2017-03-26T10:59:37Z</time>
   </trkpt>
   <trkpt lat="51.8982190" lon="39.5019480">
    <ele>125.3</ele>
    <time>2017-03-26T10:59:39Z</time>
   </trkpt>
   <trkpt lat="51.8982320" lon="39.5017610">
    <ele>126.8</ele>
    <time>2017-03-26T10:59:41Z</time>
   </trkpt>
   <trkpt lat="51.8984300" lon="39.5006730">
    <ele>135.9</ele>
    <time>2017-03-26T10:59:53Z</time>
   </trkpt>
   <trkpt lat="51.8985790" lon="39.5003220">
    <ele>136.1</ele>
    <time>2017-03-26T10:59:58Z</time>
   </trkpt>
   <trkpt lat="51.8986020" lon="39.5002450">
    <ele>136.1</ele>
    <time>2017-03-26T10:59:59Z</time>
   </trkpt>
   <trkpt lat="51.8986200" lon="39.5001670">
    <ele>136.2</ele>
    <time>2017-03-26T11:00:00Z</time>
   </trkpt>
   <trkpt lat="51.8986290" lon="39.5000930">
    <ele>136.5</ele>
    <time>2017-03-26T11:00:01Z</time>
   </trkpt>
   <trkpt lat="51.8986300" lon="39.5000210">
    <ele>136.8</ele>
    <time>2017-03-26T11:00:02Z</time>
   </trkpt>
   <trkpt lat="51.8986250" lon="39.4999460">
    <ele>137.0</ele>
    <time>2017-03-26T11:00:03Z</time>
   </trkpt>
   <trkpt lat="51.8986130" lon="39.4998690">
    <ele>136.8</ele>
    <time>2017-03-26T11:00:04Z</time>
   </trkpt>
   <trkpt lat="51.8985960" lon="39.4997900">
    <ele>136.6</ele>
    <time>2017-03-26T11:00:05Z</time>
   </trkpt>
   <trkpt lat="51.8985060" lon="39.4994100">
    <ele>135.9</ele>
    <time>2017-03-26T11:00:10Z</time>
   </trkpt>
   <trkpt lat="51.8985010" lon="39.4993320">
    <ele>135.4</ele>
    <time>2017-03-26T11:00:11Z</time>
   </trkpt>
   <trkpt lat="51.8985020" lon="39.4992560">
    <ele>135.0</ele>
    <time>2017-03-26T11:00:12Z</time>
   </trkpt>
   <trkpt lat="51.8985480" lon="39.4984550">
    <ele>130.3</ele>
    <time>2017-03-26T11:00:23Z</time>
   </trkpt>
   <trkpt lat="51.8985680" lon="39.4981430">
    <ele>128.2</ele>
    <time>2017-03-26T11:00:27Z</time>
   </trkpt>
   <trkpt lat="51.8985820" lon="39.4980680">
    <ele>127.7</ele>
    <time>2017-03-26T11:00:28Z</time>
   </trkpt>
   <trkpt lat="51.8986030" lon="39.4980000">
    <ele>127.1</ele>
    <time>2017-03-26T11:00:29Z</time>
   </trkpt>
   <trkpt lat="51.8986270" lon="39.4979440">
    <ele>126.7</ele>
    <time>2017-03-26T11:00:30Z</time>
   </trkpt>
   <trkpt lat="51.8986530" lon="39.4979010">
    <ele>126.2</ele>
    <time>2017-03-26T11:00:31Z</time>
   </trkpt>
   <trkpt lat="51.8987770" lon="39.4977260">
    <ele>124.6</ele>
    <time>2017-03-26T11:00:35Z</time>
   </trkpt>
   <trkpt lat="51.8987990" lon="39.4976710">
    <ele>124.5</ele>
    <time>2017-03-26T11:00:36Z</time>
   </trkpt>
   <trkpt lat="51.8988170" lon="39.4976190">
    <ele>124.7</ele>
    <time>2017-03-26T11:00:37Z</time>
   </trkpt>
   <trkpt lat="51.8988370" lon="39.4975580">
    <ele>125.0</ele>
    <time>2017-03-26T11:00:38Z</time>
   </trkpt>
   <trkpt lat="51.8988500" lon="39.4974950">
    <ele>125.2</ele>
    <time>2017-03-26T11:00:39Z</time>
   </trkpt>
   <trkpt lat="51.8988650" lon="39.4974340">
    <ele>125.4</ele>
    <time>2017-03-26T11:00:40Z</time>
   </trkpt>
   <trkpt lat="51.8988780" lon="39.4973660">
    <ele>125.4</ele>
    <time>2017-03-26T11:00:41Z</time>
   </trkpt>
   <trkpt lat="51.8988910" lon="39.4972910">
    <ele>125.5</ele>
    <time>2017-03-26T11:00:42Z</time>
   </trkpt>
   <trkpt lat="51.8988990" lon="39.4972100">
    <ele>125.4</ele>
    <time>2017-03-26T11:00:43Z</time>
   </trkpt>
   <trkpt lat="51.8988980" lon="39.4971220">
    <ele>125.5</ele>
    <time>2017-03-26T11:00:44Z</time>
   </trkpt>
   <trkpt lat="51.8988900" lon="39.4970290">
    <ele>125.5</ele>
    <time>2017-03-26T11:00:45Z</time>
   </trkpt>
   <trkpt lat="51.8988860" lon="39.4969430">
    <ele>125.6</ele>
    <time>2017-03-26T11:00:46Z</time>
   </trkpt>
   <trkpt lat="51.8988830" lon="39.4968560">
    <ele>125.7</ele>
    <time>2017-03-26T11:00:47Z</time>
   </trkpt>
   <trkpt lat="51.8988880" lon="39.4967760">
    <ele>125.8</ele>
    <time>2017-03-26T11:00:48Z</time>
   </trkpt>
   <trkpt lat="51.8989930" lon="39.4962600">
    <ele>124.8</ele>
    <time>2017-03-26T11:00:55Z</time>
   </trkpt>
   <trkpt lat="51.8990140" lon="39.4961950">
    <ele>124.8</ele>
    <time>2017-03-26T11:00:56Z</time>
   </trkpt>
   <trkpt lat="51.8990300" lon="39.4961340">
    <ele>124.8</ele>
    <time>2017-03-26T11:00:57Z</time>
   </trkpt>
   <trkpt lat="51.8990500" lon="39.4960650">
    <ele>124.6</ele>
    <time>2017-03-26T11:00:58Z</time>
   </trkpt>
   <trkpt lat="51.8990700" lon="39.4959980">
    <ele>124.5</ele>
    <time>2017-03-26T11:00:59Z</time>
   </trkpt>
   <trkpt lat="51.8991120" lon="39.4957870">
    <ele>123.9</ele>
    <time>2017-03-26T11:01:02Z</time>
   </trkpt>
   <trkpt lat="51.8991000" lon="39.4957190">
    <ele>123.8</ele>
    <time>2017-03-26T11:01:03Z</time>
   </trkpt>
   <trkpt lat="51.8990850" lon="39.4956560">
    <ele>123.8</ele>
    <time>2017-03-26T11:01:04Z</time>
   </trkpt>
   <trkpt lat="51.8990610" lon="39.4956060">
    <ele>123.9</ele>
    <time>2017-03-26T11:01:05Z</time>
   </trkpt>
   <trkpt lat="51.8990370" lon="39.4955550">
    <ele>124.0</ele>
    <time>2017-03-26T11:01:06Z</time>
   </trkpt>
   <trkpt lat="51.8990170" lon="39.4955030">
    <ele>124.0</ele>
    <time>2017-03-26T11:01:07Z</time>
   </trkpt>
   <trkpt lat="51.8988700" lon="39.4949850">
    <ele>124.4</ele>
    <time>2017-03-26T11:01:15Z</time>
   </trkpt>
   <trkpt lat="51.8987840" lon="39.4947130">
    <ele>123.5</ele>
    <time>2017-03-26T11:01:19Z</time>
   </trkpt>
   <trkpt lat="51.8986760" lon="39.4942880">
    <ele>123.4</ele>
    <time>2017-03-26T11:01:25Z</time>
   </trkpt>
   <trkpt lat="51.8986550" lon="39.4942090">
    <ele>123.6</ele>
    <time>2017-03-26T11:01:26Z</time>
   </trkpt>
   <trkpt lat="51.8986350" lon="39.4941340">
    <ele>123.7</ele>
    <time>2017-03-26T11:01:27Z</time>
   </trkpt>
   <trkpt lat="51.8985600" lon="39.4939030">
    <ele>123.6</ele>
    <time>2017-03-26T11:01:30Z</time>
   </trkpt>
   <trkpt lat="51.8983480" lon="39.4931850">
    <ele>124.9</ele>
    <time>2017-03-26T11:01:39Z</time>
   </trkpt>
   <trkpt lat="51.8983300" lon="39.4931070">
    <ele>125.1</ele>
    <time>2017-03-26T11:01:40Z</time>
   </trkpt>
   <trkpt lat="51.8983100" lon="39.4930320">
    <ele>125.5</ele>
    <time>2017-03-26T11:01:41Z</time>
   </trkpt>
   <trkpt lat="51.8982890" lon="39.4929540">
    <ele>125.9</ele>
    <time>2017-03-26T11:01:42Z</time>
   </trkpt>
   <trkpt lat="51.8982660" lon="39.4928800">
    <ele>126.3</ele>
    <time>2017-03-26T11:01:43Z</time>
   </trkpt>
   <trkpt lat="51.8982380" lon="39.4928070">
    <ele>126.7</ele>
    <time>2017-03-26T11:01:44Z</time>
   </trkpt>
   <trkpt lat="51.8982070" lon="39.4927330">
    <ele>127.2</ele>
    <time>2017-03-26T11:01:45Z</time>
   </trkpt>
   <trkpt lat="51.8981840" lon="39.4926540">
    <ele>127.7</ele>
    <time>2017-03-26T11:01:46Z</time>
   </trkpt>
   <trkpt lat="51.8981620" lon="39.4925770">
    <ele>128.2</ele>
    <time>2017-03-26T11:01:47Z</time>
   </trkpt>
   <trkpt lat="51.8981310" lon="39.4924510">
    <ele>128.8</ele>
    <time>2017-03-26T11:01:49Z</time>
   </trkpt>
   <trkpt lat="51.8981110" lon="39.4923860">
    <ele>129.0</ele>
    <time>2017-03-26T11:01:50Z</time>
   </trkpt>
   <trkpt lat="51.8980900" lon="39.4923150">
    <ele>129.1</ele>
    <time>2017-03-26T11:01:51Z</time>
   </trkpt>
   <trkpt lat="51.8979230" lon="39.4917040">
    <ele>129.9</ele>
    <time>2017-03-26T11:02:00Z</time>
   </trkpt>
   <trkpt lat="51.8978610" lon="39.4913580">
    <ele>131.4</ele>
    <time>2017-03-26T11:02:05Z</time>
   </trkpt>
   <trkpt lat="51.8978370" lon="39.4912770">
    <ele>131.5</ele>
    <time>2017-03-26T11:02:06Z</time>
   </trkpt>
   <trkpt lat="51.8978150" lon="39.4911960">
    <ele>131.5</ele>
    <time>2017-03-26T11:02:07Z</time>
   </trkpt>
   <trkpt lat="51.8977600" lon="39.4909580">
    <ele>131.6</ele>
    <time>2017-03-26T11:02:10Z</time>
   </trkpt>
   <trkpt lat="51.8977360" lon="39.4908770">
    <ele>131.7</ele>
    <time>2017-03-26T11:02:11Z</time>
   </trkpt>
   <trkpt lat="51.8976920" lon="39.4907160">
    <ele>131.9</ele>
    <time>2017-03-26T11:02:13Z</time>
   </trkpt>
   <trkpt lat="51.8975800" lon="39.4900310">
    <ele>130.0</ele>
    <time>2017-03-26T11:02:22Z</time>
   </trkpt>
   <trkpt lat="51.8974240" lon="39.4895000">
    <ele>130.9</ele>
    <time>2017-03-26T11:02:29Z</time>
   </trkpt>
   <trkpt lat="51.8974100" lon="39.4894290">
    <ele>131.0</ele>
    <time>2017-03-26T11:02:30Z</time>
   </trkpt>
   <trkpt lat="51.8973980" lon="39.4893630">
    <ele>131.0</ele>
    <time>2017-03-26T11:02:31Z</time>
   </trkpt>
   <trkpt lat="51.8973730" lon="39.4893000">
    <ele>131.0</ele>
    <time>2017-03-26T11:02:32Z</time>
   </trkpt>
   <trkpt lat="51.8973450" lon="39.4892350">
    <ele>131.0</ele>
    <time>2017-03-26T11:02:33Z</time>
   </trkpt>
   <trkpt lat="51.8972870" lon="39.4891230">
    <ele>131.1</ele>
    <time>2017-03-26T11:02:35Z</time>
   </trkpt>
   <trkpt lat="51.8971010" lon="39.4886060">
    <ele>133.8</ele>
    <time>2017-03-26T11:02:43Z</time>
   </trkpt>
   <trkpt lat="51.8970840" lon="39.4885090">
    <ele>133.9</ele>
    <time>2017-03-26T11:02:44Z</time>
   </trkpt>
   <trkpt lat="51.8970710" lon="39.4884150">
    <ele>133.9</ele>
    <time>2017-03-26T11:02:45Z</time>
   </trkpt>
   <trkpt lat="51.8970540" lon="39.4883220">
    <ele>134.0</ele>
    <time>2017-03-26T11:02:46Z</time>
   </trkpt>
   <trkpt lat="51.8970370" lon="39.4882290">
    <ele>134.1</ele>
    <time>2017-03-26T11:02:47Z</time>
   </trkpt>
   <trkpt lat="51.8970280" lon="39.4881350">
    <ele>134.1</ele>
    <time>2017-03-26T11:02:48Z</time>
   </trkpt>
   <trkpt lat="51.8970110" lon="39.4878760">
    <ele>134.3</ele>
    <time>2017-03-26T11:02:51Z</time>
   </trkpt>
   <trkpt lat="51.8970150" lon="39.4877960">
    <ele>134.3</ele>
    <time>2017-03-26T11:02:52Z</time>
   </trkpt>
   <trkpt lat="51.8970170" lon="39.4877160">
    <ele>134.2</ele>
    <time>2017-03-26T11:02:53Z</time>
   </trkpt>
   <trkpt lat="51.8970130" lon="39.4876360">
    <ele>134.1</ele>
    <time>2017-03-26T11:02:54Z</time>
   </trkpt>
   <trkpt lat="51.8970090" lon="39.4875540">
    <ele>133.9</ele>
    <time>2017-03-26T11:02:55Z</time>
   </trkpt>
   <trkpt lat="51.8969930" lon="39.4873370">
    <ele>133.6</ele>
    <time>2017-03-26T11:02:58Z</time>
   </trkpt>
   <trkpt lat="51.8969860" lon="39.4872670">
    <ele>133.6</ele>
    <time>2017-03-26T11:02:59Z</time>
   </trkpt>
   <trkpt lat="51.8969860" lon="39.4871330">
    <ele>133.4</ele>
    <time>2017-03-26T11:03:01Z</time>
   </trkpt>
   <trkpt lat="51.8970090" lon="39.4867680">
    <ele>131.9</ele>
    <time>2017-03-26T11:03:06Z</time>
   </trkpt>
   <trkpt lat="51.8970160" lon="39.4866890">
    <ele>131.6</ele>
    <time>2017-03-26T11:03:07Z</time>
   </trkpt>
   <trkpt lat="51.8970340" lon="39.4863620">
    <ele>130.5</ele>
    <time>2017-03-26T11:03:11Z</time>
   </trkpt>
   <trkpt lat="51.8970500" lon="39.4861400">
    <ele>129.7</ele>
    <time>2017-03-26T11:03:14Z</time>
   </trkpt>
   <trkpt lat="51.8970400" lon="39.4860710">
    <ele>129.5</ele>
    <time>2017-03-26T11:03:15Z</time>
   </trkpt>
   <trkpt lat="51.8970240" lon="39.4854570">
    <ele>127.7</ele>
    <time>2017-03-26T11:03:26Z</time>
   </trkpt>
   <trkpt lat="51.8971550" lon="39.4848880">
    <ele>129.5</ele>
    <time>2017-03-26T11:03:35Z</time>
   </trkpt>
   <trkpt lat="51.8971760" lon="39.4848130">
    <ele>129.5</ele>
    <time>2017-03-26T11:03:36Z</time>
   </trkpt>
   <trkpt lat="51.8972020" lon="39.4847360">
    <ele>129.8</ele>
    <time>2017-03-26T11:03:37Z</time>
   </trkpt>
   <trkpt lat="51.8972230" lon="39.4846600">
    <ele>130.1</ele>
    <time>2017-03-26T11:03:38Z</time>
   </trkpt>
   <trkpt lat="51.8972430" lon="39.4845880">
    <ele>130.3</ele>
    <time>2017-03-26T11:03:39Z</time>
   </trkpt>
   <trkpt lat="51.8972730" lon="39.4844210">
    <ele>130.2</ele>
    <time>2017-03-26T11:03:42Z</time>
   </trkpt>
   <trkpt lat="51.8972770" lon="39.4843560">
    <ele>130.0</ele>
    <time>2017-03-26T11:03:43Z</time>
   </trkpt>
   <trkpt lat="51.8972990" lon="39.4838310">
    <ele>125.4</ele>
    <time>2017-03-26T11:03:50Z</time>
   </trkpt>
   <trkpt lat="51.8972890" lon="39.4837560">
    <ele>125.1</ele>
    <time>2017-03-26T11:03:51Z</time>
   </trkpt>
   <trkpt lat="51.8972650" lon="39.4834600">
    <ele>124.9</ele>
    <time>2017-03-26T11:03:55Z</time>
   </trkpt>
   <trkpt lat="51.8972530" lon="39.4831810">
    <ele>124.3</ele>
    <time>2017-03-26T11:03:59Z</time>
   </trkpt>
   <trkpt lat="51.8972320" lon="39.4831280">
    <ele>124.0</ele>
    <time>2017-03-26T11:04:00Z</time>
   </trkpt>
   <trkpt lat="51.8972100" lon="39.4830690">
    <ele>123.8</ele>
    <time>2017-03-26T11:04:01Z</time>
   </trkpt>
   <trkpt lat="51.8971920" lon="39.4830110">
    <ele>123.8</ele>
    <time>2017-03-26T11:04:02Z</time>
   </trkpt>
   <trkpt lat="51.8971720" lon="39.4829510">
    <ele>123.6</ele>
    <time>2017-03-26T11:04:03Z</time>
   </trkpt>
   <trkpt lat="51.8971510" lon="39.4828930">
    <ele>123.5</ele>
    <time>2017-03-26T11:04:04Z</time>
   </trkpt>
   <trkpt lat="51.8971320" lon="39.4828410">
    <ele>123.1</ele>
    <time>2017-03-26T11:04:05Z</time>
   </trkpt>
   <trkpt lat="51.8969690" lon="39.4822910">
    <ele>120.4</ele>
    <time>2017-03-26T11:04:14Z</time>
   </trkpt>
   <trkpt lat="51.8969020" lon="39.4821100">
    <ele>120.2</ele>
    <time>2017-03-26T11:04:17Z</time>
   </trkpt>
   <trkpt lat="51.8966850" lon="39.4816140">
    <ele>119.6</ele>
    <time>2017-03-26T11:04:26Z</time>
   </trkpt>
   <trkpt lat="51.8966380" lon="39.4814880">
    <ele>119.0</ele>
    <time>2017-03-26T11:04:28Z</time>
   </trkpt>
   <trkpt lat="51.8964180" lon="39.4811740">
    <ele>119.9</ele>
    <time>2017-03-26T11:04:35Z</time>
   </trkpt>
   <trkpt lat="51.8963040" lon="39.4810030">
    <ele>118.7</ele>
    <time>2017-03-26T11:04:38Z</time>
   </trkpt>
   <trkpt lat="51.8962610" lon="39.4809460">
    <ele>117.0</ele>
    <time>2017-03-26T11:04:39Z</time>
   </trkpt>
   <trkpt lat="51.8961350" lon="39.4807840">
    <ele>114.0</ele>
    <time>2017-03-26T11:04:42Z</time>
   </trkpt>
   <trkpt lat="51.8961020" lon="39.4807250">
    <ele>114.0</ele>
    <time>2017-03-26T11:04:43Z</time>
   </trkpt>
   <trkpt lat="51.8960810" lon="39.4806640">
    <ele>114.0</ele>
    <time>2017-03-26T11:04:44Z</time>
   </trkpt>
   <trkpt lat="51.8960700" lon="39.4806070">
    <ele>114.0</ele>
    <time>2017-03-26T11:04:45Z</time>
   </trkpt>
   <trkpt lat="51.8960700" lon="39.4805560">
    <ele>113.8</ele>
    <time>2017-03-26T11:04:46Z</time>
   </trkpt>
   <trkpt lat="51.8961060" lon="39.4804710">
    <ele>113.0</ele>
    <time>2017-03-26T11:04:48Z</time>
   </trkpt>
   <trkpt lat="51.8961370" lon="39.4804390">
    <ele>112.6</ele>
    <time>2017-03-26T11:04:49Z</time>
   </trkpt>
   <trkpt lat="51.8961720" lon="39.4804100">
    <ele>112.2</ele>
    <time>2017-03-26T11:04:50Z</time>
   </trkpt>
   <trkpt lat="51.8967460" lon="39.4797680">
    <ele>109.3</ele>
    <time>2017-03-26T11:05:06Z</time>
   </trkpt>
   <trkpt lat="51.8968600" lon="39.4796480">
    <ele>109.2</ele>
    <time>2017-03-26T11:05:09Z</time>
   </trkpt>
   <trkpt lat="51.8975270" lon="39.4789620">
    <ele>109.1</ele>
    <time>2017-03-26T11:05:25Z</time>
   </trkpt>
   <trkpt lat="51.8978610" lon="39.4786310">
    <ele>109.6</ele>
    <time>2017-03-26T11:05:36Z</time>
   </trkpt>
   <trkpt lat="51.8982080" lon="39.4782980">
    <ele>109.3</ele>
    <time>2017-03-26T11:05:53Z</time>
   </trkpt>
   <trkpt lat="51.8986190" lon="39.4778650">
    <ele>108.0</ele>
    <time>2017-03-26T11:06:10Z</time>
   </trkpt>
   <trkpt lat="51.8992770" lon="39.4774670">
    <ele>109.3</ele>
    <time>2017-03-26T11:06:27Z</time>
   </trkpt>
   <trkpt lat="51.9000830" lon="39.4769890">
    <ele>110.0</ele>
    <time>2017-03-26T11:06:45Z</time>
   </trkpt>
   <trkpt lat="51.9009430" lon="39.4763570">
    <ele>109.5</ele>
    <time>2017-03-26T11:07:04Z</time>
   </trkpt>
   <trkpt lat="51.9012390" lon="39.4757670">
    <ele>110.6</ele>
    <time>2017-03-26T11:07:13Z</time>
   </trkpt>
   <trkpt lat="51.9012590" lon="39.4756870">
    <ele>110.6</ele>
    <time>2017-03-26T11:07:14Z</time>
   </trkpt>
   <trkpt lat="51.9012720" lon="39.4756040">
    <ele>110.7</ele>
    <time>2017-03-26T11:07:15Z</time>
   </trkpt>
   <trkpt lat="51.9012770" lon="39.4755170">
    <ele>110.6</ele>
    <time>2017-03-26T11:07:16Z</time>
   </trkpt>
   <trkpt lat="51.9012760" lon="39.4754300">
    <ele>110.3</ele>
    <time>2017-03-26T11:07:17Z</time>
   </trkpt>
   <trkpt lat="51.9012680" lon="39.4753430">
    <ele>109.8</ele>
    <time>2017-03-26T11:07:18Z</time>
   </trkpt>
   <trkpt lat="51.9012560" lon="39.4752580">
    <ele>109.1</ele>
    <time>2017-03-26T11:07:19Z</time>
   </trkpt>
   <trkpt lat="51.9012420" lon="39.4751740">
    <ele>109.0</ele>
    <time>2017-03-26T11:07:20Z</time>
   </trkpt>
   <trkpt lat="51.9008740" lon="39.4740260">
    <ele>104.9</ele>
    <time>2017-03-26T11:07:36Z</time>
   </trkpt>
   <trkpt lat="51.9004800" lon="39.4730840">
    <ele>105.1</ele>
    <time>2017-03-26T11:07:54Z</time>
   </trkpt>
   <trkpt lat="51.9001590" lon="39.4724120">
    <ele>107.1</ele>
    <time>2017-03-26T11:08:07Z</time>
   </trkpt>
   <trkpt lat="51.8999370" lon="39.4719070">
    <ele>110.2</ele>
    <time>2017-03-26T11:08:20Z</time>
   </trkpt>
   <trkpt lat="51.8997650" lon="39.4712510">
    <ele>113.0</ele>
    <time>2017-03-26T11:08:37Z</time>
   </trkpt>
   <trkpt lat="51.8999270" lon="39.4704910">
    <ele>115.1</ele>
    <time>2017-03-26T11:08:52Z</time>
   </trkpt>
   <trkpt lat="51.9003020" lon="39.4692340">
    <ele>122.7</ele>
    <time>2017-03-26T11:09:11Z</time>
   </trkpt>
   <trkpt lat="51.9003210" lon="39.4691680">
    <ele>122.4</ele>
    <time>2017-03-26T11:09:12Z</time>
   </trkpt>
   <trkpt lat="51.9003350" lon="39.4690970">
    <ele>122.4</ele>
    <time>2017-03-26T11:09:13Z</time>
   </trkpt>
   <trkpt lat="51.9003620" lon="39.4689500">
    <ele>121.9</ele>
    <time>2017-03-26T11:09:15Z</time>
   </trkpt>
   <trkpt lat="51.9003810" lon="39.4688770">
    <ele>121.7</ele>
    <time>2017-03-26T11:09:16Z</time>
   </trkpt>
   <trkpt lat="51.9006730" lon="39.4677160">
    <ele>120.0</ele>
    <time>2017-03-26T11:09:31Z</time>
   </trkpt>
   <trkpt lat="51.9009670" lon="39.4664170">
    <ele>115.2</ele>
    <time>2017-03-26T11:09:48Z</time>
   </trkpt>
   <trkpt lat="51.9013230" lon="39.4649980">
    <ele>120.4</ele>
    <time>2017-03-26T11:10:07Z</time>
   </trkpt>
   <trkpt lat="51.9014160" lon="39.4646240">
    <ele>118.9</ele>
    <time>2017-03-26T11:10:12Z</time>
   </trkpt>
   <trkpt lat="51.9017660" lon="39.4630540">
    <ele>118.8</ele>
    <time>2017-03-26T11:10:33Z</time>
   </trkpt>
   <trkpt lat="51.9019220" lon="39.4614880">
    <ele>120.0</ele>
    <time>2017-03-26T11:10:54Z</time>
   </trkpt>
   <trkpt lat="51.9019220" lon="39.4614210">
    <ele>120.0</ele>
    <time>2017-03-26T11:10:55Z</time>
   </trkpt>
   <trkpt lat="51.9019180" lon="39.4613570">
    <ele>120.0</ele>
    <time>2017-03-26T11:10:56Z</time>
   </trkpt>
   <trkpt lat="51.9019130" lon="39.4612950">
    <ele>120.0</ele>
    <time>2017-03-26T11:10:57Z</time>
   </trkpt>
   <trkpt lat="51.9019050" lon="39.4612310">
    <ele>120.0</ele>
    <time>2017-03-26T11:10:58Z</time>
   </trkpt>
   <trkpt lat="51.9018910" lon="39.4611680">
    <ele>120.0</ele>
    <time>2017-03-26T11:10:59Z</time>
   </trkpt>
   <trkpt lat="51.9018700" lon="39.4611090">
    <ele>119.9</ele>
    <time>2017-03-26T11:11:00Z</time>
   </trkpt>
   <trkpt lat="51.9018440" lon="39.4610540">
    <ele>119.9</ele>
    <time>2017-03-26T11:11:01Z</time>
   </trkpt>
   <trkpt lat="51.9018140" lon="39.4609990">
    <ele>120.0</ele>
    <time>2017-03-26T11:11:02Z</time>
   </trkpt>
   <trkpt lat="51.9012200" lon="39.4599890">
    <ele>126.2</ele>
    <time>2017-03-26T11:11:21Z</time>
   </trkpt>
   <trkpt lat="51.9008170" lon="39.4595440">
    <ele>126.4</ele>
    <time>2017-03-26T11:11:32Z</time>
   </trkpt>
   <trkpt lat="51.9003160" lon="39.4589750">
    <ele>129.7</ele>
    <time>2017-03-26T11:11:46Z</time>
   </trkpt>
   <trkpt lat="51.8999400" lon="39.4585310">
    <ele>130.0</ele>
    <time>2017-03-26T11:11:57Z</time>
   </trkpt>
   <trkpt lat="51.8994710" lon="39.4579380">
    <ele>130.6</ele>
    <time>2017-03-26T11:12:11Z</time>
   </trkpt>
   <trkpt lat="51.8989650" lon="39.4573560">
    <ele>129.5</ele>
    <time>2017-03-26T11:12:25Z</time>
   </trkpt>
   <trkpt lat="51.8988810" lon="39.4572540">
    <ele>128.8</ele>
    <time>2017-03-26T11:12:27Z</time>
   </trkpt>
   <trkpt lat="51.8987610" lon="39.4569600">
    <ele>129.0</ele>
    <time>2017-03-26T11:12:32Z</time>
   </trkpt>
   <trkpt lat="51.8987160" lon="39.4565920">
    <ele>129.9</ele>
    <time>2017-03-26T11:12:37Z</time>
   </trkpt>
   <trkpt lat="51.8987180" lon="39.4560150">
    <ele>135.8</ele>
    <time>2017-03-26T11:12:44Z</time>
   </trkpt>
   <trkpt lat="51.8986870" lon="39.4557910">
    <ele>137.0</ele>
    <time>2017-03-26T11:12:47Z</time>
   </trkpt>
   <trkpt lat="51.8986570" lon="39.4557370">
    <ele>137.0</ele>
    <time>2017-03-26T11:12:48Z</time>
   </trkpt>
   <trkpt lat="51.8986210" lon="39.4556900">
    <ele>137.3</ele>
    <time>2017-03-26T11:12:49Z</time>
   </trkpt>
   <trkpt lat="51.8985830" lon="39.4556570">
    <ele>137.7</ele>
    <time>2017-03-26T11:12:50Z</time>
   </trkpt>
   <trkpt lat="51.8985400" lon="39.4556320">
    <ele>138.2</ele>
    <time>2017-03-26T11:12:51Z</time>
   </trkpt>
   <trkpt lat="51.8984950" lon="39.4556100">
    <ele>138.6</ele>
    <time>2017-03-26T11:12:52Z</time>
   </trkpt>
   <trkpt lat="51.8984520" lon="39.4555920">
    <ele>139.1</ele>
    <time>2017-03-26T11:12:53Z</time>
   </trkpt>
   <trkpt lat="51.8979640" lon="39.4552810">
    <ele>138.0</ele>
    <time>2017-03-26T11:13:05Z</time>
   </trkpt>
   <trkpt lat="51.8978930" lon="39.4552350">
    <ele>137.0</ele>
    <time>2017-03-26T11:13:07Z</time>
   </trkpt>
   <trkpt lat="51.8975550" lon="39.4550660">
    <ele>132.0</ele>
    <time>2017-03-26T11:13:14Z</time>
   </trkpt>
   <trkpt lat="51.8975020" lon="39.4550470">
    <ele>131.1</ele>
    <time>2017-03-26T11:13:15Z</time>
   </trkpt>
   <trkpt lat="51.8969460" lon="39.4547560">
    <ele>121.3</ele>
    <time>2017-03-26T11:13:27Z</time>
   </trkpt>
   <trkpt lat="51.8964750" lon="39.4545050">
    <ele>121.0</ele>
    <time>2017-03-26T11:13:38Z</time>
   </trkpt>
   <trkpt lat="51.8961770" lon="39.4543580">
    <ele>123.5</ele>
    <time>2017-03-26T11:13:44Z</time>
   </trkpt>
   <trkpt lat="51.8961180" lon="39.4543380">
    <ele>124.7</ele>
    <time>2017-03-26T11:13:45Z</time>
   </trkpt>
   <trkpt lat="51.8960160" lon="39.4543030">
    <ele>127.1</ele>
    <time>2017-03-26T11:13:47Z</time>
   </trkpt>
   <trkpt lat="51.8959660" lon="39.4542870">
    <ele>128.8</ele>
    <time>2017-03-26T11:13:48Z</time>
   </trkpt>
   <trkpt lat="51.8959150" lon="39.4542730">
    <ele>130.5</ele>
    <time>2017-03-26T11:13:49Z</time>
   </trkpt>
   <trkpt lat="51.8955020" lon="39.4541280">
    <ele>135.3</ele>
    <time>2017-03-26T11:13:59Z</time>
   </trkpt>
   <trkpt lat="51.8951240" lon="39.4539790">
    <ele>134.4</ele>
    <time>2017-03-26T11:14:08Z</time>
   </trkpt>
   <trkpt lat="51.8950160" lon="39.4539570">
    <ele>134.6</ele>
    <time>2017-03-26T11:14:10Z</time>
   </trkpt>
   <trkpt lat="51.8944670" lon="39.4538460">
    <ele>130.8</ele>
    <time>2017-03-26T11:14:21Z</time>
   </trkpt>
   <trkpt lat="51.8942460" lon="39.4536010">
    <ele>128.7</ele>
    <time>2017-03-26T11:14:27Z</time>
   </trkpt>
   <trkpt lat="51.8942240" lon="39.4535380">
    <ele>128.5</ele>
    <time>2017-03-26T11:14:28Z</time>
   </trkpt>
   <trkpt lat="51.8942160" lon="39.4534750">
    <ele>128.1</ele>
    <time>2017-03-26T11:14:29Z</time>
   </trkpt>
   <trkpt lat="51.8942190" lon="39.4534080">
    <ele>128.2</ele>
    <time>2017-03-26T11:14:30Z</time>
   </trkpt>
   <trkpt lat="51.8942280" lon="39.4533410">
    <ele>128.1</ele>
    <time>2017-03-26T11:14:31Z</time>
   </trkpt>
   <trkpt lat="51.8942370" lon="39.4532810">
    <ele>128.0</ele>
    <time>2017-03-26T11:14:32Z</time>
   </trkpt>
   <trkpt lat="51.8942820" lon="39.4529420">
    <ele>127.7</ele>
    <time>2017-03-26T11:14:37Z</time>
   </trkpt>
   <trkpt lat="51.8943360" lon="39.4525950">
    <ele>128.2</ele>
    <time>2017-03-26T11:14:42Z</time>
   </trkpt>
   <trkpt lat="51.8943850" lon="39.4523670">
    <ele>128.8</ele>
    <time>2017-03-26T11:14:45Z</time>
   </trkpt>
   <trkpt lat="51.8943990" lon="39.4522860">
    <ele>129.1</ele>
    <time>2017-03-26T11:14:46Z</time>
   </trkpt>
   <trkpt lat="51.8944130" lon="39.4522000">
    <ele>129.6</ele>
    <time>2017-03-26T11:14:47Z</time>
   </trkpt>
   <trkpt lat="51.8944410" lon="39.4520210">
    <ele>130.7</ele>
    <time>2017-03-26T11:14:49Z</time>
   </trkpt>
   <trkpt lat="51.8945510" lon="39.4514600">
    <ele>134.4</ele>
    <time>2017-03-26T11:14:57Z</time>
   </trkpt>
   <trkpt lat="51.8947040" lon="39.4506920">
    <ele>137.0</ele>
    <time>2017-03-26T11:15:08Z</time>
   </trkpt>
   <trkpt lat="51.8948210" lon="39.4499010">
    <ele>136.1</ele>
    <time>2017-03-26T11:15:19Z</time>
   </trkpt>
   <trkpt lat="51.8949710" lon="39.4491680">
    <ele>134.0</ele>
    <time>2017-03-26T11:15:29Z</time>
   </trkpt>
   <trkpt lat="51.8949990" lon="39.4490660">
    <ele>133.7</ele>
    <time>2017-03-26T11:15:30Z</time>
   </trkpt>
   <trkpt lat="51.8950200" lon="39.4489720">
    <ele>133.3</ele>
    <time>2017-03-26T11:15:31Z</time>
   </trkpt>
   <trkpt lat="51.8951790" lon="39.4480970">
    <ele>133.5</ele>
    <time>2017-03-26T11:15:42Z</time>
   </trkpt>
   <trkpt lat="51.8951930" lon="39.4480250">
    <ele>133.6</ele>
    <time>2017-03-26T11:15:43Z</time>
   </trkpt>
   <trkpt lat="51.8953780" lon="39.4470830">
    <ele>134.9</ele>
    <time>2017-03-26T11:15:55Z</time>
   </trkpt>
   <trkpt lat="51.8954060" lon="39.4469420">
    <ele>135.1</ele>
    <time>2017-03-26T11:15:57Z</time>
   </trkpt>
   <trkpt lat="51.8954170" lon="39.4468750">
    <ele>135.1</ele>
    <time>2017-03-26T11:15:58Z</time>
   </trkpt>
   <trkpt lat="51.8954260" lon="39.4468000">
    <ele>135.1</ele>
    <time>2017-03-26T11:15:59Z</time>
   </trkpt>
   <trkpt lat="51.8954380" lon="39.4467270">
    <ele>135.0</ele>
    <time>2017-03-26T11:16:00Z</time>
   </trkpt>
   <trkpt lat="51.8954500" lon="39.4466560">
    <ele>135.1</ele>
    <time>2017-03-26T11:16:01Z</time>
   </trkpt>
   <trkpt lat="51.8955990" lon="39.4458820">
    <ele>135.8</ele>
    <time>2017-03-26T11:16:12Z</time>
   </trkpt>
   <trkpt lat="51.8956180" lon="39.4458080">
    <ele>135.7</ele>
    <time>2017-03-26T11:16:13Z</time>
   </trkpt>
   <trkpt lat="51.8956640" lon="39.4455920">
    <ele>135.3</ele>
    <time>2017-03-26T11:16:16Z</time>
   </trkpt>
   <trkpt lat="51.8957330" lon="39.4451910">
    <ele>133.8</ele>
    <time>2017-03-26T11:16:21Z</time>
   </trkpt>
   <trkpt lat="51.8958710" lon="39.4443030">
    <ele>133.5</ele>
    <time>2017-03-26T11:16:31Z</time>
   </trkpt>
   <trkpt lat="51.8958830" lon="39.4442220">
    <ele>133.5</ele>
    <time>2017-03-26T11:16:32Z</time>
   </trkpt>
   <trkpt lat="51.8958950" lon="39.4441450">
    <ele>133.5</ele>
    <time>2017-03-26T11:16:33Z</time>
   </trkpt>
   <trkpt lat="51.8959080" lon="39.4440630">
    <ele>133.6</ele>
    <time>2017-03-26T11:16:34Z</time>
   </trkpt>
   <trkpt lat="51.8959240" lon="39.4439800">
    <ele>133.7</ele>
    <time>2017-03-26T11:16:35Z</time>
   </trkpt>
   <trkpt lat="51.8960570" lon="39.4433790">
    <ele>133.0</ele>
    <time>2017-03-26T11:16:42Z</time>
   </trkpt>
   <trkpt lat="51.8960760" lon="39.4433140">
    <ele>132.6</ele>
    <time>2017-03-26T11:16:43Z</time>
   </trkpt>
   <trkpt lat="51.8961080" lon="39.4431760">
    <ele>132.4</ele>
    <time>2017-03-26T11:16:45Z</time>
   </trkpt>
   <trkpt lat="51.8961440" lon="39.4429390">
    <ele>132.0</ele>
    <time>2017-03-26T11:16:48Z</time>
   </trkpt>
   <trkpt lat="51.8961580" lon="39.4428570">
    <ele>131.7</ele>
    <time>2017-03-26T11:16:49Z</time>
   </trkpt>
   <trkpt lat="51.8961870" lon="39.4426950">
    <ele>131.2</ele>
    <time>2017-03-26T11:16:51Z</time>
   </trkpt>
   <trkpt lat="51.8962030" lon="39.4426230">
    <ele>131.0</ele>
    <time>2017-03-26T11:16:52Z</time>
   </trkpt>
   <trkpt lat="51.8963330" lon="39.4420470">
    <ele>129.7</ele>
    <time>2017-03-26T11:17:00Z</time>
   </trkpt>
   <trkpt lat="51.8964010" lon="39.4416380">
    <ele>129.0</ele>
    <time>2017-03-26T11:17:05Z</time>
   </trkpt>
   <trkpt lat="51.8964410" lon="39.4413910">
    <ele>128.8</ele>
    <time>2017-03-26T11:17:08Z</time>
   </trkpt>
   <trkpt lat="51.8965050" lon="39.4410550">
    <ele>128.1</ele>
    <time>2017-03-26T11:17:12Z</time>
   </trkpt>
   <trkpt lat="51.8965840" lon="39.4407610">
    <ele>129.0</ele>
    <time>2017-03-26T11:17:16Z</time>
   </trkpt>
   <trkpt lat="51.8966030" lon="39.4404760">
    <ele>130.8</ele>
    <time>2017-03-26T11:17:20Z</time>
   </trkpt>
   <trkpt lat="51.8965830" lon="39.4403350">
    <ele>131.6</ele>
    <time>2017-03-26T11:17:22Z</time>
   </trkpt>
   <trkpt lat="51.8965010" lon="39.4401490">
    <ele>133.1</ele>
    <time>2017-03-26T11:17:25Z</time>
   </trkpt>
   <trkpt lat="51.8964580" lon="39.4401100">
    <ele>133.4</ele>
    <time>2017-03-26T11:17:26Z</time>
   </trkpt>
   <trkpt lat="51.8964170" lon="39.4400780">
    <ele>133.8</ele>
    <time>2017-03-26T11:17:27Z</time>
   </trkpt>
   <trkpt lat="51.8963780" lon="39.4400500">
    <ele>134.1</ele>
    <time>2017-03-26T11:17:28Z</time>
   </trkpt>
   <trkpt lat="51.8963350" lon="39.4400150">
    <ele>134.4</ele>
    <time>2017-03-26T11:17:29Z</time>
   </trkpt>
   <trkpt lat="51.8962970" lon="39.4399820">
    <ele>134.5</ele>
    <time>2017-03-26T11:17:30Z</time>
   </trkpt>
   <trkpt lat="51.8961200" lon="39.4398610">
    <ele>135.6</ele>
    <time>2017-03-26T11:17:34Z</time>
   </trkpt>
   <trkpt lat="51.8960750" lon="39.4398310">
    <ele>136.0</ele>
    <time>2017-03-26T11:17:35Z</time>
   </trkpt>
   <trkpt lat="51.8956400" lon="39.4395830">
    <ele>138.5</ele>
    <time>2017-03-26T11:17:44Z</time>
   </trkpt>
   <trkpt lat="51.8954090" lon="39.4394750">
    <ele>139.0</ele>
    <time>2017-03-26T11:17:49Z</time>
   </trkpt>
   <trkpt lat="51.8948940" lon="39.4392400">
    <ele>139.6</ele>
    <time>2017-03-26T11:18:00Z</time>
   </trkpt>
   <trkpt lat="51.8946710" lon="39.4391150">
    <ele>139.3</ele>
    <time>2017-03-26T11:18:05Z</time>
   </trkpt>
   <trkpt lat="51.8945800" lon="39.4390580">
    <ele>138.9</ele>
    <time>2017-03-26T11:18:07Z</time>
   </trkpt>
   <trkpt lat="51.8945350" lon="39.4390320">
    <ele>138.6</ele>
    <time>2017-03-26T11:18:08Z</time>
   </trkpt>
   <trkpt lat="51.8944920" lon="39.4390060">
    <ele>138.3</ele>
    <time>2017-03-26T11:18:09Z</time>
   </trkpt>
   <trkpt lat="51.8944030" lon="39.4389750">
    <ele>137.6</ele>
    <time>2017-03-26T11:18:11Z</time>
   </trkpt>
   <trkpt lat="51.8938620" lon="39.4387570">
    <ele>134.8</ele>
    <time>2017-03-26T11:18:23Z</time>
   </trkpt>
   <trkpt lat="51.8933610" lon="39.4384930">
    <ele>131.1</ele>
    <time>2017-03-26T11:18:34Z</time>
   </trkpt>
   <trkpt lat="51.8932180" lon="39.4384250">
    <ele>130.1</ele>
    <time>2017-03-26T11:18:37Z</time>
   </trkpt>
   <trkpt lat="51.8931180" lon="39.4383850">
    <ele>130.0</ele>
    <time>2017-03-26T11:18:39Z</time>
   </trkpt>
   <trkpt lat="51.8930650" lon="39.4383570">
    <ele>130.1</ele>
    <time>2017-03-26T11:18:40Z</time>
   </trkpt>
   <trkpt lat="51.8930120" lon="39.4383260">
    <ele>130.3</ele>
    <time>2017-03-26T11:18:41Z</time>
   </trkpt>
   <trkpt lat="51.8928220" lon="39.4382450">
    <ele>130.7</ele>
    <time>2017-03-26T11:18:45Z</time>
   </trkpt>
   <trkpt lat="51.8925050" lon="39.4380590">
    <ele>128.7</ele>
    <time>2017-03-26T11:18:52Z</time>
   </trkpt>
   <trkpt lat="51.8924700" lon="39.4380090">
    <ele>128.1</ele>
    <time>2017-03-26T11:18:53Z</time>
   </trkpt>
   <trkpt lat="51.8924390" lon="39.4379610">
    <ele>127.7</ele>
    <time>2017-03-26T11:18:54Z</time>
   </trkpt>
   <trkpt lat="51.8923590" lon="39.4376560">
    <ele>126.6</ele>
    <time>2017-03-26T11:19:01Z</time>
   </trkpt>
   <trkpt lat="51.8923430" lon="39.4374790">
    <ele>128.2</ele>
    <time>2017-03-26T11:19:04Z</time>
   </trkpt>
   <trkpt lat="51.8922770" lon="39.4370810">
    <ele>130.3</ele>
    <time>2017-03-26T11:19:09Z</time>
   </trkpt>
   <trkpt lat="51.8922800" lon="39.4370230">
    <ele>130.7</ele>
    <time>2017-03-26T11:19:10Z</time>
   </trkpt>
   <trkpt lat="51.8923830" lon="39.4362750">
    <ele>136.4</ele>
    <time>2017-03-26T11:19:22Z</time>
   </trkpt>
   <trkpt lat="51.8923940" lon="39.4362080">
    <ele>136.5</ele>
    <time>2017-03-26T11:19:23Z</time>
   </trkpt>
   <trkpt lat="51.8924070" lon="39.4361290">
    <ele>136.5</ele>
    <time>2017-03-26T11:19:24Z</time>
   </trkpt>
   <trkpt lat="51.8925260" lon="39.4355640">
    <ele>136.8</ele>
    <time>2017-03-26T11:19:33Z</time>
   </trkpt>
   <trkpt lat="51.8926400" lon="39.4349090">
    <ele>136.8</ele>
    <time>2017-03-26T11:19:42Z</time>
   </trkpt>
   <trkpt lat="51.8927090" lon="39.4344000">
    <ele>134.3</ele>
    <time>2017-03-26T11:19:48Z</time>
   </trkpt>
   <trkpt lat="51.8928130" lon="39.4339370">
    <ele>131.1</ele>
    <time>2017-03-26T11:19:54Z</time>
   </trkpt>
   <trkpt lat="51.8929030" lon="39.4334260">
    <ele>132.5</ele>
    <time>2017-03-26T11:20:04Z</time>
   </trkpt>
   <trkpt lat="51.8929190" lon="39.4332780">
    <ele>133.1</ele>
    <time>2017-03-26T11:20:09Z</time>
   </trkpt>
   <trkpt lat="51.8930310" lon="39.4328440">
    <ele>134.4</ele>
    <time>2017-03-26T11:20:16Z</time>
   </trkpt>
   <trkpt lat="51.8930530" lon="39.4327860">
    <ele>134.6</ele>
    <time>2017-03-26T11:20:17Z</time>
   </trkpt>
   <trkpt lat="51.8930700" lon="39.4327360">
    <ele>134.7</ele>
    <time>2017-03-26T11:20:18Z</time>
   </trkpt>
   <trkpt lat="51.8930800" lon="39.4326760">
    <ele>134.9</ele>
    <time>2017-03-26T11:20:19Z</time>
   </trkpt>
   <trkpt lat="51.8930900" lon="39.4326110">
    <ele>135.0</ele>
    <time>2017-03-26T11:20:20Z</time>
   </trkpt>
   <trkpt lat="51.8931030" lon="39.4325370">
    <ele>135.0</ele>
    <time>2017-03-26T11:20:21Z</time>
   </trkpt>
   <trkpt lat="51.8931080" lon="39.4324540">
    <ele>135.0</ele>
    <time>2017-03-26T11:20:22Z</time>
   </trkpt>
   <trkpt lat="51.8931170" lon="39.4323860">
    <ele>135.0</ele>
    <time>2017-03-26T11:20:23Z</time>
   </trkpt>
   <trkpt lat="51.8931290" lon="39.4323200">
    <ele>135.0</ele>
    <time>2017-03-26T11:20:24Z</time>
   </trkpt>
   <trkpt lat="51.8931980" lon="39.4319060">
    <ele>135.4</ele>
    <time>2017-03-26T11:20:30Z</time>
   </trkpt>
   <trkpt lat="51.8932140" lon="39.4318380">
    <ele>135.5</ele>
    <time>2017-03-26T11:20:31Z</time>
   </trkpt>
   <trkpt lat="51.8932290" lon="39.4317650">
    <ele>135.5</ele>
    <time>2017-03-26T11:20:32Z</time>
   </trkpt>
   <trkpt lat="51.8932430" lon="39.4316890">
    <ele>135.4</ele>
    <time>2017-03-26T11:20:33Z</time>
   </trkpt>
   <trkpt lat="51.8932630" lon="39.4316130">
    <ele>135.0</ele>
    <time>2017-03-26T11:20:34Z</time>
   </trkpt>
   <trkpt lat="51.8932840" lon="39.4315380">
    <ele>134.5</ele>
    <time>2017-03-26T11:20:35Z</time>
   </trkpt>
   <trkpt lat="51.8934130" lon="39.4308070">
    <ele>132.9</ele>
    <time>2017-03-26T11:20:45Z</time>
   </trkpt>
   <trkpt lat="51.8935550" lon="39.4300970">
    <ele>133.0</ele>
    <time>2017-03-26T11:20:54Z</time>
   </trkpt>
   <trkpt lat="51.8935650" lon="39.4300210">
    <ele>132.8</ele>
    <time>2017-03-26T11:20:55Z</time>
   </trkpt>
   <trkpt lat="51.8935790" lon="39.4299420">
    <ele>132.2</ele>
    <time>2017-03-26T11:20:56Z</time>
   </trkpt>
   <trkpt lat="51.8935940" lon="39.4298580">
    <ele>131.5</ele>
    <time>2017-03-26T11:20:57Z</time>
   </trkpt>
   <trkpt lat="51.8936080" lon="39.4297650">
    <ele>130.6</ele>
    <time>2017-03-26T11:20:58Z</time>
   </trkpt>
   <trkpt lat="51.8936380" lon="39.4295870">
    <ele>129.7</ele>
    <time>2017-03-26T11:21:00Z</time>
   </trkpt>
   <trkpt lat="51.8936490" lon="39.4295010">
    <ele>129.4</ele>
    <time>2017-03-26T11:21:01Z</time>
   </trkpt>
   <trkpt lat="51.8937370" lon="39.4290190">
    <ele>127.7</ele>
    <time>2017-03-26T11:21:07Z</time>
   </trkpt>
   <trkpt lat="51.8937520" lon="39.4289460">
    <ele>127.8</ele>
    <time>2017-03-26T11:21:08Z</time>
   </trkpt>
   <trkpt lat="51.8937690" lon="39.4288750">
    <ele>128.0</ele>
    <time>2017-03-26T11:21:09Z</time>
   </trkpt>
   <trkpt lat="51.8937870" lon="39.4288040">
    <ele>128.4</ele>
    <time>2017-03-26T11:21:10Z</time>
   </trkpt>
   <trkpt lat="51.8938000" lon="39.4287260">
    <ele>128.7</ele>
    <time>2017-03-26T11:21:11Z</time>
   </trkpt>
   <trkpt lat="51.8938070" lon="39.4286460">
    <ele>129.1</ele>
    <time>2017-03-26T11:21:12Z</time>
   </trkpt>
   <trkpt lat="51.8938370" lon="39.4284870">
    <ele>129.6</ele>
    <time>2017-03-26T11:21:14Z</time>
   </trkpt>
   <trkpt lat="51.8938530" lon="39.4284020">
    <ele>130.0</ele>
    <time>2017-03-26T11:21:15Z</time>
   </trkpt>
   <trkpt lat="51.8938710" lon="39.4283250">
    <ele>130.3</ele>
    <time>2017-03-26T11:21:16Z</time>
   </trkpt>
   <trkpt lat="51.8939080" lon="39.4281540">
    <ele>131.1</ele>
    <time>2017-03-26T11:21:18Z</time>
   </trkpt>
   <trkpt lat="51.8939260" lon="39.4280630">
    <ele>131.5</ele>
    <time>2017-03-26T11:21:19Z</time>
   </trkpt>
   <trkpt lat="51.8939610" lon="39.4278750">
    <ele>131.8</ele>
    <time>2017-03-26T11:21:21Z</time>
   </trkpt>
   <trkpt lat="51.8939970" lon="39.4277140">
    <ele>131.8</ele>
    <time>2017-03-26T11:21:23Z</time>
   </trkpt>
   <trkpt lat="51.8940920" lon="39.4273290">
    <ele>131.1</ele>
    <time>2017-03-26T11:21:28Z</time>
   </trkpt>
   <trkpt lat="51.8941070" lon="39.4272420">
    <ele>130.8</ele>
    <time>2017-03-26T11:21:29Z</time>
   </trkpt>
   <trkpt lat="51.8941300" lon="39.4270810">
    <ele>130.6</ele>
    <time>2017-03-26T11:21:31Z</time>
   </trkpt>
   <trkpt lat="51.8941490" lon="39.4270060">
    <ele>130.6</ele>
    <time>2017-03-26T11:21:32Z</time>
   </trkpt>
   <trkpt lat="51.8941700" lon="39.4269400">
    <ele>130.6</ele>
    <time>2017-03-26T11:21:33Z</time>
   </trkpt>
   <trkpt lat="51.8941890" lon="39.4268560">
    <ele>130.8</ele>
    <time>2017-03-26T11:21:34Z</time>
   </trkpt>
   <trkpt lat="51.8942080" lon="39.4267750">
    <ele>131.0</ele>
    <time>2017-03-26T11:21:35Z</time>
   </trkpt>
   <trkpt lat="51.8942270" lon="39.4266870">
    <ele>131.3</ele>
    <time>2017-03-26T11:21:36Z</time>
   </trkpt>
   <trkpt lat="51.8942390" lon="39.4265970">
    <ele>131.5</ele>
    <time>2017-03-26T11:21:37Z</time>
   </trkpt>
   <trkpt lat="51.8942530" lon="39.4265000">
    <ele>131.7</ele>
    <time>2017-03-26T11:21:38Z</time>
   </trkpt>
   <trkpt lat="51.8942680" lon="39.4264100">
    <ele>131.8</ele>
    <time>2017-03-26T11:21:39Z</time>
   </trkpt>
   <trkpt lat="51.8942770" lon="39.4263150">
    <ele>131.9</ele>
    <time>2017-03-26T11:21:40Z</time>
   </trkpt>
   <trkpt lat="51.8942870" lon="39.4262220">
    <ele>132.0</ele>
    <time>2017-03-26T11:21:41Z</time>
   </trkpt>
   <trkpt lat="51.8943010" lon="39.4261360">
    <ele>132.1</ele>
    <time>2017-03-26T11:21:42Z</time>
   </trkpt>
   <trkpt lat="51.8943180" lon="39.4260530">
    <ele>132.2</ele>
    <time>2017-03-26T11:21:43Z</time>
   </trkpt>
   <trkpt lat="51.8943360" lon="39.4259770">
    <ele>132.3</ele>
    <time>2017-03-26T11:21:44Z</time>
   </trkpt>
   <trkpt lat="51.8943540" lon="39.4258980">
    <ele>132.4</ele>
    <time>2017-03-26T11:21:45Z</time>
   </trkpt>
   <trkpt lat="51.8943710" lon="39.4258200">
    <ele>132.6</ele>
    <time>2017-03-26T11:21:46Z</time>
   </trkpt>
   <trkpt lat="51.8943890" lon="39.4257440">
    <ele>132.8</ele>
    <time>2017-03-26T11:21:47Z</time>
   </trkpt>
   <trkpt lat="51.8944070" lon="39.4256680">
    <ele>132.8</ele>
    <time>2017-03-26T11:21:48Z</time>
   </trkpt>
   <trkpt lat="51.8944200" lon="39.4255900">
    <ele>132.9</ele>
    <time>2017-03-26T11:21:49Z</time>
   </trkpt>
   <trkpt lat="51.8944390" lon="39.4254280">
    <ele>132.6</ele>
    <time>2017-03-26T11:21:51Z</time>
   </trkpt>
   <trkpt lat="51.8944510" lon="39.4253440">
    <ele>132.3</ele>
    <time>2017-03-26T11:21:52Z</time>
   </trkpt>
   <trkpt lat="51.8945100" lon="39.4250200">
    <ele>131.5</ele>
    <time>2017-03-26T11:21:56Z</time>
   </trkpt>
   <trkpt lat="51.8945630" lon="39.4246230">
    <ele>129.4</ele>
    <time>2017-03-26T11:22:01Z</time>
   </trkpt>
   <trkpt lat="51.8945870" lon="39.4244260">
    <ele>128.6</ele>
    <time>2017-03-26T11:22:03Z</time>
   </trkpt>
   <trkpt lat="51.8947550" lon="39.4237010">
    <ele>125.3</ele>
    <time>2017-03-26T11:22:12Z</time>
   </trkpt>
   <trkpt lat="51.8947760" lon="39.4236260">
    <ele>125.3</ele>
    <time>2017-03-26T11:22:13Z</time>
   </trkpt>
   <trkpt lat="51.8947950" lon="39.4235500">
    <ele>125.4</ele>
    <time>2017-03-26T11:22:14Z</time>
   </trkpt>
   <trkpt lat="51.8948140" lon="39.4234740">
    <ele>125.6</ele>
    <time>2017-03-26T11:22:15Z</time>
   </trkpt>
   <trkpt lat="51.8948290" lon="39.4233990">
    <ele>126.0</ele>
    <time>2017-03-26T11:22:16Z</time>
   </trkpt>
   <trkpt lat="51.8948420" lon="39.4233190">
    <ele>126.4</ele>
    <time>2017-03-26T11:22:17Z</time>
   </trkpt>
   <trkpt lat="51.8948590" lon="39.4232430">
    <ele>126.8</ele>
    <time>2017-03-26T11:22:18Z</time>
   </trkpt>
   <trkpt lat="51.8948690" lon="39.4231670">
    <ele>127.0</ele>
    <time>2017-03-26T11:22:19Z</time>
   </trkpt>
   <trkpt lat="51.8948760" lon="39.4230890">
    <ele>127.0</ele>
    <time>2017-03-26T11:22:20Z</time>
   </trkpt>
   <trkpt lat="51.8948820" lon="39.4230130">
    <ele>127.2</ele>
    <time>2017-03-26T11:22:21Z</time>
   </trkpt>
   <trkpt lat="51.8948930" lon="39.4229520">
    <ele>127.3</ele>
    <time>2017-03-26T11:22:22Z</time>
   </trkpt>
   <trkpt lat="51.8949050" lon="39.4228930">
    <ele>127.4</ele>
    <time>2017-03-26T11:22:23Z</time>
   </trkpt>
   <trkpt lat="51.8949190" lon="39.4228260">
    <ele>127.5</ele>
    <time>2017-03-26T11:22:24Z</time>
   </trkpt>
   <trkpt lat="51.8949310" lon="39.4227530">
    <ele>127.5</ele>
    <time>2017-03-26T11:22:25Z</time>
   </trkpt>
   <trkpt lat="51.8951000" lon="39.4218990">
    <ele>127.2</ele>
    <time>2017-03-26T11:22:36Z</time>
   </trkpt>
   <trkpt lat="51.8951810" lon="39.4214530">
    <ele>126.5</ele>
    <time>2017-03-26T11:22:41Z</time>
   </trkpt>
   <trkpt lat="51.8951990" lon="39.4213720">
    <ele>126.4</ele>
    <time>2017-03-26T11:22:42Z</time>
   </trkpt>
   <trkpt lat="51.8952400" lon="39.4211310">
    <ele>126.2</ele>
    <time>2017-03-26T11:22:45Z</time>
   </trkpt>
   <trkpt lat="51.8952530" lon="39.4210440">
    <ele>126.0</ele>
    <time>2017-03-26T11:22:46Z</time>
   </trkpt>
   <trkpt lat="51.8952630" lon="39.4209480">
    <ele>125.7</ele>
    <time>2017-03-26T11:22:47Z</time>
   </trkpt>
   <trkpt lat="51.8952750" lon="39.4208670">
    <ele>125.4</ele>
    <time>2017-03-26T11:22:48Z</time>
   </trkpt>
   <trkpt lat="51.8952890" lon="39.4207840">
    <ele>125.2</ele>
    <time>2017-03-26T11:22:49Z</time>
   </trkpt>
   <trkpt lat="51.8953000" lon="39.4206930">
    <ele>124.9</ele>
    <time>2017-03-26T11:22:50Z</time>
   </trkpt>
   <trkpt lat="51.8953130" lon="39.4206140">
    <ele>124.7</ele>
    <time>2017-03-26T11:22:51Z</time>
   </trkpt>
   <trkpt lat="51.8953590" lon="39.4203440">
    <ele>123.8</ele>
    <time>2017-03-26T11:22:54Z</time>
   </trkpt>
   <trkpt lat="51.8954470" lon="39.4199190">
    <ele>123.7</ele>
    <time>2017-03-26T11:22:59Z</time>
   </trkpt>
   <trkpt lat="51.8955290" lon="39.4195420">
    <ele>124.0</ele>
    <time>2017-03-26T11:23:03Z</time>
   </trkpt>
   <trkpt lat="51.8956760" lon="39.4189050">
    <ele>125.0</ele>
    <time>2017-03-26T11:23:12Z</time>
   </trkpt>
   <trkpt lat="51.8958160" lon="39.4181180">
    <ele>124.2</ele>
    <time>2017-03-26T11:23:22Z</time>
   </trkpt>
   <trkpt lat="51.8958660" lon="39.4177960">
    <ele>124.3</ele>
    <time>2017-03-26T11:23:26Z</time>
   </trkpt>
   <trkpt lat="51.8958830" lon="39.4177090">
    <ele>124.2</ele>
    <time>2017-03-26T11:23:27Z</time>
   </trkpt>
   <trkpt lat="51.8959010" lon="39.4176160">
    <ele>123.9</ele>
    <time>2017-03-26T11:23:28Z</time>
   </trkpt>
   <trkpt lat="51.8959160" lon="39.4175250">
    <ele>123.5</ele>
    <time>2017-03-26T11:23:29Z</time>
   </trkpt>
   <trkpt lat="51.8959320" lon="39.4174390">
    <ele>123.0</ele>
    <time>2017-03-26T11:23:30Z</time>
   </trkpt>
   <trkpt lat="51.8959470" lon="39.4173610">
    <ele>122.7</ele>
    <time>2017-03-26T11:23:31Z</time>
   </trkpt>
   <trkpt lat="51.8959610" lon="39.4172750">
    <ele>122.4</ele>
    <time>2017-03-26T11:23:32Z</time>
   </trkpt>
   <trkpt lat="51.8959770" lon="39.4171960">
    <ele>122.0</ele>
    <time>2017-03-26T11:23:33Z</time>
   </trkpt>
   <trkpt lat="51.8959960" lon="39.4171260">
    <ele>121.8</ele>
    <time>2017-03-26T11:23:34Z</time>
   </trkpt>
   <trkpt lat="51.8960090" lon="39.4170460">
    <ele>121.5</ele>
    <time>2017-03-26T11:23:35Z</time>
   </trkpt>
   <trkpt lat="51.8960230" lon="39.4169670">
    <ele>121.4</ele>
    <time>2017-03-26T11:23:36Z</time>
   </trkpt>
   <trkpt lat="51.8960410" lon="39.4168880">
    <ele>121.5</ele>
    <time>2017-03-26T11:23:37Z</time>
   </trkpt>
   <trkpt lat="51.8960620" lon="39.4168090">
    <ele>121.5</ele>
    <time>2017-03-26T11:23:38Z</time>
   </trkpt>
   <trkpt lat="51.8960980" lon="39.4166400">
    <ele>121.2</ele>
    <time>2017-03-26T11:23:40Z</time>
   </trkpt>
   <trkpt lat="51.8961790" lon="39.4163280">
    <ele>120.4</ele>
    <time>2017-03-26T11:23:44Z</time>
   </trkpt>
   <trkpt lat="51.8962630" lon="39.4157910">
    <ele>117.5</ele>
    <time>2017-03-26T11:23:50Z</time>
   </trkpt>
   <trkpt lat="51.8964110" lon="39.4150320">
    <ele>115.9</ele>
    <time>2017-03-26T11:24:00Z</time>
   </trkpt>
   <trkpt lat="51.8964280" lon="39.4149470">
    <ele>116.4</ele>
    <time>2017-03-26T11:24:01Z</time>
   </trkpt>
   <trkpt lat="51.8964510" lon="39.4147710">
    <ele>117.8</ele>
    <time>2017-03-26T11:24:03Z</time>
   </trkpt>
   <trkpt lat="51.8965370" lon="39.4142780">
    <ele>121.8</ele>
    <time>2017-03-26T11:24:09Z</time>
   </trkpt>
   <trkpt lat="51.8965580" lon="39.4141980">
    <ele>122.5</ele>
    <time>2017-03-26T11:24:10Z</time>
   </trkpt>
   <trkpt lat="51.8965780" lon="39.4141180">
    <ele>123.4</ele>
    <time>2017-03-26T11:24:11Z</time>
   </trkpt>
   <trkpt lat="51.8966000" lon="39.4140380">
    <ele>124.2</ele>
    <time>2017-03-26T11:24:12Z</time>
   </trkpt>
   <trkpt lat="51.8966170" lon="39.4139500">
    <ele>125.1</ele>
    <time>2017-03-26T11:24:13Z</time>
   </trkpt>
   <trkpt lat="51.8966330" lon="39.4138660">
    <ele>125.6</ele>
    <time>2017-03-26T11:24:14Z</time>
   </trkpt>
   <trkpt lat="51.8966490" lon="39.4137860">
    <ele>125.8</ele>
    <time>2017-03-26T11:24:15Z</time>
   </trkpt>
   <trkpt lat="51.8967280" lon="39.4132800">
    <ele>126.1</ele>
    <time>2017-03-26T11:24:21Z</time>
   </trkpt>
   <trkpt lat="51.8968720" lon="39.4125920">
    <ele>125.4</ele>
    <time>2017-03-26T11:24:30Z</time>
   </trkpt>
   <trkpt lat="51.8969630" lon="39.4118340">
    <ele>125.4</ele>
    <time>2017-03-26T11:24:42Z</time>
   </trkpt>
   <trkpt lat="51.8970700" lon="39.4113050">
    <ele>125.4</ele>
    <time>2017-03-26T11:24:51Z</time>
   </trkpt>
   <trkpt lat="51.8972140" lon="39.4106030">
    <ele>125.7</ele>
    <time>2017-03-26T11:25:01Z</time>
   </trkpt>
   <trkpt lat="51.8972290" lon="39.4104530">
    <ele>126.2</ele>
    <time>2017-03-26T11:25:03Z</time>
   </trkpt>
   <trkpt lat="51.8973580" lon="39.4096700">
    <ele>125.6</ele>
    <time>2017-03-26T11:25:15Z</time>
   </trkpt>
   <trkpt lat="51.8973780" lon="39.4093570">
    <ele>125.5</ele>
    <time>2017-03-26T11:25:26Z</time>
   </trkpt>
   <trkpt lat="51.8973840" lon="39.4093260">
    <ele>125.5</ele>
    <time>2017-03-26T11:25:27Z</time>
   </trkpt>
   <trkpt lat="51.8973940" lon="39.4092920">
    <ele>125.4</ele>
    <time>2017-03-26T11:25:28Z</time>
   </trkpt>
   <trkpt lat="51.8974060" lon="39.4092510">
    <ele>125.3</ele>
    <time>2017-03-26T11:25:29Z</time>
   </trkpt>
   <trkpt lat="51.8974210" lon="39.4092100">
    <ele>125.1</ele>
    <time>2017-03-26T11:25:30Z</time>
   </trkpt>
   <trkpt lat="51.8974440" lon="39.4091540">
    <ele>125.1</ele>
    <time>2017-03-26T11:25:31Z</time>
   </trkpt>
   <trkpt lat="51.8974590" lon="39.4090860">
    <ele>125.0</ele>
    <time>2017-03-26T11:25:32Z</time>
   </trkpt>
   <trkpt lat="51.8976340" lon="39.4083630">
    <ele>123.5</ele>
    <time>2017-03-26T11:25:42Z</time>
   </trkpt>
   <trkpt lat="51.8976530" lon="39.4082890">
    <ele>123.3</ele>
    <time>2017-03-26T11:25:43Z</time>
   </trkpt>
   <trkpt lat="51.8976650" lon="39.4082130">
    <ele>123.0</ele>
    <time>2017-03-26T11:25:44Z</time>
   </trkpt>
   <trkpt lat="51.8976740" lon="39.4081430">
    <ele>122.6</ele>
    <time>2017-03-26T11:25:45Z</time>
   </trkpt>
   <trkpt lat="51.8976950" lon="39.4077060">
    <ele>121.7</ele>
    <time>2017-03-26T11:25:51Z</time>
   </trkpt>
   <trkpt lat="51.8976580" lon="39.4072760">
    <ele>121.5</ele>
    <time>2017-03-26T11:25:56Z</time>
   </trkpt>
   <trkpt lat="51.8976560" lon="39.4071890">
    <ele>121.8</ele>
    <time>2017-03-26T11:25:57Z</time>
   </trkpt>
   <trkpt lat="51.8976450" lon="39.4069970">
    <ele>122.5</ele>
    <time>2017-03-26T11:25:59Z</time>
   </trkpt>
   <trkpt lat="51.8975920" lon="39.4062730">
    <ele>124.7</ele>
    <time>2017-03-26T11:26:09Z</time>
   </trkpt>
   <trkpt lat="51.8975740" lon="39.4061300">
    <ele>125.2</ele>
    <time>2017-03-26T11:26:11Z</time>
   </trkpt>
   <trkpt lat="51.8975510" lon="39.4060580">
    <ele>125.5</ele>
    <time>2017-03-26T11:26:12Z</time>
   </trkpt>
   <trkpt lat="51.8975250" lon="39.4059840">
    <ele>125.8</ele>
    <time>2017-03-26T11:26:13Z</time>
   </trkpt>
   <trkpt lat="51.8974950" lon="39.4059240">
    <ele>125.9</ele>
    <time>2017-03-26T11:26:14Z</time>
   </trkpt>
   <trkpt lat="51.8974630" lon="39.4058600">
    <ele>126.0</ele>
    <time>2017-03-26T11:26:15Z</time>
   </trkpt>
   <trkpt lat="51.8973090" lon="39.4055630">
    <ele>125.7</ele>
    <time>2017-03-26T11:26:20Z</time>
   </trkpt>
   <trkpt lat="51.8972780" lon="39.4054960">
    <ele>125.3</ele>
    <time>2017-03-26T11:26:21Z</time>
   </trkpt>
   <trkpt lat="51.8971960" lon="39.4049070">
    <ele>124.0</ele>
    <time>2017-03-26T11:26:30Z</time>
   </trkpt>
   <trkpt lat="51.8971920" lon="39.4040590">
    <ele>124.4</ele>
    <time>2017-03-26T11:26:41Z</time>
   </trkpt>
   <trkpt lat="51.8972470" lon="39.4033580">
    <ele>123.5</ele>
    <time>2017-03-26T11:26:50Z</time>
   </trkpt>
   <trkpt lat="51.8972520" lon="39.4025450">
    <ele>122.7</ele>
    <time>2017-03-26T11:27:00Z</time>
   </trkpt>
   <trkpt lat="51.8973350" lon="39.4021930">
    <ele>122.8</ele>
    <time>2017-03-26T11:27:05Z</time>
   </trkpt>
   <trkpt lat="51.8973600" lon="39.4021330">
    <ele>122.6</ele>
    <time>2017-03-26T11:27:06Z</time>
   </trkpt>
   <trkpt lat="51.8976230" lon="39.4015910">
    <ele>120.9</ele>
    <time>2017-03-26T11:27:15Z</time>
   </trkpt>
   <trkpt lat="51.8979840" lon="39.4010490">
    <ele>118.5</ele>
    <time>2017-03-26T11:27:25Z</time>
   </trkpt>
   <trkpt lat="51.8980090" lon="39.4009940">
    <ele>118.0</ele>
    <time>2017-03-26T11:27:26Z</time>
   </trkpt>
   <trkpt lat="51.8980330" lon="39.4009320">
    <ele>117.6</ele>
    <time>2017-03-26T11:27:27Z</time>
   </trkpt>
   <trkpt lat="51.8980560" lon="39.4008610">
    <ele>117.3</ele>
    <time>2017-03-26T11:27:28Z</time>
   </trkpt>
   <trkpt lat="51.8980680" lon="39.4007830">
    <ele>116.9</ele>
    <time>2017-03-26T11:27:29Z</time>
   </trkpt>
   <trkpt lat="51.8980730" lon="39.4007160">
    <ele>116.7</ele>
    <time>2017-03-26T11:27:30Z</time>
   </trkpt>
   <trkpt lat="51.8980740" lon="39.4006240">
    <ele>116.4</ele>
    <time>2017-03-26T11:27:31Z</time>
   </trkpt>
   <trkpt lat="51.8980690" lon="39.4005340">
    <ele>116.5</ele>
    <time>2017-03-26T11:27:32Z</time>
   </trkpt>
   <trkpt lat="51.8980490" lon="39.4001480">
    <ele>116.6</ele>
    <time>2017-03-26T11:27:37Z</time>
   </trkpt>
   <trkpt lat="51.8980420" lon="39.4000510">
    <ele>116.6</ele>
    <time>2017-03-26T11:27:38Z</time>
   </trkpt>
   <trkpt lat="51.8980320" lon="39.3999730">
    <ele>116.5</ele>
    <time>2017-03-26T11:27:39Z</time>
   </trkpt>
   <trkpt lat="51.8980210" lon="39.3999030">
    <ele>116.4</ele>
    <time>2017-03-26T11:27:40Z</time>
   </trkpt>
   <trkpt lat="51.8979990" lon="39.3998490">
    <ele>116.2</ele>
    <time>2017-03-26T11:27:41Z</time>
   </trkpt>
   <trkpt lat="51.8979700" lon="39.3998110">
    <ele>116.0</ele>
    <time>2017-03-26T11:27:42Z</time>
   </trkpt>
   <trkpt lat="51.8979010" lon="39.3997250">
    <ele>116.2</ele>
    <time>2017-03-26T11:27:45Z</time>
   </trkpt>
   <trkpt lat="51.8976220" lon="39.3997370">
    <ele>116.2</ele>
    <time>2017-03-26T11:27:56Z</time>
   </trkpt>
   <trkpt lat="51.8975920" lon="39.3997410">
    <ele>116.2</ele>
    <time>2017-03-26T11:28:02Z</time>
   </trkpt>
   <trkpt lat="51.8974170" lon="39.3997480">
    <ele>116.8</ele>
    <time>2017-03-26T11:28:51Z</time>
   </trkpt>
   <trkpt lat="51.8970750" lon="39.3997580">
    <ele>119.2</ele>
    <time>2017-03-26T11:29:00Z</time>
   </trkpt>
   <trkpt lat="51.8967020" lon="39.3997540">
    <ele>122.7</ele>
    <time>2017-03-26T11:29:11Z</time>
   </trkpt>
   <trkpt lat="51.8963290" lon="39.3997590">
    <ele>122.7</ele>
    <time>2017-03-26T11:29:20Z</time>
   </trkpt>
   <trkpt lat="51.8962770" lon="39.3997550">
    <ele>122.6</ele>
    <time>2017-03-26T11:29:21Z</time>
   </trkpt>
   <trkpt lat="51.8956260" lon="39.3997370">
    <ele>122.4</ele>
    <time>2017-03-26T11:29:34Z</time>
   </trkpt>
   <trkpt lat="51.8951790" lon="39.3997590">
    <ele>123.7</ele>
    <time>2017-03-26T11:29:44Z</time>
   </trkpt>
   <trkpt lat="51.8948370" lon="39.3997770">
    <ele>123.6</ele>
    <time>2017-03-26T11:29:52Z</time>
   </trkpt>
   <trkpt lat="51.8943540" lon="39.3998410">
    <ele>124.7</ele>
    <time>2017-03-26T11:30:06Z</time>
   </trkpt>
   <trkpt lat="51.8940650" lon="39.3998850">
    <ele>125.0</ele>
    <time>2017-03-26T11:30:19Z</time>
   </trkpt>
   <trkpt lat="51.8938350" lon="39.3998790">
    <ele>124.4</ele>
    <time>2017-03-26T11:30:25Z</time>
   </trkpt>
   <trkpt lat="51.8937910" lon="39.3998750">
    <ele>124.3</ele>
    <time>2017-03-26T11:30:26Z</time>
   </trkpt>
   <trkpt lat="51.8937440" lon="39.3998680">
    <ele>124.3</ele>
    <time>2017-03-26T11:30:27Z</time>
   </trkpt>
   <trkpt lat="51.8936040" lon="39.3998670">
    <ele>124.3</ele>
    <time>2017-03-26T11:30:30Z</time>
   </trkpt>
   <trkpt lat="51.8933910" lon="39.3998960">
    <ele>124.3</ele>
    <time>2017-03-26T11:30:34Z</time>
   </trkpt>
   <trkpt lat="51.8931890" lon="39.3999110">
    <ele>124.3</ele>
    <time>2017-03-26T11:30:38Z</time>
   </trkpt>
   <trkpt lat="51.8927810" lon="39.3999600">
    <ele>124.0</ele>
    <time>2017-03-26T11:30:46Z</time>
   </trkpt>
   <trkpt lat="51.8926370" lon="39.3999450">
    <ele>124.4</ele>
    <time>2017-03-26T11:30:49Z</time>
   </trkpt>
   <trkpt lat="51.8924730" lon="39.3999300">
    <ele>124.9</ele>
    <time>2017-03-26T11:30:52Z</time>
   </trkpt>
   <trkpt lat="51.8924170" lon="39.3999420">
    <ele>125.1</ele>
    <time>2017-03-26T11:30:53Z</time>
   </trkpt>
   <trkpt lat="51.8918890" lon="39.3999930">
    <ele>126.5</ele>
    <time>2017-03-26T11:31:04Z</time>
   </trkpt>
   <trkpt lat="51.8914730" lon="39.4000010">
    <ele>126.1</ele>
    <time>2017-03-26T11:31:13Z</time>
   </trkpt>
   <trkpt lat="51.8910910" lon="39.3999940">
    <ele>126.2</ele>
    <time>2017-03-26T11:31:22Z</time>
   </trkpt>
   <trkpt lat="51.8910490" lon="39.3999950">
    <ele>126.1</ele>
    <time>2017-03-26T11:31:23Z</time>
   </trkpt>
   <trkpt lat="51.8908550" lon="39.4000280">
    <ele>126.1</ele>
    <time>2017-03-26T11:31:27Z</time>
   </trkpt>
   <trkpt lat="51.8907980" lon="39.4000250">
    <ele>125.9</ele>
    <time>2017-03-26T11:31:28Z</time>
   </trkpt>
   <trkpt lat="51.8906730" lon="39.4000230">
    <ele>125.6</ele>
    <time>2017-03-26T11:31:30Z</time>
   </trkpt>
   <trkpt lat="51.8906140" lon="39.4000220">
    <ele>125.6</ele>
    <time>2017-03-26T11:31:31Z</time>
   </trkpt>
   <trkpt lat="51.8904870" lon="39.4000320">
    <ele>126.3</ele>
    <time>2017-03-26T11:31:33Z</time>
   </trkpt>
   <trkpt lat="51.8904300" lon="39.4000300">
    <ele>126.8</ele>
    <time>2017-03-26T11:31:34Z</time>
   </trkpt>
   <trkpt lat="51.8903750" lon="39.4000310">
    <ele>127.2</ele>
    <time>2017-03-26T11:31:35Z</time>
   </trkpt>
   <trkpt lat="51.8903230" lon="39.4000320">
    <ele>127.6</ele>
    <time>2017-03-26T11:31:36Z</time>
   </trkpt>
   <trkpt lat="51.8902130" lon="39.4000260">
    <ele>128.1</ele>
    <time>2017-03-26T11:31:38Z</time>
   </trkpt>
   <trkpt lat="51.8901630" lon="39.4000350">
    <ele>128.0</ele>
    <time>2017-03-26T11:31:39Z</time>
   </trkpt>
   <trkpt lat="51.8895630" lon="39.4001150">
    <ele>126.0</ele>
    <time>2017-03-26T11:31:51Z</time>
   </trkpt>
   <trkpt lat="51.8894050" lon="39.4001300">
    <ele>126.0</ele>
    <time>2017-03-26T11:31:54Z</time>
   </trkpt>
   <trkpt lat="51.8887390" lon="39.4001500">
    <ele>128.0</ele>
    <time>2017-03-26T11:32:07Z</time>
   </trkpt>
   <trkpt lat="51.8881840" lon="39.4001950">
    <ele>124.5</ele>
    <time>2017-03-26T11:32:19Z</time>
   </trkpt>
   <trkpt lat="51.8881390" lon="39.4001930">
    <ele>124.4</ele>
    <time>2017-03-26T11:32:20Z</time>
   </trkpt>
   <trkpt lat="51.8876760" lon="39.4002180">
    <ele>126.2</ele>
    <time>2017-03-26T11:32:30Z</time>
   </trkpt>
   <trkpt lat="51.8874120" lon="39.4002110">
    <ele>124.9</ele>
    <time>2017-03-26T11:32:35Z</time>
   </trkpt>
   <trkpt lat="51.8871940" lon="39.4002350">
    <ele>124.4</ele>
    <time>2017-03-26T11:32:39Z</time>
   </trkpt>
   <trkpt lat="51.8865510" lon="39.4003070">
    <ele>126.1</ele>
    <time>2017-03-26T11:32:52Z</time>
   </trkpt>
   <trkpt lat="51.8861150" lon="39.4003760">
    <ele>129.7</ele>
    <time>2017-03-26T11:33:00Z</time>
   </trkpt>
   <trkpt lat="51.8856670" lon="39.4003810">
    <ele>129.7</ele>
    <time>2017-03-26T11:33:11Z</time>
   </trkpt>
   <trkpt lat="51.8852790" lon="39.4004100">
    <ele>130.2</ele>
    <time>2017-03-26T11:33:21Z</time>
   </trkpt>
   <trkpt lat="51.8850150" lon="39.4004290">
    <ele>132.3</ele>
    <time>2017-03-26T11:33:27Z</time>
   </trkpt>
   <trkpt lat="51.8848210" lon="39.4004470">
    <ele>132.6</ele>
    <time>2017-03-26T11:33:31Z</time>
   </trkpt>
   <trkpt lat="51.8846350" lon="39.4004690">
    <ele>131.6</ele>
    <time>2017-03-26T11:33:35Z</time>
   </trkpt>
   <trkpt lat="51.8844700" lon="39.4004580">
    <ele>131.1</ele>
    <time>2017-03-26T11:33:38Z</time>
   </trkpt>
   <trkpt lat="51.8841490" lon="39.4004940">
    <ele>132.9</ele>
    <time>2017-03-26T11:33:44Z</time>
   </trkpt>
   <trkpt lat="51.8834920" lon="39.4005160">
    <ele>134.9</ele>
    <time>2017-03-26T11:33:57Z</time>
   </trkpt>
   <trkpt lat="51.8832830" lon="39.4005400">
    <ele>134.9</ele>
    <time>2017-03-26T11:34:01Z</time>
   </trkpt>
   <trkpt lat="51.8828210" lon="39.4005640">
    <ele>134.0</ele>
    <time>2017-03-26T11:34:12Z</time>
   </trkpt>
   <trkpt lat="51.8823690" lon="39.4006480">
    <ele>132.2</ele>
    <time>2017-03-26T11:34:23Z</time>
   </trkpt>
   <trkpt lat="51.8823280" lon="39.4006600">
    <ele>131.9</ele>
    <time>2017-03-26T11:34:24Z</time>
   </trkpt>
   <trkpt lat="51.8820700" lon="39.4006780">
    <ele>129.5</ele>
    <time>2017-03-26T11:34:29Z</time>
   </trkpt>
   <trkpt lat="51.8815280" lon="39.4006290">
    <ele>126.1</ele>
    <time>2017-03-26T11:34:41Z</time>
   </trkpt>
   <trkpt lat="51.8810650" lon="39.4006610">
    <ele>126.2</ele>
    <time>2017-03-26T11:34:52Z</time>
   </trkpt>
   <trkpt lat="51.8807870" lon="39.4006950">
    <ele>127.5</ele>
    <time>2017-03-26T11:34:59Z</time>
   </trkpt>
   <trkpt lat="51.8802920" lon="39.4007330">
    <ele>128.4</ele>
    <time>2017-03-26T11:35:11Z</time>
   </trkpt>
   <trkpt lat="51.8799380" lon="39.4007610">
    <ele>128.8</ele>
    <time>2017-03-26T11:35:22Z</time>
   </trkpt>
   <trkpt lat="51.8798550" lon="39.4007740">
    <ele>129.2</ele>
    <time>2017-03-26T11:35:33Z</time>
   </trkpt>
   <trkpt lat="51.8797710" lon="39.4007930">
    <ele>129.9</ele>
    <time>2017-03-26T11:36:08Z</time>
   </trkpt>
   <trkpt lat="51.8794400" lon="39.4008000">
    <ele>131.2</ele>
    <time>2017-03-26T11:36:22Z</time>
   </trkpt>
   <trkpt lat="51.8790680" lon="39.4008370">
    <ele>132.3</ele>
    <time>2017-03-26T11:36:33Z</time>
   </trkpt>
   <trkpt lat="51.8786590" lon="39.4008550">
    <ele>133.2</ele>
    <time>2017-03-26T11:36:44Z</time>
   </trkpt>
   <trkpt lat="51.8782030" lon="39.4008720">
    <ele>134.9</ele>
    <time>2017-03-26T11:36:56Z</time>
   </trkpt>
   <trkpt lat="51.8777890" lon="39.4009330">
    <ele>135.8</ele>
    <time>2017-03-26T11:37:07Z</time>
   </trkpt>
   <trkpt lat="51.8773460" lon="39.4009760">
    <ele>134.3</ele>
    <time>2017-03-26T11:37:20Z</time>
   </trkpt>
   <trkpt lat="51.8771900" lon="39.4009900">
    <ele>134.3</ele>
    <time>2017-03-26T11:37:24Z</time>
   </trkpt>
   <trkpt lat="51.8764870" lon="39.4010340">
    <ele>134.4</ele>
    <time>2017-03-26T11:37:39Z</time>
   </trkpt>
   <trkpt lat="51.8763830" lon="39.4010490">
    <ele>134.4</ele>
    <time>2017-03-26T11:37:41Z</time>
   </trkpt>
   <trkpt lat="51.8760310" lon="39.4010540">
    <ele>134.2</ele>
    <time>2017-03-26T11:37:49Z</time>
   </trkpt>
   <trkpt lat="51.8758010" lon="39.4010540">
    <ele>133.4</ele>
    <time>2017-03-26T11:37:54Z</time>
   </trkpt>
   <trkpt lat="51.8754050" lon="39.4010600">
    <ele>132.0</ele>
    <time>2017-03-26T11:38:02Z</time>
   </trkpt>
   <trkpt lat="51.8752490" lon="39.4010360">
    <ele>131.7</ele>
    <time>2017-03-26T11:38:06Z</time>
   </trkpt>
   <trkpt lat="51.8747480" lon="39.4011280">
    <ele>132.3</ele>
    <time>2017-03-26T11:38:18Z</time>
   </trkpt>
   <trkpt lat="51.8742550" lon="39.4011450">
    <ele>134.8</ele>
    <time>2017-03-26T11:38:29Z</time>
   </trkpt>
   <trkpt lat="51.8738470" lon="39.4011710">
    <ele>133.4</ele>
    <time>2017-03-26T11:38:39Z</time>
   </trkpt>
   <trkpt lat="51.8737290" lon="39.4012260">
    <ele>133.4</ele>
    <time>2017-03-26T11:38:50Z</time>
   </trkpt>
   <trkpt lat="51.8736340" lon="39.4012060">
    <ele>133.5</ele>
    <time>2017-03-26T11:39:01Z</time>
   </trkpt>
   <trkpt lat="51.8733070" lon="39.4012690">
    <ele>134.1</ele>
    <time>2017-03-26T11:39:13Z</time>
   </trkpt>
   <trkpt lat="51.8728830" lon="39.4012950">
    <ele>134.9</ele>
    <time>2017-03-26T11:39:26Z</time>
   </trkpt>
   <trkpt lat="51.8726130" lon="39.4012840">
    <ele>133.5</ele>
    <time>2017-03-26T11:39:33Z</time>
   </trkpt>
   <trkpt lat="51.8723370" lon="39.4013050">
    <ele>131.9</ele>
    <time>2017-03-26T11:39:39Z</time>
   </trkpt>
   <trkpt lat="51.8719530" lon="39.4013360">
    <ele>130.7</ele>
    <time>2017-03-26T11:39:50Z</time>
   </trkpt>
   <trkpt lat="51.8714340" lon="39.4013820">
    <ele>129.6</ele>
    <time>2017-03-26T11:40:02Z</time>
   </trkpt>
   <trkpt lat="51.8709470" lon="39.4014250">
    <ele>131.4</ele>
    <time>2017-03-26T11:40:13Z</time>
   </trkpt>
   <trkpt lat="51.8708500" lon="39.4014160">
    <ele>131.7</ele>
    <time>2017-03-26T11:40:15Z</time>
   </trkpt>
   <trkpt lat="51.8706280" lon="39.4014220">
    <ele>132.6</ele>
    <time>2017-03-26T11:40:19Z</time>
   </trkpt>
   <trkpt lat="51.8700000" lon="39.4014490">
    <ele>130.8</ele>
    <time>2017-03-26T11:40:33Z</time>
   </trkpt>
   <trkpt lat="51.8693620" lon="39.4014460">
    <ele>128.8</ele>
    <time>2017-03-26T11:40:46Z</time>
   </trkpt>
   <trkpt lat="51.8692790" lon="39.4014650">
    <ele>128.7</ele>
    <time>2017-03-26T11:40:48Z</time>
   </trkpt>
   <trkpt lat="51.8687110" lon="39.4014990">
    <ele>127.7</ele>
    <time>2017-03-26T11:40:59Z</time>
   </trkpt>
   <trkpt lat="51.8681610" lon="39.4015040">
    <ele>128.3</ele>
    <time>2017-03-26T11:41:12Z</time>
   </trkpt>
   <trkpt lat="51.8675950" lon="39.4015240">
    <ele>126.6</ele>
    <time>2017-03-26T11:41:24Z</time>
   </trkpt>
   <trkpt lat="51.8669970" lon="39.4015560">
    <ele>123.4</ele>
    <time>2017-03-26T11:41:35Z</time>
   </trkpt>
   <trkpt lat="51.8664510" lon="39.4015700">
    <ele>120.4</ele>
    <time>2017-03-26T11:41:47Z</time>
   </trkpt>
   <trkpt lat="51.8656370" lon="39.4016140">
    <ele>121.9</ele>
    <time>2017-03-26T11:42:02Z</time>
   </trkpt>
   <trkpt lat="51.8655760" lon="39.4016170">
    <ele>122.2</ele>
    <time>2017-03-26T11:42:03Z</time>
   </trkpt>
   <trkpt lat="51.8654730" lon="39.4016040">
    <ele>122.7</ele>
    <time>2017-03-26T11:42:05Z</time>
   </trkpt>
   <trkpt lat="51.8651450" lon="39.4016070">
    <ele>122.4</ele>
    <time>2017-03-26T11:42:13Z</time>
   </trkpt>
   <trkpt lat="51.8650610" lon="39.4016170">
    <ele>122.2</ele>
    <time>2017-03-26T11:42:15Z</time>
   </trkpt>
   <trkpt lat="51.8648550" lon="39.4016220">
    <ele>122.2</ele>
    <time>2017-03-26T11:42:19Z</time>
   </trkpt>
   <trkpt lat="51.8642480" lon="39.4016130">
    <ele>123.0</ele>
    <time>2017-03-26T11:42:30Z</time>
   </trkpt>
   <trkpt lat="51.8640420" lon="39.4015890">
    <ele>123.4</ele>
    <time>2017-03-26T11:42:34Z</time>
   </trkpt>
   <trkpt lat="51.8636930" lon="39.4016470">
    <ele>122.3</ele>
    <time>2017-03-26T11:42:43Z</time>
   </trkpt>
   <trkpt lat="51.8636280" lon="39.4016530">
    <ele>122.3</ele>
    <time>2017-03-26T11:42:45Z</time>
   </trkpt>
   <trkpt lat="51.8631940" lon="39.4016590">
    <ele>123.5</ele>
    <time>2017-03-26T11:42:55Z</time>
   </trkpt>
   <trkpt lat="51.8627020" lon="39.4016910">
    <ele>123.7</ele>
    <time>2017-03-26T11:43:06Z</time>
   </trkpt>
   <trkpt lat="51.8621680" lon="39.4017010">
    <ele>127.8</ele>
    <time>2017-03-26T11:43:17Z</time>
   </trkpt>
   <trkpt lat="51.8617060" lon="39.4017350">
    <ele>126.8</ele>
    <time>2017-03-26T11:43:29Z</time>
   </trkpt>
   <trkpt lat="51.8615350" lon="39.4017430">
    <ele>125.5</ele>
    <time>2017-03-26T11:43:33Z</time>
   </trkpt>
   <trkpt lat="51.8610200" lon="39.4017730">
    <ele>122.4</ele>
    <time>2017-03-26T11:43:47Z</time>
   </trkpt>
   <trkpt lat="51.8608660" lon="39.4017280">
    <ele>121.6</ele>
    <time>2017-03-26T11:43:52Z</time>
   </trkpt>
   <trkpt lat="51.8607750" lon="39.4014060">
    <ele>120.8</ele>
    <time>2017-03-26T11:44:05Z</time>
   </trkpt>
   <trkpt lat="51.8607580" lon="39.4009240">
    <ele>121.6</ele>
    <time>2017-03-26T11:44:15Z</time>
   </trkpt>
   <trkpt lat="51.8607520" lon="39.4001770">
    <ele>121.5</ele>
    <time>2017-03-26T11:44:29Z</time>
   </trkpt>
   <trkpt lat="51.8607250" lon="39.3995940">
    <ele>120.8</ele>
    <time>2017-03-26T11:44:39Z</time>
   </trkpt>
   <trkpt lat="51.8606950" lon="39.3992020">
    <ele>120.0</ele>
    <time>2017-03-26T11:44:45Z</time>
   </trkpt>
   <trkpt lat="51.8606940" lon="39.3991230">
    <ele>119.9</ele>
    <time>2017-03-26T11:44:46Z</time>
   </trkpt>
   <trkpt lat="51.8607170" lon="39.3984880">
    <ele>119.7</ele>
    <time>2017-03-26T11:44:55Z</time>
   </trkpt>
   <trkpt lat="51.8606730" lon="39.3977630">
    <ele>120.6</ele>
    <time>2017-03-26T11:45:05Z</time>
   </trkpt>
   <trkpt lat="51.8606590" lon="39.3976410">
    <ele>121.3</ele>
    <time>2017-03-26T11:45:11Z</time>
   </trkpt>
   <trkpt lat="51.8605380" lon="39.3975330">
    <ele>122.2</ele>
    <time>2017-03-26T11:46:35Z</time>
   </trkpt>
   <trkpt lat="51.8605030" lon="39.3975290">
    <ele>122.4</ele>
    <time>2017-03-26T11:46:38Z</time>
   </trkpt>
   <trkpt lat="51.8602510" lon="39.3976040">
    <ele>124.9</ele>
    <time>2017-03-26T11:46:51Z</time>
   </trkpt>
   <trkpt lat="51.8599700" lon="39.3977060">
    <ele>125.8</ele>
    <time>2017-03-26T11:47:01Z</time>
   </trkpt>
   <trkpt lat="51.8597090" lon="39.3978440">
    <ele>124.6</ele>
    <time>2017-03-26T11:47:10Z</time>
   </trkpt>
   <trkpt lat="51.8595780" lon="39.3979290">
    <ele>124.3</ele>
    <time>2017-03-26T11:47:14Z</time>
   </trkpt>
   <trkpt lat="51.8592540" lon="39.3981990">
    <ele>125.6</ele>
    <time>2017-03-26T11:47:25Z</time>
   </trkpt>
   <trkpt lat="51.8589220" lon="39.3984790">
    <ele>127.0</ele>
    <time>2017-03-26T11:47:34Z</time>
   </trkpt>
   <trkpt lat="51.8585390" lon="39.3988590">
    <ele>126.7</ele>
    <time>2017-03-26T11:47:44Z</time>
   </trkpt>
   <trkpt lat="51.8583410" lon="39.3990950">
    <ele>127.2</ele>
    <time>2017-03-26T11:47:54Z</time>
   </trkpt>
   <trkpt lat="51.8583110" lon="39.3991280">
    <ele>127.2</ele>
    <time>2017-03-26T11:47:56Z</time>
   </trkpt>
   <trkpt lat="51.8582480" lon="39.3992220">
    <ele>126.8</ele>
    <time>2017-03-26T11:48:00Z</time>
   </trkpt>
   <trkpt lat="51.8579840" lon="39.3994790">
    <ele>125.6</ele>
    <time>2017-03-26T11:48:13Z</time>
   </trkpt>
   <trkpt lat="51.8579060" lon="39.3995660">
    <ele>125.1</ele>
    <time>2017-03-26T11:48:17Z</time>
   </trkpt>
   <trkpt lat="51.8578410" lon="39.3996610">
    <ele>124.9</ele>
    <time>2017-03-26T11:48:20Z</time>
   </trkpt>
   <trkpt lat="51.8577750" lon="39.4002930">
    <ele>124.0</ele>
    <time>2017-03-26T11:48:31Z</time>
   </trkpt>
   <trkpt lat="51.8577440" lon="39.4010380">
    <ele>122.5</ele>
    <time>2017-03-26T11:48:42Z</time>
   </trkpt>
   <trkpt lat="51.8576330" lon="39.4016070">
    <ele>123.3</ele>
    <time>2017-03-26T11:48:51Z</time>
   </trkpt>
   <trkpt lat="51.8575080" lon="39.4021250">
    <ele>124.7</ele>
    <time>2017-03-26T11:49:00Z</time>
   </trkpt>
   <trkpt lat="51.8574070" lon="39.4027800">
    <ele>125.7</ele>
    <time>2017-03-26T11:49:11Z</time>
   </trkpt>
   <trkpt lat="51.8573470" lon="39.4034830">
    <ele>127.3</ele>
    <time>2017-03-26T11:49:22Z</time>
   </trkpt>
   <trkpt lat="51.8573290" lon="39.4042020">
    <ele>128.9</ele>
    <time>2017-03-26T11:49:33Z</time>
   </trkpt>
   <trkpt lat="51.8574080" lon="39.4049590">
    <ele>126.9</ele>
    <time>2017-03-26T11:49:43Z</time>
   </trkpt>
   <trkpt lat="51.8574000" lon="39.4051340">
    <ele>126.9</ele>
    <time>2017-03-26T11:49:46Z</time>
   </trkpt>
   <trkpt lat="51.8573350" lon="39.4052050">
    <ele>127.0</ele>
    <time>2017-03-26T11:49:51Z</time>
   </trkpt>
   <trkpt lat="51.8570730" lon="39.4051390">
    <ele>127.8</ele>
    <time>2017-03-26T11:50:02Z</time>
   </trkpt>
   <trkpt lat="51.8566320" lon="39.4051090">
    <ele>125.5</ele>
    <time>2017-03-26T11:50:15Z</time>
   </trkpt>
   <trkpt lat="51.8565450" lon="39.4050910">
    <ele>125.3</ele>
    <time>2017-03-26T11:50:17Z</time>
   </trkpt>
   <trkpt lat="51.8564970" lon="39.4050780">
    <ele>125.3</ele>
    <time>2017-03-26T11:50:18Z</time>
   </trkpt>
   <trkpt lat="51.8563640" lon="39.4050680">
    <ele>125.3</ele>
    <time>2017-03-26T11:50:21Z</time>
   </trkpt>
   <trkpt lat="51.8563150" lon="39.4050670">
    <ele>125.1</ele>
    <time>2017-03-26T11:50:22Z</time>
   </trkpt>
   <trkpt lat="51.8562670" lon="39.4050580">
    <ele>125.0</ele>
    <time>2017-03-26T11:50:23Z</time>
   </trkpt>
   <trkpt lat="51.8561560" lon="39.4050500">
    <ele>124.9</ele>
    <time>2017-03-26T11:50:25Z</time>
   </trkpt>
   <trkpt lat="51.8561070" lon="39.4050450">
    <ele>124.8</ele>
    <time>2017-03-26T11:50:26Z</time>
   </trkpt>
   <trkpt lat="51.8560570" lon="39.4050390">
    <ele>124.7</ele>
    <time>2017-03-26T11:50:27Z</time>
   </trkpt>
   <trkpt lat="51.8560080" lon="39.4050350">
    <ele>124.7</ele>
    <time>2017-03-26T11:50:28Z</time>
   </trkpt>
   <trkpt lat="51.8559610" lon="39.4050330">
    <ele>124.7</ele>
    <time>2017-03-26T11:50:29Z</time>
   </trkpt>
   <trkpt lat="51.8558210" lon="39.4050390">
    <ele>124.9</ele>
    <time>2017-03-26T11:50:32Z</time>
   </trkpt>
   <trkpt lat="51.8557770" lon="39.4050480">
    <ele>125.1</ele>
    <time>2017-03-26T11:50:33Z</time>
   </trkpt>
   <trkpt lat="51.8553710" lon="39.4050340">
    <ele>126.8</ele>
    <time>2017-03-26T11:50:43Z</time>
   </trkpt>
   <trkpt lat="51.8549720" lon="39.4050260">
    <ele>126.9</ele>
    <time>2017-03-26T11:50:53Z</time>
   </trkpt>
   <trkpt lat="51.8548020" lon="39.4050050">
    <ele>126.9</ele>
    <time>2017-03-26T11:50:58Z</time>
   </trkpt>
   <trkpt lat="51.8543630" lon="39.4050150">
    <ele>127.0</ele>
    <time>2017-03-26T11:51:11Z</time>
   </trkpt>
   <trkpt lat="51.8541420" lon="39.4049950">
    <ele>126.1</ele>
    <time>2017-03-26T11:51:16Z</time>
   </trkpt>
   <trkpt lat="51.8540360" lon="39.4050000">
    <ele>125.7</ele>
    <time>2017-03-26T11:51:18Z</time>
   </trkpt>
   <trkpt lat="51.8539350" lon="39.4049980">
    <ele>125.3</ele>
    <time>2017-03-26T11:51:20Z</time>
   </trkpt>
   <trkpt lat="51.8538870" lon="39.4050020">
    <ele>125.2</ele>
    <time>2017-03-26T11:51:21Z</time>
   </trkpt>
   <trkpt lat="51.8535270" lon="39.4049710">
    <ele>125.2</ele>
    <time>2017-03-26T11:51:30Z</time>
   </trkpt>
   <trkpt lat="51.8531330" lon="39.4049080">
    <ele>124.3</ele>
    <time>2017-03-26T11:51:40Z</time>
   </trkpt>
   <trkpt lat="51.8528220" lon="39.4048980">
    <ele>125.5</ele>
    <time>2017-03-26T11:51:48Z</time>
   </trkpt>
   <trkpt lat="51.8523360" lon="39.4049210">
    <ele>130.9</ele>
    <time>2017-03-26T11:52:00Z</time>
   </trkpt>
   <trkpt lat="51.8519790" lon="39.4049100">
    <ele>130.3</ele>
    <time>2017-03-26T11:52:10Z</time>
   </trkpt>
   <trkpt lat="51.8515550" lon="39.4048870">
    <ele>128.1</ele>
    <time>2017-03-26T11:52:21Z</time>
   </trkpt>
   <trkpt lat="51.8511660" lon="39.4048730">
    <ele>127.6</ele>
    <time>2017-03-26T11:52:33Z</time>
   </trkpt>
   <trkpt lat="51.8508470" lon="39.4048780">
    <ele>126.2</ele>
    <time>2017-03-26T11:52:40Z</time>
   </trkpt>
   <trkpt lat="51.8503440" lon="39.4048140">
    <ele>126.0</ele>
    <time>2017-03-26T11:52:52Z</time>
   </trkpt>
   <trkpt lat="51.8497810" lon="39.4047800">
    <ele>126.0</ele>
    <time>2017-03-26T11:53:05Z</time>
   </trkpt>
   <trkpt lat="51.8492670" lon="39.4047440">
    <ele>126.5</ele>
    <time>2017-03-26T11:53:17Z</time>
   </trkpt>
   <trkpt lat="51.8490370" lon="39.4047070">
    <ele>127.8</ele>
    <time>2017-03-26T11:53:22Z</time>
   </trkpt>
   <trkpt lat="51.8489900" lon="39.4047100">
    <ele>128.0</ele>
    <time>2017-03-26T11:53:23Z</time>
   </trkpt>
   <trkpt lat="51.8489450" lon="39.4047090">
    <ele>128.1</ele>
    <time>2017-03-26T11:53:24Z</time>
   </trkpt>
   <trkpt lat="51.8484380" lon="39.4046940">
    <ele>126.1</ele>
    <time>2017-03-26T11:53:35Z</time>
   </trkpt>
   <trkpt lat="51.8482570" lon="39.4046950">
    <ele>125.5</ele>
    <time>2017-03-26T11:53:39Z</time>
   </trkpt>
   <trkpt lat="51.8478450" lon="39.4046730">
    <ele>125.8</ele>
    <time>2017-03-26T11:53:49Z</time>
   </trkpt>
   <trkpt lat="51.8474240" lon="39.4046610">
    <ele>125.6</ele>
    <time>2017-03-26T11:53:59Z</time>
   </trkpt>
   <trkpt lat="51.8470440" lon="39.4046770">
    <ele>126.1</ele>
    <time>2017-03-26T11:54:09Z</time>
   </trkpt>
   <trkpt lat="51.8466250" lon="39.4046550">
    <ele>125.2</ele>
    <time>2017-03-26T11:54:21Z</time>
   </trkpt>
   <trkpt lat="51.8463410" lon="39.4046240">
    <ele>126.5</ele>
    <time>2017-03-26T11:54:28Z</time>
   </trkpt>
   <trkpt lat="51.8459620" lon="39.4046060">
    <ele>128.7</ele>
    <time>2017-03-26T11:54:38Z</time>
   </trkpt>
   <trkpt lat="51.8457880" lon="39.4046100">
    <ele>129.2</ele>
    <time>2017-03-26T11:54:42Z</time>
   </trkpt>
   <trkpt lat="51.8453970" lon="39.4045800">
    <ele>128.6</ele>
    <time>2017-03-26T11:54:52Z</time>
   </trkpt>
   <trkpt lat="51.8449530" lon="39.4045590">
    <ele>128.1</ele>
    <time>2017-03-26T11:55:03Z</time>
   </trkpt>
   <trkpt lat="51.8446900" lon="39.4045210">
    <ele>126.0</ele>
    <time>2017-03-26T11:55:09Z</time>
   </trkpt>
   <trkpt lat="51.8446400" lon="39.4045250">
    <ele>125.7</ele>
    <time>2017-03-26T11:55:10Z</time>
   </trkpt>
   <trkpt lat="51.8445900" lon="39.4045260">
    <ele>125.3</ele>
    <time>2017-03-26T11:55:11Z</time>
   </trkpt>
   <trkpt lat="51.8445420" lon="39.4045240">
    <ele>124.7</ele>
    <time>2017-03-26T11:55:12Z</time>
   </trkpt>
   <trkpt lat="51.8444970" lon="39.4045190">
    <ele>124.3</ele>
    <time>2017-03-26T11:55:13Z</time>
   </trkpt>
   <trkpt lat="51.8444540" lon="39.4045180">
    <ele>124.1</ele>
    <time>2017-03-26T11:55:14Z</time>
   </trkpt>
   <trkpt lat="51.8444100" lon="39.4045150">
    <ele>123.9</ele>
    <time>2017-03-26T11:55:15Z</time>
   </trkpt>
   <trkpt lat="51.8442640" lon="39.4044930">
    <ele>123.3</ele>
    <time>2017-03-26T11:55:18Z</time>
   </trkpt>
   <trkpt lat="51.8440960" lon="39.4044820">
    <ele>123.0</ele>
    <time>2017-03-26T11:55:21Z</time>
   </trkpt>
   <trkpt lat="51.8440430" lon="39.4044830">
    <ele>123.0</ele>
    <time>2017-03-26T11:55:22Z</time>
   </trkpt>
   <trkpt lat="51.8439920" lon="39.4044850">
    <ele>123.0</ele>
    <time>2017-03-26T11:55:23Z</time>
   </trkpt>
   <trkpt lat="51.8437800" lon="39.4045000">
    <ele>123.0</ele>
    <time>2017-03-26T11:55:27Z</time>
   </trkpt>
   <trkpt lat="51.8437270" lon="39.4045010">
    <ele>123.0</ele>
    <time>2017-03-26T11:55:28Z</time>
   </trkpt>
   <trkpt lat="51.8436790" lon="39.4045020">
    <ele>123.0</ele>
    <time>2017-03-26T11:55:29Z</time>
   </trkpt>
   <trkpt lat="51.8436330" lon="39.4044930">
    <ele>123.0</ele>
    <time>2017-03-26T11:55:30Z</time>
   </trkpt>
   <trkpt lat="51.8435870" lon="39.4044810">
    <ele>123.0</ele>
    <time>2017-03-26T11:55:31Z</time>
   </trkpt>
   <trkpt lat="51.8431840" lon="39.4044610">
    <ele>122.5</ele>
    <time>2017-03-26T11:55:40Z</time>
   </trkpt>
   <trkpt lat="51.8428120" lon="39.4044640">
    <ele>120.8</ele>
    <time>2017-03-26T11:55:49Z</time>
   </trkpt>
   <trkpt lat="51.8422590" lon="39.4044560">
    <ele>123.5</ele>
    <time>2017-03-26T11:56:00Z</time>
   </trkpt>
   <trkpt lat="51.8417680" lon="39.4044260">
    <ele>124.8</ele>
    <time>2017-03-26T11:56:11Z</time>
   </trkpt>
   <trkpt lat="51.8416570" lon="39.4044140">
    <ele>125.3</ele>
    <time>2017-03-26T11:56:14Z</time>
   </trkpt>
   <trkpt lat="51.8416170" lon="39.4044000">
    <ele>125.4</ele>
    <time>2017-03-26T11:56:15Z</time>
   </trkpt>
   <trkpt lat="51.8415670" lon="39.4043900">
    <ele>125.5</ele>
    <time>2017-03-26T11:56:16Z</time>
   </trkpt>
   <trkpt lat="51.8415130" lon="39.4043830">
    <ele>125.5</ele>
    <time>2017-03-26T11:56:17Z</time>
   </trkpt>
   <trkpt lat="51.8414560" lon="39.4043840">
    <ele>125.5</ele>
    <time>2017-03-26T11:56:18Z</time>
   </trkpt>
   <trkpt lat="51.8414100" lon="39.4043800">
    <ele>125.4</ele>
    <time>2017-03-26T11:56:19Z</time>
   </trkpt>
   <trkpt lat="51.8413670" lon="39.4043800">
    <ele>125.4</ele>
    <time>2017-03-26T11:56:20Z</time>
   </trkpt>
   <trkpt lat="51.8413270" lon="39.4043790">
    <ele>125.4</ele>
    <time>2017-03-26T11:56:21Z</time>
   </trkpt>
   <trkpt lat="51.8412830" lon="39.4043860">
    <ele>125.4</ele>
    <time>2017-03-26T11:56:22Z</time>
   </trkpt>
   <trkpt lat="51.8412420" lon="39.4043950">
    <ele>125.4</ele>
    <time>2017-03-26T11:56:23Z</time>
   </trkpt>
   <trkpt lat="51.8408000" lon="39.4043550">
    <ele>124.5</ele>
    <time>2017-03-26T11:56:33Z</time>
   </trkpt>
   <trkpt lat="51.8403860" lon="39.4042840">
    <ele>124.7</ele>
    <time>2017-03-26T11:56:42Z</time>
   </trkpt>
   <trkpt lat="51.8403310" lon="39.4042900">
    <ele>124.6</ele>
    <time>2017-03-26T11:56:43Z</time>
   </trkpt>
   <trkpt lat="51.8402760" lon="39.4043000">
    <ele>124.3</ele>
    <time>2017-03-26T11:56:44Z</time>
   </trkpt>
   <trkpt lat="51.8402280" lon="39.4042970">
    <ele>124.0</ele>
    <time>2017-03-26T11:56:45Z</time>
   </trkpt>
   <trkpt lat="51.8399250" lon="39.4042900">
    <ele>120.6</ele>
    <time>2017-03-26T11:56:51Z</time>
   </trkpt>
   <trkpt lat="51.8394710" lon="39.4042760">
    <ele>118.4</ele>
    <time>2017-03-26T11:57:00Z</time>
   </trkpt>
   <trkpt lat="51.8394220" lon="39.4042770">
    <ele>118.4</ele>
    <time>2017-03-26T11:57:01Z</time>
   </trkpt>
   <trkpt lat="51.8393790" lon="39.4042720">
    <ele>118.3</ele>
    <time>2017-03-26T11:57:02Z</time>
   </trkpt>
   <trkpt lat="51.8393290" lon="39.4042720">
    <ele>118.3</ele>
    <time>2017-03-26T11:57:03Z</time>
   </trkpt>
   <trkpt lat="51.8392740" lon="39.4042720">
    <ele>118.3</ele>
    <time>2017-03-26T11:57:04Z</time>
   </trkpt>
   <trkpt lat="51.8391200" lon="39.4042720">
    <ele>118.4</ele>
    <time>2017-03-26T11:57:07Z</time>
   </trkpt>
   <trkpt lat="51.8388160" lon="39.4042580">
    <ele>118.3</ele>
    <time>2017-03-26T11:57:16Z</time>
   </trkpt>
   <trkpt lat="51.8385200" lon="39.4042460">
    <ele>117.2</ele>
    <time>2017-03-26T11:57:26Z</time>
   </trkpt>
   <trkpt lat="51.8384020" lon="39.4042840">
    <ele>116.8</ele>
    <time>2017-03-26T11:57:36Z</time>
   </trkpt>
   <trkpt lat="51.8383300" lon="39.4042890">
    <ele>116.5</ele>
    <time>2017-03-26T11:57:41Z</time>
   </trkpt>
   <trkpt lat="51.8379600" lon="39.4042510">
    <ele>115.4</ele>
    <time>2017-03-26T11:57:52Z</time>
   </trkpt>
   <trkpt lat="51.8375720" lon="39.4042130">
    <ele>116.2</ele>
    <time>2017-03-26T11:58:03Z</time>
   </trkpt>
   <trkpt lat="51.8374530" lon="39.4043160">
    <ele>116.4</ele>
    <time>2017-03-26T11:58:08Z</time>
   </trkpt>
   <trkpt lat="51.8374220" lon="39.4043230">
    <ele>116.3</ele>
    <time>2017-03-26T11:58:09Z</time>
   </trkpt>
   <trkpt lat="51.8371490" lon="39.4042020">
    <ele>114.8</ele>
    <time>2017-03-26T11:58:20Z</time>
   </trkpt>
   <trkpt lat="51.8371190" lon="39.4039930">
    <ele>114.6</ele>
    <time>2017-03-26T11:58:25Z</time>
   </trkpt>
   <trkpt lat="51.8371270" lon="39.4039480">
    <ele>114.6</ele>
    <time>2017-03-26T11:58:26Z</time>
   </trkpt>
   <trkpt lat="51.8371480" lon="39.4037930">
    <ele>114.9</ele>
    <time>2017-03-26T11:58:29Z</time>
   </trkpt>
   <trkpt lat="51.8371980" lon="39.4031920">
    <ele>115.1</ele>
    <time>2017-03-26T11:58:38Z</time>
   </trkpt>
   <trkpt lat="51.8371970" lon="39.4030980">
    <ele>115.1</ele>
    <time>2017-03-26T11:58:39Z</time>
   </trkpt>
   <trkpt lat="51.8371990" lon="39.4030030">
    <ele>115.2</ele>
    <time>2017-03-26T11:58:40Z</time>
   </trkpt>
   <trkpt lat="51.8372150" lon="39.4026580">
    <ele>114.8</ele>
    <time>2017-03-26T11:58:44Z</time>
   </trkpt>
   <trkpt lat="51.8372140" lon="39.4025810">
    <ele>114.4</ele>
    <time>2017-03-26T11:58:45Z</time>
   </trkpt>
   <trkpt lat="51.8372160" lon="39.4025050">
    <ele>114.0</ele>
    <time>2017-03-26T11:58:46Z</time>
   </trkpt>
   <trkpt lat="51.8372200" lon="39.4024380">
    <ele>113.9</ele>
    <time>2017-03-26T11:58:47Z</time>
   </trkpt>
   <trkpt lat="51.8372190" lon="39.4023740">
    <ele>113.8</ele>
    <time>2017-03-26T11:58:48Z</time>
   </trkpt>
   <trkpt lat="51.8372180" lon="39.4023060">
    <ele>113.7</ele>
    <time>2017-03-26T11:58:49Z</time>
   </trkpt>
   <trkpt lat="51.8372150" lon="39.4022290">
    <ele>113.8</ele>
    <time>2017-03-26T11:58:50Z</time>
   </trkpt>
   <trkpt lat="51.8372090" lon="39.4021470">
    <ele>113.8</ele>
    <time>2017-03-26T11:58:51Z</time>
   </trkpt>
   <trkpt lat="51.8372040" lon="39.4020650">
    <ele>113.9</ele>
    <time>2017-03-26T11:58:52Z</time>
   </trkpt>
   <trkpt lat="51.8371970" lon="39.4019870">
    <ele>113.9</ele>
    <time>2017-03-26T11:58:53Z</time>
   </trkpt>
   <trkpt lat="51.8372270" lon="39.4013470">
    <ele>113.1</ele>
    <time>2017-03-26T11:59:03Z</time>
   </trkpt>
   <trkpt lat="51.8372200" lon="39.4012740">
    <ele>113.0</ele>
    <time>2017-03-26T11:59:04Z</time>
   </trkpt>
   <trkpt lat="51.8372030" lon="39.4011050">
    <ele>113.0</ele>
    <time>2017-03-26T11:59:06Z</time>
   </trkpt>
   <trkpt lat="51.8371990" lon="39.4010200">
    <ele>113.2</ele>
    <time>2017-03-26T11:59:07Z</time>
   </trkpt>
   <trkpt lat="51.8372000" lon="39.4009410">
    <ele>113.6</ele>
    <time>2017-03-26T11:59:08Z</time>
   </trkpt>
   <trkpt lat="51.8372050" lon="39.4008800">
    <ele>113.8</ele>
    <time>2017-03-26T11:59:09Z</time>
   </trkpt>
   <trkpt lat="51.8372090" lon="39.4008160">
    <ele>114.0</ele>
    <time>2017-03-26T11:59:10Z</time>
   </trkpt>
   <trkpt lat="51.8372120" lon="39.4007440">
    <ele>114.1</ele>
    <time>2017-03-26T11:59:11Z</time>
   </trkpt>
   <trkpt lat="51.8372110" lon="39.4005770">
    <ele>113.9</ele>
    <time>2017-03-26T11:59:13Z</time>
   </trkpt>
   <trkpt lat="51.8372130" lon="39.4005000">
    <ele>113.6</ele>
    <time>2017-03-26T11:59:14Z</time>
   </trkpt>
   <trkpt lat="51.8372100" lon="39.4004200">
    <ele>113.7</ele>
    <time>2017-03-26T11:59:15Z</time>
   </trkpt>
   <trkpt lat="51.8372040" lon="39.4003390">
    <ele>113.8</ele>
    <time>2017-03-26T11:59:16Z</time>
   </trkpt>
   <trkpt lat="51.8372050" lon="39.4002660">
    <ele>113.9</ele>
    <time>2017-03-26T11:59:17Z</time>
   </trkpt>
   <trkpt lat="51.8372120" lon="39.4001990">
    <ele>113.9</ele>
    <time>2017-03-26T11:59:18Z</time>
   </trkpt>
   <trkpt lat="51.8372190" lon="39.4001320">
    <ele>114.0</ele>
    <time>2017-03-26T11:59:19Z</time>
   </trkpt>
   <trkpt lat="51.8372170" lon="39.3999830">
    <ele>114.2</ele>
    <time>2017-03-26T11:59:21Z</time>
   </trkpt>
   <trkpt lat="51.8372120" lon="39.3999030">
    <ele>114.3</ele>
    <time>2017-03-26T11:59:22Z</time>
   </trkpt>
   <trkpt lat="51.8372080" lon="39.3998260">
    <ele>114.5</ele>
    <time>2017-03-26T11:59:23Z</time>
   </trkpt>
   <trkpt lat="51.8372040" lon="39.3997420">
    <ele>114.8</ele>
    <time>2017-03-26T11:59:24Z</time>
   </trkpt>
   <trkpt lat="51.8372010" lon="39.3996530">
    <ele>115.1</ele>
    <time>2017-03-26T11:59:25Z</time>
   </trkpt>
   <trkpt lat="51.8372040" lon="39.3994910">
    <ele>115.3</ele>
    <time>2017-03-26T11:59:27Z</time>
   </trkpt>
   <trkpt lat="51.8372140" lon="39.3994160">
    <ele>115.3</ele>
    <time>2017-03-26T11:59:28Z</time>
   </trkpt>
   <trkpt lat="51.8372260" lon="39.3988550">
    <ele>116.6</ele>
    <time>2017-03-26T11:59:37Z</time>
   </trkpt>
   <trkpt lat="51.8372320" lon="39.3985700">
    <ele>115.4</ele>
    <time>2017-03-26T11:59:41Z</time>
   </trkpt>
   <trkpt lat="51.8372380" lon="39.3984840">
    <ele>114.7</ele>
    <time>2017-03-26T11:59:42Z</time>
   </trkpt>
   <trkpt lat="51.8372440" lon="39.3984170">
    <ele>114.3</ele>
    <time>2017-03-26T11:59:43Z</time>
   </trkpt>
   <trkpt lat="51.8372510" lon="39.3983550">
    <ele>114.1</ele>
    <time>2017-03-26T11:59:44Z</time>
   </trkpt>
   <trkpt lat="51.8372550" lon="39.3982930">
    <ele>113.9</ele>
    <time>2017-03-26T11:59:45Z</time>
   </trkpt>
   <trkpt lat="51.8372640" lon="39.3982290">
    <ele>114.0</ele>
    <time>2017-03-26T11:59:46Z</time>
   </trkpt>
   <trkpt lat="51.8372650" lon="39.3981620">
    <ele>114.1</ele>
    <time>2017-03-26T11:59:47Z</time>
   </trkpt>
   <trkpt lat="51.8372700" lon="39.3980880">
    <ele>114.2</ele>
    <time>2017-03-26T11:59:48Z</time>
   </trkpt>
   <trkpt lat="51.8372740" lon="39.3980040">
    <ele>114.4</ele>
    <time>2017-03-26T11:59:49Z</time>
   </trkpt>
   <trkpt lat="51.8372720" lon="39.3979110">
    <ele>114.4</ele>
    <time>2017-03-26T11:59:50Z</time>
   </trkpt>
   <trkpt lat="51.8372600" lon="39.3978050">
    <ele>114.4</ele>
    <time>2017-03-26T11:59:51Z</time>
   </trkpt>
   <trkpt lat="51.8372380" lon="39.3972700">
    <ele>116.0</ele>
    <time>2017-03-26T11:59:56Z</time>
   </trkpt>
   <trkpt lat="51.8372430" lon="39.3971840">
    <ele>116.3</ele>
    <time>2017-03-26T11:59:57Z</time>
   </trkpt>
   <trkpt lat="51.8372420" lon="39.3970990">
    <ele>116.6</ele>
    <time>2017-03-26T11:59:58Z</time>
   </trkpt>
   <trkpt lat="51.8372360" lon="39.3970200">
    <ele>116.8</ele>
    <time>2017-03-26T11:59:59Z</time>
   </trkpt>
   <trkpt lat="51.8372280" lon="39.3969600">
    <ele>117.0</ele>
    <time>2017-03-26T12:00:00Z</time>
   </trkpt>
   <trkpt lat="51.8372300" lon="39.3969110">
    <ele>117.0</ele>
    <time>2017-03-26T12:00:01Z</time>
   </trkpt>
   <trkpt lat="51.8372310" lon="39.3968490">
    <ele>117.1</ele>
    <time>2017-03-26T12:00:02Z</time>
   </trkpt>
   <trkpt lat="51.8372250" lon="39.3967830">
    <ele>117.1</ele>
    <time>2017-03-26T12:00:03Z</time>
   </trkpt>
   <trkpt lat="51.8372230" lon="39.3967240">
    <ele>117.0</ele>
    <time>2017-03-26T12:00:04Z</time>
   </trkpt>
   <trkpt lat="51.8372250" lon="39.3966650">
    <ele>117.0</ele>
    <time>2017-03-26T12:00:05Z</time>
   </trkpt>
   <trkpt lat="51.8372250" lon="39.3964260">
    <ele>117.3</ele>
    <time>2017-03-26T12:00:14Z</time>
   </trkpt>
   <trkpt lat="51.8371880" lon="39.3961740">
    <ele>117.6</ele>
    <time>2017-03-26T12:00:32Z</time>
   </trkpt>
   <trkpt lat="51.8371490" lon="39.3957080">
    <ele>116.4</ele>
    <time>2017-03-26T12:00:38Z</time>
   </trkpt>
   <trkpt lat="51.8371440" lon="39.3953800">
    <ele>114.9</ele>
    <time>2017-03-26T12:00:41Z</time>
   </trkpt>
   <trkpt lat="51.8371620" lon="39.3952940">
    <ele>114.5</ele>
    <time>2017-03-26T12:00:42Z</time>
   </trkpt>
   <trkpt lat="51.8371900" lon="39.3952110">
    <ele>114.1</ele>
    <time>2017-03-26T12:00:43Z</time>
   </trkpt>
   <trkpt lat="51.8372080" lon="39.3951430">
    <ele>113.9</ele>
    <time>2017-03-26T12:00:44Z</time>
   </trkpt>
   <trkpt lat="51.8372180" lon="39.3950790">
    <ele>113.6</ele>
    <time>2017-03-26T12:00:45Z</time>
   </trkpt>
   <trkpt lat="51.8372240" lon="39.3950150">
    <ele>113.4</ele>
    <time>2017-03-26T12:00:46Z</time>
   </trkpt>
   <trkpt lat="51.8372250" lon="39.3949520">
    <ele>113.1</ele>
    <time>2017-03-26T12:00:47Z</time>
   </trkpt>
   <trkpt lat="51.8372250" lon="39.3948890">
    <ele>112.6</ele>
    <time>2017-03-26T12:00:48Z</time>
   </trkpt>
   <trkpt lat="51.8372590" lon="39.3940290">
    <ele>108.4</ele>
    <time>2017-03-26T12:01:00Z</time>
   </trkpt>
   <trkpt lat="51.8372680" lon="39.3932140">
    <ele>108.3</ele>
    <time>2017-03-26T12:01:10Z</time>
   </trkpt>
   <trkpt lat="51.8372740" lon="39.3930420">
    <ele>108.2</ele>
    <time>2017-03-26T12:01:12Z</time>
   </trkpt>
   <trkpt lat="51.8372930" lon="39.3929150">
    <ele>108.3</ele>
    <time>2017-03-26T12:01:14Z</time>
   </trkpt>
   <trkpt lat="51.8373000" lon="39.3926430">
    <ele>108.3</ele>
    <time>2017-03-26T12:01:19Z</time>
   </trkpt>
   <trkpt lat="51.8373030" lon="39.3925870">
    <ele>108.4</ele>
    <time>2017-03-26T12:01:20Z</time>
   </trkpt>
   <trkpt lat="51.8373030" lon="39.3925390">
    <ele>108.5</ele>
    <time>2017-03-26T12:01:21Z</time>
   </trkpt>
   <trkpt lat="51.8372990" lon="39.3925050">
    <ele>108.7</ele>
    <time>2017-03-26T12:01:22Z</time>
   </trkpt>
   <trkpt lat="51.8372780" lon="39.3924540">
    <ele>108.9</ele>
    <time>2017-03-26T12:01:23Z</time>
   </trkpt>
   <trkpt lat="51.8372510" lon="39.3924070">
    <ele>109.0</ele>
    <time>2017-03-26T12:01:24Z</time>
   </trkpt>
   <trkpt lat="51.8372160" lon="39.3923630">
    <ele>109.2</ele>
    <time>2017-03-26T12:01:25Z</time>
   </trkpt>
   <trkpt lat="51.8371700" lon="39.3923200">
    <ele>109.2</ele>
    <time>2017-03-26T12:01:26Z</time>
   </trkpt>
   <trkpt lat="51.8371340" lon="39.3922910">
    <ele>109.1</ele>
    <time>2017-03-26T12:01:27Z</time>
   </trkpt>
   <trkpt lat="51.8370980" lon="39.3922660">
    <ele>108.3</ele>
    <time>2017-03-26T12:01:28Z</time>
   </trkpt>
   <trkpt lat="51.8370700" lon="39.3922360">
    <ele>108.1</ele>
    <time>2017-03-26T12:01:29Z</time>
   </trkpt>
   <trkpt lat="51.8369130" lon="39.3921170">
    <ele>107.7</ele>
    <time>2017-03-26T12:01:33Z</time>
   </trkpt>
   <trkpt lat="51.8365150" lon="39.3919920">
    <ele>107.1</ele>
    <time>2017-03-26T12:01:42Z</time>
   </trkpt>
   <trkpt lat="51.8363640" lon="39.3919770">
    <ele>105.9</ele>
    <time>2017-03-26T12:01:45Z</time>
   </trkpt>
   <trkpt lat="51.8358970" lon="39.3921790">
    <ele>107.6</ele>
    <time>2017-03-26T12:01:56Z</time>
   </trkpt>
   <trkpt lat="51.8357780" lon="39.3923370">
    <ele>108.3</ele>
    <time>2017-03-26T12:01:59Z</time>
   </trkpt>
   <trkpt lat="51.8357480" lon="39.3924030">
    <ele>108.3</ele>
    <time>2017-03-26T12:02:00Z</time>
   </trkpt>
   <trkpt lat="51.8357210" lon="39.3924740">
    <ele>108.3</ele>
    <time>2017-03-26T12:02:01Z</time>
   </trkpt>
   <trkpt lat="51.8356970" lon="39.3925480">
    <ele>108.3</ele>
    <time>2017-03-26T12:02:02Z</time>
   </trkpt>
   <trkpt lat="51.8356750" lon="39.3926240">
    <ele>108.5</ele>
    <time>2017-03-26T12:02:03Z</time>
   </trkpt>
   <trkpt lat="51.8354280" lon="39.3932220">
    <ele>108.6</ele>
    <time>2017-03-26T12:02:12Z</time>
   </trkpt>
   <trkpt lat="51.8353480" lon="39.3933610">
    <ele>108.3</ele>
    <time>2017-03-26T12:02:14Z</time>
   </trkpt>
   <trkpt lat="51.8353000" lon="39.3934250">
    <ele>108.3</ele>
    <time>2017-03-26T12:02:15Z</time>
   </trkpt>
   <trkpt lat="51.8352490" lon="39.3934840">
    <ele>108.6</ele>
    <time>2017-03-26T12:02:16Z</time>
   </trkpt>
   <trkpt lat="51.8348740" lon="39.3938760">
    <ele>110.5</ele>
    <time>2017-03-26T12:02:24Z</time>
   </trkpt>
   <trkpt lat="51.8348220" lon="39.3939260">
    <ele>110.4</ele>
    <time>2017-03-26T12:02:25Z</time>
   </trkpt>
   <trkpt lat="51.8344500" lon="39.3944540">
    <ele>109.0</ele>
    <time>2017-03-26T12:02:34Z</time>
   </trkpt>
   <trkpt lat="51.8344110" lon="39.3945400">
    <ele>108.8</ele>
    <time>2017-03-26T12:02:35Z</time>
   </trkpt>
   <trkpt lat="51.8343700" lon="39.3946310">
    <ele>108.6</ele>
    <time>2017-03-26T12:02:36Z</time>
   </trkpt>
   <trkpt lat="51.8341730" lon="39.3951730">
    <ele>107.8</ele>
    <time>2017-03-26T12:02:41Z</time>
   </trkpt>
   <trkpt lat="51.8341500" lon="39.3952820">
    <ele>107.8</ele>
    <time>2017-03-26T12:02:42Z</time>
   </trkpt>
   <trkpt lat="51.8341290" lon="39.3954030">
    <ele>107.9</ele>
    <time>2017-03-26T12:02:43Z</time>
   </trkpt>
   <trkpt lat="51.8341290" lon="39.3954980">
    <ele>107.7</ele>
    <time>2017-03-26T12:02:44Z</time>
   </trkpt>
   <trkpt lat="51.8341250" lon="39.3956020">
    <ele>107.7</ele>
    <time>2017-03-26T12:02:45Z</time>
   </trkpt>
   <trkpt lat="51.8341250" lon="39.3956940">
    <ele>108.4</ele>
    <time>2017-03-26T12:02:46Z</time>
   </trkpt>
   <trkpt lat="51.8341250" lon="39.3957860">
    <ele>109.0</ele>
    <time>2017-03-26T12:02:47Z</time>
   </trkpt>
   <trkpt lat="51.8341350" lon="39.3958810">
    <ele>109.8</ele>
    <time>2017-03-26T12:02:48Z</time>
   </trkpt>
   <trkpt lat="51.8342480" lon="39.3963780">
    <ele>112.9</ele>
    <time>2017-03-26T12:02:54Z</time>
   </trkpt>
   <trkpt lat="51.8342650" lon="39.3964470">
    <ele>112.7</ele>
    <time>2017-03-26T12:02:55Z</time>
   </trkpt>
   <trkpt lat="51.8342970" lon="39.3965150">
    <ele>112.5</ele>
    <time>2017-03-26T12:02:56Z</time>
   </trkpt>
   <trkpt lat="51.8343370" lon="39.3965890">
    <ele>112.5</ele>
    <time>2017-03-26T12:02:57Z</time>
   </trkpt>
   <trkpt lat="51.8343790" lon="39.3966740">
    <ele>112.4</ele>
    <time>2017-03-26T12:02:58Z</time>
   </trkpt>
   <trkpt lat="51.8345450" lon="39.3969900">
    <ele>112.1</ele>
    <time>2017-03-26T12:03:02Z</time>
   </trkpt>
   <trkpt lat="51.8345700" lon="39.3970640">
    <ele>112.0</ele>
    <time>2017-03-26T12:03:03Z</time>
   </trkpt>
   <trkpt lat="51.8346490" lon="39.3973430">
    <ele>111.5</ele>
    <time>2017-03-26T12:03:07Z</time>
   </trkpt>
   <trkpt lat="51.8346620" lon="39.3974130">
    <ele>111.8</ele>
    <time>2017-03-26T12:03:08Z</time>
   </trkpt>
   <trkpt lat="51.8346670" lon="39.3974820">
    <ele>112.1</ele>
    <time>2017-03-26T12:03:09Z</time>
   </trkpt>
   <trkpt lat="51.8346820" lon="39.3975540">
    <ele>112.3</ele>
    <time>2017-03-26T12:03:10Z</time>
   </trkpt>
   <trkpt lat="51.8347010" lon="39.3976270">
    <ele>112.4</ele>
    <time>2017-03-26T12:03:11Z</time>
   </trkpt>
   <trkpt lat="51.8347140" lon="39.3977070">
    <ele>112.5</ele>
    <time>2017-03-26T12:03:12Z</time>
   </trkpt>
   <trkpt lat="51.8347260" lon="39.3977950">
    <ele>112.6</ele>
    <time>2017-03-26T12:03:13Z</time>
   </trkpt>
   <trkpt lat="51.8347620" lon="39.3980410">
    <ele>113.0</ele>
    <time>2017-03-26T12:03:16Z</time>
   </trkpt>
   <trkpt lat="51.8347760" lon="39.3982210">
    <ele>113.3</ele>
    <time>2017-03-26T12:03:18Z</time>
   </trkpt>
   <trkpt lat="51.8347740" lon="39.3983010">
    <ele>113.4</ele>
    <time>2017-03-26T12:03:19Z</time>
   </trkpt>
   <trkpt lat="51.8347010" lon="39.3986770">
    <ele>113.5</ele>
    <time>2017-03-26T12:03:25Z</time>
   </trkpt>
   <trkpt lat="51.8346270" lon="39.3988020">
    <ele>112.9</ele>
    <time>2017-03-26T12:03:27Z</time>
   </trkpt>
   <trkpt lat="51.8343500" lon="39.3991360">
    <ele>112.4</ele>
    <time>2017-03-26T12:03:34Z</time>
   </trkpt>
   <trkpt lat="51.8343090" lon="39.3991630">
    <ele>112.3</ele>
    <time>2017-03-26T12:03:35Z</time>
   </trkpt>
   <trkpt lat="51.8342650" lon="39.3991740">
    <ele>112.2</ele>
    <time>2017-03-26T12:03:36Z</time>
   </trkpt>
   <trkpt lat="51.8342180" lon="39.3991690">
    <ele>112.1</ele>
    <time>2017-03-26T12:03:37Z</time>
   </trkpt>
   <trkpt lat="51.8341690" lon="39.3991570">
    <ele>111.9</ele>
    <time>2017-03-26T12:03:38Z</time>
   </trkpt>
   <trkpt lat="51.8341220" lon="39.3991340">
    <ele>111.6</ele>
    <time>2017-03-26T12:03:39Z</time>
   </trkpt>
   <trkpt lat="51.8340700" lon="39.3991080">
    <ele>111.1</ele>
    <time>2017-03-26T12:03:40Z</time>
   </trkpt>
   <trkpt lat="51.8339750" lon="39.3990520">
    <ele>110.2</ele>
    <time>2017-03-26T12:03:42Z</time>
   </trkpt>
   <trkpt lat="51.8339230" lon="39.3990410">
    <ele>109.9</ele>
    <time>2017-03-26T12:03:43Z</time>
   </trkpt>
   <trkpt lat="51.8338790" lon="39.3990360">
    <ele>109.6</ele>
    <time>2017-03-26T12:03:44Z</time>
   </trkpt>
   <trkpt lat="51.8338430" lon="39.3990360">
    <ele>109.4</ele>
    <time>2017-03-26T12:03:45Z</time>
   </trkpt>
   <trkpt lat="51.8338050" lon="39.3990450">
    <ele>109.2</ele>
    <time>2017-03-26T12:03:46Z</time>
   </trkpt>
   <trkpt lat="51.8334470" lon="39.3992320">
    <ele>105.6</ele>
    <time>2017-03-26T12:03:55Z</time>
   </trkpt>
   <trkpt lat="51.8329220" lon="39.4001280">
    <ele>108.0</ele>
    <time>2017-03-26T12:04:08Z</time>
   </trkpt>
   <trkpt lat="51.8327080" lon="39.4004650">
    <ele>110.2</ele>
    <time>2017-03-26T12:04:14Z</time>
   </trkpt>
   <trkpt lat="51.8326620" lon="39.4005150">
    <ele>110.8</ele>
    <time>2017-03-26T12:04:15Z</time>
   </trkpt>
   <trkpt lat="51.8326170" lon="39.4005590">
    <ele>111.3</ele>
    <time>2017-03-26T12:04:16Z</time>
   </trkpt>
   <trkpt lat="51.8325740" lon="39.4005960">
    <ele>111.8</ele>
    <time>2017-03-26T12:04:17Z</time>
   </trkpt>
   <trkpt lat="51.8325370" lon="39.4006260">
    <ele>112.1</ele>
    <time>2017-03-26T12:04:18Z</time>
   </trkpt>
   <trkpt lat="51.8324980" lon="39.4006570">
    <ele>112.4</ele>
    <time>2017-03-26T12:04:19Z</time>
   </trkpt>
   <trkpt lat="51.8324040" lon="39.4007250">
    <ele>112.7</ele>
    <time>2017-03-26T12:04:21Z</time>
   </trkpt>
   <trkpt lat="51.8323510" lon="39.4007540">
    <ele>112.6</ele>
    <time>2017-03-26T12:04:22Z</time>
   </trkpt>
   <trkpt lat="51.8322990" lon="39.4007730">
    <ele>112.5</ele>
    <time>2017-03-26T12:04:23Z</time>
   </trkpt>
   <trkpt lat="51.8320240" lon="39.4008720">
    <ele>111.5</ele>
    <time>2017-03-26T12:04:28Z</time>
   </trkpt>
   <trkpt lat="51.8319740" lon="39.4008950">
    <ele>111.3</ele>
    <time>2017-03-26T12:04:29Z</time>
   </trkpt>
   <trkpt lat="51.8315220" lon="39.4011090">
    <ele>113.5</ele>
    <time>2017-03-26T12:04:40Z</time>
   </trkpt>
   <trkpt lat="51.8309610" lon="39.4014380">
    <ele>113.7</ele>
    <time>2017-03-26T12:04:51Z</time>
   </trkpt>
   <trkpt lat="51.8304190" lon="39.4015850">
    <ele>116.5</ele>
    <time>2017-03-26T12:05:01Z</time>
   </trkpt>
   <trkpt lat="51.8300810" lon="39.4016830">
    <ele>118.2</ele>
    <time>2017-03-26T12:05:08Z</time>
   </trkpt>
   <trkpt lat="51.8299680" lon="39.4017380">
    <ele>118.9</ele>
    <time>2017-03-26T12:05:10Z</time>
   </trkpt>
   <trkpt lat="51.8297580" lon="39.4018470">
    <ele>119.4</ele>
    <time>2017-03-26T12:05:13Z</time>
   </trkpt>
   <trkpt lat="51.8294590" lon="39.4021660">
    <ele>119.2</ele>
    <time>2017-03-26T12:05:20Z</time>
   </trkpt>
   <trkpt lat="51.8293640" lon="39.4023470">
    <ele>119.3</ele>
    <time>2017-03-26T12:05:23Z</time>
   </trkpt>
   <trkpt lat="51.8291100" lon="39.4029490">
    <ele>118.9</ele>
    <time>2017-03-26T12:05:31Z</time>
   </trkpt>
   <trkpt lat="51.8290320" lon="39.4031070">
    <ele>118.3</ele>
    <time>2017-03-26T12:05:33Z</time>
   </trkpt>
   <trkpt lat="51.8290010" lon="39.4031800">
    <ele>118.1</ele>
    <time>2017-03-26T12:05:34Z</time>
   </trkpt>
   <trkpt lat="51.8289630" lon="39.4032560">
    <ele>118.0</ele>
    <time>2017-03-26T12:05:35Z</time>
   </trkpt>
   <trkpt lat="51.8286950" lon="39.4037200">
    <ele>114.5</ele>
    <time>2017-03-26T12:05:42Z</time>
   </trkpt>
   <trkpt lat="51.8285620" lon="39.4038560">
    <ele>113.0</ele>
    <time>2017-03-26T12:05:45Z</time>
   </trkpt>
   <trkpt lat="51.8285050" lon="39.4038940">
    <ele>112.8</ele>
    <time>2017-03-26T12:05:46Z</time>
   </trkpt>
   <trkpt lat="51.8284510" lon="39.4039230">
    <ele>112.5</ele>
    <time>2017-03-26T12:05:47Z</time>
   </trkpt>
   <trkpt lat="51.8280820" lon="39.4040310">
    <ele>111.9</ele>
    <time>2017-03-26T12:05:54Z</time>
   </trkpt>
   <trkpt lat="51.8280250" lon="39.4040250">
    <ele>112.3</ele>
    <time>2017-03-26T12:05:55Z</time>
   </trkpt>
   <trkpt lat="51.8279670" lon="39.4040230">
    <ele>112.7</ele>
    <time>2017-03-26T12:05:56Z</time>
   </trkpt>
   <trkpt lat="51.8279130" lon="39.4040260">
    <ele>113.1</ele>
    <time>2017-03-26T12:05:57Z</time>
   </trkpt>
   <trkpt lat="51.8278620" lon="39.4040300">
    <ele>113.5</ele>
    <time>2017-03-26T12:05:58Z</time>
   </trkpt>
   <trkpt lat="51.8273770" lon="39.4042860">
    <ele>116.0</ele>
    <time>2017-03-26T12:06:09Z</time>
   </trkpt>
   <trkpt lat="51.8271750" lon="39.4045510">
    <ele>115.8</ele>
    <time>2017-03-26T12:06:15Z</time>
   </trkpt>
   <trkpt lat="51.8271430" lon="39.4045960">
    <ele>115.6</ele>
    <time>2017-03-26T12:06:16Z</time>
   </trkpt>
   <trkpt lat="51.8267670" lon="39.4049960">
    <ele>113.2</ele>
    <time>2017-03-26T12:06:24Z</time>
   </trkpt>
   <trkpt lat="51.8267090" lon="39.4050300">
    <ele>112.9</ele>
    <time>2017-03-26T12:06:25Z</time>
   </trkpt>
   <trkpt lat="51.8266510" lon="39.4050580">
    <ele>112.6</ele>
    <time>2017-03-26T12:06:26Z</time>
   </trkpt>
   <trkpt lat="51.8265860" lon="39.4050830">
    <ele>112.3</ele>
    <time>2017-03-26T12:06:27Z</time>
   </trkpt>
   <trkpt lat="51.8265260" lon="39.4051050">
    <ele>112.0</ele>
    <time>2017-03-26T12:06:28Z</time>
   </trkpt>
   <trkpt lat="51.8264670" lon="39.4051240">
    <ele>111.5</ele>
    <time>2017-03-26T12:06:29Z</time>
   </trkpt>
   <trkpt lat="51.8262040" lon="39.4052430">
    <ele>110.6</ele>
    <time>2017-03-26T12:06:33Z</time>
   </trkpt>
   <trkpt lat="51.8261380" lon="39.4052730">
    <ele>110.7</ele>
    <time>2017-03-26T12:06:34Z</time>
   </trkpt>
   <trkpt lat="51.8256880" lon="39.4054250">
    <ele>111.3</ele>
    <time>2017-03-26T12:06:41Z</time>
   </trkpt>
   <trkpt lat="51.8251250" lon="39.4055790">
    <ele>116.7</ele>
    <time>2017-03-26T12:06:51Z</time>
   </trkpt>
   <trkpt lat="51.8250710" lon="39.4055910">
    <ele>117.4</ele>
    <time>2017-03-26T12:06:52Z</time>
   </trkpt>
   <trkpt lat="51.8250120" lon="39.4055990">
    <ele>118.2</ele>
    <time>2017-03-26T12:06:53Z</time>
   </trkpt>
   <trkpt lat="51.8243970" lon="39.4056300">
    <ele>120.9</ele>
    <time>2017-03-26T12:07:03Z</time>
   </trkpt>
   <trkpt lat="51.8242340" lon="39.4056170">
    <ele>121.8</ele>
    <time>2017-03-26T12:07:06Z</time>
   </trkpt>
   <trkpt lat="51.8240750" lon="39.4055830">
    <ele>121.8</ele>
    <time>2017-03-26T12:07:09Z</time>
   </trkpt>
   <trkpt lat="51.8240250" lon="39.4055740">
    <ele>121.5</ele>
    <time>2017-03-26T12:07:10Z</time>
   </trkpt>
   <trkpt lat="51.8239810" lon="39.4055570">
    <ele>121.1</ele>
    <time>2017-03-26T12:07:11Z</time>
   </trkpt>
   <trkpt lat="51.8239380" lon="39.4055370">
    <ele>120.8</ele>
    <time>2017-03-26T12:07:12Z</time>
   </trkpt>
   <trkpt lat="51.8238900" lon="39.4055250">
    <ele>120.4</ele>
    <time>2017-03-26T12:07:13Z</time>
   </trkpt>
   <trkpt lat="51.8232170" lon="39.4053540">
    <ele>117.4</ele>
    <time>2017-03-26T12:07:24Z</time>
   </trkpt>
   <trkpt lat="51.8229670" lon="39.4053250">
    <ele>116.8</ele>
    <time>2017-03-26T12:07:28Z</time>
   </trkpt>
   <trkpt lat="51.8229040" lon="39.4053280">
    <ele>116.6</ele>
    <time>2017-03-26T12:07:29Z</time>
   </trkpt>
   <trkpt lat="51.8226420" lon="39.4053940">
    <ele>115.4</ele>
    <time>2017-03-26T12:07:34Z</time>
   </trkpt>
   <trkpt lat="51.8223690" lon="39.4054690">
    <ele>115.0</ele>
    <time>2017-03-26T12:07:40Z</time>
   </trkpt>
   <trkpt lat="51.8223220" lon="39.4054880">
    <ele>115.0</ele>
    <time>2017-03-26T12:07:41Z</time>
   </trkpt>
   <trkpt lat="51.8222750" lon="39.4055190">
    <ele>115.0</ele>
    <time>2017-03-26T12:07:42Z</time>
   </trkpt>
   <trkpt lat="51.8222370" lon="39.4055570">
    <ele>115.1</ele>
    <time>2017-03-26T12:07:43Z</time>
   </trkpt>
   <trkpt lat="51.8222000" lon="39.4056010">
    <ele>115.2</ele>
    <time>2017-03-26T12:07:44Z</time>
   </trkpt>
   <trkpt lat="51.8221700" lon="39.4056570">
    <ele>115.4</ele>
    <time>2017-03-26T12:07:45Z</time>
   </trkpt>
   <trkpt lat="51.8221390" lon="39.4057250">
    <ele>115.7</ele>
    <time>2017-03-26T12:07:46Z</time>
   </trkpt>
   <trkpt lat="51.8221030" lon="39.4057990">
    <ele>116.0</ele>
    <time>2017-03-26T12:07:47Z</time>
   </trkpt>
   <trkpt lat="51.8220770" lon="39.4058600">
    <ele>116.3</ele>
    <time>2017-03-26T12:07:48Z</time>
   </trkpt>
   <trkpt lat="51.8220550" lon="39.4059220">
    <ele>116.8</ele>
    <time>2017-03-26T12:07:49Z</time>
   </trkpt>
   <trkpt lat="51.8219310" lon="39.4064080">
    <ele>118.9</ele>
    <time>2017-03-26T12:07:57Z</time>
   </trkpt>
   <trkpt lat="51.8218510" lon="39.4070670">
    <ele>118.8</ele>
    <time>2017-03-26T12:08:05Z</time>
   </trkpt>
   <trkpt lat="51.8218140" lon="39.4072630">
    <ele>117.8</ele>
    <time>2017-03-26T12:08:07Z</time>
   </trkpt>
   <trkpt lat="51.8218000" lon="39.4073560">
    <ele>117.8</ele>
    <time>2017-03-26T12:08:08Z</time>
   </trkpt>
   <trkpt lat="51.8217850" lon="39.4076450">
    <ele>117.4</ele>
    <time>2017-03-26T12:08:11Z</time>
   </trkpt>
   <trkpt lat="51.8217460" lon="39.4079460">
    <ele>117.5</ele>
    <time>2017-03-26T12:08:14Z</time>
   </trkpt>
   <trkpt lat="51.8217360" lon="39.4080400">
    <ele>117.8</ele>
    <time>2017-03-26T12:08:15Z</time>
   </trkpt>
   <trkpt lat="51.8217250" lon="39.4081290">
    <ele>118.2</ele>
    <time>2017-03-26T12:08:16Z</time>
   </trkpt>
   <trkpt lat="51.8217220" lon="39.4082260">
    <ele>118.7</ele>
    <time>2017-03-26T12:08:17Z</time>
   </trkpt>
   <trkpt lat="51.8217260" lon="39.4083030">
    <ele>118.9</ele>
    <time>2017-03-26T12:08:18Z</time>
   </trkpt>
   <trkpt lat="51.8217330" lon="39.4083950">
    <ele>119.0</ele>
    <time>2017-03-26T12:08:19Z</time>
   </trkpt>
   <trkpt lat="51.8217310" lon="39.4084910">
    <ele>119.2</ele>
    <time>2017-03-26T12:08:20Z</time>
   </trkpt>
   <trkpt lat="51.8217260" lon="39.4085730">
    <ele>119.4</ele>
    <time>2017-03-26T12:08:21Z</time>
   </trkpt>
   <trkpt lat="51.8217010" lon="39.4090210">
    <ele>120.2</ele>
    <time>2017-03-26T12:08:27Z</time>
   </trkpt>
   <trkpt lat="51.8216770" lon="39.4091190">
    <ele>119.8</ele>
    <time>2017-03-26T12:08:28Z</time>
   </trkpt>
   <trkpt lat="51.8216530" lon="39.4092170">
    <ele>119.4</ele>
    <time>2017-03-26T12:08:29Z</time>
   </trkpt>
   <trkpt lat="51.8215860" lon="39.4093790">
    <ele>118.8</ele>
    <time>2017-03-26T12:08:31Z</time>
   </trkpt>
   <trkpt lat="51.8215460" lon="39.4094580">
    <ele>118.7</ele>
    <time>2017-03-26T12:08:32Z</time>
   </trkpt>
   <trkpt lat="51.8214610" lon="39.4095920">
    <ele>118.4</ele>
    <time>2017-03-26T12:08:34Z</time>
   </trkpt>
   <trkpt lat="51.8214230" lon="39.4096390">
    <ele>118.1</ele>
    <time>2017-03-26T12:08:35Z</time>
   </trkpt>
   <trkpt lat="51.8213780" lon="39.4096880">
    <ele>117.7</ele>
    <time>2017-03-26T12:08:36Z</time>
   </trkpt>
   <trkpt lat="51.8213380" lon="39.4097120">
    <ele>117.3</ele>
    <time>2017-03-26T12:08:37Z</time>
   </trkpt>
   <trkpt lat="51.8212850" lon="39.4097340">
    <ele>117.0</ele>
    <time>2017-03-26T12:08:38Z</time>
   </trkpt>
   <trkpt lat="51.8212210" lon="39.4097540">
    <ele>116.4</ele>
    <time>2017-03-26T12:08:39Z</time>
   </trkpt>
   <trkpt lat="51.8210930" lon="39.4097920">
    <ele>115.6</ele>
    <time>2017-03-26T12:08:41Z</time>
   </trkpt>
   <trkpt lat="51.8210330" lon="39.4098070">
    <ele>115.3</ele>
    <time>2017-03-26T12:08:42Z</time>
   </trkpt>
   <trkpt lat="51.8208070" lon="39.4098730">
    <ele>113.1</ele>
    <time>2017-03-26T12:08:46Z</time>
   </trkpt>
   <trkpt lat="51.8201630" lon="39.4101480">
    <ele>108.0</ele>
    <time>2017-03-26T12:08:57Z</time>
   </trkpt>
   <trkpt lat="51.8200030" lon="39.4102560">
    <ele>107.6</ele>
    <time>2017-03-26T12:09:00Z</time>
   </trkpt>
   <trkpt lat="51.8199630" lon="39.4102910">
    <ele>107.8</ele>
    <time>2017-03-26T12:09:01Z</time>
   </trkpt>
   <trkpt lat="51.8199220" lon="39.4103230">
    <ele>108.0</ele>
    <time>2017-03-26T12:09:02Z</time>
   </trkpt>
   <trkpt lat="51.8196110" lon="39.4105840">
    <ele>112.4</ele>
    <time>2017-03-26T12:09:10Z</time>
   </trkpt>
   <trkpt lat="51.8191810" lon="39.4108220">
    <ele>116.9</ele>
    <time>2017-03-26T12:09:20Z</time>
   </trkpt>
   <trkpt lat="51.8188100" lon="39.4110710">
    <ele>117.4</ele>
    <time>2017-03-26T12:09:28Z</time>
   </trkpt>
   <trkpt lat="51.8183770" lon="39.4112680">
    <ele>117.8</ele>
    <time>2017-03-26T12:09:37Z</time>
   </trkpt>
   <trkpt lat="51.8180240" lon="39.4112570">
    <ele>116.1</ele>
    <time>2017-03-26T12:09:43Z</time>
   </trkpt>
   <trkpt lat="51.8179580" lon="39.4112330">
    <ele>115.7</ele>
    <time>2017-03-26T12:09:44Z</time>
   </trkpt>
   <trkpt lat="51.8177320" lon="39.4111510">
    <ele>114.3</ele>
    <time>2017-03-26T12:09:48Z</time>
   </trkpt>
   <trkpt lat="51.8176830" lon="39.4111300">
    <ele>114.0</ele>
    <time>2017-03-26T12:09:49Z</time>
   </trkpt>
   <trkpt lat="51.8176330" lon="39.4111110">
    <ele>113.6</ele>
    <time>2017-03-26T12:09:50Z</time>
   </trkpt>
   <trkpt lat="51.8175850" lon="39.4110910">
    <ele>113.0</ele>
    <time>2017-03-26T12:09:51Z</time>
   </trkpt>
   <trkpt lat="51.8175470" lon="39.4110640">
    <ele>112.6</ele>
    <time>2017-03-26T12:09:52Z</time>
   </trkpt>
   <trkpt lat="51.8175020" lon="39.4110340">
    <ele>112.3</ele>
    <time>2017-03-26T12:09:53Z</time>
   </trkpt>
   <trkpt lat="51.8174540" lon="39.4109930">
    <ele>112.0</ele>
    <time>2017-03-26T12:09:54Z</time>
   </trkpt>
   <trkpt lat="51.8174060" lon="39.4109540">
    <ele>111.6</ele>
    <time>2017-03-26T12:09:55Z</time>
   </trkpt>
   <trkpt lat="51.8173560" lon="39.4109200">
    <ele>111.6</ele>
    <time>2017-03-26T12:09:56Z</time>
   </trkpt>
   <trkpt lat="51.8173040" lon="39.4108940">
    <ele>111.9</ele>
    <time>2017-03-26T12:09:57Z</time>
   </trkpt>
   <trkpt lat="51.8172120" lon="39.4108440">
    <ele>112.7</ele>
    <time>2017-03-26T12:09:59Z</time>
   </trkpt>
   <trkpt lat="51.8171750" lon="39.4108100">
    <ele>113.1</ele>
    <time>2017-03-26T12:10:00Z</time>
   </trkpt>
   <trkpt lat="51.8171320" lon="39.4107750">
    <ele>113.7</ele>
    <time>2017-03-26T12:10:01Z</time>
   </trkpt>
   <trkpt lat="51.8170320" lon="39.4107410">
    <ele>114.7</ele>
    <time>2017-03-26T12:10:03Z</time>
   </trkpt>
   <trkpt lat="51.8169780" lon="39.4107330">
    <ele>115.0</ele>
    <time>2017-03-26T12:10:04Z</time>
   </trkpt>
   <trkpt lat="51.8169280" lon="39.4107220">
    <ele>115.3</ele>
    <time>2017-03-26T12:10:05Z</time>
   </trkpt>
   <trkpt lat="51.8168790" lon="39.4107120">
    <ele>115.3</ele>
    <time>2017-03-26T12:10:06Z</time>
   </trkpt>
   <trkpt lat="51.8168300" lon="39.4107100">
    <ele>115.4</ele>
    <time>2017-03-26T12:10:07Z</time>
   </trkpt>
   <trkpt lat="51.8165990" lon="39.4106870">
    <ele>115.7</ele>
    <time>2017-03-26T12:10:12Z</time>
   </trkpt>
   <trkpt lat="51.8162770" lon="39.4107110">
    <ele>115.8</ele>
    <time>2017-03-26T12:10:18Z</time>
   </trkpt>
   <trkpt lat="51.8156750" lon="39.4108480">
    <ele>113.6</ele>
    <time>2017-03-26T12:10:29Z</time>
   </trkpt>
   <trkpt lat="51.8155650" lon="39.4108800">
    <ele>113.0</ele>
    <time>2017-03-26T12:10:31Z</time>
   </trkpt>
   <trkpt lat="51.8149370" lon="39.4111570">
    <ele>108.4</ele>
    <time>2017-03-26T12:10:43Z</time>
   </trkpt>
   <trkpt lat="51.8143770" lon="39.4115110">
    <ele>112.4</ele>
    <time>2017-03-26T12:10:53Z</time>
   </trkpt>
   <trkpt lat="51.8139450" lon="39.4117170">
    <ele>115.7</ele>
    <time>2017-03-26T12:11:03Z</time>
   </trkpt>
   <trkpt lat="51.8136300" lon="39.4118780">
    <ele>115.6</ele>
    <time>2017-03-26T12:11:10Z</time>
   </trkpt>
   <trkpt lat="51.8128520" lon="39.4123410">
    <ele>109.7</ele>
    <time>2017-03-26T12:11:24Z</time>
   </trkpt>
   <trkpt lat="51.8118840" lon="39.4127300">
    <ele>111.4</ele>
    <time>2017-03-26T12:11:42Z</time>
   </trkpt>
   <trkpt lat="51.8110950" lon="39.4132250">
    <ele>111.0</ele>
    <time>2017-03-26T12:11:58Z</time>
   </trkpt>
   <trkpt lat="51.8103360" lon="39.4136490">
    <ele>111.8</ele>
    <time>2017-03-26T12:12:14Z</time>
   </trkpt>
   <trkpt lat="51.8099020" lon="39.4138120">
    <ele>110.7</ele>
    <time>2017-03-26T12:12:22Z</time>
   </trkpt>
   <trkpt lat="51.8098460" lon="39.4138060">
    <ele>110.1</ele>
    <time>2017-03-26T12:12:23Z</time>
   </trkpt>
   <trkpt lat="51.8097930" lon="39.4137780">
    <ele>110.1</ele>
    <time>2017-03-26T12:12:24Z</time>
   </trkpt>
   <trkpt lat="51.8097470" lon="39.4137270">
    <ele>110.3</ele>
    <time>2017-03-26T12:12:25Z</time>
   </trkpt>
   <trkpt lat="51.8097150" lon="39.4136530">
    <ele>110.7</ele>
    <time>2017-03-26T12:12:26Z</time>
   </trkpt>
   <trkpt lat="51.8096970" lon="39.4135740">
    <ele>111.1</ele>
    <time>2017-03-26T12:12:27Z</time>
   </trkpt>
   <trkpt lat="51.8096840" lon="39.4134950">
    <ele>111.5</ele>
    <time>2017-03-26T12:12:28Z</time>
   </trkpt>
   <trkpt lat="51.8095910" lon="39.4131230">
    <ele>112.2</ele>
    <time>2017-03-26T12:12:33Z</time>
   </trkpt>
   <trkpt lat="51.8095610" lon="39.4130690">
    <ele>112.1</ele>
    <time>2017-03-26T12:12:34Z</time>
   </trkpt>
   <trkpt lat="51.8095270" lon="39.4130210">
    <ele>112.0</ele>
    <time>2017-03-26T12:12:35Z</time>
   </trkpt>
   <trkpt lat="51.8094890" lon="39.4129770">
    <ele>112.0</ele>
    <time>2017-03-26T12:12:36Z</time>
   </trkpt>
   <trkpt lat="51.8094490" lon="39.4129400">
    <ele>112.0</ele>
    <time>2017-03-26T12:12:37Z</time>
   </trkpt>
   <trkpt lat="51.8094050" lon="39.4129100">
    <ele>111.9</ele>
    <time>2017-03-26T12:12:38Z</time>
   </trkpt>
   <trkpt lat="51.8093580" lon="39.4128830">
    <ele>111.7</ele>
    <time>2017-03-26T12:12:39Z</time>
   </trkpt>
   <trkpt lat="51.8084640" lon="39.4125980">
    <ele>112.3</ele>
    <time>2017-03-26T12:12:57Z</time>
   </trkpt>
   <trkpt lat="51.8081580" lon="39.4126020">
    <ele>111.3</ele>
    <time>2017-03-26T12:13:03Z</time>
   </trkpt>
   <trkpt lat="51.8081150" lon="39.4126190">
    <ele>111.1</ele>
    <time>2017-03-26T12:13:04Z</time>
   </trkpt>
   <trkpt lat="51.8080810" lon="39.4126550">
    <ele>111.0</ele>
    <time>2017-03-26T12:13:05Z</time>
   </trkpt>
   <trkpt lat="51.8080610" lon="39.4127120">
    <ele>111.0</ele>
    <time>2017-03-26T12:13:06Z</time>
   </trkpt>
   <trkpt lat="51.8080520" lon="39.4127810">
    <ele>110.9</ele>
    <time>2017-03-26T12:13:07Z</time>
   </trkpt>
   <trkpt lat="51.8080490" lon="39.4128540">
    <ele>110.8</ele>
    <time>2017-03-26T12:13:08Z</time>
   </trkpt>
   <trkpt lat="51.8080200" lon="39.4130720">
    <ele>110.2</ele>
    <time>2017-03-26T12:13:11Z</time>
   </trkpt>
   <trkpt lat="51.8080040" lon="39.4131310">
    <ele>109.9</ele>
    <time>2017-03-26T12:13:12Z</time>
   </trkpt>
   <trkpt lat="51.8079860" lon="39.4131840">
    <ele>109.7</ele>
    <time>2017-03-26T12:13:13Z</time>
   </trkpt>
   <trkpt lat="51.8079680" lon="39.4132310">
    <ele>109.3</ele>
    <time>2017-03-26T12:13:14Z</time>
   </trkpt>
   <trkpt lat="51.8079470" lon="39.4132720">
    <ele>108.9</ele>
    <time>2017-03-26T12:13:15Z</time>
   </trkpt>
   <trkpt lat="51.8079240" lon="39.4133100">
    <ele>108.6</ele>
    <time>2017-03-26T12:13:16Z</time>
   </trkpt>
   <trkpt lat="51.8079010" lon="39.4133450">
    <ele>108.5</ele>
    <time>2017-03-26T12:13:17Z</time>
   </trkpt>
   <trkpt lat="51.8078090" lon="39.4135240">
    <ele>108.3</ele>
    <time>2017-03-26T12:13:27Z</time>
   </trkpt>
   <trkpt lat="51.8078100" lon="39.4135230">
    <ele>108.3</ele>
    <time>2017-03-26T12:13:28Z</time>
   </trkpt>
   <trkpt lat="51.8078940" lon="39.4134070">
    <ele>108.5</ele>
    <time>2017-03-26T12:24:26Z</time>
   </trkpt>
   <trkpt lat="51.8080310" lon="39.4131570">
    <ele>110.0</ele>
    <time>2017-03-26T12:24:37Z</time>
   </trkpt>
   <trkpt lat="51.8080300" lon="39.4131540">
    <ele>110.1</ele>
    <time>2017-03-26T12:24:39Z</time>
   </trkpt>
   <trkpt lat="51.8080440" lon="39.4130600">
    <ele>110.4</ele>
    <time>2017-03-26T12:24:49Z</time>
   </trkpt>
   <trkpt lat="51.8080740" lon="39.4126800">
    <ele>111.0</ele>
    <time>2017-03-26T12:24:57Z</time>
   </trkpt>
   <trkpt lat="51.8080840" lon="39.4126540">
    <ele>111.0</ele>
    <time>2017-03-26T12:24:58Z</time>
   </trkpt>
   <trkpt lat="51.8080860" lon="39.4126260">
    <ele>111.0</ele>
    <time>2017-03-26T12:24:59Z</time>
   </trkpt>
   <trkpt lat="51.8080780" lon="39.4126070">
    <ele>111.0</ele>
    <time>2017-03-26T12:25:00Z</time>
   </trkpt>
   <trkpt lat="51.8080680" lon="39.4126100">
    <ele>111.0</ele>
    <time>2017-03-26T12:25:01Z</time>
   </trkpt>
   <trkpt lat="51.8080610" lon="39.4126350">
    <ele>111.0</ele>
    <time>2017-03-26T12:25:02Z</time>
   </trkpt>
   <trkpt lat="51.8080570" lon="39.4126670">
    <ele>111.0</ele>
    <time>2017-03-26T12:25:03Z</time>
   </trkpt>
   <trkpt lat="51.8080580" lon="39.4127080">
    <ele>111.0</ele>
    <time>2017-03-26T12:25:04Z</time>
   </trkpt>
   <trkpt lat="51.8080590" lon="39.4127590">
    <ele>111.0</ele>
    <time>2017-03-26T12:25:05Z</time>
   </trkpt>
   <trkpt lat="51.8079120" lon="39.4133420">
    <ele>108.5</ele>
    <time>2017-03-26T12:25:17Z</time>
   </trkpt>
   <trkpt lat="51.8077760" lon="39.4134210">
    <ele>108.3</ele>
    <time>2017-03-26T12:25:23Z</time>
   </trkpt>
   <trkpt lat="51.8077740" lon="39.4134480">
    <ele>108.3</ele>
    <time>2017-03-26T12:25:24Z</time>
   </trkpt>
   <trkpt lat="51.8077800" lon="39.4134740">
    <ele>108.3</ele>
    <time>2017-03-26T12:25:25Z</time>
   </trkpt>
   <trkpt lat="51.8077910" lon="39.4134950">
    <ele>108.3</ele>
    <time>2017-03-26T12:25:26Z</time>
   </trkpt>
   <trkpt lat="51.8078030" lon="39.4135110">
    <ele>108.3</ele>
    <time>2017-03-26T12:25:27Z</time>
   </trkpt>
   <trkpt lat="51.8078220" lon="39.4135070">
    <ele>108.3</ele>
    <time>2017-03-26T12:25:32Z</time>
   </trkpt>
   <trkpt lat="51.8077860" lon="39.4134780">
    <ele>108.3</ele>
    <time>2017-03-26T12:34:19Z</time>
   </trkpt>
   <trkpt lat="51.8077730" lon="39.4134600">
    <ele>108.3</ele>
    <time>2017-03-26T12:34:20Z</time>
   </trkpt>
   <trkpt lat="51.8077640" lon="39.4134400">
    <ele>108.3</ele>
    <time>2017-03-26T12:34:21Z</time>
   </trkpt>
   <trkpt lat="51.8077590" lon="39.4134200">
    <ele>108.3</ele>
    <time>2017-03-26T12:34:22Z</time>
   </trkpt>
   <trkpt lat="51.8077550" lon="39.4134000">
    <ele>108.4</ele>
    <time>2017-03-26T12:34:23Z</time>
   </trkpt>
   <trkpt lat="51.8077530" lon="39.4133820">
    <ele>108.4</ele>
    <time>2017-03-26T12:34:24Z</time>
   </trkpt>
   <trkpt lat="51.8077420" lon="39.4133530">
    <ele>108.4</ele>
    <time>2017-03-26T12:34:26Z</time>
   </trkpt>
   <trkpt lat="51.8077300" lon="39.4133390">
    <ele>108.5</ele>
    <time>2017-03-26T12:34:27Z</time>
   </trkpt>
   <trkpt lat="51.8077160" lon="39.4133220">
    <ele>108.5</ele>
    <time>2017-03-26T12:34:28Z</time>
   </trkpt>
   <trkpt lat="51.8077040" lon="39.4132980">
    <ele>108.6</ele>
    <time>2017-03-26T12:34:29Z</time>
   </trkpt>
   <trkpt lat="51.8076940" lon="39.4132690">
    <ele>108.8</ele>
    <time>2017-03-26T12:34:30Z</time>
   </trkpt>
   <trkpt lat="51.8076840" lon="39.4132380">
    <ele>108.9</ele>
    <time>2017-03-26T12:34:31Z</time>
   </trkpt>
   <trkpt lat="51.8076770" lon="39.4132060">
    <ele>109.0</ele>
    <time>2017-03-26T12:34:32Z</time>
   </trkpt>
   <trkpt lat="51.8076720" lon="39.4131740">
    <ele>109.2</ele>
    <time>2017-03-26T12:34:33Z</time>
   </trkpt>
   <trkpt lat="51.8076700" lon="39.4131420">
    <ele>109.3</ele>
    <time>2017-03-26T12:34:34Z</time>
   </trkpt>
   <trkpt lat="51.8075890" lon="39.4125630">
    <ele>112.2</ele>
    <time>2017-03-26T12:34:47Z</time>
   </trkpt>
   <trkpt lat="51.8073510" lon="39.4121710">
    <ele>114.2</ele>
    <time>2017-03-26T12:34:58Z</time>
   </trkpt>
   <trkpt lat="51.8066900" lon="39.4118260">
    <ele>115.9</ele>
    <time>2017-03-26T12:35:13Z</time>
   </trkpt>
   <trkpt lat="51.8060650" lon="39.4118260">
    <ele>116.1</ele>
    <time>2017-03-26T12:35:27Z</time>
   </trkpt>
   <trkpt lat="51.8057120" lon="39.4119790">
    <ele>117.4</ele>
    <time>2017-03-26T12:35:38Z</time>
   </trkpt>
   <trkpt lat="51.8053110" lon="39.4120740">
    <ele>121.1</ele>
    <time>2017-03-26T12:35:48Z</time>
   </trkpt>
   <trkpt lat="51.8049480" lon="39.4124380">
    <ele>121.3</ele>
    <time>2017-03-26T12:35:58Z</time>
   </trkpt>
   <trkpt lat="51.8049030" lon="39.4124950">
    <ele>121.0</ele>
    <time>2017-03-26T12:35:59Z</time>
   </trkpt>
   <trkpt lat="51.8048620" lon="39.4125370">
    <ele>121.0</ele>
    <time>2017-03-26T12:36:00Z</time>
   </trkpt>
   <trkpt lat="51.8045610" lon="39.4126690">
    <ele>122.8</ele>
    <time>2017-03-26T12:36:07Z</time>
   </trkpt>
   <trkpt lat="51.8045150" lon="39.4126870">
    <ele>123.0</ele>
    <time>2017-03-26T12:36:08Z</time>
   </trkpt>
   <trkpt lat="51.8039750" lon="39.4127420">
    <ele>124.4</ele>
    <time>2017-03-26T12:36:21Z</time>
   </trkpt>
   <trkpt lat="51.8036870" lon="39.4128300">
    <ele>125.3</ele>
    <time>2017-03-26T12:36:31Z</time>
   </trkpt>
   <trkpt lat="51.8033270" lon="39.4129430">
    <ele>126.4</ele>
    <time>2017-03-26T12:36:41Z</time>
   </trkpt>
   <trkpt lat="51.8032350" lon="39.4129690">
    <ele>127.1</ele>
    <time>2017-03-26T12:36:44Z</time>
   </trkpt>
   <trkpt lat="51.8032050" lon="39.4129450">
    <ele>127.7</ele>
    <time>2017-03-26T12:36:45Z</time>
   </trkpt>
   <trkpt lat="51.8028640" lon="39.4129020">
    <ele>129.5</ele>
    <time>2017-03-26T12:36:55Z</time>
   </trkpt>
   <trkpt lat="51.8023650" lon="39.4130230">
    <ele>127.3</ele>
    <time>2017-03-26T12:37:08Z</time>
   </trkpt>
   <trkpt lat="51.8018620" lon="39.4131070">
    <ele>127.0</ele>
    <time>2017-03-26T12:37:21Z</time>
   </trkpt>
   <trkpt lat="51.8014780" lon="39.4130180">
    <ele>126.9</ele>
    <time>2017-03-26T12:37:31Z</time>
   </trkpt>
   <trkpt lat="51.8011290" lon="39.4129760">
    <ele>126.2</ele>
    <time>2017-03-26T12:37:41Z</time>
   </trkpt>
   <trkpt lat="51.8007090" lon="39.4131350">
    <ele>127.3</ele>
    <time>2017-03-26T12:37:53Z</time>
   </trkpt>
   <trkpt lat="51.8003000" lon="39.4135200">
    <ele>129.1</ele>
    <time>2017-03-26T12:38:04Z</time>
   </trkpt>
   <trkpt lat="51.8000040" lon="39.4138640">
    <ele>129.3</ele>
    <time>2017-03-26T12:38:13Z</time>
   </trkpt>
   <trkpt lat="51.7997780" lon="39.4142450">
    <ele>129.3</ele>
    <time>2017-03-26T12:38:22Z</time>
   </trkpt>
   <trkpt lat="51.7995790" lon="39.4144520">
    <ele>127.5</ele>
    <time>2017-03-26T12:38:28Z</time>
   </trkpt>
   <trkpt lat="51.7991510" lon="39.4149730">
    <ele>128.4</ele>
    <time>2017-03-26T12:38:38Z</time>
   </trkpt>
   <trkpt lat="51.7988340" lon="39.4154620">
    <ele>129.3</ele>
    <time>2017-03-26T12:38:48Z</time>
   </trkpt>
   <trkpt lat="51.7988170" lon="39.4154930">
    <ele>129.3</ele>
    <time>2017-03-26T12:38:49Z</time>
   </trkpt>
   <trkpt lat="51.7988020" lon="39.4155310">
    <ele>129.2</ele>
    <time>2017-03-26T12:38:50Z</time>
   </trkpt>
   <trkpt lat="51.7987860" lon="39.4155680">
    <ele>129.2</ele>
    <time>2017-03-26T12:38:51Z</time>
   </trkpt>
   <trkpt lat="51.7987680" lon="39.4156050">
    <ele>129.2</ele>
    <time>2017-03-26T12:38:52Z</time>
   </trkpt>
   <trkpt lat="51.7987470" lon="39.4156370">
    <ele>129.2</ele>
    <time>2017-03-26T12:38:53Z</time>
   </trkpt>
   <trkpt lat="51.7987210" lon="39.4156730">
    <ele>129.1</ele>
    <time>2017-03-26T12:38:54Z</time>
   </trkpt>
   <trkpt lat="51.7986900" lon="39.4157070">
    <ele>129.1</ele>
    <time>2017-03-26T12:38:55Z</time>
   </trkpt>
   <trkpt lat="51.7986610" lon="39.4157400">
    <ele>129.1</ele>
    <time>2017-03-26T12:38:56Z</time>
   </trkpt>
   <trkpt lat="51.7986330" lon="39.4157770">
    <ele>128.9</ele>
    <time>2017-03-26T12:38:57Z</time>
   </trkpt>
   <trkpt lat="51.7986080" lon="39.4158190">
    <ele>128.8</ele>
    <time>2017-03-26T12:38:58Z</time>
   </trkpt>
   <trkpt lat="51.7985810" lon="39.4158600">
    <ele>128.6</ele>
    <time>2017-03-26T12:38:59Z</time>
   </trkpt>
   <trkpt lat="51.7982590" lon="39.4162380">
    <ele>128.1</ele>
    <time>2017-03-26T12:39:09Z</time>
   </trkpt>
   <trkpt lat="51.7979770" lon="39.4165750">
    <ele>128.1</ele>
    <time>2017-03-26T12:39:19Z</time>
   </trkpt>
   <trkpt lat="51.7979540" lon="39.4166030">
    <ele>128.1</ele>
    <time>2017-03-26T12:39:21Z</time>
   </trkpt>
   <trkpt lat="51.7979020" lon="39.4166200">
    <ele>128.0</ele>
    <time>2017-03-26T12:39:31Z</time>
   </trkpt>
   <trkpt lat="51.7978340" lon="39.4167130">
    <ele>127.8</ele>
    <time>2017-03-26T12:39:44Z</time>
   </trkpt>
   <trkpt lat="51.7978180" lon="39.4167300">
    <ele>127.8</ele>
    <time>2017-03-26T12:39:45Z</time>
   </trkpt>
   <trkpt lat="51.7975730" lon="39.4170310">
    <ele>127.8</ele>
    <time>2017-03-26T12:39:56Z</time>
   </trkpt>
   <trkpt lat="51.7973700" lon="39.4173820">
    <ele>128.4</ele>
    <time>2017-03-26T12:40:06Z</time>
   </trkpt>
   <trkpt lat="51.7970860" lon="39.4177600">
    <ele>128.7</ele>
    <time>2017-03-26T12:40:17Z</time>
   </trkpt>
   <trkpt lat="51.7967790" lon="39.4180380">
    <ele>125.0</ele>
    <time>2017-03-26T12:40:27Z</time>
   </trkpt>
   <trkpt lat="51.7967610" lon="39.4180720">
    <ele>124.7</ele>
    <time>2017-03-26T12:40:28Z</time>
   </trkpt>
   <trkpt lat="51.7967480" lon="39.4181090">
    <ele>124.5</ele>
    <time>2017-03-26T12:40:29Z</time>
   </trkpt>
   <trkpt lat="51.7967350" lon="39.4181420">
    <ele>124.4</ele>
    <time>2017-03-26T12:40:30Z</time>
   </trkpt>
   <trkpt lat="51.7965760" lon="39.4183330">
    <ele>124.7</ele>
    <time>2017-03-26T12:40:44Z</time>
   </trkpt>
   <trkpt lat="51.7965700" lon="39.4183340">
    <ele>124.7</ele>
    <time>2017-03-26T12:40:48Z</time>
   </trkpt>
   <trkpt lat="51.7965040" lon="39.4183640">
    <ele>125.1</ele>
    <time>2017-03-26T12:40:52Z</time>
   </trkpt>
   <trkpt lat="51.7964350" lon="39.4183800">
    <ele>125.6</ele>
    <time>2017-03-26T12:40:57Z</time>
   </trkpt>
   <trkpt lat="51.7964150" lon="39.4183760">
    <ele>125.7</ele>
    <time>2017-03-26T12:40:58Z</time>
   </trkpt>
   <trkpt lat="51.7963970" lon="39.4183740">
    <ele>125.8</ele>
    <time>2017-03-26T12:40:59Z</time>
   </trkpt>
   <trkpt lat="51.7961690" lon="39.4183120">
    <ele>127.3</ele>
    <time>2017-03-26T12:41:08Z</time>
   </trkpt>
   <trkpt lat="51.7958170" lon="39.4181310">
    <ele>128.0</ele>
    <time>2017-03-26T12:41:18Z</time>
   </trkpt>
   <trkpt lat="51.7953180" lon="39.4179720">
    <ele>126.1</ele>
    <time>2017-03-26T12:41:31Z</time>
   </trkpt>
   <trkpt lat="51.7947720" lon="39.4178640">
    <ele>121.8</ele>
    <time>2017-03-26T12:41:43Z</time>
   </trkpt>
   <trkpt lat="51.7942740" lon="39.4177400">
    <ele>120.4</ele>
    <time>2017-03-26T12:41:55Z</time>
   </trkpt>
   <trkpt lat="51.7939570" lon="39.4176560">
    <ele>119.1</ele>
    <time>2017-03-26T12:42:03Z</time>
   </trkpt>
   <trkpt lat="51.7934370" lon="39.4175240">
    <ele>120.4</ele>
    <time>2017-03-26T12:42:13Z</time>
   </trkpt>
   <trkpt lat="51.7928140" lon="39.4173550">
    <ele>125.4</ele>
    <time>2017-03-26T12:42:25Z</time>
   </trkpt>
   <trkpt lat="51.7922770" lon="39.4171940">
    <ele>126.5</ele>
    <time>2017-03-26T12:42:37Z</time>
   </trkpt>
   <trkpt lat="51.7917920" lon="39.4170730">
    <ele>128.4</ele>
    <time>2017-03-26T12:42:48Z</time>
   </trkpt>
   <trkpt lat="51.7913210" lon="39.4169420">
    <ele>129.5</ele>
    <time>2017-03-26T12:42:58Z</time>
   </trkpt>
   <trkpt lat="51.7912200" lon="39.4169090">
    <ele>128.9</ele>
    <time>2017-03-26T12:43:00Z</time>
   </trkpt>
   <trkpt lat="51.7906730" lon="39.4167690">
    <ele>125.9</ele>
    <time>2017-03-26T12:43:12Z</time>
   </trkpt>
   <trkpt lat="51.7901070" lon="39.4166580">
    <ele>125.9</ele>
    <time>2017-03-26T12:43:24Z</time>
   </trkpt>
   <trkpt lat="51.7898590" lon="39.4165850">
    <ele>127.2</ele>
    <time>2017-03-26T12:43:29Z</time>
   </trkpt>
   <trkpt lat="51.7893510" lon="39.4164140">
    <ele>134.7</ele>
    <time>2017-03-26T12:43:41Z</time>
   </trkpt>
   <trkpt lat="51.7889660" lon="39.4163160">
    <ele>136.4</ele>
    <time>2017-03-26T12:43:52Z</time>
   </trkpt>
   <trkpt lat="51.7886930" lon="39.4162130">
    <ele>136.9</ele>
    <time>2017-03-26T12:44:00Z</time>
   </trkpt>
   <trkpt lat="51.7886690" lon="39.4161920">
    <ele>136.9</ele>
    <time>2017-03-26T12:44:01Z</time>
   </trkpt>
   <trkpt lat="51.7883440" lon="39.4161240">
    <ele>136.4</ele>
    <time>2017-03-26T12:44:12Z</time>
   </trkpt>
   <trkpt lat="51.7880430" lon="39.4161020">
    <ele>135.6</ele>
    <time>2017-03-26T12:44:23Z</time>
   </trkpt>
   <trkpt lat="51.7877210" lon="39.4160200">
    <ele>136.8</ele>
    <time>2017-03-26T12:44:33Z</time>
   </trkpt>
   <trkpt lat="51.7873590" lon="39.4158840">
    <ele>139.0</ele>
    <time>2017-03-26T12:44:44Z</time>
   </trkpt>
   <trkpt lat="51.7869390" lon="39.4157480">
    <ele>138.2</ele>
    <time>2017-03-26T12:44:55Z</time>
   </trkpt>
   <trkpt lat="51.7865270" lon="39.4156780">
    <ele>139.1</ele>
    <time>2017-03-26T12:45:06Z</time>
   </trkpt>
   <trkpt lat="51.7861290" lon="39.4155630">
    <ele>141.4</ele>
    <time>2017-03-26T12:45:17Z</time>
   </trkpt>
   <trkpt lat="51.7857620" lon="39.4154390">
    <ele>143.2</ele>
    <time>2017-03-26T12:45:28Z</time>
   </trkpt>
   <trkpt lat="51.7853210" lon="39.4153450">
    <ele>144.2</ele>
    <time>2017-03-26T12:45:39Z</time>
   </trkpt>
   <trkpt lat="51.7849560" lon="39.4152770">
    <ele>142.6</ele>
    <time>2017-03-26T12:45:49Z</time>
   </trkpt>
   <trkpt lat="51.7846770" lon="39.4152070">
    <ele>138.9</ele>
    <time>2017-03-26T12:45:57Z</time>
   </trkpt>
   <trkpt lat="51.7841450" lon="39.4150050">
    <ele>134.5</ele>
    <time>2017-03-26T12:46:09Z</time>
   </trkpt>
   <trkpt lat="51.7836760" lon="39.4149160">
    <ele>133.5</ele>
    <time>2017-03-26T12:46:20Z</time>
   </trkpt>
   <trkpt lat="51.7832000" lon="39.4147680">
    <ele>134.0</ele>
    <time>2017-03-26T12:46:30Z</time>
   </trkpt>
   <trkpt lat="51.7827900" lon="39.4146790">
    <ele>132.8</ele>
    <time>2017-03-26T12:46:38Z</time>
   </trkpt>
   <trkpt lat="51.7823540" lon="39.4145620">
    <ele>134.2</ele>
    <time>2017-03-26T12:46:47Z</time>
   </trkpt>
   <trkpt lat="51.7819600" lon="39.4144950">
    <ele>134.4</ele>
    <time>2017-03-26T12:46:55Z</time>
   </trkpt>
   <trkpt lat="51.7814030" lon="39.4143500">
    <ele>135.6</ele>
    <time>2017-03-26T12:47:06Z</time>
   </trkpt>
   <trkpt lat="51.7808180" lon="39.4141600">
    <ele>137.1</ele>
    <time>2017-03-26T12:47:18Z</time>
   </trkpt>
   <trkpt lat="51.7801620" lon="39.4140280">
    <ele>144.4</ele>
    <time>2017-03-26T12:47:31Z</time>
   </trkpt>
   <trkpt lat="51.7797710" lon="39.4139360">
    <ele>143.8</ele>
    <time>2017-03-26T12:47:40Z</time>
   </trkpt>
   <trkpt lat="51.7797440" lon="39.4139120">
    <ele>143.5</ele>
    <time>2017-03-26T12:47:41Z</time>
   </trkpt>
   <trkpt lat="51.7793620" lon="39.4138100">
    <ele>141.8</ele>
    <time>2017-03-26T12:47:52Z</time>
   </trkpt>
   <trkpt lat="51.7790320" lon="39.4139410">
    <ele>143.1</ele>
    <time>2017-03-26T12:48:00Z</time>
   </trkpt>
   <trkpt lat="51.7789860" lon="39.4139650">
    <ele>143.1</ele>
    <time>2017-03-26T12:48:01Z</time>
   </trkpt>
   <trkpt lat="51.7789440" lon="39.4139880">
    <ele>143.2</ele>
    <time>2017-03-26T12:48:02Z</time>
   </trkpt>
   <trkpt lat="51.7787570" lon="39.4140920">
    <ele>143.8</ele>
    <time>2017-03-26T12:48:06Z</time>
   </trkpt>
   <trkpt lat="51.7782400" lon="39.4143560">
    <ele>145.9</ele>
    <time>2017-03-26T12:48:17Z</time>
   </trkpt>
   <trkpt lat="51.7778250" lon="39.4143730">
    <ele>145.5</ele>
    <time>2017-03-26T12:48:26Z</time>
   </trkpt>
   <trkpt lat="51.7774010" lon="39.4143760">
    <ele>145.3</ele>
    <time>2017-03-26T12:48:35Z</time>
   </trkpt>
   <trkpt lat="51.7767460" lon="39.4143370">
    <ele>147.4</ele>
    <time>2017-03-26T12:48:49Z</time>
   </trkpt>
   <trkpt lat="51.7764710" lon="39.4143350">
    <ele>147.7</ele>
    <time>2017-03-26T12:48:55Z</time>
   </trkpt>
   <trkpt lat="51.7764270" lon="39.4143410">
    <ele>147.8</ele>
    <time>2017-03-26T12:48:56Z</time>
   </trkpt>
   <trkpt lat="51.7760300" lon="39.4143100">
    <ele>149.1</ele>
    <time>2017-03-26T12:49:05Z</time>
   </trkpt>
   <trkpt lat="51.7755070" lon="39.4143200">
    <ele>150.5</ele>
    <time>2017-03-26T12:49:17Z</time>
   </trkpt>
   <trkpt lat="51.7749240" lon="39.4143160">
    <ele>151.0</ele>
    <time>2017-03-26T12:49:30Z</time>
   </trkpt>
   <trkpt lat="51.7743910" lon="39.4142940">
    <ele>150.7</ele>
    <time>2017-03-26T12:49:42Z</time>
   </trkpt>
   <trkpt lat="51.7741890" lon="39.4143150">
    <ele>150.7</ele>
    <time>2017-03-26T12:49:47Z</time>
   </trkpt>
   <trkpt lat="51.7741570" lon="39.4143370">
    <ele>150.7</ele>
    <time>2017-03-26T12:49:48Z</time>
   </trkpt>
   <trkpt lat="51.7741250" lon="39.4143620">
    <ele>150.8</ele>
    <time>2017-03-26T12:49:49Z</time>
   </trkpt>
   <trkpt lat="51.7740880" lon="39.4143930">
    <ele>150.8</ele>
    <time>2017-03-26T12:49:50Z</time>
   </trkpt>
   <trkpt lat="51.7740510" lon="39.4144230">
    <ele>150.8</ele>
    <time>2017-03-26T12:49:51Z</time>
   </trkpt>
   <trkpt lat="51.7740170" lon="39.4144490">
    <ele>150.8</ele>
    <time>2017-03-26T12:49:52Z</time>
   </trkpt>
   <trkpt lat="51.7739820" lon="39.4144770">
    <ele>150.9</ele>
    <time>2017-03-26T12:49:53Z</time>
   </trkpt>
   <trkpt lat="51.7739440" lon="39.4145000">
    <ele>151.0</ele>
    <time>2017-03-26T12:49:54Z</time>
   </trkpt>
   <trkpt lat="51.7734980" lon="39.4148740">
    <ele>151.3</ele>
    <time>2017-03-26T12:50:07Z</time>
   </trkpt>
   <trkpt lat="51.7731530" lon="39.4151400">
    <ele>149.5</ele>
    <time>2017-03-26T12:50:19Z</time>
   </trkpt>
   <trkpt lat="51.7731180" lon="39.4151620">
    <ele>149.3</ele>
    <time>2017-03-26T12:50:20Z</time>
   </trkpt>
   <trkpt lat="51.7730750" lon="39.4151800">
    <ele>149.0</ele>
    <time>2017-03-26T12:50:21Z</time>
   </trkpt>
   <trkpt lat="51.7726260" lon="39.4154430">
    <ele>149.8</ele>
    <time>2017-03-26T12:50:33Z</time>
   </trkpt>
   <trkpt lat="51.7725390" lon="39.4154570">
    <ele>150.1</ele>
    <time>2017-03-26T12:50:35Z</time>
   </trkpt>
   <trkpt lat="51.7724940" lon="39.4154460">
    <ele>150.2</ele>
    <time>2017-03-26T12:50:36Z</time>
   </trkpt>
   <trkpt lat="51.7722660" lon="39.4153280">
    <ele>151.1</ele>
    <time>2017-03-26T12:50:42Z</time>
   </trkpt>
   <trkpt lat="51.7722490" lon="39.4153000">
    <ele>151.1</ele>
    <time>2017-03-26T12:50:43Z</time>
   </trkpt>
   <trkpt lat="51.7722270" lon="39.4152720">
    <ele>151.1</ele>
    <time>2017-03-26T12:50:44Z</time>
   </trkpt>
   <trkpt lat="51.7722080" lon="39.4152440">
    <ele>151.1</ele>
    <time>2017-03-26T12:50:45Z</time>
   </trkpt>
   <trkpt lat="51.7721920" lon="39.4152120">
    <ele>151.1</ele>
    <time>2017-03-26T12:50:46Z</time>
   </trkpt>
   <trkpt lat="51.7721800" lon="39.4151750">
    <ele>151.1</ele>
    <time>2017-03-26T12:50:47Z</time>
   </trkpt>
   <trkpt lat="51.7721650" lon="39.4151340">
    <ele>151.1</ele>
    <time>2017-03-26T12:50:48Z</time>
   </trkpt>
   <trkpt lat="51.7721450" lon="39.4150880">
    <ele>151.1</ele>
    <time>2017-03-26T12:50:49Z</time>
   </trkpt>
   <trkpt lat="51.7721270" lon="39.4150430">
    <ele>151.2</ele>
    <time>2017-03-26T12:50:50Z</time>
   </trkpt>
   <trkpt lat="51.7721060" lon="39.4149920">
    <ele>151.2</ele>
    <time>2017-03-26T12:50:51Z</time>
   </trkpt>
   <trkpt lat="51.7720890" lon="39.4149380">
    <ele>151.2</ele>
    <time>2017-03-26T12:50:52Z</time>
   </trkpt>
   <trkpt lat="51.7720750" lon="39.4148840">
    <ele>151.1</ele>
    <time>2017-03-26T12:50:53Z</time>
   </trkpt>
   <trkpt lat="51.7720620" lon="39.4148380">
    <ele>151.1</ele>
    <time>2017-03-26T12:50:54Z</time>
   </trkpt>
   <trkpt lat="51.7720450" lon="39.4147940">
    <ele>150.9</ele>
    <time>2017-03-26T12:50:55Z</time>
   </trkpt>
   <trkpt lat="51.7720230" lon="39.4147440">
    <ele>150.6</ele>
    <time>2017-03-26T12:50:56Z</time>
   </trkpt>
   <trkpt lat="51.7719910" lon="39.4146920">
    <ele>150.4</ele>
    <time>2017-03-26T12:50:57Z</time>
   </trkpt>
   <trkpt lat="51.7719600" lon="39.4146500">
    <ele>150.3</ele>
    <time>2017-03-26T12:50:58Z</time>
   </trkpt>
   <trkpt lat="51.7719250" lon="39.4146060">
    <ele>150.2</ele>
    <time>2017-03-26T12:50:59Z</time>
   </trkpt>
   <trkpt lat="51.7715030" lon="39.4142150">
    <ele>148.7</ele>
    <time>2017-03-26T12:51:10Z</time>
   </trkpt>
   <trkpt lat="51.7709800" lon="39.4141700">
    <ele>148.1</ele>
    <time>2017-03-26T12:51:22Z</time>
   </trkpt>
   <trkpt lat="51.7704260" lon="39.4141490">
    <ele>146.6</ele>
    <time>2017-03-26T12:51:33Z</time>
   </trkpt>
   <trkpt lat="51.7697530" lon="39.4141220">
    <ele>148.4</ele>
    <time>2017-03-26T12:51:45Z</time>
   </trkpt>
   <trkpt lat="51.7694050" lon="39.4141210">
    <ele>148.6</ele>
    <time>2017-03-26T12:51:51Z</time>
   </trkpt>
   <trkpt lat="51.7687090" lon="39.4141110">
    <ele>148.0</ele>
    <time>2017-03-26T12:52:01Z</time>
   </trkpt>
   <trkpt lat="51.7683320" lon="39.4140890">
    <ele>148.1</ele>
    <time>2017-03-26T12:52:05Z</time>
   </trkpt>
   <trkpt lat="51.7674900" lon="39.4140490">
    <ele>151.0</ele>
    <time>2017-03-26T12:52:17Z</time>
   </trkpt>
   <trkpt lat="51.7670920" lon="39.4140420">
    <ele>151.0</ele>
    <time>2017-03-26T12:52:26Z</time>
   </trkpt>
   <trkpt lat="51.7664740" lon="39.4140090">
    <ele>149.8</ele>
    <time>2017-03-26T12:52:39Z</time>
   </trkpt>
   <trkpt lat="51.7664230" lon="39.4140050">
    <ele>149.6</ele>
    <time>2017-03-26T12:52:40Z</time>
   </trkpt>
   <trkpt lat="51.7658150" lon="39.4140130">
    <ele>148.5</ele>
    <time>2017-03-26T12:52:50Z</time>
   </trkpt>
   <trkpt lat="51.7654960" lon="39.4140120">
    <ele>143.9</ele>
    <time>2017-03-26T12:52:55Z</time>
   </trkpt>
   <trkpt lat="51.7654330" lon="39.4139970">
    <ele>143.5</ele>
    <time>2017-03-26T12:52:56Z</time>
   </trkpt>
   <trkpt lat="51.7648640" lon="39.4139580">
    <ele>144.9</ele>
    <time>2017-03-26T12:53:06Z</time>
   </trkpt>
   <trkpt lat="51.7641040" lon="39.4139430">
    <ele>142.1</ele>
    <time>2017-03-26T12:53:18Z</time>
   </trkpt>
   <trkpt lat="51.7633070" lon="39.4138810">
    <ele>141.2</ele>
    <time>2017-03-26T12:53:31Z</time>
   </trkpt>
   <trkpt lat="51.7625920" lon="39.4138510">
    <ele>139.2</ele>
    <time>2017-03-26T12:53:42Z</time>
   </trkpt>
   <trkpt lat="51.7624300" lon="39.4138970">
    <ele>138.9</ele>
    <time>2017-03-26T12:53:45Z</time>
   </trkpt>
   <trkpt lat="51.7622060" lon="39.4140420">
    <ele>138.8</ele>
    <time>2017-03-26T12:53:49Z</time>
   </trkpt>
   <trkpt lat="51.7619370" lon="39.4143580">
    <ele>138.7</ele>
    <time>2017-03-26T12:53:54Z</time>
   </trkpt>
   <trkpt lat="51.7614580" lon="39.4148150">
    <ele>136.5</ele>
    <time>2017-03-26T12:54:03Z</time>
   </trkpt>
   <trkpt lat="51.7613600" lon="39.4149390">
    <ele>135.3</ele>
    <time>2017-03-26T12:54:05Z</time>
   </trkpt>
   <trkpt lat="51.7611200" lon="39.4152230">
    <ele>133.9</ele>
    <time>2017-03-26T12:54:10Z</time>
   </trkpt>
   <trkpt lat="51.7609960" lon="39.4154430">
    <ele>132.8</ele>
    <time>2017-03-26T12:54:13Z</time>
   </trkpt>
   <trkpt lat="51.7608400" lon="39.4157570">
    <ele>130.4</ele>
    <time>2017-03-26T12:54:17Z</time>
   </trkpt>
   <trkpt lat="51.7607530" lon="39.4158990">
    <ele>129.7</ele>
    <time>2017-03-26T12:54:19Z</time>
   </trkpt>
   <trkpt lat="51.7606620" lon="39.4160740">
    <ele>129.6</ele>
    <time>2017-03-26T12:54:21Z</time>
   </trkpt>
   <trkpt lat="51.7602710" lon="39.4169550">
    <ele>132.3</ele>
    <time>2017-03-26T12:54:31Z</time>
   </trkpt>
   <trkpt lat="51.7601280" lon="39.4174010">
    <ele>132.1</ele>
    <time>2017-03-26T12:54:36Z</time>
   </trkpt>
   <trkpt lat="51.7600120" lon="39.4178410">
    <ele>131.4</ele>
    <time>2017-03-26T12:54:42Z</time>
   </trkpt>
   <trkpt lat="51.7598410" lon="39.4181310">
    <ele>130.1</ele>
    <time>2017-03-26T12:54:47Z</time>
   </trkpt>
   <trkpt lat="51.7596950" lon="39.4183910">
    <ele>129.0</ele>
    <time>2017-03-26T12:54:51Z</time>
   </trkpt>
   <trkpt lat="51.7595460" lon="39.4185970">
    <ele>128.3</ele>
    <time>2017-03-26T12:54:55Z</time>
   </trkpt>
   <trkpt lat="51.7593930" lon="39.4187930">
    <ele>128.5</ele>
    <time>2017-03-26T12:54:59Z</time>
   </trkpt>
   <trkpt lat="51.7592670" lon="39.4189090">
    <ele>129.0</ele>
    <time>2017-03-26T12:55:02Z</time>
   </trkpt>
   <trkpt lat="51.7589420" lon="39.4192590">
    <ele>127.9</ele>
    <time>2017-03-26T12:55:10Z</time>
   </trkpt>
   <trkpt lat="51.7587300" lon="39.4194800">
    <ele>127.1</ele>
    <time>2017-03-26T12:55:15Z</time>
   </trkpt>
   <trkpt lat="51.7585120" lon="39.4197010">
    <ele>125.9</ele>
    <time>2017-03-26T12:55:20Z</time>
   </trkpt>
   <trkpt lat="51.7583780" lon="39.4198300">
    <ele>125.6</ele>
    <time>2017-03-26T12:55:23Z</time>
   </trkpt>
   <trkpt lat="51.7582550" lon="39.4199690">
    <ele>125.7</ele>
    <time>2017-03-26T12:55:26Z</time>
   </trkpt>
   <trkpt lat="51.7581300" lon="39.4200960">
    <ele>125.3</ele>
    <time>2017-03-26T12:55:29Z</time>
   </trkpt>
   <trkpt lat="51.7579230" lon="39.4203120">
    <ele>124.6</ele>
    <time>2017-03-26T12:55:34Z</time>
   </trkpt>
   <trkpt lat="51.7577310" lon="39.4204270">
    <ele>123.8</ele>
    <time>2017-03-26T12:55:38Z</time>
   </trkpt>
   <trkpt lat="51.7575300" lon="39.4205760">
    <ele>120.8</ele>
    <time>2017-03-26T12:55:42Z</time>
   </trkpt>
   <trkpt lat="51.7572780" lon="39.4206740">
    <ele>118.3</ele>
    <time>2017-03-26T12:55:47Z</time>
   </trkpt>
   <trkpt lat="51.7571020" lon="39.4208240">
    <ele>117.3</ele>
    <time>2017-03-26T12:55:52Z</time>
   </trkpt>
   <trkpt lat="51.7570970" lon="39.4208740">
    <ele>117.1</ele>
    <time>2017-03-26T12:55:53Z</time>
   </trkpt>
   <trkpt lat="51.7570970" lon="39.4209280">
    <ele>117.0</ele>
    <time>2017-03-26T12:55:54Z</time>
   </trkpt>
   <trkpt lat="51.7570950" lon="39.4209890">
    <ele>117.0</ele>
    <time>2017-03-26T12:55:55Z</time>
   </trkpt>
   <trkpt lat="51.7570890" lon="39.4210530">
    <ele>117.0</ele>
    <time>2017-03-26T12:55:56Z</time>
   </trkpt>
   <trkpt lat="51.7570850" lon="39.4215000">
    <ele>116.3</ele>
    <time>2017-03-26T12:56:03Z</time>
   </trkpt>
   <trkpt lat="51.7570690" lon="39.4215270">
    <ele>116.3</ele>
    <time>2017-03-26T12:56:04Z</time>
   </trkpt>
   <trkpt lat="51.7569710" lon="39.4215590">
    <ele>116.5</ele>
    <time>2017-03-26T12:56:08Z</time>
   </trkpt>
   <trkpt lat="51.7568820" lon="39.4216690">
    <ele>116.1</ele>
    <time>2017-03-26T12:56:11Z</time>
   </trkpt>
   <trkpt lat="51.7566880" lon="39.4217890">
    <ele>115.1</ele>
    <time>2017-03-26T12:56:15Z</time>
   </trkpt>
   <trkpt lat="51.7566500" lon="39.4217880">
    <ele>115.1</ele>
    <time>2017-03-26T12:56:16Z</time>
   </trkpt>
   <trkpt lat="51.7566160" lon="39.4217790">
    <ele>115.2</ele>
    <time>2017-03-26T12:56:17Z</time>
   </trkpt>
   <trkpt lat="51.7565840" lon="39.4217600">
    <ele>115.2</ele>
    <time>2017-03-26T12:56:18Z</time>
   </trkpt>
   <trkpt lat="51.7565550" lon="39.4217280">
    <ele>115.3</ele>
    <time>2017-03-26T12:56:19Z</time>
   </trkpt>
   <trkpt lat="51.7565300" lon="39.4216830">
    <ele>115.4</ele>
    <time>2017-03-26T12:56:20Z</time>
   </trkpt>
   <trkpt lat="51.7565100" lon="39.4216260">
    <ele>115.4</ele>
    <time>2017-03-26T12:56:21Z</time>
   </trkpt>
   <trkpt lat="51.7564950" lon="39.4215610">
    <ele>115.5</ele>
    <time>2017-03-26T12:56:22Z</time>
   </trkpt>
   <trkpt lat="51.7564830" lon="39.4214910">
    <ele>115.6</ele>
    <time>2017-03-26T12:56:23Z</time>
   </trkpt>
   <trkpt lat="51.7564730" lon="39.4214190">
    <ele>115.6</ele>
    <time>2017-03-26T12:56:24Z</time>
   </trkpt>
   <trkpt lat="51.7564660" lon="39.4213460">
    <ele>115.7</ele>
    <time>2017-03-26T12:56:25Z</time>
   </trkpt>
   <trkpt lat="51.7564060" lon="39.4200810">
    <ele>116.2</ele>
    <time>2017-03-26T12:56:39Z</time>
   </trkpt>
   <trkpt lat="51.7563650" lon="39.4176710">
    <ele>117.3</ele>
    <time>2017-03-26T12:57:02Z</time>
   </trkpt>
   <trkpt lat="51.7561540" lon="39.4153700">
    <ele>119.7</ele>
    <time>2017-03-26T12:57:23Z</time>
   </trkpt>
   <trkpt lat="51.7557820" lon="39.4135480">
    <ele>118.8</ele>
    <time>2017-03-26T12:57:39Z</time>
   </trkpt>
   <trkpt lat="51.7553970" lon="39.4117430">
    <ele>119.6</ele>
    <time>2017-03-26T12:57:55Z</time>
   </trkpt>
   <trkpt lat="51.7552990" lon="39.4113170">
    <ele>119.5</ele>
    <time>2017-03-26T12:57:59Z</time>
   </trkpt>
   <trkpt lat="51.7548290" lon="39.4092620">
    <ele>121.0</ele>
    <time>2017-03-26T12:58:18Z</time>
   </trkpt>
   <trkpt lat="51.7545740" lon="39.4076220">
    <ele>119.5</ele>
    <time>2017-03-26T12:58:33Z</time>
   </trkpt>
   <trkpt lat="51.7544700" lon="39.4069670">
    <ele>119.4</ele>
    <time>2017-03-26T12:58:39Z</time>
   </trkpt>
   <trkpt lat="51.7539360" lon="39.4055040">
    <ele>121.1</ele>
    <time>2017-03-26T12:58:54Z</time>
   </trkpt>
   <trkpt lat="51.7533890" lon="39.4040670">
    <ele>119.6</ele>
    <time>2017-03-26T12:59:09Z</time>
   </trkpt>
   <trkpt lat="51.7528480" lon="39.4027580">
    <ele>120.8</ele>
    <time>2017-03-26T12:59:23Z</time>
   </trkpt>
   <trkpt lat="51.7523130" lon="39.4014860">
    <ele>120.1</ele>
    <time>2017-03-26T12:59:37Z</time>
   </trkpt>
   <trkpt lat="51.7522000" lon="39.4012160">
    <ele>120.2</ele>
    <time>2017-03-26T12:59:40Z</time>
   </trkpt>
   <trkpt lat="51.7521670" lon="39.4011270">
    <ele>120.1</ele>
    <time>2017-03-26T12:59:41Z</time>
   </trkpt>
   <trkpt lat="51.7516960" lon="39.3999830">
    <ele>119.1</ele>
    <time>2017-03-26T12:59:54Z</time>
   </trkpt>
   <trkpt lat="51.7511760" lon="39.3985670">
    <ele>117.2</ele>
    <time>2017-03-26T13:00:10Z</time>
   </trkpt>
   <trkpt lat="51.7507260" lon="39.3974150">
    <ele>119.9</ele>
    <time>2017-03-26T13:00:24Z</time>
   </trkpt>
   <trkpt lat="51.7501300" lon="39.3961030">
    <ele>116.8</ele>
    <time>2017-03-26T13:00:40Z</time>
   </trkpt>
   <trkpt lat="51.7495170" lon="39.3946590">
    <ele>119.5</ele>
    <time>2017-03-26T13:00:57Z</time>
   </trkpt>
   <trkpt lat="51.7494830" lon="39.3945600">
    <ele>119.5</ele>
    <time>2017-03-26T13:00:58Z</time>
   </trkpt>
   <trkpt lat="51.7494560" lon="39.3944520">
    <ele>119.4</ele>
    <time>2017-03-26T13:00:59Z</time>
   </trkpt>
   <trkpt lat="51.7494400" lon="39.3943420">
    <ele>119.3</ele>
    <time>2017-03-26T13:01:00Z</time>
   </trkpt>
   <trkpt lat="51.7494340" lon="39.3942270">
    <ele>119.2</ele>
    <time>2017-03-26T13:01:01Z</time>
   </trkpt>
   <trkpt lat="51.7494430" lon="39.3941190">
    <ele>119.1</ele>
    <time>2017-03-26T13:01:02Z</time>
   </trkpt>
   <trkpt lat="51.7494600" lon="39.3940120">
    <ele>119.1</ele>
    <time>2017-03-26T13:01:03Z</time>
   </trkpt>
   <trkpt lat="51.7494780" lon="39.3939040">
    <ele>119.0</ele>
    <time>2017-03-26T13:01:04Z</time>
   </trkpt>
   <trkpt lat="51.7495570" lon="39.3933640">
    <ele>119.6</ele>
    <time>2017-03-26T13:01:09Z</time>
   </trkpt>
   <trkpt lat="51.7495590" lon="39.3932620">
    <ele>119.8</ele>
    <time>2017-03-26T13:01:10Z</time>
   </trkpt>
   <trkpt lat="51.7495550" lon="39.3931630">
    <ele>120.0</ele>
    <time>2017-03-26T13:01:11Z</time>
   </trkpt>
   <trkpt lat="51.7495420" lon="39.3930650">
    <ele>120.1</ele>
    <time>2017-03-26T13:01:12Z</time>
   </trkpt>
   <trkpt lat="51.7495260" lon="39.3929660">
    <ele>120.1</ele>
    <time>2017-03-26T13:01:13Z</time>
   </trkpt>
   <trkpt lat="51.7492180" lon="39.3918020">
    <ele>120.8</ele>
    <time>2017-03-26T13:01:26Z</time>
   </trkpt>
   <trkpt lat="51.7488810" lon="39.3906080">
    <ele>122.0</ele>
    <time>2017-03-26T13:01:41Z</time>
   </trkpt>
   <trkpt lat="51.7486790" lon="39.3898060">
    <ele>121.7</ele>
    <time>2017-03-26T13:01:52Z</time>
   </trkpt>
   <trkpt lat="51.7484620" lon="39.3890900">
    <ele>121.9</ele>
    <time>2017-03-26T13:02:01Z</time>
   </trkpt>
   <trkpt lat="51.7482670" lon="39.3883430">
    <ele>123.1</ele>
    <time>2017-03-26T13:02:11Z</time>
   </trkpt>
   <trkpt lat="51.7480360" lon="39.3875030">
    <ele>121.4</ele>
    <time>2017-03-26T13:02:20Z</time>
   </trkpt>
   <trkpt lat="51.7479970" lon="39.3873110">
    <ele>121.1</ele>
    <time>2017-03-26T13:02:22Z</time>
   </trkpt>
   <trkpt lat="51.7479740" lon="39.3872190">
    <ele>120.9</ele>
    <time>2017-03-26T13:02:23Z</time>
   </trkpt>
   <trkpt lat="51.7479510" lon="39.3871290">
    <ele>120.9</ele>
    <time>2017-03-26T13:02:24Z</time>
   </trkpt>
   <trkpt lat="51.7475620" lon="39.3856400">
    <ele>120.9</ele>
    <time>2017-03-26T13:02:40Z</time>
   </trkpt>
   <trkpt lat="51.7472210" lon="39.3843860">
    <ele>119.1</ele>
    <time>2017-03-26T13:02:54Z</time>
   </trkpt>
   <trkpt lat="51.7468850" lon="39.3831790">
    <ele>119.3</ele>
    <time>2017-03-26T13:03:08Z</time>
   </trkpt>
   <trkpt lat="51.7468650" lon="39.3830920">
    <ele>119.4</ele>
    <time>2017-03-26T13:03:09Z</time>
   </trkpt>
   <trkpt lat="51.7467540" lon="39.3826490">
    <ele>119.7</ele>
    <time>2017-03-26T13:03:14Z</time>
   </trkpt>
   <trkpt lat="51.7467330" lon="39.3825650">
    <ele>119.7</ele>
    <time>2017-03-26T13:03:15Z</time>
   </trkpt>
   <trkpt lat="51.7467120" lon="39.3824850">
    <ele>119.7</ele>
    <time>2017-03-26T13:03:16Z</time>
   </trkpt>
   <trkpt lat="51.7464440" lon="39.3815900">
    <ele>120.0</ele>
    <time>2017-03-26T13:03:28Z</time>
   </trkpt>
   <trkpt lat="51.7461330" lon="39.3806400">
    <ele>119.0</ele>
    <time>2017-03-26T13:03:41Z</time>
   </trkpt>
   <trkpt lat="51.7461120" lon="39.3805850">
    <ele>118.9</ele>
    <time>2017-03-26T13:03:46Z</time>
   </trkpt>
   <trkpt lat="51.7460320" lon="39.3804700">
    <ele>118.8</ele>
    <time>2017-03-26T13:06:38Z</time>
   </trkpt>
   <trkpt lat="51.7460190" lon="39.3804420">
    <ele>118.8</ele>
    <time>2017-03-26T13:06:39Z</time>
   </trkpt>
   <trkpt lat="51.7458070" lon="39.3797910">
    <ele>118.4</ele>
    <time>2017-03-26T13:06:51Z</time>
   </trkpt>
   <trkpt lat="51.7455080" lon="39.3788670">
    <ele>118.2</ele>
    <time>2017-03-26T13:07:05Z</time>
   </trkpt>
   <trkpt lat="51.7452190" lon="39.3780000">
    <ele>116.3</ele>
    <time>2017-03-26T13:07:19Z</time>
   </trkpt>
   <trkpt lat="51.7449010" lon="39.3770390">
    <ele>114.3</ele>
    <time>2017-03-26T13:07:33Z</time>
   </trkpt>
   <trkpt lat="51.7445780" lon="39.3760950">
    <ele>113.8</ele>
    <time>2017-03-26T13:07:48Z</time>
   </trkpt>
   <trkpt lat="51.7442160" lon="39.3750190">
    <ele>112.8</ele>
    <time>2017-03-26T13:08:03Z</time>
   </trkpt>
   <trkpt lat="51.7437860" lon="39.3736960">
    <ele>112.6</ele>
    <time>2017-03-26T13:08:19Z</time>
   </trkpt>
   <trkpt lat="51.7433220" lon="39.3723240">
    <ele>110.8</ele>
    <time>2017-03-26T13:08:34Z</time>
   </trkpt>
   <trkpt lat="51.7429150" lon="39.3711200">
    <ele>110.6</ele>
    <time>2017-03-26T13:08:47Z</time>
   </trkpt>
   <trkpt lat="51.7424980" lon="39.3698450">
    <ele>112.2</ele>
    <time>2017-03-26T13:09:01Z</time>
   </trkpt>
   <trkpt lat="51.7420270" lon="39.3684950">
    <ele>111.0</ele>
    <time>2017-03-26T13:09:17Z</time>
   </trkpt>
   <trkpt lat="51.7416990" lon="39.3670120">
    <ele>110.8</ele>
    <time>2017-03-26T13:09:34Z</time>
   </trkpt>
   <trkpt lat="51.7414360" lon="39.3653640">
    <ele>108.8</ele>
    <time>2017-03-26T13:09:51Z</time>
   </trkpt>
   <trkpt lat="51.7409570" lon="39.3636880">
    <ele>107.5</ele>
    <time>2017-03-26T13:10:07Z</time>
   </trkpt>
   <trkpt lat="51.7403840" lon="39.3616900">
    <ele>106.4</ele>
    <time>2017-03-26T13:10:25Z</time>
   </trkpt>
   <trkpt lat="51.7399410" lon="39.3601430">
    <ele>104.7</ele>
    <time>2017-03-26T13:10:39Z</time>
   </trkpt>
   <trkpt lat="51.7394000" lon="39.3581990">
    <ele>104.9</ele>
    <time>2017-03-26T13:10:57Z</time>
   </trkpt>
   <trkpt lat="51.7390440" lon="39.3567710">
    <ele>103.2</ele>
    <time>2017-03-26T13:11:11Z</time>
   </trkpt>
   <trkpt lat="51.7385530" lon="39.3551180">
    <ele>101.4</ele>
    <time>2017-03-26T13:11:28Z</time>
   </trkpt>
   <trkpt lat="51.7385130" lon="39.3550370">
    <ele>101.2</ele>
    <time>2017-03-26T13:11:29Z</time>
   </trkpt>
   <trkpt lat="51.7384620" lon="39.3549750">
    <ele>101.1</ele>
    <time>2017-03-26T13:11:30Z</time>
   </trkpt>
   <trkpt lat="51.7384020" lon="39.3549450">
    <ele>101.0</ele>
    <time>2017-03-26T13:11:31Z</time>
   </trkpt>
   <trkpt lat="51.7383360" lon="39.3549470">
    <ele>101.1</ele>
    <time>2017-03-26T13:11:32Z</time>
   </trkpt>
   <trkpt lat="51.7382760" lon="39.3549780">
    <ele>101.4</ele>
    <time>2017-03-26T13:11:33Z</time>
   </trkpt>
   <trkpt lat="51.7382200" lon="39.3550240">
    <ele>101.5</ele>
    <time>2017-03-26T13:11:34Z</time>
   </trkpt>
   <trkpt lat="51.7381650" lon="39.3550730">
    <ele>101.5</ele>
    <time>2017-03-26T13:11:35Z</time>
   </trkpt>
   <trkpt lat="51.7369370" lon="39.3561300">
    <ele>101.6</ele>
    <time>2017-03-26T13:11:56Z</time>
   </trkpt>
   <trkpt lat="51.7359880" lon="39.3569270">
    <ele>105.2</ele>
    <time>2017-03-26T13:12:12Z</time>
   </trkpt>
   <trkpt lat="51.7347390" lon="39.3579370">
    <ele>103.3</ele>
    <time>2017-03-26T13:12:33Z</time>
   </trkpt>
   <trkpt lat="51.7340210" lon="39.3586680">
    <ele>104.6</ele>
    <time>2017-03-26T13:12:46Z</time>
   </trkpt>
   <trkpt lat="51.7337460" lon="39.3589420">
    <ele>105.6</ele>
    <time>2017-03-26T13:12:51Z</time>
   </trkpt>
   <trkpt lat="51.7336850" lon="39.3589720">
    <ele>105.8</ele>
    <time>2017-03-26T13:12:52Z</time>
   </trkpt>
   <trkpt lat="51.7336250" lon="39.3589750">
    <ele>106.0</ele>
    <time>2017-03-26T13:12:53Z</time>
   </trkpt>
   <trkpt lat="51.7335710" lon="39.3589410">
    <ele>106.1</ele>
    <time>2017-03-26T13:12:54Z</time>
   </trkpt>
   <trkpt lat="51.7335330" lon="39.3588800">
    <ele>106.2</ele>
    <time>2017-03-26T13:12:55Z</time>
   </trkpt>
   <trkpt lat="51.7335030" lon="39.3588050">
    <ele>106.7</ele>
    <time>2017-03-26T13:12:56Z</time>
   </trkpt>
   <trkpt lat="51.7334750" lon="39.3587180">
    <ele>107.2</ele>
    <time>2017-03-26T13:12:57Z</time>
   </trkpt>
   <trkpt lat="51.7334490" lon="39.3586270">
    <ele>107.7</ele>
    <time>2017-03-26T13:12:58Z</time>
   </trkpt>
   <trkpt lat="51.7332110" lon="39.3570510">
    <ele>109.0</ele>
    <time>2017-03-26T13:13:14Z</time>
   </trkpt>
   <trkpt lat="51.7330250" lon="39.3556300">
    <ele>111.5</ele>
    <time>2017-03-26T13:13:28Z</time>
   </trkpt>
   <trkpt lat="51.7328130" lon="39.3540000">
    <ele>110.6</ele>
    <time>2017-03-26T13:13:44Z</time>
   </trkpt>
   <trkpt lat="51.7326720" lon="39.3530880">
    <ele>111.4</ele>
    <time>2017-03-26T13:13:53Z</time>
   </trkpt>
   <trkpt lat="51.7326570" lon="39.3529820">
    <ele>111.3</ele>
    <time>2017-03-26T13:13:54Z</time>
   </trkpt>
   <trkpt lat="51.7324650" lon="39.3518750">
    <ele>110.4</ele>
    <time>2017-03-26T13:14:04Z</time>
   </trkpt>
   <trkpt lat="51.7324460" lon="39.3517670">
    <ele>110.6</ele>
    <time>2017-03-26T13:14:05Z</time>
   </trkpt>
   <trkpt lat="51.7321550" lon="39.3503180">
    <ele>107.9</ele>
    <time>2017-03-26T13:14:19Z</time>
   </trkpt>
   <trkpt lat="51.7320340" lon="39.3500950">
    <ele>107.1</ele>
    <time>2017-03-26T13:14:25Z</time>
   </trkpt>
   <trkpt lat="51.7319910" lon="39.3500780">
    <ele>107.1</ele>
    <time>2017-03-26T13:14:26Z</time>
   </trkpt>
   <trkpt lat="51.7319370" lon="39.3500770">
    <ele>107.1</ele>
    <time>2017-03-26T13:14:27Z</time>
   </trkpt>
   <trkpt lat="51.7312300" lon="39.3499620">
    <ele>108.0</ele>
    <time>2017-03-26T13:14:39Z</time>
   </trkpt>
   <trkpt lat="51.7311130" lon="39.3498920">
    <ele>108.1</ele>
    <time>2017-03-26T13:14:41Z</time>
   </trkpt>
   <trkpt lat="51.7306200" lon="39.3494910">
    <ele>107.9</ele>
    <time>2017-03-26T13:14:50Z</time>
   </trkpt>
   <trkpt lat="51.7305700" lon="39.3494250">
    <ele>107.8</ele>
    <time>2017-03-26T13:14:51Z</time>
   </trkpt>
   <trkpt lat="51.7300170" lon="39.3485080">
    <ele>107.2</ele>
    <time>2017-03-26T13:15:03Z</time>
   </trkpt>
   <trkpt lat="51.7298840" lon="39.3481380">
    <ele>107.1</ele>
    <time>2017-03-26T13:15:07Z</time>
   </trkpt>
   <trkpt lat="51.7298600" lon="39.3480430">
    <ele>107.0</ele>
    <time>2017-03-26T13:15:08Z</time>
   </trkpt>
   <trkpt lat="51.7298420" lon="39.3479460">
    <ele>107.0</ele>
    <time>2017-03-26T13:15:09Z</time>
   </trkpt>
   <trkpt lat="51.7298110" lon="39.3477350">
    <ele>107.1</ele>
    <time>2017-03-26T13:15:11Z</time>
   </trkpt>
   <trkpt lat="51.7297540" lon="39.3470930">
    <ele>107.8</ele>
    <time>2017-03-26T13:15:17Z</time>
   </trkpt>
   <trkpt lat="51.7297410" lon="39.3469920">
    <ele>107.9</ele>
    <time>2017-03-26T13:15:18Z</time>
   </trkpt>
   <trkpt lat="51.7297060" lon="39.3464920">
    <ele>107.9</ele>
    <time>2017-03-26T13:15:23Z</time>
   </trkpt>
   <trkpt lat="51.7296980" lon="39.3463990">
    <ele>107.9</ele>
    <time>2017-03-26T13:15:24Z</time>
   </trkpt>
   <trkpt lat="51.7296580" lon="39.3457860">
    <ele>107.8</ele>
    <time>2017-03-26T13:15:30Z</time>
   </trkpt>
   <trkpt lat="51.7295110" lon="39.3441320">
    <ele>108.9</ele>
    <time>2017-03-26T13:15:45Z</time>
   </trkpt>
   <trkpt lat="51.7294140" lon="39.3429130">
    <ele>107.4</ele>
    <time>2017-03-26T13:15:56Z</time>
   </trkpt>
   <trkpt lat="51.7293150" lon="39.3410250">
    <ele>107.9</ele>
    <time>2017-03-26T13:16:12Z</time>
   </trkpt>
   <trkpt lat="51.7291760" lon="39.3387130">
    <ele>103.0</ele>
    <time>2017-03-26T13:16:31Z</time>
   </trkpt>
   <trkpt lat="51.7291430" lon="39.3376470">
    <ele>102.3</ele>
    <time>2017-03-26T13:16:40Z</time>
   </trkpt>
   <trkpt lat="51.7291580" lon="39.3375310">
    <ele>102.2</ele>
    <time>2017-03-26T13:16:41Z</time>
   </trkpt>
   <trkpt lat="51.7291810" lon="39.3374210">
    <ele>102.1</ele>
    <time>2017-03-26T13:16:42Z</time>
   </trkpt>
   <trkpt lat="51.7292070" lon="39.3373210">
    <ele>102.1</ele>
    <time>2017-03-26T13:16:43Z</time>
   </trkpt>
   <trkpt lat="51.7292350" lon="39.3372260">
    <ele>102.1</ele>
    <time>2017-03-26T13:16:44Z</time>
   </trkpt>
   <trkpt lat="51.7292630" lon="39.3371310">
    <ele>102.2</ele>
    <time>2017-03-26T13:16:45Z</time>
   </trkpt>
   <trkpt lat="51.7292960" lon="39.3370380">
    <ele>102.3</ele>
    <time>2017-03-26T13:16:46Z</time>
   </trkpt>
   <trkpt lat="51.7297190" lon="39.3359360">
    <ele>101.6</ele>
    <time>2017-03-26T13:16:58Z</time>
   </trkpt>
   <trkpt lat="51.7297510" lon="39.3358310">
    <ele>101.5</ele>
    <time>2017-03-26T13:16:59Z</time>
   </trkpt>
   <trkpt lat="51.7298880" lon="39.3344090">
    <ele>103.1</ele>
    <time>2017-03-26T13:17:12Z</time>
   </trkpt>
   <trkpt lat="51.7298190" lon="39.3326720">
    <ele>98.0</ele>
    <time>2017-03-26T13:17:28Z</time>
   </trkpt>
   <trkpt lat="51.7298490" lon="39.3321190">
    <ele>98.0</ele>
    <time>2017-03-26T13:17:33Z</time>
   </trkpt>
   <trkpt lat="51.7302670" lon="39.3303720">
    <ele>101.1</ele>
    <time>2017-03-26T13:17:50Z</time>
   </trkpt>
   <trkpt lat="51.7308840" lon="39.3292330">
    <ele>100.4</ele>
    <time>2017-03-26T13:18:05Z</time>
   </trkpt>
   <trkpt lat="51.7312500" lon="39.3286110">
    <ele>100.0</ele>
    <time>2017-03-26T13:18:13Z</time>
   </trkpt>
   <trkpt lat="51.7312850" lon="39.3285120">
    <ele>99.8</ele>
    <time>2017-03-26T13:18:14Z</time>
   </trkpt>
   <trkpt lat="51.7315100" lon="39.3270690">
    <ele>98.5</ele>
    <time>2017-03-26T13:18:28Z</time>
   </trkpt>
   <trkpt lat="51.7316770" lon="39.3248920">
    <ele>99.8</ele>
    <time>2017-03-26T13:18:49Z</time>
   </trkpt>
   <trkpt lat="51.7318270" lon="39.3228720">
    <ele>104.1</ele>
    <time>2017-03-26T13:19:08Z</time>
   </trkpt>
   <trkpt lat="51.7319560" lon="39.3211980">
    <ele>104.0</ele>
    <time>2017-03-26T13:19:24Z</time>
   </trkpt>
   <trkpt lat="51.7319430" lon="39.3208860">
    <ele>104.2</ele>
    <time>2017-03-26T13:19:27Z</time>
   </trkpt>
   <trkpt lat="51.7319280" lon="39.3207850">
    <ele>104.6</ele>
    <time>2017-03-26T13:19:28Z</time>
   </trkpt>
   <trkpt lat="51.7319060" lon="39.3206870">
    <ele>105.0</ele>
    <time>2017-03-26T13:19:29Z</time>
   </trkpt>
   <trkpt lat="51.7314160" lon="39.3197090">
    <ele>109.2</ele>
    <time>2017-03-26T13:19:41Z</time>
   </trkpt>
   <trkpt lat="51.7310640" lon="39.3193940">
    <ele>109.9</ele>
    <time>2017-03-26T13:19:47Z</time>
   </trkpt>
   <trkpt lat="51.7301600" lon="39.3191530">
    <ele>109.1</ele>
    <time>2017-03-26T13:20:00Z</time>
   </trkpt>
   <trkpt lat="51.7290880" lon="39.3189170">
    <ele>110.5</ele>
    <time>2017-03-26T13:20:16Z</time>
   </trkpt>
   <trkpt lat="51.7274440" lon="39.3185730">
    <ele>112.3</ele>
    <time>2017-03-26T13:20:40Z</time>
   </trkpt>
   <trkpt lat="51.7263230" lon="39.3183140">
    <ele>110.0</ele>
    <time>2017-03-26T13:20:57Z</time>
   </trkpt>
   <trkpt lat="51.7262670" lon="39.3182730">
    <ele>110.0</ele>
    <time>2017-03-26T13:20:58Z</time>
   </trkpt>
   <trkpt lat="51.7262160" lon="39.3182150">
    <ele>110.0</ele>
    <time>2017-03-26T13:20:59Z</time>
   </trkpt>
   <trkpt lat="51.7261760" lon="39.3181380">
    <ele>111.1</ele>
    <time>2017-03-26T13:21:00Z</time>
   </trkpt>
   <trkpt lat="51.7261550" lon="39.3180470">
    <ele>110.9</ele>
    <time>2017-03-26T13:21:01Z</time>
   </trkpt>
   <trkpt lat="51.7261520" lon="39.3179490">
    <ele>110.8</ele>
    <time>2017-03-26T13:21:02Z</time>
   </trkpt>
   <trkpt lat="51.7261630" lon="39.3178510">
    <ele>110.8</ele>
    <time>2017-03-26T13:21:03Z</time>
   </trkpt>
   <trkpt lat="51.7261780" lon="39.3177530">
    <ele>110.8</ele>
    <time>2017-03-26T13:21:04Z</time>
   </trkpt>
   <trkpt lat="51.7264120" lon="39.3156600">
    <ele>112.6</ele>
    <time>2017-03-26T13:21:25Z</time>
   </trkpt>
   <trkpt lat="51.7265050" lon="39.3146710">
    <ele>111.7</ele>
    <time>2017-03-26T13:21:35Z</time>
   </trkpt>
   <trkpt lat="51.7266300" lon="39.3134110">
    <ele>111.5</ele>
    <time>2017-03-26T13:21:48Z</time>
   </trkpt>
   <trkpt lat="51.7267370" lon="39.3122710">
    <ele>111.0</ele>
    <time>2017-03-26T13:22:03Z</time>
   </trkpt>
   <trkpt lat="51.7268390" lon="39.3111650">
    <ele>112.2</ele>
    <time>2017-03-26T13:22:22Z</time>
   </trkpt>
   <trkpt lat="51.7269160" lon="39.3102960">
    <ele>112.0</ele>
    <time>2017-03-26T13:22:37Z</time>
   </trkpt>
   <trkpt lat="51.7270630" lon="39.3087830">
    <ele>116.3</ele>
    <time>2017-03-26T13:22:55Z</time>
   </trkpt>
   <trkpt lat="51.7273000" lon="39.3063860">
    <ele>118.9</ele>
    <time>2017-03-26T13:23:18Z</time>
   </trkpt>
   <trkpt lat="51.7274630" lon="39.3046610">
    <ele>115.8</ele>
    <time>2017-03-26T13:23:33Z</time>
   </trkpt>
   <trkpt lat="51.7277350" lon="39.3019420">
    <ele>115.3</ele>
    <time>2017-03-26T13:23:57Z</time>
   </trkpt>
   <trkpt lat="51.7279270" lon="39.2992850">
    <ele>115.2</ele>
    <time>2017-03-26T13:24:21Z</time>
   </trkpt>
   <trkpt lat="51.7278110" lon="39.2969710">
    <ele>112.9</ele>
    <time>2017-03-26T13:24:42Z</time>
   </trkpt>
   <trkpt lat="51.7277340" lon="39.2968190">
    <ele>112.7</ele>
    <time>2017-03-26T13:24:44Z</time>
   </trkpt>
   <trkpt lat="51.7276790" lon="39.2967740">
    <ele>112.5</ele>
    <time>2017-03-26T13:24:45Z</time>
   </trkpt>
   <trkpt lat="51.7276180" lon="39.2967450">
    <ele>112.3</ele>
    <time>2017-03-26T13:24:46Z</time>
   </trkpt>
   <trkpt lat="51.7275520" lon="39.2967270">
    <ele>112.1</ele>
    <time>2017-03-26T13:24:47Z</time>
   </trkpt>
   <trkpt lat="51.7274850" lon="39.2967110">
    <ele>111.9</ele>
    <time>2017-03-26T13:24:48Z</time>
   </trkpt>
   <trkpt lat="51.7257790" lon="39.2962830">
    <ele>110.0</ele>
    <time>2017-03-26T13:25:12Z</time>
   </trkpt>
   <trkpt lat="51.7239830" lon="39.2958210">
    <ele>108.1</ele>
    <time>2017-03-26T13:25:37Z</time>
   </trkpt>
   <trkpt lat="51.7224360" lon="39.2954170">
    <ele>110.1</ele>
    <time>2017-03-26T13:25:58Z</time>
   </trkpt>
   <trkpt lat="51.7214160" lon="39.2951380">
    <ele>108.0</ele>
    <time>2017-03-26T13:26:13Z</time>
   </trkpt>
   <trkpt lat="51.7196380" lon="39.2946410">
    <ele>109.9</ele>
    <time>2017-03-26T13:26:39Z</time>
   </trkpt>
   <trkpt lat="51.7181190" lon="39.2942340">
    <ele>112.1</ele>
    <time>2017-03-26T13:27:03Z</time>
   </trkpt>
   <trkpt lat="51.7167360" lon="39.2938700">
    <ele>110.6</ele>
    <time>2017-03-26T13:27:25Z</time>
   </trkpt>
   <trkpt lat="51.7154400" lon="39.2935400">
    <ele>110.1</ele>
    <time>2017-03-26T13:27:46Z</time>
   </trkpt>
   <trkpt lat="51.7141840" lon="39.2932260">
    <ele>108.9</ele>
    <time>2017-03-26T13:28:06Z</time>
   </trkpt>
   <trkpt lat="51.7128200" lon="39.2928680">
    <ele>109.7</ele>
    <time>2017-03-26T13:28:28Z</time>
   </trkpt>
   <trkpt lat="51.7116950" lon="39.2925730">
    <ele>108.6</ele>
    <time>2017-03-26T13:28:47Z</time>
   </trkpt>
   <trkpt lat="51.7109590" lon="39.2923920">
    <ele>109.7</ele>
    <time>2017-03-26T13:29:03Z</time>
   </trkpt>
   <trkpt lat="51.7101020" lon="39.2921800">
    <ele>111.2</ele>
    <time>2017-03-26T13:29:20Z</time>
   </trkpt>
   <trkpt lat="51.7090130" lon="39.2918990">
    <ele>111.5</ele>
    <time>2017-03-26T13:29:41Z</time>
   </trkpt>
   <trkpt lat="51.7080100" lon="39.2916400">
    <ele>112.4</ele>
    <time>2017-03-26T13:30:00Z</time>
   </trkpt>
   <trkpt lat="51.7068790" lon="39.2913640">
    <ele>116.0</ele>
    <time>2017-03-26T13:30:20Z</time>
   </trkpt>
   <trkpt lat="51.7058150" lon="39.2910980">
    <ele>114.1</ele>
    <time>2017-03-26T13:30:39Z</time>
   </trkpt>
   <trkpt lat="51.7045020" lon="39.2907700">
    <ele>115.7</ele>
    <time>2017-03-26T13:31:02Z</time>
   </trkpt>
   <trkpt lat="51.7033900" lon="39.2904760">
    <ele>114.7</ele>
    <time>2017-03-26T13:31:22Z</time>
   </trkpt>
   <trkpt lat="51.7029710" lon="39.2902750">
    <ele>116.2</ele>
    <time>2017-03-26T13:31:30Z</time>
   </trkpt>
   <trkpt lat="51.7023850" lon="39.2895170">
    <ele>118.0</ele>
    <time>2017-03-26T13:31:43Z</time>
   </trkpt>
   <trkpt lat="51.7021520" lon="39.2882780">
    <ele>118.6</ele>
    <time>2017-03-26T13:31:56Z</time>
   </trkpt>
   <trkpt lat="51.7022450" lon="39.2867090">
    <ele>120.5</ele>
    <time>2017-03-26T13:32:12Z</time>
   </trkpt>
   <trkpt lat="51.7023370" lon="39.2852440">
    <ele>119.2</ele>
    <time>2017-03-26T13:32:27Z</time>
   </trkpt>
   <trkpt lat="51.7024940" lon="39.2832930">
    <ele>113.8</ele>
    <time>2017-03-26T13:32:47Z</time>
   </trkpt>
   <trkpt lat="51.7026370" lon="39.2816360">
    <ele>112.1</ele>
    <time>2017-03-26T13:33:04Z</time>
   </trkpt>
   <trkpt lat="51.7028040" lon="39.2799810">
    <ele>108.8</ele>
    <time>2017-03-26T13:33:20Z</time>
   </trkpt>
   <trkpt lat="51.7029230" lon="39.2785830">
    <ele>109.0</ele>
    <time>2017-03-26T13:33:32Z</time>
   </trkpt>
   <trkpt lat="51.7030300" lon="39.2773880">
    <ele>109.7</ele>
    <time>2017-03-26T13:33:42Z</time>
   </trkpt>
   <trkpt lat="51.7030940" lon="39.2761330">
    <ele>108.0</ele>
    <time>2017-03-26T13:33:54Z</time>
   </trkpt>
   <trkpt lat="51.7031390" lon="39.2754200">
    <ele>107.0</ele>
    <time>2017-03-26T13:34:05Z</time>
   </trkpt>
   <trkpt lat="51.7031380" lon="39.2754200">
    <ele>107.0</ele>
    <time>2017-03-26T13:34:08Z</time>
   </trkpt>
   <trkpt lat="51.7031140" lon="39.2752760">
    <ele>107.0</ele>
    <time>2017-03-26T13:34:47Z</time>
   </trkpt>
   <trkpt lat="51.7031120" lon="39.2752210">
    <ele>107.0</ele>
    <time>2017-03-26T13:34:48Z</time>
   </trkpt>
   <trkpt lat="51.7031050" lon="39.2751630">
    <ele>107.0</ele>
    <time>2017-03-26T13:34:49Z</time>
   </trkpt>
   <trkpt lat="51.7030900" lon="39.2751070">
    <ele>107.0</ele>
    <time>2017-03-26T13:34:50Z</time>
   </trkpt>
   <trkpt lat="51.7030690" lon="39.2750590">
    <ele>107.0</ele>
    <time>2017-03-26T13:34:51Z</time>
   </trkpt>
   <trkpt lat="51.7030390" lon="39.2750180">
    <ele>107.1</ele>
    <time>2017-03-26T13:34:52Z</time>
   </trkpt>
   <trkpt lat="51.7030040" lon="39.2749880">
    <ele>107.1</ele>
    <time>2017-03-26T13:34:53Z</time>
   </trkpt>
   <trkpt lat="51.7029590" lon="39.2749690">
    <ele>107.2</ele>
    <time>2017-03-26T13:34:54Z</time>
   </trkpt>
   <trkpt lat="51.7029040" lon="39.2749530">
    <ele>107.3</ele>
    <time>2017-03-26T13:34:55Z</time>
   </trkpt>
   <trkpt lat="51.7020370" lon="39.2746750">
    <ele>108.9</ele>
    <time>2017-03-26T13:35:06Z</time>
   </trkpt>
   <trkpt lat="51.7009940" lon="39.2740870">
    <ele>108.4</ele>
    <time>2017-03-26T13:35:19Z</time>
   </trkpt>
   <trkpt lat="51.7008770" lon="39.2740360">
    <ele>108.4</ele>
    <time>2017-03-26T13:35:21Z</time>
   </trkpt>
   <trkpt lat="51.7008240" lon="39.2739970">
    <ele>108.3</ele>
    <time>2017-03-26T13:35:22Z</time>
   </trkpt>
   <trkpt lat="51.6998780" lon="39.2733220">
    <ele>108.8</ele>
    <time>2017-03-26T13:35:36Z</time>
   </trkpt>
   <trkpt lat="51.6984650" lon="39.2723740">
    <ele>111.6</ele>
    <time>2017-03-26T13:35:54Z</time>
   </trkpt>
   <trkpt lat="51.6979530" lon="39.2720310">
    <ele>111.9</ele>
    <time>2017-03-26T13:36:04Z</time>
   </trkpt>
   <trkpt lat="51.6979320" lon="39.2720060">
    <ele>111.9</ele>
    <time>2017-03-26T13:36:10Z</time>
   </trkpt>
   <trkpt lat="51.6978590" lon="39.2719640">
    <ele>112.0</ele>
    <time>2017-03-26T13:36:17Z</time>
   </trkpt>
   <trkpt lat="51.6978170" lon="39.2718690">
    <ele>112.0</ele>
    <time>2017-03-26T13:36:19Z</time>
   </trkpt>
   <trkpt lat="51.6978240" lon="39.2718290">
    <ele>112.0</ele>
    <time>2017-03-26T13:36:20Z</time>
   </trkpt>
   <trkpt lat="51.6978250" lon="39.2717900">
    <ele>112.0</ele>
    <time>2017-03-26T13:36:25Z</time>
   </trkpt>
   <trkpt lat="51.6978110" lon="39.2717790">
    <ele>112.0</ele>
    <time>2017-03-26T13:36:26Z</time>
   </trkpt>
   <trkpt lat="51.6977950" lon="39.2717680">
    <ele>112.0</ele>
    <time>2017-03-26T13:36:27Z</time>
   </trkpt>
   <trkpt lat="51.6977780" lon="39.2717540">
    <ele>112.0</ele>
    <time>2017-03-26T13:36:28Z</time>
   </trkpt>
   <trkpt lat="51.6977630" lon="39.2717400">
    <ele>112.0</ele>
    <time>2017-03-26T13:36:29Z</time>
   </trkpt>
   <trkpt lat="51.6976850" lon="39.2716310">
    <ele>112.0</ele>
    <time>2017-03-26T13:36:35Z</time>
   </trkpt>
   <trkpt lat="51.6976890" lon="39.2715290">
    <ele>112.0</ele>
    <time>2017-03-26T13:36:37Z</time>
   </trkpt>
   <trkpt lat="51.6976950" lon="39.2713730">
    <ele>111.9</ele>
    <time>2017-03-26T13:36:39Z</time>
   </trkpt>
   <trkpt lat="51.6976870" lon="39.2712940">
    <ele>112.0</ele>
    <time>2017-03-26T13:36:40Z</time>
   </trkpt>
   <trkpt lat="51.6976700" lon="39.2712330">
    <ele>112.0</ele>
    <time>2017-03-26T13:36:41Z</time>
   </trkpt>
   <trkpt lat="51.6976580" lon="39.2711760">
    <ele>112.0</ele>
    <time>2017-03-26T13:36:42Z</time>
   </trkpt>
   <trkpt lat="51.6976340" lon="39.2711340">
    <ele>112.0</ele>
    <time>2017-03-26T13:36:43Z</time>
   </trkpt>
   <trkpt lat="51.6975930" lon="39.2711000">
    <ele>111.9</ele>
    <time>2017-03-26T13:36:44Z</time>
   </trkpt>
   <trkpt lat="51.6975500" lon="39.2710690">
    <ele>112.0</ele>
    <time>2017-03-26T13:36:45Z</time>
   </trkpt>
   <trkpt lat="51.6975100" lon="39.2710390">
    <ele>112.0</ele>
    <time>2017-03-26T13:36:46Z</time>
   </trkpt>
   <trkpt lat="51.6968390" lon="39.2705550">
    <ele>109.5</ele>
    <time>2017-03-26T13:36:59Z</time>
   </trkpt>
   <trkpt lat="51.6965860" lon="39.2703010">
    <ele>108.5</ele>
    <time>2017-03-26T13:37:05Z</time>
   </trkpt>
   <trkpt lat="51.6965420" lon="39.2702420">
    <ele>108.5</ele>
    <time>2017-03-26T13:37:06Z</time>
   </trkpt>
   <trkpt lat="51.6965110" lon="39.2701790">
    <ele>108.4</ele>
    <time>2017-03-26T13:37:07Z</time>
   </trkpt>
   <trkpt lat="51.6964970" lon="39.2701170">
    <ele>108.3</ele>
    <time>2017-03-26T13:37:08Z</time>
   </trkpt>
   <trkpt lat="51.6965030" lon="39.2700560">
    <ele>108.3</ele>
    <time>2017-03-26T13:37:09Z</time>
   </trkpt>
   <trkpt lat="51.6965150" lon="39.2699990">
    <ele>108.4</ele>
    <time>2017-03-26T13:37:10Z</time>
   </trkpt>
   <trkpt lat="51.6965320" lon="39.2699390">
    <ele>108.6</ele>
    <time>2017-03-26T13:37:11Z</time>
   </trkpt>
   <trkpt lat="51.6965500" lon="39.2698760">
    <ele>108.7</ele>
    <time>2017-03-26T13:37:12Z</time>
   </trkpt>
   <trkpt lat="51.6965650" lon="39.2698040">
    <ele>108.8</ele>
    <time>2017-03-26T13:37:13Z</time>
   </trkpt>
   <trkpt lat="51.6965830" lon="39.2697340">
    <ele>109.0</ele>
    <time>2017-03-26T13:37:14Z</time>
   </trkpt>
   <trkpt lat="51.6966010" lon="39.2696670">
    <ele>109.0</ele>
    <time>2017-03-26T13:37:15Z</time>
   </trkpt>
   <trkpt lat="51.6966140" lon="39.2695970">
    <ele>109.0</ele>
    <time>2017-03-26T13:37:16Z</time>
   </trkpt>
   <trkpt lat="51.6966240" lon="39.2695210">
    <ele>109.0</ele>
    <time>2017-03-26T13:37:17Z</time>
   </trkpt>
   <trkpt lat="51.6966610" lon="39.2692940">
    <ele>109.2</ele>
    <time>2017-03-26T13:37:20Z</time>
   </trkpt>
   <trkpt lat="51.6966950" lon="39.2691500">
    <ele>109.7</ele>
    <time>2017-03-26T13:37:22Z</time>
   </trkpt>
   <trkpt lat="51.6967040" lon="39.2690740">
    <ele>110.0</ele>
    <time>2017-03-26T13:37:23Z</time>
   </trkpt>
   <trkpt lat="51.6967050" lon="39.2689970">
    <ele>110.3</ele>
    <time>2017-03-26T13:37:24Z</time>
   </trkpt>
   <trkpt lat="51.6966930" lon="39.2689210">
    <ele>110.6</ele>
    <time>2017-03-26T13:37:25Z</time>
   </trkpt>
   <trkpt lat="51.6966820" lon="39.2688390">
    <ele>110.9</ele>
    <time>2017-03-26T13:37:26Z</time>
   </trkpt>
   <trkpt lat="51.6966820" lon="39.2687540">
    <ele>110.9</ele>
    <time>2017-03-26T13:37:27Z</time>
   </trkpt>
   <trkpt lat="51.6966890" lon="39.2686720">
    <ele>110.1</ele>
    <time>2017-03-26T13:37:28Z</time>
   </trkpt>
   <trkpt lat="51.6967010" lon="39.2685870">
    <ele>110.3</ele>
    <time>2017-03-26T13:37:29Z</time>
   </trkpt>
   <trkpt lat="51.6967140" lon="39.2685010">
    <ele>110.6</ele>
    <time>2017-03-26T13:37:30Z</time>
   </trkpt>
   <trkpt lat="51.6967420" lon="39.2683370">
    <ele>110.8</ele>
    <time>2017-03-26T13:37:32Z</time>
   </trkpt>
   <trkpt lat="51.6967830" lon="39.2680970">
    <ele>109.2</ele>
    <time>2017-03-26T13:37:36Z</time>
   </trkpt>
   <trkpt lat="51.6967890" lon="39.2680350">
    <ele>109.0</ele>
    <time>2017-03-26T13:37:37Z</time>
   </trkpt>
   <trkpt lat="51.6968070" lon="39.2679690">
    <ele>109.0</ele>
    <time>2017-03-26T13:37:38Z</time>
   </trkpt>
   <trkpt lat="51.6968270" lon="39.2679080">
    <ele>109.0</ele>
    <time>2017-03-26T13:37:39Z</time>
   </trkpt>
   <trkpt lat="51.6968400" lon="39.2678420">
    <ele>109.0</ele>
    <time>2017-03-26T13:37:40Z</time>
   </trkpt>
   <trkpt lat="51.6968300" lon="39.2677770">
    <ele>108.7</ele>
    <time>2017-03-26T13:37:41Z</time>
   </trkpt>
   <trkpt lat="51.6967990" lon="39.2677210">
    <ele>108.4</ele>
    <time>2017-03-26T13:37:42Z</time>
   </trkpt>
   <trkpt lat="51.6967100" lon="39.2676340">
    <ele>108.1</ele>
    <time>2017-03-26T13:37:44Z</time>
   </trkpt>
   <trkpt lat="51.6966100" lon="39.2675520">
    <ele>108.3</ele>
    <time>2017-03-26T13:37:46Z</time>
   </trkpt>
   <trkpt lat="51.6965650" lon="39.2675070">
    <ele>108.4</ele>
    <time>2017-03-26T13:37:47Z</time>
   </trkpt>
   <trkpt lat="51.6962180" lon="39.2671720">
    <ele>107.9</ele>
    <time>2017-03-26T13:37:55Z</time>
   </trkpt>
   <trkpt lat="51.6961760" lon="39.2671200">
    <ele>107.7</ele>
    <time>2017-03-26T13:37:56Z</time>
   </trkpt>
   <trkpt lat="51.6961350" lon="39.2670740">
    <ele>107.5</ele>
    <time>2017-03-26T13:37:57Z</time>
   </trkpt>
   <trkpt lat="51.6960940" lon="39.2670410">
    <ele>107.4</ele>
    <time>2017-03-26T13:37:58Z</time>
   </trkpt>
   <trkpt lat="51.6960510" lon="39.2670140">
    <ele>107.3</ele>
    <time>2017-03-26T13:37:59Z</time>
   </trkpt>
   <trkpt lat="51.6958060" lon="39.2669020">
    <ele>106.3</ele>
    <time>2017-03-26T13:38:05Z</time>
   </trkpt>
   <trkpt lat="51.6957720" lon="39.2668760">
    <ele>106.1</ele>
    <time>2017-03-26T13:38:06Z</time>
   </trkpt>
   <trkpt lat="51.6957270" lon="39.2668410">
    <ele>106.0</ele>
    <time>2017-03-26T13:38:07Z</time>
   </trkpt>
   <trkpt lat="51.6956330" lon="39.2667730">
    <ele>106.0</ele>
    <time>2017-03-26T13:38:09Z</time>
   </trkpt>
   <trkpt lat="51.6954430" lon="39.2666160">
    <ele>106.0</ele>
    <time>2017-03-26T13:38:13Z</time>
   </trkpt>
   <trkpt lat="51.6952840" lon="39.2665060">
    <ele>105.8</ele>
    <time>2017-03-26T13:38:16Z</time>
   </trkpt>
   <trkpt lat="51.6952350" lon="39.2664670">
    <ele>105.7</ele>
    <time>2017-03-26T13:38:17Z</time>
   </trkpt>
   <trkpt lat="51.6951300" lon="39.2663590">
    <ele>105.4</ele>
    <time>2017-03-26T13:38:20Z</time>
   </trkpt>
   <trkpt lat="51.6951150" lon="39.2663070">
    <ele>105.3</ele>
    <time>2017-03-26T13:38:21Z</time>
   </trkpt>
   <trkpt lat="51.6951140" lon="39.2662580">
    <ele>105.1</ele>
    <time>2017-03-26T13:38:22Z</time>
   </trkpt>
   <trkpt lat="51.6951210" lon="39.2662200">
    <ele>105.0</ele>
    <time>2017-03-26T13:38:23Z</time>
   </trkpt>
   <trkpt lat="51.6951340" lon="39.2661940">
    <ele>105.0</ele>
    <time>2017-03-26T13:38:24Z</time>
   </trkpt>
   <trkpt lat="51.6951280" lon="39.2661650">
    <ele>105.0</ele>
    <time>2017-03-26T13:38:25Z</time>
   </trkpt>
   <trkpt lat="51.6951250" lon="39.2661550">
    <ele>105.0</ele>
    <time>2017-03-26T13:38:29Z</time>
   </trkpt>
  </trkseg>
 </trk>
</gpx>
